<?xml version='1.0' encoding='UTF-8'?><gpx version="1.1" creator="JPX - https://github.com/jenetics/jpx" xmlns="http://www.topografix.com/GPX/1/1"><trk><trkseg><trkpt lat="43.9628999948088" lon="12.762512433267734"><ele>76.0</ele><time>2026-04-26T07:14:43Z</time></trkpt><trkpt lat="43.9629195123813" lon="12.762411830900664"><ele>76.0</ele><time>2026-04-26T07:14:44Z</time></trkpt><trkpt lat="43.962948901888566" lon="12.762295365057463"><ele>76.0</ele><time>2026-04-26T07:14:45Z</time></trkpt><trkpt lat="43.96298697917012" lon="12.76216054644357"><ele>76.0</ele><time>2026-04-26T07:14:46Z</time></trkpt><trkpt lat="43.96304006042997" lon="12.762011298032444"><ele>76.0</ele><time>2026-04-26T07:14:47Z</time></trkpt><trkpt lat="43.96310709464649" lon="12.761851978165021"><ele>75.25</ele><time>2026-04-26T07:14:48Z</time></trkpt><trkpt lat="43.96317502181791" lon="12.76168745216977"><ele>74.5</ele><time>2026-04-26T07:14:49Z</time></trkpt><trkpt lat="43.96324404982778" lon="12.761527259374235"><ele>73.75</ele><time>2026-04-26T07:14:50Z</time></trkpt><trkpt lat="43.96330142312436" lon="12.761387349743016"><ele>73.0</ele><time>2026-04-26T07:14:51Z</time></trkpt><trkpt lat="43.96334958802845" lon="12.76125675985595"><ele>71.5</ele><time>2026-04-26T07:14:52Z</time></trkpt><trkpt lat="43.96337746994336" lon="12.761128855027502"><ele>70.0</ele><time>2026-04-26T07:14:53Z</time></trkpt><trkpt lat="43.96337962796878" lon="12.761012008911685"><ele>68.5</ele><time>2026-04-26T07:14:54Z</time></trkpt><trkpt lat="43.963367645785695" lon="12.760914282432319"><ele>67.0</ele><time>2026-04-26T07:14:55Z</time></trkpt><trkpt lat="43.96333004830384" lon="12.760815957499593"><ele>65.5</ele><time>2026-04-26T07:14:56Z</time></trkpt><trkpt lat="43.96326455874024" lon="12.760747716436255"><ele>64.0</ele><time>2026-04-26T07:14:57Z</time></trkpt><trkpt lat="43.96320357180113" lon="12.76067406152144"><ele>64.0</ele><time>2026-04-26T07:14:58Z</time></trkpt><trkpt lat="43.9630985219847" lon="12.76067398769561"><ele>64.0</ele><time>2026-04-26T07:14:59Z</time></trkpt><trkpt lat="43.963014789716915" lon="12.760690767517419"><ele>64.0</ele><time>2026-04-26T07:15:00Z</time></trkpt><trkpt lat="43.962924538996816" lon="12.760740398049139"><ele>64.0</ele><time>2026-04-26T07:15:01Z</time></trkpt><trkpt lat="43.96283269748592" lon="12.760824734278833"><ele>64.0</ele><time>2026-04-26T07:15:02Z</time></trkpt><trkpt lat="43.96274645058872" lon="12.760952138296382"><ele>62.5</ele><time>2026-04-26T07:15:03Z</time></trkpt><trkpt lat="43.96266101899114" lon="12.76109948377365"><ele>61.0</ele><time>2026-04-26T07:15:04Z</time></trkpt><trkpt lat="43.962565755267846" lon="12.761249754646007"><ele>59.5</ele><time>2026-04-26T07:15:05Z</time></trkpt><trkpt lat="43.96246524110344" lon="12.761410631787882"><ele>58.0</ele><time>2026-04-26T07:15:06Z</time></trkpt><trkpt lat="43.96235973351797" lon="12.761581419270648"><ele>58.0</ele><time>2026-04-26T07:15:07Z</time></trkpt><trkpt lat="43.96225388308962" lon="12.761755037269438"><ele>58.0</ele><time>2026-04-26T07:15:08Z</time></trkpt><trkpt lat="43.96214210145069" lon="12.761931321452225"><ele>58.0</ele><time>2026-04-26T07:15:09Z</time></trkpt><trkpt lat="43.9620276176893" lon="12.76211320449153"><ele>60.666666666666664</ele><time>2026-04-26T07:15:10Z</time></trkpt><trkpt lat="43.961907855639474" lon="12.762295669048502"><ele>63.33333333333333</ele><time>2026-04-26T07:15:11Z</time></trkpt><trkpt lat="43.96178375723331" lon="12.762491058967377"><ele>66.0</ele><time>2026-04-26T07:15:12Z</time></trkpt><trkpt lat="43.961653486524945" lon="12.762697707817047"><ele>61.66666666666667</ele><time>2026-04-26T07:15:13Z</time></trkpt><trkpt lat="43.961519855433615" lon="12.76291033624527"><ele>57.333333333333336</ele><time>2026-04-26T07:15:14Z</time></trkpt><trkpt lat="43.9613849731275" lon="12.76311838745186"><ele>53.0</ele><time>2026-04-26T07:15:15Z</time></trkpt><trkpt lat="43.96125063491704" lon="12.763326715862638"><ele>53.0</ele><time>2026-04-26T07:15:16Z</time></trkpt><trkpt lat="43.961120205946344" lon="12.763533869624773"><ele>53.0</ele><time>2026-04-26T07:15:17Z</time></trkpt><trkpt lat="43.960999943687355" lon="12.763725090166789"><ele>53.0</ele><time>2026-04-26T07:15:18Z</time></trkpt><trkpt lat="43.96088416436777" lon="12.763902899336523"><ele>49.333333333333336</ele><time>2026-04-26T07:15:19Z</time></trkpt><trkpt lat="43.96077612056457" lon="12.764069468890707"><ele>45.66666666666667</ele><time>2026-04-26T07:15:20Z</time></trkpt><trkpt lat="43.96067160758476" lon="12.764222598357016"><ele>42.0</ele><time>2026-04-26T07:15:21Z</time></trkpt><trkpt lat="43.96056217036258" lon="12.764359352018227"><ele>41.0</ele><time>2026-04-26T07:15:22Z</time></trkpt><trkpt lat="43.960436281555246" lon="12.764448504043083"><ele>40.0</ele><time>2026-04-26T07:15:23Z</time></trkpt><trkpt lat="43.960310076151146" lon="12.764534458494264"><ele>39.0</ele><time>2026-04-26T07:15:24Z</time></trkpt><trkpt lat="43.96016874170833" lon="12.764608388969556"><ele>38.0</ele><time>2026-04-26T07:15:25Z</time></trkpt><trkpt lat="43.960013827667744" lon="12.764678738945241"><ele>38.0</ele><time>2026-04-26T07:15:26Z</time></trkpt><trkpt lat="43.95985563039651" lon="12.764769688437353"><ele>38.0</ele><time>2026-04-26T07:15:27Z</time></trkpt><trkpt lat="43.959688571580635" lon="12.764834237976947"><ele>38.0</ele><time>2026-04-26T07:15:28Z</time></trkpt><trkpt lat="43.959521856814526" lon="12.764901077206597"><ele>38.0</ele><time>2026-04-26T07:15:29Z</time></trkpt><trkpt lat="43.95935618404361" lon="12.76496948650788"><ele>38.0</ele><time>2026-04-26T07:15:30Z</time></trkpt><trkpt lat="43.959193788682946" lon="12.765041315049155"><ele>38.0</ele><time>2026-04-26T07:15:31Z</time></trkpt><trkpt lat="43.95903249078241" lon="12.765111142144612"><ele>36.33333333333333</ele><time>2026-04-26T07:15:32Z</time></trkpt><trkpt lat="43.95887136150078" lon="12.765178004081065"><ele>34.666666666666664</ele><time>2026-04-26T07:15:33Z</time></trkpt><trkpt lat="43.95870909406956" lon="12.765244143470014"><ele>33.0</ele><time>2026-04-26T07:15:34Z</time></trkpt><trkpt lat="43.95855622412869" lon="12.765313164747322"><ele>33.0</ele><time>2026-04-26T07:15:35Z</time></trkpt><trkpt lat="43.95841229439454" lon="12.76538337400003"><ele>33.0</ele><time>2026-04-26T07:15:36Z</time></trkpt><trkpt lat="43.95827265535786" lon="12.76545287709904"><ele>33.0</ele><time>2026-04-26T07:15:37Z</time></trkpt><trkpt lat="43.95813565016997" lon="12.765518266438004"><ele>33.0</ele><time>2026-04-26T07:15:38Z</time></trkpt><trkpt lat="43.957997674755255" lon="12.76557959993287"><ele>31.4</ele><time>2026-04-26T07:15:39Z</time></trkpt><trkpt lat="43.957870622881806" lon="12.765629311383957"><ele>29.799999999999997</ele><time>2026-04-26T07:15:40Z</time></trkpt><trkpt lat="43.957756755709234" lon="12.765671371555717"><ele>28.2</ele><time>2026-04-26T07:15:41Z</time></trkpt><trkpt lat="43.957653773013504" lon="12.765666863237314"><ele>26.6</ele><time>2026-04-26T07:15:42Z</time></trkpt><trkpt lat="43.95755777257333" lon="12.76565583047231"><ele>25.0</ele><time>2026-04-26T07:15:43Z</time></trkpt><trkpt lat="43.95748004021035" lon="12.76563300657939"><ele>23.6</ele><time>2026-04-26T07:15:44Z</time></trkpt><trkpt lat="43.9574064998334" lon="12.765617845663426"><ele>22.2</ele><time>2026-04-26T07:15:45Z</time></trkpt><trkpt lat="43.95734250603842" lon="12.765573171689885"><ele>20.8</ele><time>2026-04-26T07:15:46Z</time></trkpt><trkpt lat="43.95725027891046" lon="12.765485998487678"><ele>19.4</ele><time>2026-04-26T07:15:48Z</time></trkpt><trkpt lat="43.95720586781868" lon="12.765549330621305"><ele>18.0</ele><time>2026-04-26T07:15:49Z</time></trkpt><trkpt lat="43.95713222946722" lon="12.765698549568823"><ele>18.0</ele><time>2026-04-26T07:15:51Z</time></trkpt><trkpt lat="43.95709323203624" lon="12.765809487034575"><ele>18.0</ele><time>2026-04-26T07:15:52Z</time></trkpt><trkpt lat="43.95704005869814" lon="12.765917493994273"><ele>18.0</ele><time>2026-04-26T07:15:53Z</time></trkpt><trkpt lat="43.956961991853696" lon="12.765984832963559"><ele>18.0</ele><time>2026-04-26T07:15:54Z</time></trkpt><trkpt lat="43.95688667777434" lon="12.766011300266847"><ele>18.0</ele><time>2026-04-26T07:15:55Z</time></trkpt><trkpt lat="43.95681921206297" lon="12.766011199316235"><ele>18.0</ele><time>2026-04-26T07:15:56Z</time></trkpt><trkpt lat="43.95670524137303" lon="12.765944764808445"><ele>17.0</ele><time>2026-04-26T07:15:58Z</time></trkpt><trkpt lat="43.95664605739309" lon="12.765846436777219"><ele>16.0</ele><time>2026-04-26T07:16:01Z</time></trkpt><trkpt lat="43.956638921173436" lon="12.765628850438603"><ele>15.0</ele><time>2026-04-26T07:16:03Z</time></trkpt><trkpt lat="43.95665076253181" lon="12.765478715879276"><ele>14.0</ele><time>2026-04-26T07:16:04Z</time></trkpt><trkpt lat="43.95667016271461" lon="12.765318916083665"><ele>13.75</ele><time>2026-04-26T07:16:05Z</time></trkpt><trkpt lat="43.95668011976027" lon="12.765145925234753"><ele>13.5</ele><time>2026-04-26T07:16:06Z</time></trkpt><trkpt lat="43.956680178401186" lon="12.764962168515064"><ele>13.25</ele><time>2026-04-26T07:16:07Z</time></trkpt><trkpt lat="43.95666894088592" lon="12.764777136189997"><ele>13.0</ele><time>2026-04-26T07:16:08Z</time></trkpt><trkpt lat="43.956642230933696" lon="12.764584421092419"><ele>13.0</ele><time>2026-04-26T07:16:09Z</time></trkpt><trkpt lat="43.95660659878854" lon="12.76438474592457"><ele>13.0</ele><time>2026-04-26T07:16:10Z</time></trkpt><trkpt lat="43.95655860940436" lon="12.764185618539454"><ele>13.0</ele><time>2026-04-26T07:16:11Z</time></trkpt><trkpt lat="43.95649589069588" lon="12.763998286588043"><ele>13.0</ele><time>2026-04-26T07:16:12Z</time></trkpt><trkpt lat="43.956418605073196" lon="12.763809200655034"><ele>13.666666666666666</ele><time>2026-04-26T07:16:13Z</time></trkpt><trkpt lat="43.95632429928046" lon="12.763630444258531"><ele>14.333333333333332</ele><time>2026-04-26T07:16:14Z</time></trkpt><trkpt lat="43.95621402283348" lon="12.763460549307373"><ele>15.0</ele><time>2026-04-26T07:16:15Z</time></trkpt><trkpt lat="43.95608968656839" lon="12.763298279140779"><ele>15.0</ele><time>2026-04-26T07:16:16Z</time></trkpt><trkpt lat="43.95595352454897" lon="12.76314851931812"><ele>15.0</ele><time>2026-04-26T07:16:17Z</time></trkpt><trkpt lat="43.95580949785354" lon="12.763003021399271"><ele>15.0</ele><time>2026-04-26T07:16:18Z</time></trkpt><trkpt lat="43.95566331943681" lon="12.762854725651446"><ele>13.666666666666666</ele><time>2026-04-26T07:16:19Z</time></trkpt><trkpt lat="43.95551463636367" lon="12.762709470367"><ele>12.333333333333332</ele><time>2026-04-26T07:16:20Z</time></trkpt><trkpt lat="43.95536479221456" lon="12.762563173901093"><ele>11.0</ele><time>2026-04-26T07:16:21Z</time></trkpt><trkpt lat="43.95521534080813" lon="12.762414147540657"><ele>11.0</ele><time>2026-04-26T07:16:22Z</time></trkpt><trkpt lat="43.955067467031924" lon="12.762270806433047"><ele>11.0</ele><time>2026-04-26T07:16:23Z</time></trkpt><trkpt lat="43.95492329382342" lon="12.762123650583543"><ele>11.0</ele><time>2026-04-26T07:16:24Z</time></trkpt><trkpt lat="43.95478701135983" lon="12.761973553653133"><ele>10.333333333333332</ele><time>2026-04-26T07:16:25Z</time></trkpt><trkpt lat="43.954658927063996" lon="12.761811844764177"><ele>9.666666666666666</ele><time>2026-04-26T07:16:26Z</time></trkpt><trkpt lat="43.954538302516156" lon="12.761646937244718"><ele>9.0</ele><time>2026-04-26T07:16:27Z</time></trkpt><trkpt lat="43.954423442614825" lon="12.761477448780258"><ele>9.0</ele><time>2026-04-26T07:16:28Z</time></trkpt><trkpt lat="43.95431631536391" lon="12.76129445592009"><ele>9.0</ele><time>2026-04-26T07:16:29Z</time></trkpt><trkpt lat="43.95422028091851" lon="12.76109844722449"><ele>9.0</ele><time>2026-04-26T07:16:30Z</time></trkpt><trkpt lat="43.95415274986305" lon="12.76087570286258"><ele>9.0</ele><time>2026-04-26T07:16:31Z</time></trkpt><trkpt lat="43.954066304538976" lon="12.760660215743012"><ele>9.0</ele><time>2026-04-26T07:16:32Z</time></trkpt><trkpt lat="43.95400486732036" lon="12.760425004854701"><ele>9.0</ele><time>2026-04-26T07:16:33Z</time></trkpt><trkpt lat="43.95396983466529" lon="12.760174882264355"><ele>9.0</ele><time>2026-04-26T07:16:34Z</time></trkpt><trkpt lat="43.95392436317249" lon="12.75992980580535"><ele>9.0</ele><time>2026-04-26T07:16:35Z</time></trkpt><trkpt lat="43.953882957007" lon="12.759681735596827"><ele>9.0</ele><time>2026-04-26T07:16:36Z</time></trkpt><trkpt lat="43.95382815754314" lon="12.759433697046768"><ele>9.0</ele><time>2026-04-26T07:16:37Z</time></trkpt><trkpt lat="43.95381061211351" lon="12.75917541731568"><ele>9.0</ele><time>2026-04-26T07:16:38Z</time></trkpt><trkpt lat="43.95377742698536" lon="12.758917419145478"><ele>9.0</ele><time>2026-04-26T07:16:39Z</time></trkpt><trkpt lat="43.95372952936885" lon="12.758661533772154"><ele>9.333333333333334</ele><time>2026-04-26T07:16:40Z</time></trkpt><trkpt lat="43.953701173016476" lon="12.758400452166244"><ele>9.666666666666668</ele><time>2026-04-26T07:16:41Z</time></trkpt><trkpt lat="43.953671560169035" lon="12.75813487034827"><ele>10.0</ele><time>2026-04-26T07:16:42Z</time></trkpt><trkpt lat="43.95364092046659" lon="12.757869334870913"><ele>9.666666666666668</ele><time>2026-04-26T07:16:43Z</time></trkpt><trkpt lat="43.95360696230595" lon="12.757607368612037"><ele>9.333333333333334</ele><time>2026-04-26T07:16:44Z</time></trkpt><trkpt lat="43.953572597227236" lon="12.75734229090467"><ele>9.0</ele><time>2026-04-26T07:16:45Z</time></trkpt><trkpt lat="43.95353664444898" lon="12.757075235512044"><ele>8.666666666666666</ele><time>2026-04-26T07:16:46Z</time></trkpt><trkpt lat="43.95350090571094" lon="12.75680546642437"><ele>8.333333333333332</ele><time>2026-04-26T07:16:47Z</time></trkpt><trkpt lat="43.95346445250759" lon="12.756535421128685"><ele>8.0</ele><time>2026-04-26T07:16:48Z</time></trkpt><trkpt lat="43.953430588888" lon="12.756264439990224"><ele>8.0</ele><time>2026-04-26T07:16:49Z</time></trkpt><trkpt lat="43.953416748679885" lon="12.755987704499674"><ele>8.0</ele><time>2026-04-26T07:16:50Z</time></trkpt><trkpt lat="43.95339090206049" lon="12.755717612992301"><ele>8.0</ele><time>2026-04-26T07:16:51Z</time></trkpt><trkpt lat="43.95335329528531" lon="12.755445008841251"><ele>8.333333333333332</ele><time>2026-04-26T07:16:52Z</time></trkpt><trkpt lat="43.95333416476551" lon="12.755169864413423"><ele>8.666666666666666</ele><time>2026-04-26T07:16:53Z</time></trkpt><trkpt lat="43.953309116969244" lon="12.754892043771367"><ele>9.0</ele><time>2026-04-26T07:16:54Z</time></trkpt><trkpt lat="43.953289983541936" lon="12.754621661763522"><ele>9.333333333333334</ele><time>2026-04-26T07:16:55Z</time></trkpt><trkpt lat="43.95327643160463" lon="12.754353357172102"><ele>9.666666666666668</ele><time>2026-04-26T07:16:56Z</time></trkpt><trkpt lat="43.9532644682214" lon="12.754085229537287"><ele>10.0</ele><time>2026-04-26T07:16:57Z</time></trkpt><trkpt lat="43.95325336045175" lon="12.753815988630874"><ele>10.0</ele><time>2026-04-26T07:16:58Z</time></trkpt><trkpt lat="43.95324025921574" lon="12.75354194931746"><ele>10.0</ele><time>2026-04-26T07:16:59Z</time></trkpt><trkpt lat="43.95322817017382" lon="12.753263696244195"><ele>10.0</ele><time>2026-04-26T07:17:00Z</time></trkpt><trkpt lat="43.95321848255083" lon="12.752987161124722"><ele>11.0</ele><time>2026-04-26T07:17:01Z</time></trkpt><trkpt lat="43.95321263660064" lon="12.75271257664284"><ele>12.0</ele><time>2026-04-26T07:17:02Z</time></trkpt><trkpt lat="43.953207044559115" lon="12.752434298435372"><ele>13.0</ele><time>2026-04-26T07:17:03Z</time></trkpt><trkpt lat="43.95320604835759" lon="12.752157015869042"><ele>13.0</ele><time>2026-04-26T07:17:04Z</time></trkpt><trkpt lat="43.95320738262829" lon="12.751880075845115"><ele>13.0</ele><time>2026-04-26T07:17:05Z</time></trkpt><trkpt lat="43.953208185625485" lon="12.751593471756433"><ele>13.0</ele><time>2026-04-26T07:17:06Z</time></trkpt><trkpt lat="43.95320914608055" lon="12.751312734514618"><ele>12.666666666666666</ele><time>2026-04-26T07:17:07Z</time></trkpt><trkpt lat="43.953217063525706" lon="12.751029573744935"><ele>12.333333333333332</ele><time>2026-04-26T07:17:08Z</time></trkpt><trkpt lat="43.953220695777965" lon="12.75074172128115"><ele>12.0</ele><time>2026-04-26T07:17:09Z</time></trkpt><trkpt lat="43.953220741814434" lon="12.750460493524685"><ele>11.333333333333334</ele><time>2026-04-26T07:17:10Z</time></trkpt><trkpt lat="43.95321822606354" lon="12.750188861743819"><ele>10.666666666666668</ele><time>2026-04-26T07:17:11Z</time></trkpt><trkpt lat="43.953218659118676" lon="12.74993861762387"><ele>10.0</ele><time>2026-04-26T07:17:12Z</time></trkpt><trkpt lat="43.95322126878229" lon="12.749709868039862"><ele>10.0</ele><time>2026-04-26T07:17:13Z</time></trkpt><trkpt lat="43.95322568457554" lon="12.749498751126048"><ele>10.0</ele><time>2026-04-26T07:17:14Z</time></trkpt><trkpt lat="43.95323132890061" lon="12.74930195070928"><ele>10.0</ele><time>2026-04-26T07:17:15Z</time></trkpt><trkpt lat="43.953235956963965" lon="12.749112776811323"><ele>10.0</ele><time>2026-04-26T07:17:16Z</time></trkpt><trkpt lat="43.95323335714029" lon="12.748938330430251"><ele>10.0</ele><time>2026-04-26T07:17:17Z</time></trkpt><trkpt lat="43.95323705610433" lon="12.748762270764715"><ele>10.0</ele><time>2026-04-26T07:17:18Z</time></trkpt><trkpt lat="43.95324506067682" lon="12.748582141149525"><ele>10.0</ele><time>2026-04-26T07:17:19Z</time></trkpt><trkpt lat="43.953239033331094" lon="12.748398972723216"><ele>10.0</ele><time>2026-04-26T07:17:20Z</time></trkpt><trkpt lat="43.95323128792276" lon="12.748205979905375"><ele>10.0</ele><time>2026-04-26T07:17:21Z</time></trkpt><trkpt lat="43.95322307923495" lon="12.748007489834183"><ele>10.0</ele><time>2026-04-26T07:17:22Z</time></trkpt><trkpt lat="43.95321609225154" lon="12.747814009665165"><ele>10.0</ele><time>2026-04-26T07:17:23Z</time></trkpt><trkpt lat="43.95320893193686" lon="12.74767062770954"><ele>10.0</ele><time>2026-04-26T07:17:24Z</time></trkpt><trkpt lat="43.95319998918041" lon="12.747574878979375"><ele>10.0</ele><time>2026-04-26T07:17:26Z</time></trkpt><trkpt lat="43.95309937909554" lon="12.747712128124208"><ele>10.0</ele><time>2026-04-26T07:17:29Z</time></trkpt><trkpt lat="43.9530887741966" lon="12.747809650548335"><ele>10.0</ele><time>2026-04-26T07:17:30Z</time></trkpt><trkpt lat="43.953106082978294" lon="12.74795892917307"><ele>10.0</ele><time>2026-04-26T07:17:31Z</time></trkpt><trkpt lat="43.95313230679007" lon="12.748155448731692"><ele>10.0</ele><time>2026-04-26T07:17:32Z</time></trkpt><trkpt lat="43.95315213380345" lon="12.748405101702827"><ele>10.0</ele><time>2026-04-26T07:17:33Z</time></trkpt><trkpt lat="43.95316465500976" lon="12.748709872226327"><ele>10.0</ele><time>2026-04-26T07:17:34Z</time></trkpt><trkpt lat="43.953174854628074" lon="12.749071176998457"><ele>10.0</ele><time>2026-04-26T07:17:35Z</time></trkpt><trkpt lat="43.95317977286087" lon="12.74941364242575"><ele>10.0</ele><time>2026-04-26T07:17:36Z</time></trkpt><trkpt lat="43.953170489834974" lon="12.749698612545417"><ele>10.0</ele><time>2026-04-26T07:17:37Z</time></trkpt><trkpt lat="43.953169120525224" lon="12.749908367496099"><ele>10.0</ele><time>2026-04-26T07:17:38Z</time></trkpt><trkpt lat="43.953181029473846" lon="12.750055616962797"><ele>10.0</ele><time>2026-04-26T07:17:39Z</time></trkpt><trkpt lat="43.95318609217408" lon="12.750205574473549"><ele>10.0</ele><time>2026-04-26T07:17:40Z</time></trkpt><trkpt lat="43.95319109863281" lon="12.750339022386383"><ele>9.8</ele><time>2026-04-26T07:17:41Z</time></trkpt><trkpt lat="43.95319378980621" lon="12.750440805100082"><ele>9.6</ele><time>2026-04-26T07:17:42Z</time></trkpt><trkpt lat="43.9532037850939" lon="12.75054185891025"><ele>9.4</ele><time>2026-04-26T07:17:43Z</time></trkpt><trkpt lat="43.953265740084795" lon="12.750676995647266"><ele>9.2</ele><time>2026-04-26T07:17:45Z</time></trkpt><trkpt lat="43.95336589047405" lon="12.75065432676573"><ele>9.0</ele><time>2026-04-26T07:17:47Z</time></trkpt><trkpt lat="43.95345936291876" lon="12.750578933561485"><ele>9.0</ele><time>2026-04-26T07:17:49Z</time></trkpt><trkpt lat="43.9535232368495" lon="12.750492274022447"><ele>9.0</ele><time>2026-04-26T07:17:51Z</time></trkpt><trkpt lat="43.95356672363037" lon="12.750428613230802"><ele>9.0</ele><time>2026-04-26T07:17:53Z</time></trkpt><trkpt lat="43.953561049362214" lon="12.750323301032791"><ele>9.0</ele><time>2026-04-26T07:19:51Z</time></trkpt><trkpt lat="43.95344942400816" lon="12.750206155648694"><ele>9.0</ele><time>2026-04-26T07:19:53Z</time></trkpt><trkpt lat="43.95337927979109" lon="12.75013256322836"><ele>9.2</ele><time>2026-04-26T07:19:54Z</time></trkpt><trkpt lat="43.95331974253643" lon="12.750052045492382"><ele>9.4</ele><time>2026-04-26T07:19:55Z</time></trkpt><trkpt lat="43.95327876962971" lon="12.749960487292832"><ele>9.6</ele><time>2026-04-26T07:19:56Z</time></trkpt><trkpt lat="43.95324929550588" lon="12.749843792029996"><ele>9.8</ele><time>2026-04-26T07:19:57Z</time></trkpt><trkpt lat="43.953245125164145" lon="12.749704606571148"><ele>10.0</ele><time>2026-04-26T07:19:58Z</time></trkpt><trkpt lat="43.95325025491575" lon="12.749547506384474"><ele>9.75</ele><time>2026-04-26T07:19:59Z</time></trkpt><trkpt lat="43.95325105027151" lon="12.74936975228965"><ele>9.5</ele><time>2026-04-26T07:20:00Z</time></trkpt><trkpt lat="43.95325304757193" lon="12.749176288958177"><ele>9.25</ele><time>2026-04-26T07:20:01Z</time></trkpt><trkpt lat="43.953250667700644" lon="12.748990414489054"><ele>9.0</ele><time>2026-04-26T07:20:02Z</time></trkpt><trkpt lat="43.95324448112199" lon="12.74879466278614"><ele>9.0</ele><time>2026-04-26T07:20:03Z</time></trkpt><trkpt lat="43.953238814618786" lon="12.748584557716594"><ele>9.0</ele><time>2026-04-26T07:20:04Z</time></trkpt><trkpt lat="43.953229139079795" lon="12.748362043143475"><ele>9.0</ele><time>2026-04-26T07:20:05Z</time></trkpt><trkpt lat="43.953236412678294" lon="12.748132133322079"><ele>9.333333333333334</ele><time>2026-04-26T07:20:06Z</time></trkpt><trkpt lat="43.95322871384251" lon="12.747892832815547"><ele>9.666666666666668</ele><time>2026-04-26T07:20:07Z</time></trkpt><trkpt lat="43.95321487614784" lon="12.747650845972434"><ele>10.0</ele><time>2026-04-26T07:20:08Z</time></trkpt><trkpt lat="43.953200802313994" lon="12.747420525660226"><ele>10.333333333333334</ele><time>2026-04-26T07:20:09Z</time></trkpt><trkpt lat="43.95318266454387" lon="12.747190236679087"><ele>10.666666666666666</ele><time>2026-04-26T07:20:10Z</time></trkpt><trkpt lat="43.95314485210708" lon="12.746966767155968"><ele>11.0</ele><time>2026-04-26T07:20:11Z</time></trkpt><trkpt lat="43.953125722624435" lon="12.7467654303692"><ele>11.666666666666666</ele><time>2026-04-26T07:20:12Z</time></trkpt><trkpt lat="43.95310080308231" lon="12.746561966366237"><ele>12.333333333333332</ele><time>2026-04-26T07:20:13Z</time></trkpt><trkpt lat="43.95307119501369" lon="12.74634709021556"><ele>13.0</ele><time>2026-04-26T07:20:14Z</time></trkpt><trkpt lat="43.95303606273164" lon="12.74612599049028"><ele>13.333333333333332</ele><time>2026-04-26T07:20:15Z</time></trkpt><trkpt lat="43.95299969340479" lon="12.745904171487751"><ele>13.666666666666668</ele><time>2026-04-26T07:20:16Z</time></trkpt><trkpt lat="43.952963798294775" lon="12.74569238218161"><ele>14.0</ele><time>2026-04-26T07:20:17Z</time></trkpt><trkpt lat="43.952924273091234" lon="12.745488406523688"><ele>14.0</ele><time>2026-04-26T07:20:18Z</time></trkpt><trkpt lat="43.95288449888234" lon="12.745293133377757"><ele>14.0</ele><time>2026-04-26T07:20:19Z</time></trkpt><trkpt lat="43.95284056943389" lon="12.745099251428288"><ele>14.0</ele><time>2026-04-26T07:20:20Z</time></trkpt><trkpt lat="43.95279414918456" lon="12.744903005192446"><ele>14.0</ele><time>2026-04-26T07:20:21Z</time></trkpt><trkpt lat="43.952743993738764" lon="12.744703410455434"><ele>14.0</ele><time>2026-04-26T07:20:22Z</time></trkpt><trkpt lat="43.952694810804054" lon="12.74450251291808"><ele>14.0</ele><time>2026-04-26T07:20:23Z</time></trkpt><trkpt lat="43.95264234904017" lon="12.744296202348716"><ele>14.0</ele><time>2026-04-26T07:20:24Z</time></trkpt><trkpt lat="43.95258518244525" lon="12.744088640285048"><ele>13.333333333333334</ele><time>2026-04-26T07:20:25Z</time></trkpt><trkpt lat="43.95252414556566" lon="12.743880837748092"><ele>12.666666666666668</ele><time>2026-04-26T07:20:26Z</time></trkpt><trkpt lat="43.95246652362288" lon="12.743681034219895"><ele>12.0</ele><time>2026-04-26T07:20:27Z</time></trkpt><trkpt lat="43.95241034027614" lon="12.743488632206983"><ele>12.0</ele><time>2026-04-26T07:20:28Z</time></trkpt><trkpt lat="43.952354691754785" lon="12.743300301658598"><ele>12.0</ele><time>2026-04-26T07:20:29Z</time></trkpt><trkpt lat="43.95230014544443" lon="12.743113303836047"><ele>12.0</ele><time>2026-04-26T07:20:30Z</time></trkpt><trkpt lat="43.9522436751214" lon="12.742927930893309"><ele>12.0</ele><time>2026-04-26T07:20:31Z</time></trkpt><trkpt lat="43.952190494352095" lon="12.74274597580184"><ele>12.5</ele><time>2026-04-26T07:20:32Z</time></trkpt><trkpt lat="43.95213559203756" lon="12.742560399437442"><ele>13.0</ele><time>2026-04-26T07:20:33Z</time></trkpt><trkpt lat="43.95208079773611" lon="12.742379005001025"><ele>13.5</ele><time>2026-04-26T07:20:34Z</time></trkpt><trkpt lat="43.95202642301414" lon="12.742191454637293"><ele>14.0</ele><time>2026-04-26T07:20:35Z</time></trkpt><trkpt lat="43.95197280375494" lon="12.74200156971438"><ele>13.333333333333334</ele><time>2026-04-26T07:20:36Z</time></trkpt><trkpt lat="43.95191666351783" lon="12.741808285667728"><ele>12.666666666666668</ele><time>2026-04-26T07:20:37Z</time></trkpt><trkpt lat="43.95185993528468" lon="12.741617019142877"><ele>12.0</ele><time>2026-04-26T07:20:38Z</time></trkpt><trkpt lat="43.95180362456" lon="12.741423051978522"><ele>12.0</ele><time>2026-04-26T07:20:39Z</time></trkpt><trkpt lat="43.9517475351032" lon="12.741229057952019"><ele>12.0</ele><time>2026-04-26T07:20:40Z</time></trkpt><trkpt lat="43.95169027113707" lon="12.741042512245718"><ele>12.0</ele><time>2026-04-26T07:20:41Z</time></trkpt><trkpt lat="43.95163735494253" lon="12.740856459303028"><ele>12.0</ele><time>2026-04-26T07:20:42Z</time></trkpt><trkpt lat="43.95158470365671" lon="12.740674497446042"><ele>12.5</ele><time>2026-04-26T07:20:43Z</time></trkpt><trkpt lat="43.95153479146244" lon="12.740501095328211"><ele>13.0</ele><time>2026-04-26T07:20:44Z</time></trkpt><trkpt lat="43.95148851277727" lon="12.7403233288782"><ele>13.5</ele><time>2026-04-26T07:20:45Z</time></trkpt><trkpt lat="43.951437923343114" lon="12.740153891010118"><ele>14.0</ele><time>2026-04-26T07:20:46Z</time></trkpt><trkpt lat="43.95138616069822" lon="12.739973662264264"><ele>14.0</ele><time>2026-04-26T07:20:47Z</time></trkpt><trkpt lat="43.951331954738116" lon="12.739783446832543"><ele>14.0</ele><time>2026-04-26T07:20:48Z</time></trkpt><trkpt lat="43.95128294612098" lon="12.739597217306484"><ele>14.0</ele><time>2026-04-26T07:20:49Z</time></trkpt><trkpt lat="43.95125194853793" lon="12.739400007056357"><ele>14.0</ele><time>2026-04-26T07:20:50Z</time></trkpt><trkpt lat="43.951193749338195" lon="12.739205325805571"><ele>14.0</ele><time>2026-04-26T07:20:51Z</time></trkpt><trkpt lat="43.951154275618876" lon="12.738997361471865"><ele>14.0</ele><time>2026-04-26T07:20:52Z</time></trkpt><trkpt lat="43.951117690840555" lon="12.738768783391995"><ele>14.0</ele><time>2026-04-26T07:20:53Z</time></trkpt><trkpt lat="43.951079853059746" lon="12.73852654436992"><ele>14.0</ele><time>2026-04-26T07:20:54Z</time></trkpt><trkpt lat="43.95104495585609" lon="12.738277942231452"><ele>14.0</ele><time>2026-04-26T07:20:55Z</time></trkpt><trkpt lat="43.951012632754576" lon="12.738021747834177"><ele>14.0</ele><time>2026-04-26T07:20:56Z</time></trkpt><trkpt lat="43.950987562092386" lon="12.737770282579087"><ele>14.0</ele><time>2026-04-26T07:20:57Z</time></trkpt><trkpt lat="43.950969611176035" lon="12.73752978914768"><ele>14.0</ele><time>2026-04-26T07:20:58Z</time></trkpt><trkpt lat="43.95097059419538" lon="12.737290931011175"><ele>14.0</ele><time>2026-04-26T07:20:59Z</time></trkpt><trkpt lat="43.95096382035785" lon="12.737056400298888"><ele>13.666666666666668</ele><time>2026-04-26T07:21:00Z</time></trkpt><trkpt lat="43.950961352229434" lon="12.73683052098635"><ele>13.333333333333332</ele><time>2026-04-26T07:21:01Z</time></trkpt><trkpt lat="43.950962628442085" lon="12.73661446685923"><ele>13.0</ele><time>2026-04-26T07:21:02Z</time></trkpt><trkpt lat="43.950968530899075" lon="12.73639938973088"><ele>13.0</ele><time>2026-04-26T07:21:03Z</time></trkpt><trkpt lat="43.95097840405096" lon="12.736198872189282"><ele>13.0</ele><time>2026-04-26T07:21:04Z</time></trkpt><trkpt lat="43.95099170909678" lon="12.735995141654849"><ele>13.0</ele><time>2026-04-26T07:21:05Z</time></trkpt><trkpt lat="43.95100851111777" lon="12.735797689968864"><ele>13.0</ele><time>2026-04-26T07:21:06Z</time></trkpt><trkpt lat="43.951031643724725" lon="12.735600935498454"><ele>12.666666666666666</ele><time>2026-04-26T07:21:07Z</time></trkpt><trkpt lat="43.95105695828254" lon="12.735401863701034"><ele>12.333333333333332</ele><time>2026-04-26T07:21:08Z</time></trkpt><trkpt lat="43.95108632079763" lon="12.735199222673844"><ele>12.0</ele><time>2026-04-26T07:21:09Z</time></trkpt><trkpt lat="43.95110594099792" lon="12.734984230572483"><ele>12.0</ele><time>2026-04-26T07:21:10Z</time></trkpt><trkpt lat="43.95114881288246" lon="12.734766258232867"><ele>12.0</ele><time>2026-04-26T07:21:11Z</time></trkpt><trkpt lat="43.95120141231067" lon="12.734543535920377"><ele>12.0</ele><time>2026-04-26T07:21:12Z</time></trkpt><trkpt lat="43.951259372789956" lon="12.734314122875697"><ele>12.666666666666668</ele><time>2026-04-26T07:21:13Z</time></trkpt><trkpt lat="43.95132581060178" lon="12.734071361256998"><ele>13.333333333333334</ele><time>2026-04-26T07:21:14Z</time></trkpt><trkpt lat="43.951394065896295" lon="12.733843135544602"><ele>14.0</ele><time>2026-04-26T07:21:15Z</time></trkpt><trkpt lat="43.95147067489196" lon="12.733631667098047"><ele>14.0</ele><time>2026-04-26T07:21:16Z</time></trkpt><trkpt lat="43.951556637376676" lon="12.73343113407195"><ele>14.0</ele><time>2026-04-26T07:21:17Z</time></trkpt><trkpt lat="43.95165186019087" lon="12.733239682551828"><ele>14.0</ele><time>2026-04-26T07:21:18Z</time></trkpt><trkpt lat="43.951756774563634" lon="12.733053265609929"><ele>14.0</ele><time>2026-04-26T07:21:19Z</time></trkpt><trkpt lat="43.95186664654745" lon="12.73287316981428"><ele>14.0</ele><time>2026-04-26T07:21:20Z</time></trkpt><trkpt lat="43.95197595394985" lon="12.73269541164341"><ele>14.0</ele><time>2026-04-26T07:21:21Z</time></trkpt><trkpt lat="43.95208995706223" lon="12.732516592885698"><ele>13.333333333333334</ele><time>2026-04-26T07:21:22Z</time></trkpt><trkpt lat="43.95220580687444" lon="12.732342452218052"><ele>12.666666666666668</ele><time>2026-04-26T07:21:23Z</time></trkpt><trkpt lat="43.952327076485226" lon="12.732170171450619"><ele>12.0</ele><time>2026-04-26T07:21:24Z</time></trkpt><trkpt lat="43.95245703245405" lon="12.731994368733275"><ele>13.333333333333332</ele><time>2026-04-26T07:21:25Z</time></trkpt><trkpt lat="43.952592195993134" lon="12.731818744812296"><ele>14.666666666666666</ele><time>2026-04-26T07:21:26Z</time></trkpt><trkpt lat="43.95272922559482" lon="12.73164654495831"><ele>16.0</ele><time>2026-04-26T07:21:27Z</time></trkpt><trkpt lat="43.95286869827191" lon="12.731483247473887"><ele>16.0</ele><time>2026-04-26T07:21:28Z</time></trkpt><trkpt lat="43.953005848117435" lon="12.731314383689947"><ele>16.0</ele><time>2026-04-26T07:21:29Z</time></trkpt><trkpt lat="43.953144702638106" lon="12.73115319321121"><ele>16.0</ele><time>2026-04-26T07:21:30Z</time></trkpt><trkpt lat="43.9532828229303" lon="12.730995512072523"><ele>16.0</ele><time>2026-04-26T07:21:31Z</time></trkpt><trkpt lat="43.95342100291922" lon="12.730835395686142"><ele>16.0</ele><time>2026-04-26T07:21:32Z</time></trkpt><trkpt lat="43.95355827790955" lon="12.730682072813154"><ele>16.0</ele><time>2026-04-26T07:21:33Z</time></trkpt><trkpt lat="43.953697059812406" lon="12.730529663742537"><ele>16.0</ele><time>2026-04-26T07:21:34Z</time></trkpt><trkpt lat="43.95383539415839" lon="12.73037798666539"><ele>16.0</ele><time>2026-04-26T07:21:35Z</time></trkpt><trkpt lat="43.9539720279307" lon="12.730225343566422"><ele>16.0</ele><time>2026-04-26T07:21:36Z</time></trkpt><trkpt lat="43.954108076832576" lon="12.730075382422697"><ele>16.25</ele><time>2026-04-26T07:21:37Z</time></trkpt><trkpt lat="43.95423705092191" lon="12.729937419421116"><ele>16.5</ele><time>2026-04-26T07:21:38Z</time></trkpt><trkpt lat="43.95435424041825" lon="12.72981331414097"><ele>16.75</ele><time>2026-04-26T07:21:39Z</time></trkpt><trkpt lat="43.954453382590465" lon="12.729708854724718"><ele>17.0</ele><time>2026-04-26T07:21:40Z</time></trkpt><trkpt lat="43.95454116188712" lon="12.729623003274657"><ele>17.0</ele><time>2026-04-26T07:21:41Z</time></trkpt><trkpt lat="43.95462039917783" lon="12.729544663693572"><ele>17.0</ele><time>2026-04-26T07:21:42Z</time></trkpt><trkpt lat="43.95468506528061" lon="12.729485492146926"><ele>17.0</ele><time>2026-04-26T07:21:43Z</time></trkpt><trkpt lat="43.95479593561864" lon="12.729435243640829"><ele>17.0</ele><time>2026-04-26T07:21:45Z</time></trkpt><trkpt lat="43.95486779183281" lon="12.729449170748389"><ele>17.0</ele><time>2026-04-26T07:21:46Z</time></trkpt><trkpt lat="43.954953983602195" lon="12.72947468447661"><ele>17.0</ele><time>2026-04-26T07:21:47Z</time></trkpt><trkpt lat="43.95503420966057" lon="12.729508698815748"><ele>17.0</ele><time>2026-04-26T07:21:48Z</time></trkpt><trkpt lat="43.955101871239066" lon="12.72949134967785"><ele>17.0</ele><time>2026-04-26T07:21:49Z</time></trkpt><trkpt lat="43.95518006030016" lon="12.729677271539702"><ele>17.0</ele><time>2026-04-26T07:21:50Z</time></trkpt><trkpt lat="43.95525546509937" lon="12.729804765435347"><ele>17.0</ele><time>2026-04-26T07:21:51Z</time></trkpt><trkpt lat="43.95533462453748" lon="12.72994965984552"><ele>16.8</ele><time>2026-04-26T07:21:52Z</time></trkpt><trkpt lat="43.95541142976491" lon="12.730081668003455"><ele>16.6</ele><time>2026-04-26T07:21:53Z</time></trkpt><trkpt lat="43.955460706717865" lon="12.730197730002951"><ele>16.400000000000002</ele><time>2026-04-26T07:21:54Z</time></trkpt><trkpt lat="43.955487358450526" lon="12.730324234463584"><ele>16.2</ele><time>2026-04-26T07:21:55Z</time></trkpt><trkpt lat="43.95549929532336" lon="12.730458281539835"><ele>16.0</ele><time>2026-04-26T07:21:56Z</time></trkpt><trkpt lat="43.955520109848884" lon="12.730598704464116"><ele>15.8</ele><time>2026-04-26T07:21:57Z</time></trkpt><trkpt lat="43.95554983199489" lon="12.730695585345355"><ele>15.600000000000001</ele><time>2026-04-26T07:21:58Z</time></trkpt><trkpt lat="43.95559715388452" lon="12.730767633425318"><ele>15.4</ele><time>2026-04-26T07:21:59Z</time></trkpt><trkpt lat="43.955694346874296" lon="12.730759987043127"><ele>15.2</ele><time>2026-04-26T07:22:00Z</time></trkpt><trkpt lat="43.95579863376296" lon="12.730759600022491"><ele>15.0</ele><time>2026-04-26T07:22:01Z</time></trkpt><trkpt lat="43.95592817676859" lon="12.73077420691565"><ele>14.5</ele><time>2026-04-26T07:22:02Z</time></trkpt><trkpt lat="43.95605979049384" lon="12.730808418520644"><ele>14.0</ele><time>2026-04-26T07:22:03Z</time></trkpt><trkpt lat="43.956193735985636" lon="12.730843659328093"><ele>13.5</ele><time>2026-04-26T07:22:04Z</time></trkpt><trkpt lat="43.95629226355038" lon="12.730827475492665"><ele>13.0</ele><time>2026-04-26T07:22:05Z</time></trkpt><trkpt lat="43.95638850095088" lon="12.730800072608565"><ele>13.0</ele><time>2026-04-26T07:22:06Z</time></trkpt><trkpt lat="43.95647363151093" lon="12.730746278429427"><ele>13.0</ele><time>2026-04-26T07:22:07Z</time></trkpt><trkpt lat="43.95656055667534" lon="12.730672275810267"><ele>13.0</ele><time>2026-04-26T07:22:08Z</time></trkpt><trkpt lat="43.95664712931218" lon="12.730584871650702"><ele>13.0</ele><time>2026-04-26T07:22:09Z</time></trkpt><trkpt lat="43.956728334838424" lon="12.73050425078917"><ele>13.0</ele><time>2026-04-26T07:22:10Z</time></trkpt><trkpt lat="43.95679706791421" lon="12.730433194213878"><ele>12.999999999999998</ele><time>2026-04-26T07:22:11Z</time></trkpt><trkpt lat="43.95685322846751" lon="12.73036281443244"><ele>13.0</ele><time>2026-04-26T07:22:12Z</time></trkpt><trkpt lat="43.956941705127974" lon="12.73030148856535"><ele>13.0</ele><time>2026-04-26T07:22:14Z</time></trkpt><trkpt lat="43.95700065139511" lon="12.730242656702213"><ele>13.0</ele><time>2026-04-26T07:22:16Z</time></trkpt><trkpt lat="43.95706447662351" lon="12.730189966771038"><ele>12.999999999999998</ele><time>2026-04-26T07:22:19Z</time></trkpt><trkpt lat="43.95714114174475" lon="12.730158436413992"><ele>13.0</ele><time>2026-04-26T07:22:21Z</time></trkpt><trkpt lat="43.95720544408985" lon="12.730144053404565"><ele>13.4</ele><time>2026-04-26T07:22:22Z</time></trkpt><trkpt lat="43.95725568463655" lon="12.730017972629684"><ele>13.8</ele><time>2026-04-26T07:22:24Z</time></trkpt><trkpt lat="43.95715696923557" lon="12.729906141877319"><ele>14.2</ele><time>2026-04-26T07:22:26Z</time></trkpt><trkpt lat="43.95706604181446" lon="12.729836099981542"><ele>14.6</ele><time>2026-04-26T07:22:27Z</time></trkpt><trkpt lat="43.956984959750244" lon="12.729734822520374"><ele>15.0</ele><time>2026-04-26T07:22:28Z</time></trkpt><trkpt lat="43.95691117426808" lon="12.729602557514337"><ele>15.0</ele><time>2026-04-26T07:22:29Z</time></trkpt><trkpt lat="43.956843559923605" lon="12.729455164698313"><ele>15.0</ele><time>2026-04-26T07:22:30Z</time></trkpt><trkpt lat="43.95676814245538" lon="12.729302907097354"><ele>15.0</ele><time>2026-04-26T07:22:31Z</time></trkpt><trkpt lat="43.95669024944001" lon="12.729144239063963"><ele>15.0</ele><time>2026-04-26T07:22:32Z</time></trkpt><trkpt lat="43.95660740622781" lon="12.72898513918442"><ele>15.0</ele><time>2026-04-26T07:22:33Z</time></trkpt><trkpt lat="43.95652165921976" lon="12.728813324555349"><ele>15.0</ele><time>2026-04-26T07:22:34Z</time></trkpt><trkpt lat="43.956427955044056" lon="12.728638516221592"><ele>15.0</ele><time>2026-04-26T07:22:35Z</time></trkpt><trkpt lat="43.95632210710934" lon="12.728470321428471"><ele>15.0</ele><time>2026-04-26T07:22:36Z</time></trkpt><trkpt lat="43.95620935364986" lon="12.728303948417548"><ele>15.0</ele><time>2026-04-26T07:22:37Z</time></trkpt><trkpt lat="43.95608977778004" lon="12.728139751384306"><ele>15.0</ele><time>2026-04-26T07:22:38Z</time></trkpt><trkpt lat="43.955967276477644" lon="12.727970105437828"><ele>15.333333333333332</ele><time>2026-04-26T07:22:39Z</time></trkpt><trkpt lat="43.95583992493615" lon="12.727798219791612"><ele>15.666666666666666</ele><time>2026-04-26T07:22:40Z</time></trkpt><trkpt lat="43.95571155729003" lon="12.727625023418307"><ele>16.0</ele><time>2026-04-26T07:22:41Z</time></trkpt><trkpt lat="43.955577918736324" lon="12.727448717854866"><ele>16.0</ele><time>2026-04-26T07:22:42Z</time></trkpt><trkpt lat="43.955433569187626" lon="12.727263670798026"><ele>16.0</ele><time>2026-04-26T07:22:43Z</time></trkpt><trkpt lat="43.95530107855916" lon="12.727100908010275"><ele>16.0</ele><time>2026-04-26T07:22:44Z</time></trkpt><trkpt lat="43.955177233654204" lon="12.726957463992116"><ele>16.0</ele><time>2026-04-26T07:22:45Z</time></trkpt><trkpt lat="43.95505254975938" lon="12.726832164186142"><ele>16.0</ele><time>2026-04-26T07:22:46Z</time></trkpt><trkpt lat="43.9549281784009" lon="12.72671992436798"><ele>16.0</ele><time>2026-04-26T07:22:47Z</time></trkpt><trkpt lat="43.9547928731575" lon="12.726623415248147"><ele>16.0</ele><time>2026-04-26T07:22:48Z</time></trkpt><trkpt lat="43.95467040891879" lon="12.72654006262302"><ele>16.0</ele><time>2026-04-26T07:22:49Z</time></trkpt><trkpt lat="43.95455719763344" lon="12.726465886963275"><ele>16.0</ele><time>2026-04-26T07:22:50Z</time></trkpt><trkpt lat="43.954456095490286" lon="12.726397557158997"><ele>16.0</ele><time>2026-04-26T07:22:51Z</time></trkpt><trkpt lat="43.95438983766839" lon="12.726319107539283"><ele>15.999999999999998</ele><time>2026-04-26T07:22:52Z</time></trkpt><trkpt lat="43.954346505522885" lon="12.726255190322092"><ele>16.0</ele><time>2026-04-26T07:22:53Z</time></trkpt><trkpt lat="43.95429381934263" lon="12.726116494581813"><ele>16.0</ele><time>2026-04-26T07:22:55Z</time></trkpt><trkpt lat="43.95429262462116" lon="12.725990176998897"><ele>16.0</ele><time>2026-04-26T07:22:56Z</time></trkpt><trkpt lat="43.95427844460184" lon="12.725857817380891"><ele>15.999999999999998</ele><time>2026-04-26T07:22:57Z</time></trkpt><trkpt lat="43.95425177155028" lon="12.72576102207503"><ele>16.0</ele><time>2026-04-26T07:22:58Z</time></trkpt><trkpt lat="43.954185227127326" lon="12.725710973431369"><ele>16.400000000000002</ele><time>2026-04-26T07:22:59Z</time></trkpt><trkpt lat="43.95410782151123" lon="12.725710496171411"><ele>16.8</ele><time>2026-04-26T07:23:00Z</time></trkpt><trkpt lat="43.95401851749688" lon="12.72574167051521"><ele>17.200000000000003</ele><time>2026-04-26T07:23:01Z</time></trkpt><trkpt lat="43.95391535282625" lon="12.725793261945476"><ele>17.6</ele><time>2026-04-26T07:23:02Z</time></trkpt><trkpt lat="43.953803624500196" lon="12.725819916594894"><ele>18.0</ele><time>2026-04-26T07:23:03Z</time></trkpt><trkpt lat="43.95367396016772" lon="12.72581298026229"><ele>18.0</ele><time>2026-04-26T07:23:04Z</time></trkpt><trkpt lat="43.95353954547709" lon="12.725714743037944"><ele>18.0</ele><time>2026-04-26T07:23:05Z</time></trkpt><trkpt lat="43.953388507885435" lon="12.72566911677899"><ele>18.0</ele><time>2026-04-26T07:23:06Z</time></trkpt><trkpt lat="43.95323656420912" lon="12.72560443467627"><ele>18.5</ele><time>2026-04-26T07:23:07Z</time></trkpt><trkpt lat="43.95310283445858" lon="12.72554819202005"><ele>19.0</ele><time>2026-04-26T07:23:08Z</time></trkpt><trkpt lat="43.95298205883921" lon="12.725500206858818"><ele>19.5</ele><time>2026-04-26T07:23:09Z</time></trkpt><trkpt lat="43.952861193912824" lon="12.725453217565656"><ele>20.0</ele><time>2026-04-26T07:23:10Z</time></trkpt><trkpt lat="43.952743545070284" lon="12.725405462528187"><ele>20.0</ele><time>2026-04-26T07:23:11Z</time></trkpt><trkpt lat="43.95262825058904" lon="12.725360051798512"><ele>20.0</ele><time>2026-04-26T07:23:12Z</time></trkpt><trkpt lat="43.952518330978506" lon="12.725319077155886"><ele>20.0</ele><time>2026-04-26T07:23:13Z</time></trkpt><trkpt lat="43.95241091167207" lon="12.725277292363886"><ele>20.0</ele><time>2026-04-26T07:23:14Z</time></trkpt><trkpt lat="43.95229762494795" lon="12.725229969112739"><ele>19.5</ele><time>2026-04-26T07:23:15Z</time></trkpt><trkpt lat="43.952175667336284" lon="12.725185268593249"><ele>19.0</ele><time>2026-04-26T07:23:16Z</time></trkpt><trkpt lat="43.95205230739285" lon="12.725136123035709"><ele>18.5</ele><time>2026-04-26T07:23:17Z</time></trkpt><trkpt lat="43.95191705496881" lon="12.725082916022789"><ele>18.0</ele><time>2026-04-26T07:23:18Z</time></trkpt><trkpt lat="43.95177528989647" lon="12.725026660506604"><ele>19.0</ele><time>2026-04-26T07:23:19Z</time></trkpt><trkpt lat="43.95162563629699" lon="12.724969728437683"><ele>20.0</ele><time>2026-04-26T07:23:20Z</time></trkpt><trkpt lat="43.951475937180476" lon="12.72491177694523"><ele>21.0</ele><time>2026-04-26T07:23:21Z</time></trkpt><trkpt lat="43.95134288985225" lon="12.724854786877108"><ele>21.0</ele><time>2026-04-26T07:23:22Z</time></trkpt><trkpt lat="43.95121774395457" lon="12.724798202997649"><ele>21.0</ele><time>2026-04-26T07:23:23Z</time></trkpt><trkpt lat="43.95109460337655" lon="12.724744182920764"><ele>21.0</ele><time>2026-04-26T07:23:24Z</time></trkpt><trkpt lat="43.95097472420287" lon="12.724693805808775"><ele>21.0</ele><time>2026-04-26T07:23:25Z</time></trkpt><trkpt lat="43.95086015259916" lon="12.724645103993332"><ele>20.6</ele><time>2026-04-26T07:23:26Z</time></trkpt><trkpt lat="43.95076227927354" lon="12.724609249195067"><ele>20.200000000000003</ele><time>2026-04-26T07:23:27Z</time></trkpt><trkpt lat="43.95068894439735" lon="12.724576793211689"><ele>19.799999999999997</ele><time>2026-04-26T07:23:28Z</time></trkpt><trkpt lat="43.950579912952975" lon="12.724521585295733"><ele>19.4</ele><time>2026-04-26T07:23:30Z</time></trkpt><trkpt lat="43.9505115197735" lon="12.724469453033135"><ele>19.0</ele><time>2026-04-26T07:23:32Z</time></trkpt><trkpt lat="43.95044284472755" lon="12.724350566318016"><ele>18.8</ele><time>2026-04-26T07:23:34Z</time></trkpt><trkpt lat="43.95040400100304" lon="12.72424597863693"><ele>18.599999999999998</ele><time>2026-04-26T07:23:35Z</time></trkpt><trkpt lat="43.95037599508046" lon="12.724128331411405"><ele>18.4</ele><time>2026-04-26T07:23:36Z</time></trkpt><trkpt lat="43.95026012381488" lon="12.724137100385782"><ele>18.2</ele><time>2026-04-26T07:23:37Z</time></trkpt><trkpt lat="43.95014550912493" lon="12.724124767409807"><ele>18.0</ele><time>2026-04-26T07:23:38Z</time></trkpt><trkpt lat="43.95002348258098" lon="12.724089963992826"><ele>18.5</ele><time>2026-04-26T07:23:39Z</time></trkpt><trkpt lat="43.94991154534443" lon="12.72401646539579"><ele>19.0</ele><time>2026-04-26T07:23:40Z</time></trkpt><trkpt lat="43.949815164224106" lon="12.723896731392191"><ele>19.5</ele><time>2026-04-26T07:23:41Z</time></trkpt><trkpt lat="43.94972183538633" lon="12.72376868379363"><ele>20.0</ele><time>2026-04-26T07:23:42Z</time></trkpt><trkpt lat="43.9496275023155" lon="12.723638248203008"><ele>19.75</ele><time>2026-04-26T07:23:43Z</time></trkpt><trkpt lat="43.949532385427766" lon="12.723506090369742"><ele>19.5</ele><time>2026-04-26T07:23:44Z</time></trkpt><trkpt lat="43.949436859706466" lon="12.723375885296068"><ele>19.25</ele><time>2026-04-26T07:23:45Z</time></trkpt><trkpt lat="43.949332330153275" lon="12.723236728958431"><ele>19.0</ele><time>2026-04-26T07:23:46Z</time></trkpt><trkpt lat="43.949228265913156" lon="12.723099835489455"><ele>19.25</ele><time>2026-04-26T07:23:47Z</time></trkpt><trkpt lat="43.94912075720875" lon="12.722963866667278"><ele>19.5</ele><time>2026-04-26T07:23:48Z</time></trkpt><trkpt lat="43.9490118098647" lon="12.722826748414514"><ele>19.75</ele><time>2026-04-26T07:23:49Z</time></trkpt><trkpt lat="43.94889845900706" lon="12.722685375400681"><ele>20.0</ele><time>2026-04-26T07:23:50Z</time></trkpt><trkpt lat="43.94878537782336" lon="12.72255129145223"><ele>20.0</ele><time>2026-04-26T07:23:51Z</time></trkpt><trkpt lat="43.948674629372135" lon="12.722412269874551"><ele>20.0</ele><time>2026-04-26T07:23:52Z</time></trkpt><trkpt lat="43.948562035182434" lon="12.722276885263573"><ele>20.0</ele><time>2026-04-26T07:23:53Z</time></trkpt><trkpt lat="43.94845028374283" lon="12.722142405102938"><ele>20.0</ele><time>2026-04-26T07:23:54Z</time></trkpt><trkpt lat="43.94834315835665" lon="12.722012367224941"><ele>20.6</ele><time>2026-04-26T07:23:55Z</time></trkpt><trkpt lat="43.94824601408454" lon="12.721896571918709"><ele>21.2</ele><time>2026-04-26T07:23:56Z</time></trkpt><trkpt lat="43.948155508013244" lon="12.72179046881213"><ele>21.799999999999997</ele><time>2026-04-26T07:23:57Z</time></trkpt><trkpt lat="43.94807326854432" lon="12.721694091660217"><ele>22.4</ele><time>2026-04-26T07:23:58Z</time></trkpt><trkpt lat="43.94800610331169" lon="12.721605895389967"><ele>23.0</ele><time>2026-04-26T07:23:59Z</time></trkpt><trkpt lat="43.94795388108183" lon="12.721519682057911"><ele>23.0</ele><time>2026-04-26T07:24:00Z</time></trkpt><trkpt lat="43.94791220353595" lon="12.721412622442319"><ele>23.0</ele><time>2026-04-26T07:24:01Z</time></trkpt><trkpt lat="43.947865853795584" lon="12.721292422969245"><ele>23.0</ele><time>2026-04-26T07:24:02Z</time></trkpt><trkpt lat="43.94782407300785" lon="12.721161131315613"><ele>23.0</ele><time>2026-04-26T07:24:03Z</time></trkpt><trkpt lat="43.94770540952459" lon="12.721115736027565"><ele>23.0</ele><time>2026-04-26T07:24:04Z</time></trkpt><trkpt lat="43.94759251846355" lon="12.721064402194454"><ele>23.25</ele><time>2026-04-26T07:24:05Z</time></trkpt><trkpt lat="43.947473449490325" lon="12.72100619348607"><ele>23.5</ele><time>2026-04-26T07:24:06Z</time></trkpt><trkpt lat="43.94735907348326" lon="12.720918046550752"><ele>23.75</ele><time>2026-04-26T07:24:07Z</time></trkpt><trkpt lat="43.94724998526964" lon="12.720804138922505"><ele>24.0</ele><time>2026-04-26T07:24:08Z</time></trkpt><trkpt lat="43.94714413087216" lon="12.720684174779995"><ele>24.0</ele><time>2026-04-26T07:24:09Z</time></trkpt><trkpt lat="43.94703986382123" lon="12.720568483051057"><ele>24.0</ele><time>2026-04-26T07:24:10Z</time></trkpt><trkpt lat="43.946929764557304" lon="12.720457785117402"><ele>24.0</ele><time>2026-04-26T07:24:11Z</time></trkpt><trkpt lat="43.94682265133948" lon="12.720352228231462"><ele>24.0</ele><time>2026-04-26T07:24:12Z</time></trkpt><trkpt lat="43.94671608969883" lon="12.720251484599435"><ele>24.0</ele><time>2026-04-26T07:24:13Z</time></trkpt><trkpt lat="43.94660926840864" lon="12.72014830750845"><ele>24.0</ele><time>2026-04-26T07:24:14Z</time></trkpt><trkpt lat="43.94650410594458" lon="12.720039941348256"><ele>24.0</ele><time>2026-04-26T07:24:15Z</time></trkpt><trkpt lat="43.94640275259726" lon="12.719934547231986"><ele>24.0</ele><time>2026-04-26T07:24:16Z</time></trkpt><trkpt lat="43.946298443964686" lon="12.719830214753449"><ele>24.0</ele><time>2026-04-26T07:24:17Z</time></trkpt><trkpt lat="43.946191111044875" lon="12.719724624222824"><ele>24.0</ele><time>2026-04-26T07:24:18Z</time></trkpt><trkpt lat="43.94608047340039" lon="12.719618763439463"><ele>24.0</ele><time>2026-04-26T07:24:19Z</time></trkpt><trkpt lat="43.94596708410039" lon="12.719509408288433"><ele>24.0</ele><time>2026-04-26T07:24:20Z</time></trkpt><trkpt lat="43.94585030868787" lon="12.719398036250363"><ele>24.5</ele><time>2026-04-26T07:24:21Z</time></trkpt><trkpt lat="43.945732430520216" lon="12.71928594185179"><ele>25.0</ele><time>2026-04-26T07:24:22Z</time></trkpt><trkpt lat="43.945614406933146" lon="12.71916852194954"><ele>25.5</ele><time>2026-04-26T07:24:23Z</time></trkpt><trkpt lat="43.94549938621272" lon="12.719049890141862"><ele>26.0</ele><time>2026-04-26T07:24:24Z</time></trkpt><trkpt lat="43.94538386952618" lon="12.718936055588388"><ele>26.0</ele><time>2026-04-26T07:24:25Z</time></trkpt><trkpt lat="43.945270535528785" lon="12.71882143767214"><ele>26.0</ele><time>2026-04-26T07:24:26Z</time></trkpt><trkpt lat="43.94515667958325" lon="12.718709745618932"><ele>26.0</ele><time>2026-04-26T07:24:27Z</time></trkpt><trkpt lat="43.94504413146456" lon="12.718592397436083"><ele>26.0</ele><time>2026-04-26T07:24:28Z</time></trkpt><trkpt lat="43.94493314284472" lon="12.718479722191043"><ele>25.75</ele><time>2026-04-26T07:24:29Z</time></trkpt><trkpt lat="43.94482478274201" lon="12.718370028187922"><ele>25.5</ele><time>2026-04-26T07:24:30Z</time></trkpt><trkpt lat="43.94471570570849" lon="12.718259835609278"><ele>25.25</ele><time>2026-04-26T07:24:31Z</time></trkpt><trkpt lat="43.94461495414045" lon="12.718143887194397"><ele>25.0</ele><time>2026-04-26T07:24:32Z</time></trkpt><trkpt lat="43.944528020585224" lon="12.718021453109845"><ele>25.0</ele><time>2026-04-26T07:24:33Z</time></trkpt><trkpt lat="43.94445991632107" lon="12.717868856257544"><ele>25.0</ele><time>2026-04-26T07:24:34Z</time></trkpt><trkpt lat="43.94437863476349" lon="12.7176940828104"><ele>25.0</ele><time>2026-04-26T07:24:35Z</time></trkpt><trkpt lat="43.94430970171198" lon="12.717530182251917"><ele>25.0</ele><time>2026-04-26T07:24:36Z</time></trkpt><trkpt lat="43.94423935747617" lon="12.717393417798581"><ele>24.6</ele><time>2026-04-26T07:24:37Z</time></trkpt><trkpt lat="43.94415861903771" lon="12.71728256342061"><ele>24.2</ele><time>2026-04-26T07:24:38Z</time></trkpt><trkpt lat="43.94406954071706" lon="12.71721208670051"><ele>23.799999999999997</ele><time>2026-04-26T07:24:39Z</time></trkpt><trkpt lat="43.94397423253647" lon="12.717190738116958"><ele>23.4</ele><time>2026-04-26T07:24:40Z</time></trkpt><trkpt lat="43.94387479780553" lon="12.717213234488918"><ele>23.0</ele><time>2026-04-26T07:24:41Z</time></trkpt><trkpt lat="43.94378394612105" lon="12.717271223880985"><ele>23.0</ele><time>2026-04-26T07:24:42Z</time></trkpt><trkpt lat="43.943690454538924" lon="12.717362408888397"><ele>23.0</ele><time>2026-04-26T07:24:43Z</time></trkpt><trkpt lat="43.94359053556513" lon="12.717457596680898"><ele>23.0</ele><time>2026-04-26T07:24:44Z</time></trkpt><trkpt lat="43.94347845759375" lon="12.717516368393195"><ele>23.0</ele><time>2026-04-26T07:24:45Z</time></trkpt><trkpt lat="43.943361502255584" lon="12.717527721994603"><ele>23.25</ele><time>2026-04-26T07:24:46Z</time></trkpt><trkpt lat="43.943245483003956" lon="12.717502214949826"><ele>23.5</ele><time>2026-04-26T07:24:47Z</time></trkpt><trkpt lat="43.943146165210855" lon="12.71740153906937"><ele>23.75</ele><time>2026-04-26T07:24:48Z</time></trkpt><trkpt lat="43.94303604617591" lon="12.717320458222662"><ele>24.0</ele><time>2026-04-26T07:24:49Z</time></trkpt><trkpt lat="43.942922410569714" lon="12.717237562561843"><ele>24.0</ele><time>2026-04-26T07:24:50Z</time></trkpt><trkpt lat="43.94280156137112" lon="12.717174778669575"><ele>24.0</ele><time>2026-04-26T07:24:51Z</time></trkpt><trkpt lat="43.942684376645886" lon="12.717073988178528"><ele>24.0</ele><time>2026-04-26T07:24:52Z</time></trkpt><trkpt lat="43.942575796370036" lon="12.716993447128413"><ele>24.0</ele><time>2026-04-26T07:24:53Z</time></trkpt><trkpt lat="43.94248182229186" lon="12.716919647338862"><ele>24.6</ele><time>2026-04-26T07:24:54Z</time></trkpt><trkpt lat="43.94239434001267" lon="12.716857402071433"><ele>25.2</ele><time>2026-04-26T07:24:55Z</time></trkpt><trkpt lat="43.94230950115381" lon="12.716802798167208"><ele>25.800000000000004</ele><time>2026-04-26T07:24:56Z</time></trkpt><trkpt lat="43.942221323104064" lon="12.7167415442291"><ele>26.400000000000002</ele><time>2026-04-26T07:24:57Z</time></trkpt><trkpt lat="43.94213169224334" lon="12.716669254414567"><ele>27.0</ele><time>2026-04-26T07:24:58Z</time></trkpt><trkpt lat="43.9420364927215" lon="12.716594321143592"><ele>27.0</ele><time>2026-04-26T07:24:59Z</time></trkpt><trkpt lat="43.94193470790069" lon="12.716517539183924"><ele>27.0</ele><time>2026-04-26T07:25:00Z</time></trkpt><trkpt lat="43.94183018177921" lon="12.716437139625054"><ele>27.0</ele><time>2026-04-26T07:25:01Z</time></trkpt><trkpt lat="43.94171498384476" lon="12.71635328540136"><ele>27.0</ele><time>2026-04-26T07:25:02Z</time></trkpt><trkpt lat="43.94159592772053" lon="12.716271126825827"><ele>27.0</ele><time>2026-04-26T07:25:03Z</time></trkpt><trkpt lat="43.94147546773184" lon="12.716185196191985"><ele>27.0</ele><time>2026-04-26T07:25:04Z</time></trkpt><trkpt lat="43.9413559803287" lon="12.716095099142889"><ele>27.0</ele><time>2026-04-26T07:25:05Z</time></trkpt><trkpt lat="43.94123447418511" lon="12.716010371813606"><ele>27.0</ele><time>2026-04-26T07:25:06Z</time></trkpt><trkpt lat="43.94111587734749" lon="12.715921211469096"><ele>27.0</ele><time>2026-04-26T07:25:07Z</time></trkpt><trkpt lat="43.94099805430798" lon="12.715830611954633"><ele>27.0</ele><time>2026-04-26T07:25:08Z</time></trkpt><trkpt lat="43.940881340322946" lon="12.7157414693011"><ele>27.0</ele><time>2026-04-26T07:25:09Z</time></trkpt><trkpt lat="43.94075630574724" lon="12.715651127239923"><ele>27.0</ele><time>2026-04-26T07:25:10Z</time></trkpt><trkpt lat="43.94062379910509" lon="12.71555349710013"><ele>27.0</ele><time>2026-04-26T07:25:11Z</time></trkpt><trkpt lat="43.94050160156681" lon="12.7154397669452"><ele>27.0</ele><time>2026-04-26T07:25:12Z</time></trkpt><trkpt lat="43.94038498843983" lon="12.715328377934291"><ele>27.0</ele><time>2026-04-26T07:25:13Z</time></trkpt><trkpt lat="43.94028081448626" lon="12.715220297828273"><ele>27.0</ele><time>2026-04-26T07:25:14Z</time></trkpt><trkpt lat="43.9401916333219" lon="12.71512727907769"><ele>27.200000000000003</ele><time>2026-04-26T07:25:15Z</time></trkpt><trkpt lat="43.940112580122786" lon="12.715040564383168"><ele>27.400000000000002</ele><time>2026-04-26T07:25:16Z</time></trkpt><trkpt lat="43.940036699409376" lon="12.714969868339471"><ele>27.599999999999998</ele><time>2026-04-26T07:25:17Z</time></trkpt><trkpt lat="43.939972028978765" lon="12.714890071468988"><ele>27.799999999999997</ele><time>2026-04-26T07:25:18Z</time></trkpt><trkpt lat="43.93990290784014" lon="12.714817939675308"><ele>28.0</ele><time>2026-04-26T07:25:19Z</time></trkpt><trkpt lat="43.93983398183402" lon="12.714726289260565"><ele>28.0</ele><time>2026-04-26T07:25:20Z</time></trkpt><trkpt lat="43.939762100911885" lon="12.714623183899588"><ele>27.999999999999996</ele><time>2026-04-26T07:25:21Z</time></trkpt><trkpt lat="43.93968442129979" lon="12.714508738866419"><ele>27.999999999999996</ele><time>2026-04-26T07:25:22Z</time></trkpt><trkpt lat="43.9396009756533" lon="12.714405853200338"><ele>28.0</ele><time>2026-04-26T07:25:23Z</time></trkpt><trkpt lat="43.939526249317716" lon="12.714307815216172"><ele>28.0</ele><time>2026-04-26T07:25:24Z</time></trkpt><trkpt lat="43.93945557208864" lon="12.714212790782948"><ele>28.166666666666668</ele><time>2026-04-26T07:25:25Z</time></trkpt><trkpt lat="43.93938538034059" lon="12.71411753399244"><ele>28.333333333333336</ele><time>2026-04-26T07:25:26Z</time></trkpt><trkpt lat="43.93932223164644" lon="12.714022392909536"><ele>28.5</ele><time>2026-04-26T07:25:27Z</time></trkpt><trkpt lat="43.93926350187893" lon="12.713929385203517"><ele>28.666666666666664</ele><time>2026-04-26T07:25:28Z</time></trkpt><trkpt lat="43.93920623211061" lon="12.713844739311712"><ele>28.833333333333332</ele><time>2026-04-26T07:25:29Z</time></trkpt><trkpt lat="43.93915429280593" lon="12.713767588285245"><ele>29.0</ele><time>2026-04-26T07:25:30Z</time></trkpt><trkpt lat="43.93910290901961" lon="12.713696394315278"><ele>28.999999999999996</ele><time>2026-04-26T07:25:31Z</time></trkpt><trkpt lat="43.939057852173455" lon="12.713632780638198"><ele>29.0</ele><time>2026-04-26T07:25:32Z</time></trkpt><trkpt lat="43.93897437021755" lon="12.713509397398086"><ele>29.0</ele><time>2026-04-26T07:25:34Z</time></trkpt><trkpt lat="43.93893099218634" lon="12.713445425337026"><ele>29.0</ele><time>2026-04-26T07:25:35Z</time></trkpt><trkpt lat="43.93888388689747" lon="12.713383839313618"><ele>28.999999999999996</ele><time>2026-04-26T07:25:36Z</time></trkpt><trkpt lat="43.938837432409365" lon="12.713323221553717"><ele>29.0</ele><time>2026-04-26T07:25:37Z</time></trkpt><trkpt lat="43.93875111249926" lon="12.713217876912639"><ele>29.0</ele><time>2026-04-26T07:25:39Z</time></trkpt><trkpt lat="43.93868144975329" lon="12.713112108155437"><ele>29.0</ele><time>2026-04-26T07:25:41Z</time></trkpt><trkpt lat="43.938615711224" lon="12.713036594322055"><ele>29.0</ele><time>2026-04-26T07:25:43Z</time></trkpt><trkpt lat="43.938549012303945" lon="12.71301192710916"><ele>29.0</ele><time>2026-04-26T07:25:45Z</time></trkpt><trkpt lat="43.938456392759456" lon="12.713037307157173"><ele>29.0</ele><time>2026-04-26T07:25:47Z</time></trkpt><trkpt lat="43.93837644656943" lon="12.713129666953112"><ele>29.5</ele><time>2026-04-26T07:25:49Z</time></trkpt><trkpt lat="43.9382882217018" lon="12.713223969635516"><ele>30.0</ele><time>2026-04-26T07:25:51Z</time></trkpt><trkpt lat="43.93819355985052" lon="12.713300241219232"><ele>30.5</ele><time>2026-04-26T07:25:53Z</time></trkpt><trkpt lat="43.93810093488719" lon="12.713361187628086"><ele>31.0</ele><time>2026-04-26T07:25:55Z</time></trkpt><trkpt lat="43.93797894574067" lon="12.713305631906621"><ele>31.0</ele><time>2026-04-26T07:25:57Z</time></trkpt><trkpt lat="43.93791714266065" lon="12.713253927038995"><ele>31.0</ele><time>2026-04-26T07:25:58Z</time></trkpt><trkpt lat="43.93785450862387" lon="12.713229088035007"><ele>31.0</ele><time>2026-04-26T07:25:59Z</time></trkpt><trkpt lat="43.93775008060478" lon="12.71333407326539"><ele>31.0</ele><time>2026-04-26T07:26:01Z</time></trkpt><trkpt lat="43.93769613900941" lon="12.713450747348531"><ele>31.0</ele><time>2026-04-26T07:26:02Z</time></trkpt><trkpt lat="43.93761917066519" lon="12.713572579933965"><ele>30.75</ele><time>2026-04-26T07:26:03Z</time></trkpt><trkpt lat="43.937527430262605" lon="12.713689933024861"><ele>30.5</ele><time>2026-04-26T07:26:04Z</time></trkpt><trkpt lat="43.937436268193714" lon="12.713799918235184"><ele>30.25</ele><time>2026-04-26T07:26:05Z</time></trkpt><trkpt lat="43.93734870622281" lon="12.713913066512253"><ele>30.0</ele><time>2026-04-26T07:26:06Z</time></trkpt><trkpt lat="43.93725930618917" lon="12.714028878359326"><ele>30.0</ele><time>2026-04-26T07:26:07Z</time></trkpt><trkpt lat="43.937162884121875" lon="12.714139662767266"><ele>30.0</ele><time>2026-04-26T07:26:08Z</time></trkpt><trkpt lat="43.93706607201" lon="12.714252839392488"><ele>30.0</ele><time>2026-04-26T07:26:09Z</time></trkpt><trkpt lat="43.936966562602606" lon="12.714366077825094"><ele>30.0</ele><time>2026-04-26T07:26:10Z</time></trkpt><trkpt lat="43.936868662081864" lon="12.714484634121693"><ele>30.0</ele><time>2026-04-26T07:26:11Z</time></trkpt><trkpt lat="43.93677084038589" lon="12.714600822609494"><ele>30.0</ele><time>2026-04-26T07:26:12Z</time></trkpt><trkpt lat="43.93667207094588" lon="12.714720130769463"><ele>30.0</ele><time>2026-04-26T07:26:13Z</time></trkpt><trkpt lat="43.9365724172649" lon="12.714842431275155"><ele>30.0</ele><time>2026-04-26T07:26:14Z</time></trkpt><trkpt lat="43.93646753542272" lon="12.71496544549312"><ele>30.0</ele><time>2026-04-26T07:26:15Z</time></trkpt><trkpt lat="43.936367720429544" lon="12.715088355125372"><ele>30.0</ele><time>2026-04-26T07:26:16Z</time></trkpt><trkpt lat="43.93626658257822" lon="12.71521090311593"><ele>30.0</ele><time>2026-04-26T07:26:17Z</time></trkpt><trkpt lat="43.93616690551261" lon="12.71533611894969"><ele>30.0</ele><time>2026-04-26T07:26:18Z</time></trkpt><trkpt lat="43.93607061890328" lon="12.7154620906321"><ele>30.0</ele><time>2026-04-26T07:26:19Z</time></trkpt><trkpt lat="43.93597429445121" lon="12.715589978282654"><ele>30.0</ele><time>2026-04-26T07:26:20Z</time></trkpt><trkpt lat="43.93587779870491" lon="12.715714639792674"><ele>30.0</ele><time>2026-04-26T07:26:21Z</time></trkpt><trkpt lat="43.93578104044048" lon="12.71583808479133"><ele>30.0</ele><time>2026-04-26T07:26:22Z</time></trkpt><trkpt lat="43.93568625996715" lon="12.715960703714531"><ele>30.25</ele><time>2026-04-26T07:26:23Z</time></trkpt><trkpt lat="43.93558985854508" lon="12.71608288953671"><ele>30.5</ele><time>2026-04-26T07:26:24Z</time></trkpt><trkpt lat="43.935496581204895" lon="12.716210483713093"><ele>30.75</ele><time>2026-04-26T07:26:25Z</time></trkpt><trkpt lat="43.9354031648347" lon="12.716333604948346"><ele>31.0</ele><time>2026-04-26T07:26:26Z</time></trkpt><trkpt lat="43.93530447366609" lon="12.716463604050055"><ele>31.0</ele><time>2026-04-26T07:26:27Z</time></trkpt><trkpt lat="43.935207959352525" lon="12.716599188880737"><ele>31.0</ele><time>2026-04-26T07:26:28Z</time></trkpt><trkpt lat="43.93510643028467" lon="12.716736632825555"><ele>31.0</ele><time>2026-04-26T07:26:29Z</time></trkpt><trkpt lat="43.934998724287766" lon="12.716881935453676"><ele>31.0</ele><time>2026-04-26T07:26:30Z</time></trkpt><trkpt lat="43.934889373813064" lon="12.717037917651401"><ele>30.666666666666668</ele><time>2026-04-26T07:26:31Z</time></trkpt><trkpt lat="43.93478413057287" lon="12.717200040216163"><ele>30.333333333333336</ele><time>2026-04-26T07:26:32Z</time></trkpt><trkpt lat="43.93466999443753" lon="12.717373876222485"><ele>30.0</ele><time>2026-04-26T07:26:33Z</time></trkpt><trkpt lat="43.934547867228424" lon="12.71756354856428"><ele>29.666666666666664</ele><time>2026-04-26T07:26:34Z</time></trkpt><trkpt lat="43.934421925406355" lon="12.717757118504084"><ele>29.333333333333332</ele><time>2026-04-26T07:26:35Z</time></trkpt><trkpt lat="43.9342956816123" lon="12.71795554617949"><ele>29.0</ele><time>2026-04-26T07:26:36Z</time></trkpt><trkpt lat="43.93417316516446" lon="12.718149982919275"><ele>29.0</ele><time>2026-04-26T07:26:37Z</time></trkpt><trkpt lat="43.93405302787699" lon="12.718339922456867"><ele>29.0</ele><time>2026-04-26T07:26:38Z</time></trkpt><trkpt lat="43.9339358365406" lon="12.718527882829939"><ele>29.0</ele><time>2026-04-26T07:26:39Z</time></trkpt><trkpt lat="43.93382464551145" lon="12.71871388183801"><ele>28.666666666666664</ele><time>2026-04-26T07:26:40Z</time></trkpt><trkpt lat="43.93371324750862" lon="12.718898135672871"><ele>28.333333333333336</ele><time>2026-04-26T07:26:41Z</time></trkpt><trkpt lat="43.93360637564997" lon="12.719075980673228"><ele>28.0</ele><time>2026-04-26T07:26:42Z</time></trkpt><trkpt lat="43.93350201512761" lon="12.719248811862949"><ele>28.0</ele><time>2026-04-26T07:26:43Z</time></trkpt><trkpt lat="43.933385909279856" lon="12.719416591750266"><ele>28.0</ele><time>2026-04-26T07:26:44Z</time></trkpt><trkpt lat="43.93326455105966" lon="12.719580016380792"><ele>28.0</ele><time>2026-04-26T07:26:45Z</time></trkpt><trkpt lat="43.93313549166209" lon="12.719730936671327"><ele>28.0</ele><time>2026-04-26T07:26:46Z</time></trkpt><trkpt lat="43.9330012287057" lon="12.719869540568931"><ele>28.0</ele><time>2026-04-26T07:26:47Z</time></trkpt><trkpt lat="43.932859272758336" lon="12.719992407878486"><ele>28.0</ele><time>2026-04-26T07:26:48Z</time></trkpt><trkpt lat="43.93270898490509" lon="12.720096082153674"><ele>28.333333333333336</ele><time>2026-04-26T07:26:49Z</time></trkpt><trkpt lat="43.93255084297683" lon="12.720184496244771"><ele>28.666666666666664</ele><time>2026-04-26T07:26:50Z</time></trkpt><trkpt lat="43.932389866570546" lon="12.720263091496419"><ele>29.0</ele><time>2026-04-26T07:26:51Z</time></trkpt><trkpt lat="43.93222073157739" lon="12.720328798336999"><ele>28.0</ele><time>2026-04-26T07:26:52Z</time></trkpt><trkpt lat="43.93204163026191" lon="12.720360238576905"><ele>27.0</ele><time>2026-04-26T07:26:53Z</time></trkpt><trkpt lat="43.931861368427086" lon="12.720429976512797"><ele>26.0</ele><time>2026-04-26T07:26:54Z</time></trkpt><trkpt lat="43.93167531184174" lon="12.720472299789861"><ele>25.666666666666664</ele><time>2026-04-26T07:26:55Z</time></trkpt><trkpt lat="43.93148757420909" lon="12.720514319836647"><ele>25.333333333333336</ele><time>2026-04-26T07:26:56Z</time></trkpt><trkpt lat="43.93130022713413" lon="12.720559228554114"><ele>25.0</ele><time>2026-04-26T07:26:57Z</time></trkpt><trkpt lat="43.931110713365356" lon="12.720607407373059"><ele>25.0</ele><time>2026-04-26T07:26:58Z</time></trkpt><trkpt lat="43.930922167752" lon="12.720653996338864"><ele>25.0</ele><time>2026-04-26T07:26:59Z</time></trkpt><trkpt lat="43.9307343720493" lon="12.720704764931758"><ele>25.0</ele><time>2026-04-26T07:27:00Z</time></trkpt><trkpt lat="43.93054384979232" lon="12.72075664892848"><ele>26.0</ele><time>2026-04-26T07:27:01Z</time></trkpt><trkpt lat="43.930352652420865" lon="12.720804888808292"><ele>27.0</ele><time>2026-04-26T07:27:02Z</time></trkpt><trkpt lat="43.93016366859927" lon="12.720844547159016"><ele>28.0</ele><time>2026-04-26T07:27:03Z</time></trkpt><trkpt lat="43.92997449825512" lon="12.720885816286431"><ele>28.333333333333336</ele><time>2026-04-26T07:27:04Z</time></trkpt><trkpt lat="43.92979180750536" lon="12.720917138025799"><ele>28.666666666666664</ele><time>2026-04-26T07:27:05Z</time></trkpt><trkpt lat="43.92960295292604" lon="12.720960686774735"><ele>29.0</ele><time>2026-04-26T07:27:06Z</time></trkpt><trkpt lat="43.92939369243587" lon="12.721005501577155"><ele>29.333333333333332</ele><time>2026-04-26T07:27:07Z</time></trkpt><trkpt lat="43.929180963486" lon="12.721032029693552"><ele>29.666666666666664</ele><time>2026-04-26T07:27:08Z</time></trkpt><trkpt lat="43.92898812436228" lon="12.72106746488551"><ele>30.0</ele><time>2026-04-26T07:27:09Z</time></trkpt><trkpt lat="43.92880964962876" lon="12.721095310484722"><ele>30.0</ele><time>2026-04-26T07:27:10Z</time></trkpt><trkpt lat="43.92863979195871" lon="12.721129689458339"><ele>30.0</ele><time>2026-04-26T07:27:11Z</time></trkpt><trkpt lat="43.92847834206794" lon="12.721173630222099"><ele>30.0</ele><time>2026-04-26T07:27:12Z</time></trkpt><trkpt lat="43.928330155492965" lon="12.721225369713482"><ele>30.0</ele><time>2026-04-26T07:27:13Z</time></trkpt><trkpt lat="43.92819337375131" lon="12.721280717959734"><ele>30.0</ele><time>2026-04-26T07:27:14Z</time></trkpt><trkpt lat="43.92806402176733" lon="12.721337743316637"><ele>30.0</ele><time>2026-04-26T07:27:15Z</time></trkpt><trkpt lat="43.927944822585346" lon="12.721393803215237"><ele>30.0</ele><time>2026-04-26T07:27:16Z</time></trkpt><trkpt lat="43.927836027042375" lon="12.721457197463764"><ele>30.0</ele><time>2026-04-26T07:27:17Z</time></trkpt><trkpt lat="43.92773446767484" lon="12.721511065296964"><ele>30.0</ele><time>2026-04-26T07:27:18Z</time></trkpt><trkpt lat="43.9276442777459" lon="12.721554794214844"><ele>30.0</ele><time>2026-04-26T07:27:19Z</time></trkpt><trkpt lat="43.927559384452785" lon="12.721613037585287"><ele>30.0</ele><time>2026-04-26T07:27:20Z</time></trkpt><trkpt lat="43.92747962829343" lon="12.721658254396509"><ele>30.0</ele><time>2026-04-26T07:27:21Z</time></trkpt><trkpt lat="43.92739801010683" lon="12.7217083611897"><ele>30.0</ele><time>2026-04-26T07:27:22Z</time></trkpt><trkpt lat="43.92730167603226" lon="12.721768268598701"><ele>30.0</ele><time>2026-04-26T07:27:23Z</time></trkpt><trkpt lat="43.927201994579974" lon="12.721824720092844"><ele>30.0</ele><time>2026-04-26T07:27:24Z</time></trkpt><trkpt lat="43.92708686487488" lon="12.721884771734775"><ele>30.0</ele><time>2026-04-26T07:27:25Z</time></trkpt><trkpt lat="43.92696027606012" lon="12.721946206992673"><ele>30.0</ele><time>2026-04-26T07:27:26Z</time></trkpt><trkpt lat="43.926821825654386" lon="12.722015668519797"><ele>30.0</ele><time>2026-04-26T07:27:27Z</time></trkpt><trkpt lat="43.92667792388287" lon="12.722092669343747"><ele>30.0</ele><time>2026-04-26T07:27:28Z</time></trkpt><trkpt lat="43.92653723746403" lon="12.722168279113378"><ele>29.333333333333336</ele><time>2026-04-26T07:27:29Z</time></trkpt><trkpt lat="43.92639465714917" lon="12.722248952080193"><ele>28.666666666666668</ele><time>2026-04-26T07:27:30Z</time></trkpt><trkpt lat="43.92625308308682" lon="12.722330777051619"><ele>28.0</ele><time>2026-04-26T07:27:31Z</time></trkpt><trkpt lat="43.92611800470521" lon="12.722403605128676"><ele>28.0</ele><time>2026-04-26T07:27:32Z</time></trkpt><trkpt lat="43.92598583284521" lon="12.722477363167664"><ele>28.0</ele><time>2026-04-26T07:27:33Z</time></trkpt><trkpt lat="43.92585418346461" lon="12.722551035247973"><ele>28.0</ele><time>2026-04-26T07:27:34Z</time></trkpt><trkpt lat="43.92572458723452" lon="12.722621575061092"><ele>28.0</ele><time>2026-04-26T07:27:35Z</time></trkpt><trkpt lat="43.92559226258157" lon="12.722688690064441"><ele>27.5</ele><time>2026-04-26T07:27:36Z</time></trkpt><trkpt lat="43.92546183234736" lon="12.72275400803473"><ele>27.0</ele><time>2026-04-26T07:27:37Z</time></trkpt><trkpt lat="43.92534303357152" lon="12.722816864731842"><ele>26.5</ele><time>2026-04-26T07:27:38Z</time></trkpt><trkpt lat="43.92523563987385" lon="12.722868044944265"><ele>26.0</ele><time>2026-04-26T07:27:39Z</time></trkpt><trkpt lat="43.92512712298654" lon="12.72292390803993"><ele>26.75</ele><time>2026-04-26T07:27:40Z</time></trkpt><trkpt lat="43.92501160306053" lon="12.722983403755272"><ele>27.5</ele><time>2026-04-26T07:27:41Z</time></trkpt><trkpt lat="43.924891524713395" lon="12.723046583816068"><ele>28.25</ele><time>2026-04-26T07:27:42Z</time></trkpt><trkpt lat="43.92476448682779" lon="12.72310883133256"><ele>29.0</ele><time>2026-04-26T07:27:43Z</time></trkpt><trkpt lat="43.924629936368845" lon="12.72317461837338"><ele>29.0</ele><time>2026-04-26T07:27:44Z</time></trkpt><trkpt lat="43.92449197980828" lon="12.723247572700117"><ele>29.0</ele><time>2026-04-26T07:27:45Z</time></trkpt><trkpt lat="43.92434555395988" lon="12.723318957192754"><ele>29.0</ele><time>2026-04-26T07:27:46Z</time></trkpt><trkpt lat="43.92419242774283" lon="12.723386249438283"><ele>30.0</ele><time>2026-04-26T07:27:47Z</time></trkpt><trkpt lat="43.92403359589354" lon="12.723458825474605"><ele>31.0</ele><time>2026-04-26T07:27:48Z</time></trkpt><trkpt lat="43.92387142415792" lon="12.723534695083039"><ele>32.0</ele><time>2026-04-26T07:27:49Z</time></trkpt><trkpt lat="43.923712069026955" lon="12.723606203175004"><ele>32.0</ele><time>2026-04-26T07:27:50Z</time></trkpt><trkpt lat="43.923571151648616" lon="12.723674888486647"><ele>32.0</ele><time>2026-04-26T07:27:51Z</time></trkpt><trkpt lat="43.92343792976017" lon="12.723738008984894"><ele>32.0</ele><time>2026-04-26T07:27:52Z</time></trkpt><trkpt lat="43.92330370412354" lon="12.723798135059189"><ele>32.0</ele><time>2026-04-26T07:27:53Z</time></trkpt><trkpt lat="43.923173653184726" lon="12.723857642883294"><ele>32.25</ele><time>2026-04-26T07:27:54Z</time></trkpt><trkpt lat="43.92305044440204" lon="12.723922437120134"><ele>32.5</ele><time>2026-04-26T07:27:55Z</time></trkpt><trkpt lat="43.9229360485811" lon="12.723972455405542"><ele>32.75</ele><time>2026-04-26T07:27:56Z</time></trkpt><trkpt lat="43.922830860218426" lon="12.724005248519203"><ele>33.0</ele><time>2026-04-26T07:27:57Z</time></trkpt><trkpt lat="43.92273106432319" lon="12.724009474074057"><ele>33.0</ele><time>2026-04-26T07:27:58Z</time></trkpt><trkpt lat="43.92262303321059" lon="12.723990599609692"><ele>33.0</ele><time>2026-04-26T07:27:59Z</time></trkpt><trkpt lat="43.92250614845211" lon="12.723959395441861"><ele>33.0</ele><time>2026-04-26T07:28:00Z</time></trkpt><trkpt lat="43.922384478576625" lon="12.723921952427629"><ele>33.0</ele><time>2026-04-26T07:28:01Z</time></trkpt><trkpt lat="43.92225193664045" lon="12.723868141638194"><ele>33.666666666666664</ele><time>2026-04-26T07:28:02Z</time></trkpt><trkpt lat="43.922127785686875" lon="12.723744724594985"><ele>34.33333333333333</ele><time>2026-04-26T07:28:03Z</time></trkpt><trkpt lat="43.92197837030059" lon="12.723668112172163"><ele>35.0</ele><time>2026-04-26T07:28:04Z</time></trkpt><trkpt lat="43.92182183844978" lon="12.723592831991185"><ele>37.0</ele><time>2026-04-26T07:28:05Z</time></trkpt><trkpt lat="43.92165832475622" lon="12.723532276299547"><ele>39.0</ele><time>2026-04-26T07:28:06Z</time></trkpt><trkpt lat="43.92150142066893" lon="12.72343800452868"><ele>41.0</ele><time>2026-04-26T07:28:07Z</time></trkpt><trkpt lat="43.92135009658223" lon="12.7233074404143"><ele>41.0</ele><time>2026-04-26T07:28:08Z</time></trkpt><trkpt lat="43.92119766555289" lon="12.723171536110852"><ele>41.0</ele><time>2026-04-26T07:28:09Z</time></trkpt><trkpt lat="43.921035913224166" lon="12.723052348426414"><ele>41.0</ele><time>2026-04-26T07:28:10Z</time></trkpt><trkpt lat="43.92088974375942" lon="12.72291729205232"><ele>41.666666666666664</ele><time>2026-04-26T07:28:11Z</time></trkpt><trkpt lat="43.92073710576001" lon="12.722815549727011"><ele>42.333333333333336</ele><time>2026-04-26T07:28:12Z</time></trkpt><trkpt lat="43.92057988493027" lon="12.722744843445048"><ele>43.0</ele><time>2026-04-26T07:28:13Z</time></trkpt><trkpt lat="43.92040870789112" lon="12.722700341304348"><ele>43.0</ele><time>2026-04-26T07:28:14Z</time></trkpt><trkpt lat="43.9202300418295" lon="12.722679148741381"><ele>43.0</ele><time>2026-04-26T07:28:15Z</time></trkpt><trkpt lat="43.92005585100554" lon="12.722668193100597"><ele>43.0</ele><time>2026-04-26T07:28:16Z</time></trkpt><trkpt lat="43.919890254466864" lon="12.722638179277794"><ele>47.333333333333336</ele><time>2026-04-26T07:28:17Z</time></trkpt><trkpt lat="43.91972619692898" lon="12.722579103067424"><ele>51.66666666666667</ele><time>2026-04-26T07:28:18Z</time></trkpt><trkpt lat="43.91957691614411" lon="12.722455804677173"><ele>56.0</ele><time>2026-04-26T07:28:19Z</time></trkpt><trkpt lat="43.919414505907596" lon="12.722338473170932"><ele>56.0</ele><time>2026-04-26T07:28:20Z</time></trkpt><trkpt lat="43.9192468583556" lon="12.722214622832437"><ele>56.0</ele><time>2026-04-26T07:28:21Z</time></trkpt><trkpt lat="43.91906652320993" lon="12.722105706461372"><ele>56.0</ele><time>2026-04-26T07:28:22Z</time></trkpt><trkpt lat="43.918889644126494" lon="12.721975547410612"><ele>57.0</ele><time>2026-04-26T07:28:23Z</time></trkpt><trkpt lat="43.91871217977835" lon="12.721842046948566"><ele>58.0</ele><time>2026-04-26T07:28:24Z</time></trkpt><trkpt lat="43.91852925962719" lon="12.721726473078695"><ele>59.0</ele><time>2026-04-26T07:28:25Z</time></trkpt><trkpt lat="43.91834438372077" lon="12.721626069704095"><ele>61.66666666666667</ele><time>2026-04-26T07:28:26Z</time></trkpt><trkpt lat="43.91815787202986" lon="12.721526856048284"><ele>64.33333333333333</ele><time>2026-04-26T07:28:27Z</time></trkpt><trkpt lat="43.91797906845748" lon="12.721430099304722"><ele>67.0</ele><time>2026-04-26T07:28:28Z</time></trkpt><trkpt lat="43.91781298171697" lon="12.721329328700834"><ele>67.0</ele><time>2026-04-26T07:28:29Z</time></trkpt><trkpt lat="43.91766501956998" lon="12.721197675207067"><ele>67.0</ele><time>2026-04-26T07:28:30Z</time></trkpt><trkpt lat="43.91751118247981" lon="12.721081318697989"><ele>67.0</ele><time>2026-04-26T07:28:31Z</time></trkpt><trkpt lat="43.917355696402055" lon="12.720956543648391"><ele>70.33333333333333</ele><time>2026-04-26T07:28:32Z</time></trkpt><trkpt lat="43.917202204649875" lon="12.720824504644874"><ele>73.66666666666667</ele><time>2026-04-26T07:28:33Z</time></trkpt><trkpt lat="43.91704002886475" lon="12.720710442404943"><ele>77.0</ele><time>2026-04-26T07:28:34Z</time></trkpt><trkpt lat="43.91688774917499" lon="12.720567597585358"><ele>77.0</ele><time>2026-04-26T07:28:35Z</time></trkpt><trkpt lat="43.91673656280254" lon="12.720426403985117"><ele>77.0</ele><time>2026-04-26T07:28:36Z</time></trkpt><trkpt lat="43.9165980223018" lon="12.720294680647491"><ele>77.0</ele><time>2026-04-26T07:28:37Z</time></trkpt><trkpt lat="43.91648217451057" lon="12.720168436427938"><ele>80.33333333333334</ele><time>2026-04-26T07:28:38Z</time></trkpt><trkpt lat="43.9163712164812" lon="12.720035755889015"><ele>83.66666666666667</ele><time>2026-04-26T07:28:39Z</time></trkpt><trkpt lat="43.91627806333034" lon="12.719866700434675"><ele>87.0</ele><time>2026-04-26T07:28:40Z</time></trkpt><trkpt lat="43.91618042532032" lon="12.71969029476748"><ele>87.0</ele><time>2026-04-26T07:28:41Z</time></trkpt><trkpt lat="43.916077490385" lon="12.71949582740929"><ele>87.0</ele><time>2026-04-26T07:28:42Z</time></trkpt><trkpt lat="43.915962699842666" lon="12.719278631820732"><ele>87.0</ele><time>2026-04-26T07:28:43Z</time></trkpt><trkpt lat="43.91583573038427" lon="12.719064137973508"><ele>87.0</ele><time>2026-04-26T07:28:44Z</time></trkpt><trkpt lat="43.91571028661849" lon="12.718821149242483"><ele>87.0</ele><time>2026-04-26T07:28:45Z</time></trkpt><trkpt lat="43.91557485506606" lon="12.718562181515084"><ele>87.0</ele><time>2026-04-26T07:28:46Z</time></trkpt><trkpt lat="43.915445175986896" lon="12.718312009135781"><ele>86.33333333333333</ele><time>2026-04-26T07:28:47Z</time></trkpt><trkpt lat="43.91532429349429" lon="12.718081846722734"><ele>85.66666666666666</ele><time>2026-04-26T07:28:48Z</time></trkpt><trkpt lat="43.915214021885916" lon="12.717864611870677"><ele>85.0</ele><time>2026-04-26T07:28:49Z</time></trkpt><trkpt lat="43.915107778815646" lon="12.71766508263941"><ele>85.66666666666666</ele><time>2026-04-26T07:28:50Z</time></trkpt><trkpt lat="43.915009525337986" lon="12.717472804031388"><ele>86.33333333333333</ele><time>2026-04-26T07:28:51Z</time></trkpt><trkpt lat="43.91491193745322" lon="12.717303789864433"><ele>87.0</ele><time>2026-04-26T07:28:52Z</time></trkpt><trkpt lat="43.914814711996684" lon="12.717158388628494"><ele>87.0</ele><time>2026-04-26T07:28:53Z</time></trkpt><trkpt lat="43.91472011159717" lon="12.71702799074347"><ele>87.0</ele><time>2026-04-26T07:28:54Z</time></trkpt><trkpt lat="43.914629648972245" lon="12.716913414300706"><ele>87.0</ele><time>2026-04-26T07:28:55Z</time></trkpt><trkpt lat="43.91454634737915" lon="12.716812530517968"><ele>87.0</ele><time>2026-04-26T07:28:56Z</time></trkpt><trkpt lat="43.914471000994695" lon="12.716714787823278"><ele>87.0</ele><time>2026-04-26T07:28:57Z</time></trkpt><trkpt lat="43.9144017001322" lon="12.716627636858224"><ele>87.0</ele><time>2026-04-26T07:28:58Z</time></trkpt><trkpt lat="43.914341472855256" lon="12.71654673610205"><ele>87.0</ele><time>2026-04-26T07:28:59Z</time></trkpt><trkpt lat="43.91428671661202" lon="12.71647850200874"><ele>87.0</ele><time>2026-04-26T07:29:00Z</time></trkpt><trkpt lat="43.91423397869345" lon="12.716412604407846"><ele>87.0</ele><time>2026-04-26T07:29:01Z</time></trkpt><trkpt lat="43.91418417439524" lon="12.716349816450993"><ele>87.0</ele><time>2026-04-26T07:29:02Z</time></trkpt><trkpt lat="43.91413340212258" lon="12.716284653298944"><ele>87.33333333333333</ele><time>2026-04-26T07:29:03Z</time></trkpt><trkpt lat="43.914081136257394" lon="12.716215634000113"><ele>87.66666666666667</ele><time>2026-04-26T07:29:04Z</time></trkpt><trkpt lat="43.91403230132908" lon="12.716157802003943"><ele>88.0</ele><time>2026-04-26T07:29:05Z</time></trkpt><trkpt lat="43.913947650077525" lon="12.716049982318411"><ele>88.33333333333334</ele><time>2026-04-26T07:29:07Z</time></trkpt><trkpt lat="43.91387160787941" lon="12.715959176852712"><ele>88.66666666666667</ele><time>2026-04-26T07:29:09Z</time></trkpt><trkpt lat="43.913801046533905" lon="12.71587134765851"><ele>89.0</ele><time>2026-04-26T07:29:11Z</time></trkpt><trkpt lat="43.913717234978165" lon="12.715774047689653"><ele>88.99999999999999</ele><time>2026-04-26T07:29:13Z</time></trkpt><trkpt lat="43.91365395069439" lon="12.71570115623001"><ele>89.0</ele><time>2026-04-26T07:29:15Z</time></trkpt><trkpt lat="43.91359559070273" lon="12.715635939118627"><ele>89.0</ele><time>2026-04-26T07:29:18Z</time></trkpt><trkpt lat="43.91355100509103" lon="12.715567354103259"><ele>89.0</ele><time>2026-04-26T07:29:22Z</time></trkpt><trkpt lat="43.91349451849638" lon="12.715506763163532"><ele>89.0</ele><time>2026-04-26T07:29:27Z</time></trkpt><trkpt lat="43.913424626084584" lon="12.715477477270532"><ele>88.99999999999999</ele><time>2026-04-26T07:31:51Z</time></trkpt><trkpt lat="43.91340493473507" lon="12.715380729540147"><ele>89.0</ele><time>2026-04-26T07:31:56Z</time></trkpt><trkpt lat="43.91346286713799" lon="12.715329382450214"><ele>89.0</ele><time>2026-04-26T07:31:58Z</time></trkpt><trkpt lat="43.91354079314556" lon="12.715302807167392"><ele>89.0</ele><time>2026-04-26T07:32:00Z</time></trkpt><trkpt lat="43.913610254536636" lon="12.71528327471092"><ele>89.0</ele><time>2026-04-26T07:32:02Z</time></trkpt><trkpt lat="43.91367818175202" lon="12.715268284326008"><ele>89.0</ele><time>2026-04-26T07:32:04Z</time></trkpt><trkpt lat="43.91375262808736" lon="12.715233475438344"><ele>89.0</ele><time>2026-04-26T07:32:06Z</time></trkpt><trkpt lat="43.91383355030767" lon="12.71520055186678"><ele>89.0</ele><time>2026-04-26T07:32:08Z</time></trkpt><trkpt lat="43.913902445101485" lon="12.715185692790447"><ele>88.57142857142857</ele><time>2026-04-26T07:32:10Z</time></trkpt><trkpt lat="43.9139774333676" lon="12.715148597359265"><ele>88.14285714285714</ele><time>2026-04-26T07:32:12Z</time></trkpt><trkpt lat="43.91404767904016" lon="12.715124364558152"><ele>87.71428571428572</ele><time>2026-04-26T07:32:14Z</time></trkpt><trkpt lat="43.914125056826066" lon="12.715061548859346"><ele>87.28571428571428</ele><time>2026-04-26T07:32:16Z</time></trkpt><trkpt lat="43.91415672591183" lon="12.714982190671034"><ele>86.85714285714286</ele><time>2026-04-26T07:32:18Z</time></trkpt><trkpt lat="43.91416165743116" lon="12.714892582668213"><ele>86.42857142857143</ele><time>2026-04-26T07:32:20Z</time></trkpt><trkpt lat="43.914162510161134" lon="12.714803457144043"><ele>86.0</ele><time>2026-04-26T07:32:22Z</time></trkpt><trkpt lat="43.914142136474275" lon="12.71468819583256"><ele>86.0</ele><time>2026-04-26T07:32:25Z</time></trkpt><trkpt lat="43.914129690105284" lon="12.714556809206421"><ele>86.0</ele><time>2026-04-26T07:32:28Z</time></trkpt><trkpt lat="43.91411789078283" lon="12.714433762312364"><ele>86.0</ele><time>2026-04-26T07:32:30Z</time></trkpt><trkpt lat="43.914106997473425" lon="12.714323596678483"><ele>86.0</ele><time>2026-04-26T07:32:32Z</time></trkpt><trkpt lat="43.91410557345291" lon="12.714219552600328"><ele>86.0</ele><time>2026-04-26T07:32:35Z</time></trkpt><trkpt lat="43.91411916862776" lon="12.714119498818876"><ele>86.0</ele><time>2026-04-26T07:32:51Z</time></trkpt><trkpt lat="43.914165111209876" lon="12.714197359834484"><ele>86.0</ele><time>2026-04-26T07:32:57Z</time></trkpt><trkpt lat="43.914166906555096" lon="12.714293456284725"><ele>86.0</ele><time>2026-04-26T07:33:00Z</time></trkpt><trkpt lat="43.91418853151408" lon="12.714406914614752"><ele>86.0</ele><time>2026-04-26T07:33:03Z</time></trkpt><trkpt lat="43.914199068610934" lon="12.714504486831517"><ele>86.0</ele><time>2026-04-26T07:33:06Z</time></trkpt><trkpt lat="43.914202387351125" lon="12.714647385290903"><ele>86.0</ele><time>2026-04-26T07:33:09Z</time></trkpt><trkpt lat="43.914216483309794" lon="12.714735189864596"><ele>86.0</ele><time>2026-04-26T07:33:11Z</time></trkpt><trkpt lat="43.914256653323264" lon="12.714803458306875"><ele>83.0</ele><time>2026-04-26T07:33:14Z</time></trkpt><trkpt lat="43.91434786897639" lon="12.71478610970783"><ele>80.0</ele><time>2026-04-26T07:33:17Z</time></trkpt><trkpt lat="43.91447663962516" lon="12.714729428190495"><ele>77.0</ele><time>2026-04-26T07:33:19Z</time></trkpt><trkpt lat="43.914598222769996" lon="12.71469618404459"><ele>74.0</ele><time>2026-04-26T07:33:20Z</time></trkpt><trkpt lat="43.91470816297962" lon="12.71466790830303"><ele>74.0</ele><time>2026-04-26T07:33:21Z</time></trkpt><trkpt lat="43.91479622836518" lon="12.714641686041347"><ele>74.0</ele><time>2026-04-26T07:33:22Z</time></trkpt><trkpt lat="43.91485699031307" lon="12.714613768813157"><ele>74.0</ele><time>2026-04-26T07:33:23Z</time></trkpt><trkpt lat="43.91493996331039" lon="12.714574984774373"><ele>74.0</ele><time>2026-04-26T07:33:25Z</time></trkpt><trkpt lat="43.91497357649544" lon="12.714493643368435"><ele>74.0</ele><time>2026-04-26T07:33:27Z</time></trkpt><trkpt lat="43.914985688299105" lon="12.714339365587183"><ele>74.0</ele><time>2026-04-26T07:33:29Z</time></trkpt><trkpt lat="43.9149948894356" lon="12.714220049595168"><ele>73.60000000000001</ele><time>2026-04-26T07:33:31Z</time></trkpt><trkpt lat="43.91501553254949" lon="12.714081285856958"><ele>73.2</ele><time>2026-04-26T07:33:33Z</time></trkpt><trkpt lat="43.91503919483862" lon="12.713965999971176"><ele>72.80000000000001</ele><time>2026-04-26T07:33:35Z</time></trkpt><trkpt lat="43.91507815222633" lon="12.713856775566713"><ele>72.4</ele><time>2026-04-26T07:33:37Z</time></trkpt><trkpt lat="43.915157150148275" lon="12.713791108472906"><ele>72.0</ele><time>2026-04-26T07:33:39Z</time></trkpt><trkpt lat="43.91524185177084" lon="12.713702647410038"><ele>69.83333333333333</ele><time>2026-04-26T07:33:41Z</time></trkpt><trkpt lat="43.91533571967734" lon="12.713612365813123"><ele>67.66666666666667</ele><time>2026-04-26T07:33:43Z</time></trkpt><trkpt lat="43.91539619544299" lon="12.71355229296131"><ele>65.5</ele><time>2026-04-26T07:33:44Z</time></trkpt><trkpt lat="43.91545716166357" lon="12.713492127236984"><ele>63.333333333333336</ele><time>2026-04-26T07:33:45Z</time></trkpt><trkpt lat="43.915509980700904" lon="12.713441416324766"><ele>61.16666666666667</ele><time>2026-04-26T07:33:46Z</time></trkpt><trkpt lat="43.91556437930352" lon="12.713394486832023"><ele>59.0</ele><time>2026-04-26T07:33:47Z</time></trkpt><trkpt lat="43.91562564884758" lon="12.71333930757303"><ele>58.66666666666667</ele><time>2026-04-26T07:33:48Z</time></trkpt><trkpt lat="43.915737408911035" lon="12.713257152188918"><ele>58.333333333333336</ele><time>2026-04-26T07:33:50Z</time></trkpt><trkpt lat="43.91579743327543" lon="12.713214522102064"><ele>58.0</ele><time>2026-04-26T07:33:51Z</time></trkpt><trkpt lat="43.91586273517984" lon="12.71317413224545"><ele>57.66666666666667</ele><time>2026-04-26T07:33:52Z</time></trkpt><trkpt lat="43.915922637512274" lon="12.713131069622488"><ele>57.333333333333336</ele><time>2026-04-26T07:33:53Z</time></trkpt><trkpt lat="43.915980941454" lon="12.713090962317006"><ele>57.0</ele><time>2026-04-26T07:33:54Z</time></trkpt><trkpt lat="43.91604510638165" lon="12.713046922703127"><ele>55.333333333333336</ele><time>2026-04-26T07:33:55Z</time></trkpt><trkpt lat="43.91610690105254" lon="12.71300215530876"><ele>53.666666666666664</ele><time>2026-04-26T07:33:56Z</time></trkpt><trkpt lat="43.91616668401898" lon="12.712963057394587"><ele>52.0</ele><time>2026-04-26T07:33:57Z</time></trkpt><trkpt lat="43.916225476322715" lon="12.712925678759401"><ele>50.33333333333333</ele><time>2026-04-26T07:33:58Z</time></trkpt><trkpt lat="43.916315910348985" lon="12.712855251205893"><ele>48.666666666666664</ele><time>2026-04-26T07:34:00Z</time></trkpt><trkpt lat="43.91637609179605" lon="12.712788906167724"><ele>47.0</ele><time>2026-04-26T07:34:02Z</time></trkpt><trkpt lat="43.91639146525015" lon="12.712675431749336"><ele>46.2</ele><time>2026-04-26T07:34:05Z</time></trkpt><trkpt lat="43.916372059457636" lon="12.712587067827045"><ele>45.400000000000006</ele><time>2026-04-26T07:34:13Z</time></trkpt><trkpt lat="43.916343809852734" lon="12.712470520007262"><ele>44.599999999999994</ele><time>2026-04-26T07:34:15Z</time></trkpt><trkpt lat="43.91629427617898" lon="12.712315968752598"><ele>43.8</ele><time>2026-04-26T07:34:17Z</time></trkpt><trkpt lat="43.91625905686977" lon="12.712182490579714"><ele>43.0</ele><time>2026-04-26T07:34:19Z</time></trkpt><trkpt lat="43.91619891638796" lon="12.712020698365025"><ele>43.0</ele><time>2026-04-26T07:34:21Z</time></trkpt><trkpt lat="43.91616251862043" lon="12.711917545498736"><ele>43.0</ele><time>2026-04-26T07:34:22Z</time></trkpt><trkpt lat="43.9161326156395" lon="12.711839038526374"><ele>43.0</ele><time>2026-04-26T07:34:23Z</time></trkpt><trkpt lat="43.91607172738138" lon="12.711722590368524"><ele>43.0</ele><time>2026-04-26T07:34:25Z</time></trkpt><trkpt lat="43.91599133332079" lon="12.711590063711366"><ele>43.0</ele><time>2026-04-26T07:34:27Z</time></trkpt><trkpt lat="43.91591246163008" lon="12.711475550938626"><ele>43.2</ele><time>2026-04-26T07:34:29Z</time></trkpt><trkpt lat="43.91585240350305" lon="12.7113108414311"><ele>43.4</ele><time>2026-04-26T07:34:31Z</time></trkpt><trkpt lat="43.91582758272449" lon="12.711206459656236"><ele>43.6</ele><time>2026-04-26T07:34:32Z</time></trkpt><trkpt lat="43.91579478096939" lon="12.711092102968806"><ele>43.800000000000004</ele><time>2026-04-26T07:34:33Z</time></trkpt><trkpt lat="43.91576380996608" lon="12.71099989612271"><ele>44.0</ele><time>2026-04-26T07:34:34Z</time></trkpt><trkpt lat="43.91572210129882" lon="12.710867467041885"><ele>44.0</ele><time>2026-04-26T07:34:36Z</time></trkpt><trkpt lat="43.91565032801646" lon="12.710840927322714"><ele>44.0</ele><time>2026-04-26T07:34:38Z</time></trkpt><trkpt lat="43.91555213747273" lon="12.710828243672825"><ele>44.0</ele><time>2026-04-26T07:34:40Z</time></trkpt><trkpt lat="43.915494058182276" lon="12.710699472696371"><ele>44.0</ele><time>2026-04-26T07:34:42Z</time></trkpt><trkpt lat="43.91547478108706" lon="12.710591793767211"><ele>44.0</ele><time>2026-04-26T07:34:43Z</time></trkpt><trkpt lat="43.915471164507906" lon="12.71047178666669"><ele>44.0</ele><time>2026-04-26T07:34:44Z</time></trkpt><trkpt lat="43.91547640589257" lon="12.710350694745427"><ele>43.83333333333333</ele><time>2026-04-26T07:34:45Z</time></trkpt><trkpt lat="43.91547907485446" lon="12.710229305656716"><ele>43.666666666666664</ele><time>2026-04-26T07:34:46Z</time></trkpt><trkpt lat="43.91547377328491" lon="12.710127389876668"><ele>43.5</ele><time>2026-04-26T07:34:47Z</time></trkpt><trkpt lat="43.915467128688235" lon="12.710008306995121"><ele>43.333333333333336</ele><time>2026-04-26T07:34:48Z</time></trkpt><trkpt lat="43.91545841003979" lon="12.70989711619051"><ele>43.16666666666667</ele><time>2026-04-26T07:34:49Z</time></trkpt><trkpt lat="43.91545754640332" lon="12.709791799350757"><ele>43.0</ele><time>2026-04-26T07:34:50Z</time></trkpt><trkpt lat="43.9154450778376" lon="12.709692171080825"><ele>43.0</ele><time>2026-04-26T07:34:51Z</time></trkpt><trkpt lat="43.9154404137659" lon="12.709564070136581"><ele>43.0</ele><time>2026-04-26T07:34:52Z</time></trkpt><trkpt lat="43.91543976743285" lon="12.709412976720847"><ele>43.0</ele><time>2026-04-26T07:34:53Z</time></trkpt><trkpt lat="43.91543863459772" lon="12.709289510524936"><ele>43.0</ele><time>2026-04-26T07:34:54Z</time></trkpt><trkpt lat="43.915435426545386" lon="12.709168809361953"><ele>43.0</ele><time>2026-04-26T07:34:55Z</time></trkpt><trkpt lat="43.91542490312281" lon="12.709051691224177"><ele>42.833333333333336</ele><time>2026-04-26T07:34:56Z</time></trkpt><trkpt lat="43.91542100777563" lon="12.708909263765596"><ele>42.66666666666667</ele><time>2026-04-26T07:34:57Z</time></trkpt><trkpt lat="43.91541526943591" lon="12.708783722743982"><ele>42.5</ele><time>2026-04-26T07:34:58Z</time></trkpt><trkpt lat="43.915410003951365" lon="12.708659410142964"><ele>42.333333333333336</ele><time>2026-04-26T07:34:59Z</time></trkpt><trkpt lat="43.915405047877655" lon="12.70856060569395"><ele>42.166666666666664</ele><time>2026-04-26T07:35:00Z</time></trkpt><trkpt lat="43.915401011175035" lon="12.708457256289634"><ele>42.0</ele><time>2026-04-26T07:35:01Z</time></trkpt><trkpt lat="43.91539247526274" lon="12.708350977724432"><ele>41.8</ele><time>2026-04-26T07:35:02Z</time></trkpt><trkpt lat="43.91538838955471" lon="12.708241214516306"><ele>41.6</ele><time>2026-04-26T07:35:03Z</time></trkpt><trkpt lat="43.91543996724682" lon="12.708118981976371"><ele>41.4</ele><time>2026-04-26T07:35:05Z</time></trkpt><trkpt lat="43.9154805687297" lon="12.708013297008971"><ele>41.199999999999996</ele><time>2026-04-26T07:35:08Z</time></trkpt><trkpt lat="43.91552896056271" lon="12.70790383030495"><ele>41.0</ele><time>2026-04-26T07:35:10Z</time></trkpt><trkpt lat="43.91559542956234" lon="12.707754275974283"><ele>41.166666666666664</ele><time>2026-04-26T07:35:12Z</time></trkpt><trkpt lat="43.91564905356417" lon="12.707629783067437"><ele>41.33333333333333</ele><time>2026-04-26T07:35:14Z</time></trkpt><trkpt lat="43.915692347995765" lon="12.707543953808562"><ele>41.5</ele><time>2026-04-26T07:35:17Z</time></trkpt><trkpt lat="43.91567448766038" lon="12.707458756711892"><ele>41.666666666666664</ele><time>2026-04-26T07:35:40Z</time></trkpt><trkpt lat="43.915597021997826" lon="12.707455505297322"><ele>41.833333333333336</ele><time>2026-04-26T07:35:43Z</time></trkpt><trkpt lat="43.915513355938764" lon="12.707432509235376"><ele>42.0</ele><time>2026-04-26T07:35:52Z</time></trkpt><trkpt lat="43.91541451773534" lon="12.707385771097277"><ele>42.0</ele><time>2026-04-26T07:35:54Z</time></trkpt><trkpt lat="43.91532010061263" lon="12.707276384370832"><ele>42.0</ele><time>2026-04-26T07:35:56Z</time></trkpt><trkpt lat="43.91524246173506" lon="12.707238060423988"><ele>42.0</ele><time>2026-04-26T07:35:57Z</time></trkpt><trkpt lat="43.915170051659615" lon="12.707188487416683"><ele>42.0</ele><time>2026-04-26T07:35:58Z</time></trkpt><trkpt lat="43.91509814159517" lon="12.707128567990553"><ele>42.0</ele><time>2026-04-26T07:35:59Z</time></trkpt><trkpt lat="43.91501639153439" lon="12.707057161767011"><ele>42.5</ele><time>2026-04-26T07:36:00Z</time></trkpt><trkpt lat="43.914934231163905" lon="12.706979303627007"><ele>43.0</ele><time>2026-04-26T07:36:01Z</time></trkpt><trkpt lat="43.914857892976016" lon="12.706922848580664"><ele>43.5</ele><time>2026-04-26T07:36:02Z</time></trkpt><trkpt lat="43.91479233382557" lon="12.70686671801631"><ele>44.0</ele><time>2026-04-26T07:36:03Z</time></trkpt><trkpt lat="43.91472930562068" lon="12.706822531709882"><ele>44.5</ele><time>2026-04-26T07:36:04Z</time></trkpt><trkpt lat="43.91468236622108" lon="12.706756564179944"><ele>45.0</ele><time>2026-04-26T07:36:05Z</time></trkpt><trkpt lat="43.91462924689388" lon="12.706674600932743"><ele>45.5</ele><time>2026-04-26T07:36:07Z</time></trkpt><trkpt lat="43.91458460132778" lon="12.70655927529673"><ele>46.0</ele><time>2026-04-26T07:36:13Z</time></trkpt><trkpt lat="43.91466077014035" lon="12.706496216964977"><ele>46.5</ele><time>2026-04-26T07:36:15Z</time></trkpt><trkpt lat="43.914626276605105" lon="12.706328512649245"><ele>47.0</ele><time>2026-04-26T07:36:17Z</time></trkpt><trkpt lat="43.914692638626654" lon="12.70604241909982"><ele>47.6</ele><time>2026-04-26T07:36:18Z</time></trkpt><trkpt lat="43.914660139236844" lon="12.705964788959097"><ele>48.2</ele><time>2026-04-26T07:36:19Z</time></trkpt><trkpt lat="43.914604526243984" lon="12.70583323386567"><ele>48.8</ele><time>2026-04-26T07:36:22Z</time></trkpt><trkpt lat="43.91457893908427" lon="12.705715706239392"><ele>49.4</ele><time>2026-04-26T07:36:23Z</time></trkpt><trkpt lat="43.91455827296889" lon="12.705567168120718"><ele>50.0</ele><time>2026-04-26T07:36:24Z</time></trkpt><trkpt lat="43.91453131926063" lon="12.70535725920638"><ele>50.25</ele><time>2026-04-26T07:36:25Z</time></trkpt><trkpt lat="43.91449013753656" lon="12.705196092277669"><ele>50.5</ele><time>2026-04-26T07:36:26Z</time></trkpt><trkpt lat="43.91446596133507" lon="12.705095252531162"><ele>50.75</ele><time>2026-04-26T07:36:27Z</time></trkpt><trkpt lat="43.91442889200337" lon="12.7049406351004"><ele>51.0</ele><time>2026-04-26T07:36:29Z</time></trkpt><trkpt lat="43.91425024139933" lon="12.704817432467728"><ele>53.25</ele><time>2026-04-26T07:36:31Z</time></trkpt><trkpt lat="43.9141549480266" lon="12.70471740568657"><ele>55.5</ele><time>2026-04-26T07:36:32Z</time></trkpt><trkpt lat="43.914080544191314" lon="12.704639672614135"><ele>57.75</ele><time>2026-04-26T07:36:33Z</time></trkpt><trkpt lat="43.91399131667538" lon="12.704540178291275"><ele>60.0</ele><time>2026-04-26T07:36:34Z</time></trkpt><trkpt lat="43.91388863971335" lon="12.704439547027606"><ele>60.4</ele><time>2026-04-26T07:36:35Z</time></trkpt><trkpt lat="43.91380173879893" lon="12.704357143814509"><ele>60.8</ele><time>2026-04-26T07:36:36Z</time></trkpt><trkpt lat="43.91371831351968" lon="12.704277697781123"><ele>61.2</ele><time>2026-04-26T07:36:37Z</time></trkpt><trkpt lat="43.91362320913601" lon="12.704189818581098"><ele>61.6</ele><time>2026-04-26T07:36:38Z</time></trkpt><trkpt lat="43.913515495495076" lon="12.7040921079672"><ele>62.0</ele><time>2026-04-26T07:36:39Z</time></trkpt><trkpt lat="43.913413699205925" lon="12.704001419012902"><ele>63.400000000000006</ele><time>2026-04-26T07:36:40Z</time></trkpt><trkpt lat="43.913320372927274" lon="12.703920741322552"><ele>64.80000000000001</ele><time>2026-04-26T07:36:41Z</time></trkpt><trkpt lat="43.91323832779686" lon="12.703855097414753"><ele>66.2</ele><time>2026-04-26T07:36:42Z</time></trkpt><trkpt lat="43.913156562530055" lon="12.703802462204296"><ele>67.60000000000001</ele><time>2026-04-26T07:36:43Z</time></trkpt><trkpt lat="43.91307021703357" lon="12.703743818921362"><ele>69.0</ele><time>2026-04-26T07:36:44Z</time></trkpt><trkpt lat="43.91298612087315" lon="12.703684920711302"><ele>69.0</ele><time>2026-04-26T07:36:45Z</time></trkpt><trkpt lat="43.91288306263659" lon="12.703614785882044"><ele>69.0</ele><time>2026-04-26T07:36:46Z</time></trkpt><trkpt lat="43.91279121256498" lon="12.703551011574787"><ele>69.0</ele><time>2026-04-26T07:36:47Z</time></trkpt><trkpt lat="43.91269951134094" lon="12.70348242574068"><ele>69.0</ele><time>2026-04-26T07:36:48Z</time></trkpt><trkpt lat="43.91261741731358" lon="12.703427455807246"><ele>69.0</ele><time>2026-04-26T07:36:49Z</time></trkpt><trkpt lat="43.9125340498875" lon="12.703373855109746"><ele>71.6</ele><time>2026-04-26T07:36:50Z</time></trkpt><trkpt lat="43.91245150663367" lon="12.703317687396492"><ele>74.2</ele><time>2026-04-26T07:36:51Z</time></trkpt><trkpt lat="43.912364519150046" lon="12.703261203650236"><ele>76.8</ele><time>2026-04-26T07:36:52Z</time></trkpt><trkpt lat="43.912274128859295" lon="12.703196152207259"><ele>79.39999999999999</ele><time>2026-04-26T07:36:53Z</time></trkpt><trkpt lat="43.91218515931497" lon="12.70313498874376"><ele>82.0</ele><time>2026-04-26T07:36:54Z</time></trkpt><trkpt lat="43.912090572567834" lon="12.703070572570025"><ele>82.0</ele><time>2026-04-26T07:36:55Z</time></trkpt><trkpt lat="43.91198109303484" lon="12.702995924229512"><ele>82.0</ele><time>2026-04-26T07:36:56Z</time></trkpt><trkpt lat="43.911890744102834" lon="12.702939933039238"><ele>82.0</ele><time>2026-04-26T07:36:57Z</time></trkpt><trkpt lat="43.91179955645154" lon="12.70288134641751"><ele>82.0</ele><time>2026-04-26T07:36:58Z</time></trkpt><trkpt lat="43.911716687472364" lon="12.702825642599546"><ele>82.0</ele><time>2026-04-26T07:36:59Z</time></trkpt><trkpt lat="43.91165091837482" lon="12.702770775088636"><ele>84.8</ele><time>2026-04-26T07:37:00Z</time></trkpt><trkpt lat="43.91158961110859" lon="12.702706039530428"><ele>87.6</ele><time>2026-04-26T07:37:01Z</time></trkpt><trkpt lat="43.91154028922375" lon="12.702631337917499"><ele>90.39999999999999</ele><time>2026-04-26T07:37:02Z</time></trkpt><trkpt lat="43.911485820539006" lon="12.702518021132375"><ele>93.19999999999999</ele><time>2026-04-26T07:37:03Z</time></trkpt><trkpt lat="43.91142101319104" lon="12.702376171287472"><ele>96.0</ele><time>2026-04-26T07:37:04Z</time></trkpt><trkpt lat="43.911342669822716" lon="12.70220166011993"><ele>96.0</ele><time>2026-04-26T07:37:05Z</time></trkpt><trkpt lat="43.911257452228455" lon="12.702019800260201"><ele>96.0</ele><time>2026-04-26T07:37:06Z</time></trkpt><trkpt lat="43.911175994812695" lon="12.701840572160807"><ele>96.0</ele><time>2026-04-26T07:37:07Z</time></trkpt><trkpt lat="43.911103402026264" lon="12.701688942410103"><ele>96.0</ele><time>2026-04-26T07:37:08Z</time></trkpt><trkpt lat="43.911044687451465" lon="12.70157386336103"><ele>97.16666666666667</ele><time>2026-04-26T07:37:09Z</time></trkpt><trkpt lat="43.91096731599066" lon="12.70145567148304"><ele>98.33333333333334</ele><time>2026-04-26T07:37:10Z</time></trkpt><trkpt lat="43.91091238203561" lon="12.701380614533832"><ele>99.5</ele><time>2026-04-26T07:37:11Z</time></trkpt><trkpt lat="43.91085983965681" lon="12.701283129695556"><ele>100.66666666666667</ele><time>2026-04-26T07:37:13Z</time></trkpt><trkpt lat="43.910918572171845" lon="12.701204958396984"><ele>101.83333333333334</ele><time>2026-04-26T07:37:15Z</time></trkpt><trkpt lat="43.91098514470595" lon="12.701144315951739"><ele>103.0</ele><time>2026-04-26T07:37:16Z</time></trkpt><trkpt lat="43.91108077365818" lon="12.70105869976653"><ele>103.5</ele><time>2026-04-26T07:37:17Z</time></trkpt><trkpt lat="43.91117572107363" lon="12.700926728684447"><ele>104.0</ele><time>2026-04-26T07:37:18Z</time></trkpt><trkpt lat="43.911248438345304" lon="12.700800936967749"><ele>104.5</ele><time>2026-04-26T07:37:19Z</time></trkpt><trkpt lat="43.91132254282458" lon="12.700684958345443"><ele>105.0</ele><time>2026-04-26T07:37:20Z</time></trkpt><trkpt lat="43.91139159684002" lon="12.700591174458282"><ele>105.0</ele><time>2026-04-26T07:37:21Z</time></trkpt><trkpt lat="43.911452134746504" lon="12.700504896563134"><ele>105.0</ele><time>2026-04-26T07:37:22Z</time></trkpt><trkpt lat="43.91150953723" lon="12.700426916119053"><ele>105.0</ele><time>2026-04-26T07:37:23Z</time></trkpt><trkpt lat="43.911573258949836" lon="12.700344245816304"><ele>105.0</ele><time>2026-04-26T07:37:24Z</time></trkpt><trkpt lat="43.911643719433336" lon="12.700251364192049"><ele>105.0</ele><time>2026-04-26T07:37:25Z</time></trkpt><trkpt lat="43.91170288698145" lon="12.700172719468172"><ele>105.0</ele><time>2026-04-26T07:37:26Z</time></trkpt><trkpt lat="43.9117521264283" lon="12.700109918585946"><ele>103.83333333333333</ele><time>2026-04-26T07:37:27Z</time></trkpt><trkpt lat="43.91183210184261" lon="12.700010467022413"><ele>102.66666666666666</ele><time>2026-04-26T07:37:29Z</time></trkpt><trkpt lat="43.91190959640969" lon="12.699894312889805"><ele>101.5</ele><time>2026-04-26T07:37:31Z</time></trkpt><trkpt lat="43.91195618007028" lon="12.699827282791539"><ele>100.33333333333333</ele><time>2026-04-26T07:37:32Z</time></trkpt><trkpt lat="43.91201295349072" lon="12.699758208695172"><ele>99.16666666666666</ele><time>2026-04-26T07:37:33Z</time></trkpt><trkpt lat="43.912064346762634" lon="12.699696323160385"><ele>98.0</ele><time>2026-04-26T07:37:34Z</time></trkpt><trkpt lat="43.91212289141539" lon="12.699631938334663"><ele>98.0</ele><time>2026-04-26T07:37:35Z</time></trkpt><trkpt lat="43.91221642450604" lon="12.699505206828933"><ele>98.0</ele><time>2026-04-26T07:37:37Z</time></trkpt><trkpt lat="43.91226706405595" lon="12.699431056118149"><ele>98.0</ele><time>2026-04-26T07:37:38Z</time></trkpt><trkpt lat="43.91232308314204" lon="12.699347184895359"><ele>98.0</ele><time>2026-04-26T07:37:39Z</time></trkpt><trkpt lat="43.91236904684387" lon="12.699276766801049"><ele>98.0</ele><time>2026-04-26T07:37:40Z</time></trkpt><trkpt lat="43.91243198463913" lon="12.699170269766869"><ele>97.16666666666666</ele><time>2026-04-26T07:37:42Z</time></trkpt><trkpt lat="43.91248703856665" lon="12.699062253608442"><ele>96.33333333333333</ele><time>2026-04-26T07:37:44Z</time></trkpt><trkpt lat="43.912560333079234" lon="12.6989153824903"><ele>95.5</ele><time>2026-04-26T07:37:46Z</time></trkpt><trkpt lat="43.91259856109623" lon="12.698831005349902"><ele>94.66666666666666</ele><time>2026-04-26T07:37:47Z</time></trkpt><trkpt lat="43.91263139485539" lon="12.698752934997867"><ele>93.83333333333333</ele><time>2026-04-26T07:37:48Z</time></trkpt><trkpt lat="43.91267146869159" lon="12.698663817409773"><ele>93.0</ele><time>2026-04-26T07:37:49Z</time></trkpt><trkpt lat="43.91270835653244" lon="12.698584979060687"><ele>94.83333333333333</ele><time>2026-04-26T07:37:50Z</time></trkpt><trkpt lat="43.912802438002174" lon="12.698453632937484"><ele>96.66666666666666</ele><time>2026-04-26T07:37:52Z</time></trkpt><trkpt lat="43.91285512915084" lon="12.698399094437583"><ele>98.5</ele><time>2026-04-26T07:37:53Z</time></trkpt><trkpt lat="43.91291991206051" lon="12.698351613763315"><ele>100.33333333333333</ele><time>2026-04-26T07:37:54Z</time></trkpt><trkpt lat="43.912980949132056" lon="12.698307172358467"><ele>102.16666666666666</ele><time>2026-04-26T07:37:55Z</time></trkpt><trkpt lat="43.913055924145404" lon="12.698236006100021"><ele>104.0</ele><time>2026-04-26T07:37:56Z</time></trkpt><trkpt lat="43.91314910512498" lon="12.698161000501557"><ele>103.99999999999999</ele><time>2026-04-26T07:37:57Z</time></trkpt><trkpt lat="43.913225800576306" lon="12.698090895929933"><ele>104.0</ele><time>2026-04-26T07:37:58Z</time></trkpt><trkpt lat="43.913302711025146" lon="12.698023282161097"><ele>104.0</ele><time>2026-04-26T07:37:59Z</time></trkpt><trkpt lat="43.913382344256405" lon="12.697961547172431"><ele>104.0</ele><time>2026-04-26T07:38:00Z</time></trkpt><trkpt lat="43.91346748696657" lon="12.697896896823202"><ele>103.99999999999999</ele><time>2026-04-26T07:38:01Z</time></trkpt><trkpt lat="43.913533087229965" lon="12.697850817762001"><ele>104.0</ele><time>2026-04-26T07:38:02Z</time></trkpt><trkpt lat="43.91359767776854" lon="12.697812122926567"><ele>103.49999999999999</ele><time>2026-04-26T07:38:03Z</time></trkpt><trkpt lat="43.91366838535932" lon="12.697771648909113"><ele>103.0</ele><time>2026-04-26T07:38:04Z</time></trkpt><trkpt lat="43.91373389270726" lon="12.69773510941197"><ele>102.5</ele><time>2026-04-26T07:38:05Z</time></trkpt><trkpt lat="43.91379398668252" lon="12.69770101658172"><ele>102.0</ele><time>2026-04-26T07:38:06Z</time></trkpt><trkpt lat="43.91391308399361" lon="12.697612933270483"><ele>101.49999999999999</ele><time>2026-04-26T07:38:08Z</time></trkpt><trkpt lat="43.91398203065224" lon="12.697551834949666"><ele>101.0</ele><time>2026-04-26T07:38:09Z</time></trkpt><trkpt lat="43.91402865242942" lon="12.697492291151153"><ele>101.49999999999999</ele><time>2026-04-26T07:38:10Z</time></trkpt><trkpt lat="43.914064636986666" lon="12.697418115840046"><ele>102.0</ele><time>2026-04-26T07:38:11Z</time></trkpt><trkpt lat="43.91410097837218" lon="12.697332307618373"><ele>102.5</ele><time>2026-04-26T07:38:12Z</time></trkpt><trkpt lat="43.91413696176456" lon="12.697237637234345"><ele>103.0</ele><time>2026-04-26T07:38:13Z</time></trkpt><trkpt lat="43.9141778140156" lon="12.697140516833425"><ele>103.49999999999999</ele><time>2026-04-26T07:38:14Z</time></trkpt><trkpt lat="43.91424210838579" lon="12.697054677735458"><ele>104.0</ele><time>2026-04-26T07:38:15Z</time></trkpt><trkpt lat="43.9143284310787" lon="12.696968120621689"><ele>104.80000000000001</ele><time>2026-04-26T07:38:16Z</time></trkpt><trkpt lat="43.91442733493998" lon="12.696880979134553"><ele>105.60000000000001</ele><time>2026-04-26T07:38:17Z</time></trkpt><trkpt lat="43.91451384032863" lon="12.696805150857461"><ele>106.4</ele><time>2026-04-26T07:38:18Z</time></trkpt><trkpt lat="43.9145750014726" lon="12.696743510326181"><ele>107.2</ele><time>2026-04-26T07:38:19Z</time></trkpt><trkpt lat="43.9146855343527" lon="12.696664028635782"><ele>108.0</ele><time>2026-04-26T07:38:21Z</time></trkpt><trkpt lat="43.91480510825132" lon="12.696603955487209"><ele>108.0</ele><time>2026-04-26T07:38:23Z</time></trkpt><trkpt lat="43.914867056897194" lon="12.696580289845267"><ele>108.0</ele><time>2026-04-26T07:38:24Z</time></trkpt><trkpt lat="43.91498387655015" lon="12.696550772576312"><ele>108.0</ele><time>2026-04-26T07:38:26Z</time></trkpt><trkpt lat="43.91508166307578" lon="12.696535232490257"><ele>108.0</ele><time>2026-04-26T07:38:28Z</time></trkpt><trkpt lat="43.91514456912869" lon="12.696492775148466"><ele>108.0</ele><time>2026-04-26T07:38:30Z</time></trkpt><trkpt lat="43.915180305596984" lon="12.696405849490601"><ele>108.0</ele><time>2026-04-26T07:38:32Z</time></trkpt><trkpt lat="43.915151610678336" lon="12.696259761700114"><ele>108.5</ele><time>2026-04-26T07:38:34Z</time></trkpt><trkpt lat="43.91512470176616" lon="12.696172930697395"><ele>109.0</ele><time>2026-04-26T07:38:35Z</time></trkpt><trkpt lat="43.91509903922348" lon="12.69608145547215"><ele>109.5</ele><time>2026-04-26T07:38:36Z</time></trkpt><trkpt lat="43.91506289529805" lon="12.695969631242043"><ele>110.0</ele><time>2026-04-26T07:38:37Z</time></trkpt><trkpt lat="43.91502363256728" lon="12.695837132053786"><ele>110.5</ele><time>2026-04-26T07:38:38Z</time></trkpt><trkpt lat="43.91498163090323" lon="12.695691173852266"><ele>111.0</ele><time>2026-04-26T07:38:39Z</time></trkpt><trkpt lat="43.91493685943173" lon="12.695533544376929"><ele>111.0</ele><time>2026-04-26T07:38:40Z</time></trkpt><trkpt lat="43.91489889065301" lon="12.695396395471429"><ele>111.0</ele><time>2026-04-26T07:38:41Z</time></trkpt><trkpt lat="43.91486783629126" lon="12.695289497741502"><ele>111.0</ele><time>2026-04-26T07:38:42Z</time></trkpt><trkpt lat="43.91484022048313" lon="12.69519564872385"><ele>111.0</ele><time>2026-04-26T07:38:43Z</time></trkpt><trkpt lat="43.91479983064602" lon="12.695040174750085"><ele>111.0</ele><time>2026-04-26T07:38:45Z</time></trkpt><trkpt lat="43.91476537173596" lon="12.69491056078315"><ele>112.8</ele><time>2026-04-26T07:38:47Z</time></trkpt><trkpt lat="43.91472034573508" lon="12.69475027932224"><ele>114.6</ele><time>2026-04-26T07:38:49Z</time></trkpt><trkpt lat="43.914671213827816" lon="12.694593652812069"><ele>116.4</ele><time>2026-04-26T07:38:51Z</time></trkpt><trkpt lat="43.91463718647842" lon="12.694480004956334"><ele>118.2</ele><time>2026-04-26T07:38:53Z</time></trkpt><trkpt lat="43.914650891222166" lon="12.694386813647514"><ele>120.0</ele><time>2026-04-26T07:38:57Z</time></trkpt><trkpt lat="43.91475192613315" lon="12.694330678056499"><ele>119.6</ele><time>2026-04-26T07:38:59Z</time></trkpt><trkpt lat="43.91483132518975" lon="12.694290915296776"><ele>119.2</ele><time>2026-04-26T07:39:00Z</time></trkpt><trkpt lat="43.914921640435644" lon="12.694240449201068"><ele>118.80000000000001</ele><time>2026-04-26T07:39:01Z</time></trkpt><trkpt lat="43.91502116313867" lon="12.694181895676248"><ele>118.4</ele><time>2026-04-26T07:39:02Z</time></trkpt><trkpt lat="43.91513406022944" lon="12.694112923685651"><ele>118.0</ele><time>2026-04-26T07:39:03Z</time></trkpt><trkpt lat="43.91525031191959" lon="12.694033920765603"><ele>118.0</ele><time>2026-04-26T07:39:04Z</time></trkpt><trkpt lat="43.9153766713879" lon="12.69396437481603"><ele>118.00000000000001</ele><time>2026-04-26T07:39:05Z</time></trkpt><trkpt lat="43.91549183126762" lon="12.693905087646241"><ele>118.00000000000001</ele><time>2026-04-26T07:39:06Z</time></trkpt><trkpt lat="43.915579261535115" lon="12.693858614477435"><ele>118.0</ele><time>2026-04-26T07:39:07Z</time></trkpt><trkpt lat="43.915641612459325" lon="12.693830073065977"><ele>118.0</ele><time>2026-04-26T07:39:08Z</time></trkpt><trkpt lat="43.91564612648765" lon="12.693635269533294"><ele>119.0</ele><time>2026-04-26T07:39:27Z</time></trkpt><trkpt lat="43.9155611283288" lon="12.693524202044223"><ele>120.00000000000001</ele><time>2026-04-26T07:39:29Z</time></trkpt><trkpt lat="43.915525552239245" lon="12.693420587176774"><ele>121.00000000000001</ele><time>2026-04-26T07:39:30Z</time></trkpt><trkpt lat="43.91546337070583" lon="12.693340408455379"><ele>122.0</ele><time>2026-04-26T07:39:31Z</time></trkpt><trkpt lat="43.915389554535004" lon="12.69324395344244"><ele>123.0</ele><time>2026-04-26T07:39:32Z</time></trkpt><trkpt lat="43.915313581112294" lon="12.693148340976158"><ele>123.0</ele><time>2026-04-26T07:39:33Z</time></trkpt><trkpt lat="43.91523628386291" lon="12.69304353117405"><ele>123.00000000000001</ele><time>2026-04-26T07:39:34Z</time></trkpt><trkpt lat="43.91517703852826" lon="12.692961864261363"><ele>123.00000000000001</ele><time>2026-04-26T07:39:35Z</time></trkpt><trkpt lat="43.91509718672942" lon="12.692854045281324"><ele>123.0</ele><time>2026-04-26T07:39:37Z</time></trkpt><trkpt lat="43.9150111805443" lon="12.692742946958168"><ele>123.0</ele><time>2026-04-26T07:39:39Z</time></trkpt><trkpt lat="43.914963482051775" lon="12.692685455138488"><ele>123.60000000000001</ele><time>2026-04-26T07:39:40Z</time></trkpt><trkpt lat="43.91487060347243" lon="12.692576383246939"><ele>124.20000000000002</ele><time>2026-04-26T07:39:42Z</time></trkpt><trkpt lat="43.91480563493202" lon="12.69250154269204"><ele>124.8</ele><time>2026-04-26T07:39:43Z</time></trkpt><trkpt lat="43.91473200893837" lon="12.692418970236169"><ele>125.4</ele><time>2026-04-26T07:39:44Z</time></trkpt><trkpt lat="43.914648231662575" lon="12.692333556682332"><ele>126.0</ele><time>2026-04-26T07:39:45Z</time></trkpt><trkpt lat="43.91454900327789" lon="12.692241625968885"><ele>126.0</ele><time>2026-04-26T07:39:46Z</time></trkpt><trkpt lat="43.91444735655851" lon="12.692165371364664"><ele>126.0</ele><time>2026-04-26T07:39:47Z</time></trkpt><trkpt lat="43.914334432309765" lon="12.69211797338125"><ele>126.0</ele><time>2026-04-26T07:39:48Z</time></trkpt><trkpt lat="43.91422752069945" lon="12.692062603259611"><ele>126.0</ele><time>2026-04-26T07:39:49Z</time></trkpt><trkpt lat="43.91411750043862" lon="12.692020676235854"><ele>127.6</ele><time>2026-04-26T07:39:50Z</time></trkpt><trkpt lat="43.913987032616006" lon="12.691985287563815"><ele>129.2</ele><time>2026-04-26T07:39:51Z</time></trkpt><trkpt lat="43.91388032095309" lon="12.691943287467913"><ele>130.8</ele><time>2026-04-26T07:39:52Z</time></trkpt><trkpt lat="43.913783322840956" lon="12.69193528455014"><ele>132.4</ele><time>2026-04-26T07:39:53Z</time></trkpt><trkpt lat="43.91368946230137" lon="12.691927805250437"><ele>134.0</ele><time>2026-04-26T07:39:54Z</time></trkpt><trkpt lat="43.913613735068225" lon="12.691918855478336"><ele>134.0</ele><time>2026-04-26T07:39:55Z</time></trkpt><trkpt lat="43.91349379777461" lon="12.691877400748586"><ele>134.0</ele><time>2026-04-26T07:39:57Z</time></trkpt><trkpt lat="43.91341479648175" lon="12.691790564546169"><ele>134.0</ele><time>2026-04-26T07:39:59Z</time></trkpt><trkpt lat="43.91337412814255" lon="12.69167758204459"><ele>134.0</ele><time>2026-04-26T07:40:01Z</time></trkpt><trkpt lat="43.91339346797886" lon="12.691491691226812"><ele>134.6</ele><time>2026-04-26T07:40:03Z</time></trkpt><trkpt lat="43.913398047374756" lon="12.691360597072347"><ele>135.2</ele><time>2026-04-26T07:40:04Z</time></trkpt><trkpt lat="43.91340100819091" lon="12.691198762533883"><ele>135.79999999999998</ele><time>2026-04-26T07:40:05Z</time></trkpt><trkpt lat="43.913400571030444" lon="12.691030932637517"><ele>136.4</ele><time>2026-04-26T07:40:06Z</time></trkpt><trkpt lat="43.913382998682344" lon="12.690879142340254"><ele>137.0</ele><time>2026-04-26T07:40:07Z</time></trkpt><trkpt lat="43.913336317728124" lon="12.690732638858488"><ele>137.0</ele><time>2026-04-26T07:40:08Z</time></trkpt><trkpt lat="43.913351166398655" lon="12.690598465397889"><ele>137.0</ele><time>2026-04-26T07:40:09Z</time></trkpt><trkpt lat="43.91335342768608" lon="12.690424263754654"><ele>137.0</ele><time>2026-04-26T07:40:10Z</time></trkpt><trkpt lat="43.913346739674886" lon="12.690258882440824"><ele>137.0</ele><time>2026-04-26T07:40:11Z</time></trkpt><trkpt lat="43.91333573057505" lon="12.69011532684682"><ele>137.0</ele><time>2026-04-26T07:40:12Z</time></trkpt><trkpt lat="43.9133220146032" lon="12.689969054091897"><ele>137.16666666666666</ele><time>2026-04-26T07:40:13Z</time></trkpt><trkpt lat="43.91330961267693" lon="12.689843350199656"><ele>137.33333333333331</ele><time>2026-04-26T07:40:14Z</time></trkpt><trkpt lat="43.913299369471886" lon="12.68973067487763"><ele>137.5</ele><time>2026-04-26T07:40:15Z</time></trkpt><trkpt lat="43.913289310296314" lon="12.689620023852164"><ele>137.66666666666666</ele><time>2026-04-26T07:40:16Z</time></trkpt><trkpt lat="43.913277585829675" lon="12.689491054827936"><ele>137.83333333333334</ele><time>2026-04-26T07:40:17Z</time></trkpt><trkpt lat="43.913256096836506" lon="12.689373478361393"><ele>138.0</ele><time>2026-04-26T07:40:18Z</time></trkpt><trkpt lat="43.913255392911815" lon="12.689254032822369"><ele>137.4</ele><time>2026-04-26T07:40:19Z</time></trkpt><trkpt lat="43.91325783819884" lon="12.689146523750445"><ele>136.8</ele><time>2026-04-26T07:40:20Z</time></trkpt><trkpt lat="43.913283331590534" lon="12.6890266335576"><ele>136.2</ele><time>2026-04-26T07:40:22Z</time></trkpt><trkpt lat="43.91337061069001" lon="12.689015160005058"><ele>135.6</ele><time>2026-04-26T07:40:23Z</time></trkpt><trkpt lat="43.9134301037007" lon="12.688850013353637"><ele>135.0</ele><time>2026-04-26T07:40:25Z</time></trkpt><trkpt lat="43.91343565061637" lon="12.688723254339296"><ele>132.5</ele><time>2026-04-26T07:40:26Z</time></trkpt><trkpt lat="43.913466468491485" lon="12.68854754953069"><ele>130.0</ele><time>2026-04-26T07:40:27Z</time></trkpt><trkpt lat="43.913500778581195" lon="12.688390422183101"><ele>127.5</ele><time>2026-04-26T07:40:28Z</time></trkpt><trkpt lat="43.913535252908005" lon="12.688223468069896"><ele>125.0</ele><time>2026-04-26T07:40:29Z</time></trkpt><trkpt lat="43.913576471039434" lon="12.68802170402091"><ele>125.0</ele><time>2026-04-26T07:40:30Z</time></trkpt><trkpt lat="43.913604263176836" lon="12.687836877680558"><ele>125.0</ele><time>2026-04-26T07:40:31Z</time></trkpt><trkpt lat="43.9136498786385" lon="12.687715297775284"><ele>125.0</ele><time>2026-04-26T07:40:32Z</time></trkpt><trkpt lat="43.91368719322842" lon="12.687593212649539"><ele>125.0</ele><time>2026-04-26T07:40:33Z</time></trkpt><trkpt lat="43.91371813693196" lon="12.687483017988235"><ele>125.0</ele><time>2026-04-26T07:40:34Z</time></trkpt><trkpt lat="43.913749574582035" lon="12.687391682166115"><ele>125.16666666666666</ele><time>2026-04-26T07:40:35Z</time></trkpt><trkpt lat="43.91377359074384" lon="12.68729881585631"><ele>125.33333333333333</ele><time>2026-04-26T07:40:36Z</time></trkpt><trkpt lat="43.91380283354597" lon="12.687213582256286"><ele>125.5</ele><time>2026-04-26T07:40:37Z</time></trkpt><trkpt lat="43.91383647377526" lon="12.687117538375391"><ele>125.66666666666666</ele><time>2026-04-26T07:40:38Z</time></trkpt><trkpt lat="43.91386970504892" lon="12.687020298289074"><ele>125.83333333333333</ele><time>2026-04-26T07:40:39Z</time></trkpt><trkpt lat="43.9139019006058" lon="12.686924087744398"><ele>126.0</ele><time>2026-04-26T07:40:40Z</time></trkpt><trkpt lat="43.91393629069727" lon="12.686816869104991"><ele>126.0</ele><time>2026-04-26T07:40:41Z</time></trkpt><trkpt lat="43.91397011917671" lon="12.686707772521475"><ele>126.0</ele><time>2026-04-26T07:40:42Z</time></trkpt><trkpt lat="43.914002245843655" lon="12.686596486652368"><ele>126.0</ele><time>2026-04-26T07:40:43Z</time></trkpt><trkpt lat="43.91403124228621" lon="12.686478908559046"><ele>126.0</ele><time>2026-04-26T07:40:44Z</time></trkpt><trkpt lat="43.91405129117028" lon="12.686347447981897"><ele>126.0</ele><time>2026-04-26T07:40:45Z</time></trkpt><trkpt lat="43.91407125819285" lon="12.686211748088526"><ele>126.0</ele><time>2026-04-26T07:40:46Z</time></trkpt><trkpt lat="43.914087746082764" lon="12.686068542615832"><ele>126.0</ele><time>2026-04-26T07:40:47Z</time></trkpt><trkpt lat="43.91412005456649" lon="12.685920728316646"><ele>126.0</ele><time>2026-04-26T07:40:48Z</time></trkpt><trkpt lat="43.914134519152" lon="12.685756302026917"><ele>126.0</ele><time>2026-04-26T07:40:49Z</time></trkpt><trkpt lat="43.91414751821644" lon="12.685586447581683"><ele>126.0</ele><time>2026-04-26T07:40:50Z</time></trkpt><trkpt lat="43.914160317853074" lon="12.685411690179507"><ele>126.0</ele><time>2026-04-26T07:40:51Z</time></trkpt><trkpt lat="43.91417208165474" lon="12.685240489274022"><ele>126.0</ele><time>2026-04-26T07:40:52Z</time></trkpt><trkpt lat="43.91418380272149" lon="12.68506991037654"><ele>126.0</ele><time>2026-04-26T07:40:53Z</time></trkpt><trkpt lat="43.914186063416416" lon="12.684921747304053"><ele>126.4</ele><time>2026-04-26T07:40:54Z</time></trkpt><trkpt lat="43.914193010127484" lon="12.684795842288027"><ele>126.8</ele><time>2026-04-26T07:40:55Z</time></trkpt><trkpt lat="43.91420110307389" lon="12.684698710575212"><ele>127.20000000000002</ele><time>2026-04-26T07:40:56Z</time></trkpt><trkpt lat="43.9142267298105" lon="12.68456589595196"><ele>127.60000000000001</ele><time>2026-04-26T07:40:58Z</time></trkpt><trkpt lat="43.91425947894878" lon="12.684453687891386"><ele>128.0</ele><time>2026-04-26T07:41:00Z</time></trkpt><trkpt lat="43.91442793248665" lon="12.684465159027809"><ele>125.80000000000001</ele><time>2026-04-26T07:41:01Z</time></trkpt><trkpt lat="43.91452607574104" lon="12.68439202404547"><ele>123.60000000000001</ele><time>2026-04-26T07:41:02Z</time></trkpt><trkpt lat="43.91461446936908" lon="12.684295926909948"><ele>121.39999999999999</ele><time>2026-04-26T07:41:03Z</time></trkpt><trkpt lat="43.914709086425155" lon="12.6842228064942"><ele>119.19999999999999</ele><time>2026-04-26T07:41:04Z</time></trkpt><trkpt lat="43.914802790161026" lon="12.68414964606788"><ele>117.0</ele><time>2026-04-26T07:41:05Z</time></trkpt><trkpt lat="43.91489185350698" lon="12.684079660902025"><ele>117.0</ele><time>2026-04-26T07:41:06Z</time></trkpt><trkpt lat="43.91498337019966" lon="12.684015798095666"><ele>116.99999999999999</ele><time>2026-04-26T07:41:07Z</time></trkpt><trkpt lat="43.9150751691948" lon="12.683958191069816"><ele>116.99999999999999</ele><time>2026-04-26T07:41:08Z</time></trkpt><trkpt lat="43.91517300088396" lon="12.683911561380306"><ele>117.0</ele><time>2026-04-26T07:41:09Z</time></trkpt><trkpt lat="43.915277076160514" lon="12.68389841528686"><ele>117.0</ele><time>2026-04-26T07:41:10Z</time></trkpt><trkpt lat="43.91538260769679" lon="12.683871594007002"><ele>113.5</ele><time>2026-04-26T07:41:11Z</time></trkpt><trkpt lat="43.91548219898354" lon="12.683861768818824"><ele>110.0</ele><time>2026-04-26T07:41:12Z</time></trkpt><trkpt lat="43.91558093982636" lon="12.683873204521785"><ele>106.5</ele><time>2026-04-26T07:41:13Z</time></trkpt><trkpt lat="43.91570599318718" lon="12.683904497573074"><ele>103.0</ele><time>2026-04-26T07:41:14Z</time></trkpt><trkpt lat="43.91585891728256" lon="12.68393602346692"><ele>100.0</ele><time>2026-04-26T07:41:15Z</time></trkpt><trkpt lat="43.91603439410274" lon="12.683950646248421"><ele>97.0</ele><time>2026-04-26T07:41:16Z</time></trkpt><trkpt lat="43.91619641135398" lon="12.684011502038393"><ele>94.0</ele><time>2026-04-26T07:41:17Z</time></trkpt><trkpt lat="43.916344597885136" lon="12.684023094693593"><ele>94.0</ele><time>2026-04-26T07:41:18Z</time></trkpt><trkpt lat="43.91647168587469" lon="12.684076309857353"><ele>94.0</ele><time>2026-04-26T07:41:19Z</time></trkpt><trkpt lat="43.91659862745054" lon="12.684106195682416"><ele>94.0</ele><time>2026-04-26T07:41:20Z</time></trkpt><trkpt lat="43.91671931255628" lon="12.684122353990563"><ele>94.0</ele><time>2026-04-26T07:41:21Z</time></trkpt><trkpt lat="43.916841132719796" lon="12.68414859199432"><ele>91.5</ele><time>2026-04-26T07:41:22Z</time></trkpt><trkpt lat="43.91699318837395" lon="12.684178987777644"><ele>89.0</ele><time>2026-04-26T07:41:23Z</time></trkpt><trkpt lat="43.917128339047814" lon="12.684231127700038"><ele>86.5</ele><time>2026-04-26T07:41:24Z</time></trkpt><trkpt lat="43.91725635544014" lon="12.684261383803022"><ele>84.0</ele><time>2026-04-26T07:41:25Z</time></trkpt><trkpt lat="43.91738066714305" lon="12.684291574144668"><ele>84.0</ele><time>2026-04-26T07:41:26Z</time></trkpt><trkpt lat="43.917500058410404" lon="12.684320841266489"><ele>84.0</ele><time>2026-04-26T07:41:27Z</time></trkpt><trkpt lat="43.917605500740336" lon="12.684348045600853"><ele>84.0</ele><time>2026-04-26T07:41:28Z</time></trkpt><trkpt lat="43.9177095194098" lon="12.684362422933495"><ele>84.0</ele><time>2026-04-26T07:41:29Z</time></trkpt><trkpt lat="43.91780142074717" lon="12.684386457669511"><ele>84.0</ele><time>2026-04-26T07:41:30Z</time></trkpt><trkpt lat="43.91789241865116" lon="12.684420690750608"><ele>81.2</ele><time>2026-04-26T07:41:31Z</time></trkpt><trkpt lat="43.917981803908575" lon="12.684455799296762"><ele>78.4</ele><time>2026-04-26T07:41:32Z</time></trkpt><trkpt lat="43.91807197202261" lon="12.684469134965276"><ele>75.6</ele><time>2026-04-26T07:41:33Z</time></trkpt><trkpt lat="43.918158753748955" lon="12.6844674456045"><ele>72.8</ele><time>2026-04-26T07:41:34Z</time></trkpt><trkpt lat="43.91824815396398" lon="12.684467672060428"><ele>70.0</ele><time>2026-04-26T07:41:35Z</time></trkpt><trkpt lat="43.91833764447337" lon="12.6844791642824"><ele>68.0</ele><time>2026-04-26T07:41:36Z</time></trkpt><trkpt lat="43.918428309087375" lon="12.684500517374227"><ele>66.0</ele><time>2026-04-26T07:41:37Z</time></trkpt><trkpt lat="43.918505272253604" lon="12.684569845423658"><ele>64.0</ele><time>2026-04-26T07:41:38Z</time></trkpt><trkpt lat="43.91859170702792" lon="12.684609312924003"><ele>62.0</ele><time>2026-04-26T07:41:39Z</time></trkpt><trkpt lat="43.91868110208445" lon="12.684665702964653"><ele>60.0</ele><time>2026-04-26T07:41:40Z</time></trkpt><trkpt lat="43.918771942535585" lon="12.68472701649955"><ele>60.0</ele><time>2026-04-26T07:41:41Z</time></trkpt><trkpt lat="43.91885991936769" lon="12.684787332930028"><ele>60.0</ele><time>2026-04-26T07:41:42Z</time></trkpt><trkpt lat="43.918948947079365" lon="12.684834880507976"><ele>60.0</ele><time>2026-04-26T07:41:43Z</time></trkpt><trkpt lat="43.919039221727864" lon="12.684881685482214"><ele>60.0</ele><time>2026-04-26T07:41:44Z</time></trkpt><trkpt lat="43.91912723772818" lon="12.684929544593988"><ele>60.0</ele><time>2026-04-26T07:41:45Z</time></trkpt><trkpt lat="43.91921429379" lon="12.68496638532662"><ele>58.833333333333336</ele><time>2026-04-26T07:41:46Z</time></trkpt><trkpt lat="43.9192998028931" lon="12.685004506915174"><ele>57.66666666666667</ele><time>2026-04-26T07:41:47Z</time></trkpt><trkpt lat="43.91938260175801" lon="12.685033635011528"><ele>56.5</ele><time>2026-04-26T07:41:48Z</time></trkpt><trkpt lat="43.919451872078376" lon="12.685050060665345"><ele>55.333333333333336</ele><time>2026-04-26T07:41:49Z</time></trkpt><trkpt lat="43.919540106213006" lon="12.68503874853381"><ele>54.16666666666667</ele><time>2026-04-26T07:41:51Z</time></trkpt><trkpt lat="43.91959682553487" lon="12.684959629244826"><ele>53.0</ele><time>2026-04-26T07:41:53Z</time></trkpt><trkpt lat="43.919622984082814" lon="12.68487473454898"><ele>53.0</ele><time>2026-04-26T07:41:54Z</time></trkpt><trkpt lat="43.91965319792537" lon="12.684733237739739"><ele>53.0</ele><time>2026-04-26T07:41:55Z</time></trkpt><trkpt lat="43.91969972644456" lon="12.684590897297026"><ele>53.0</ele><time>2026-04-26T07:41:56Z</time></trkpt><trkpt lat="43.919745254557704" lon="12.684439329946246"><ele>53.0</ele><time>2026-04-26T07:41:57Z</time></trkpt><trkpt lat="43.919791412493026" lon="12.68428690115002"><ele>52.0</ele><time>2026-04-26T07:41:58Z</time></trkpt><trkpt lat="43.91984137465196" lon="12.684120517923107"><ele>51.0</ele><time>2026-04-26T07:41:59Z</time></trkpt><trkpt lat="43.91988615537664" lon="12.683952243160268"><ele>50.0</ele><time>2026-04-26T07:42:00Z</time></trkpt><trkpt lat="43.91993932029939" lon="12.68379392637428"><ele>49.0</ele><time>2026-04-26T07:42:01Z</time></trkpt><trkpt lat="43.92003694948734" lon="12.683690674920783"><ele>48.6</ele><time>2026-04-26T07:42:02Z</time></trkpt><trkpt lat="43.92013209670881" lon="12.68361451497203"><ele>48.2</ele><time>2026-04-26T07:42:03Z</time></trkpt><trkpt lat="43.92023315036867" lon="12.683560401280351"><ele>47.800000000000004</ele><time>2026-04-26T07:42:04Z</time></trkpt><trkpt lat="43.920330717223315" lon="12.683514212048047"><ele>47.400000000000006</ele><time>2026-04-26T07:42:05Z</time></trkpt><trkpt lat="43.92041959458804" lon="12.683472035584774"><ele>47.0</ele><time>2026-04-26T07:42:06Z</time></trkpt><trkpt lat="43.92048916755605" lon="12.68343337085739"><ele>47.0</ele><time>2026-04-26T07:42:07Z</time></trkpt><trkpt lat="43.92055467721563" lon="12.68329238118992"><ele>47.0</ele><time>2026-04-26T07:42:09Z</time></trkpt><trkpt lat="43.92055340987562" lon="12.683203177595908"><ele>47.0</ele><time>2026-04-26T07:42:10Z</time></trkpt><trkpt lat="43.92054926071208" lon="12.683093338240097"><ele>47.0</ele><time>2026-04-26T07:42:11Z</time></trkpt><trkpt lat="43.920550473427696" lon="12.682988246020741"><ele>47.0</ele><time>2026-04-26T07:42:12Z</time></trkpt><trkpt lat="43.920555112232435" lon="12.682893868159413"><ele>47.0</ele><time>2026-04-26T07:42:13Z</time></trkpt><trkpt lat="43.92055859927176" lon="12.68273905582356"><ele>47.8</ele><time>2026-04-26T07:42:15Z</time></trkpt><trkpt lat="43.92056331439528" lon="12.682601493787859"><ele>48.6</ele><time>2026-04-26T07:42:17Z</time></trkpt><trkpt lat="43.92065659808044" lon="12.68255262311004"><ele>49.4</ele><time>2026-04-26T07:42:19Z</time></trkpt><trkpt lat="43.92072968925559" lon="12.682504999039415"><ele>50.199999999999996</ele><time>2026-04-26T07:42:20Z</time></trkpt><trkpt lat="43.920820687589774" lon="12.682447973073945"><ele>51.0</ele><time>2026-04-26T07:42:21Z</time></trkpt><trkpt lat="43.92092049381621" lon="12.68238849142803"><ele>51.0</ele><time>2026-04-26T07:42:22Z</time></trkpt><trkpt lat="43.921036028117825" lon="12.682320743044151"><ele>51.0</ele><time>2026-04-26T07:42:23Z</time></trkpt><trkpt lat="43.921161079587804" lon="12.682247471897794"><ele>51.0</ele><time>2026-04-26T07:42:24Z</time></trkpt><trkpt lat="43.92128183281831" lon="12.682176772118105"><ele>51.0</ele><time>2026-04-26T07:42:25Z</time></trkpt><trkpt lat="43.92138937080334" lon="12.682111366429343"><ele>51.0</ele><time>2026-04-26T07:42:26Z</time></trkpt><trkpt lat="43.92149551379149" lon="12.682046501278501"><ele>51.0</ele><time>2026-04-26T07:42:27Z</time></trkpt><trkpt lat="43.921603855255974" lon="12.68198158008719"><ele>51.0</ele><time>2026-04-26T07:42:28Z</time></trkpt><trkpt lat="43.92170986642288" lon="12.681918171061522"><ele>51.0</ele><time>2026-04-26T07:42:29Z</time></trkpt><trkpt lat="43.92183031270542" lon="12.681852663132014"><ele>51.199999999999996</ele><time>2026-04-26T07:42:30Z</time></trkpt><trkpt lat="43.92194323833124" lon="12.681786754153958"><ele>51.4</ele><time>2026-04-26T07:42:31Z</time></trkpt><trkpt lat="43.92204201763402" lon="12.681727260187659"><ele>51.6</ele><time>2026-04-26T07:42:32Z</time></trkpt><trkpt lat="43.92212759764004" lon="12.681675716026001"><ele>51.8</ele><time>2026-04-26T07:42:33Z</time></trkpt><trkpt lat="43.922212440914336" lon="12.681624615625807"><ele>52.0</ele><time>2026-04-26T07:42:34Z</time></trkpt><trkpt lat="43.92230059198748" lon="12.681571522926498"><ele>52.0</ele><time>2026-04-26T07:42:35Z</time></trkpt><trkpt lat="43.922385631868124" lon="12.681520304097308"><ele>52.0</ele><time>2026-04-26T07:42:36Z</time></trkpt><trkpt lat="43.92246994435346" lon="12.681468819704078"><ele>52.0</ele><time>2026-04-26T07:42:37Z</time></trkpt><trkpt lat="43.922555746074956" lon="12.681416136498113"><ele>52.0</ele><time>2026-04-26T07:42:38Z</time></trkpt><trkpt lat="43.92264577459397" lon="12.681350119325964"><ele>52.0</ele><time>2026-04-26T07:42:39Z</time></trkpt><trkpt lat="43.922741094216235" lon="12.681290943754806"><ele>52.166666666666664</ele><time>2026-04-26T07:42:40Z</time></trkpt><trkpt lat="43.92282433846167" lon="12.681239591646747"><ele>52.33333333333333</ele><time>2026-04-26T07:42:41Z</time></trkpt><trkpt lat="43.922898873966226" lon="12.681194022010173"><ele>52.5</ele><time>2026-04-26T07:42:42Z</time></trkpt><trkpt lat="43.922977724349856" lon="12.681147488513036"><ele>52.66666666666667</ele><time>2026-04-26T07:42:43Z</time></trkpt><trkpt lat="43.92304886801344" lon="12.681107945705426"><ele>52.833333333333336</ele><time>2026-04-26T07:42:44Z</time></trkpt><trkpt lat="43.92310979606724" lon="12.681070345861746"><ele>53.0</ele><time>2026-04-26T07:42:45Z</time></trkpt><trkpt lat="43.92322804598277" lon="12.681000254543495"><ele>53.00000000000001</ele><time>2026-04-26T07:42:47Z</time></trkpt><trkpt lat="43.92329361488686" lon="12.680966890491872"><ele>53.0</ele><time>2026-04-26T07:42:48Z</time></trkpt><trkpt lat="43.923386664072616" lon="12.680919451930764"><ele>53.0</ele><time>2026-04-26T07:42:50Z</time></trkpt><trkpt lat="43.92344899094464" lon="12.68089737782494"><ele>53.0</ele><time>2026-04-26T07:42:53Z</time></trkpt><trkpt lat="43.92342975827885" lon="12.680809772788306"><ele>53.00000000000001</ele><time>2026-04-26T07:43:04Z</time></trkpt><trkpt lat="43.92341300108117" lon="12.680719710847928"><ele>53.0</ele><time>2026-04-26T07:43:05Z</time></trkpt><trkpt lat="43.92337584305417" lon="12.680584814535989"><ele>53.25</ele><time>2026-04-26T07:43:06Z</time></trkpt><trkpt lat="43.92333349729526" lon="12.680422826249304"><ele>53.5</ele><time>2026-04-26T07:43:07Z</time></trkpt><trkpt lat="43.923288544227425" lon="12.6802479588661"><ele>53.75</ele><time>2026-04-26T07:43:08Z</time></trkpt><trkpt lat="43.92324605290094" lon="12.680050255465618"><ele>54.0</ele><time>2026-04-26T07:43:09Z</time></trkpt><trkpt lat="43.92320045164393" lon="12.679856998749225"><ele>54.5</ele><time>2026-04-26T07:43:10Z</time></trkpt><trkpt lat="43.9231580607462" lon="12.679659872477126"><ele>55.0</ele><time>2026-04-26T07:43:11Z</time></trkpt><trkpt lat="43.92311062791359" lon="12.679466943277367"><ele>55.5</ele><time>2026-04-26T07:43:12Z</time></trkpt><trkpt lat="43.92306265473655" lon="12.679276150603329"><ele>56.0</ele><time>2026-04-26T07:43:13Z</time></trkpt><trkpt lat="43.92301699712522" lon="12.679095363825532"><ele>56.0</ele><time>2026-04-26T07:43:14Z</time></trkpt><trkpt lat="43.92297125692742" lon="12.678918535691064"><ele>56.0</ele><time>2026-04-26T07:43:15Z</time></trkpt><trkpt lat="43.92292793208188" lon="12.678737485929782"><ele>56.0</ele><time>2026-04-26T07:43:16Z</time></trkpt><trkpt lat="43.92288567377298" lon="12.678560749352485"><ele>56.0</ele><time>2026-04-26T07:43:17Z</time></trkpt><trkpt lat="43.922841374189076" lon="12.678385949071751"><ele>56.0</ele><time>2026-04-26T07:43:18Z</time></trkpt><trkpt lat="43.92280114299988" lon="12.678208348149594"><ele>56.0</ele><time>2026-04-26T07:43:19Z</time></trkpt><trkpt lat="43.92275665992168" lon="12.678033931819495"><ele>56.0</ele><time>2026-04-26T07:43:20Z</time></trkpt><trkpt lat="43.92270974058683" lon="12.677849758091446"><ele>56.0</ele><time>2026-04-26T07:43:21Z</time></trkpt><trkpt lat="43.92266004932297" lon="12.677654489065826"><ele>56.0</ele><time>2026-04-26T07:43:22Z</time></trkpt><trkpt lat="43.9226079199183" lon="12.677466860222276"><ele>56.0</ele><time>2026-04-26T07:43:23Z</time></trkpt><trkpt lat="43.92257916585712" lon="12.677290991417587"><ele>56.0</ele><time>2026-04-26T07:43:24Z</time></trkpt><trkpt lat="43.922522913155575" lon="12.677153206592964"><ele>56.0</ele><time>2026-04-26T07:43:25Z</time></trkpt><trkpt lat="43.922486279017086" lon="12.677017319562582"><ele>56.00000000000001</ele><time>2026-04-26T07:43:26Z</time></trkpt><trkpt lat="43.92245394735701" lon="12.676893063711294"><ele>56.0</ele><time>2026-04-26T07:43:27Z</time></trkpt><trkpt lat="43.922424090145626" lon="12.676784564638465"><ele>56.0</ele><time>2026-04-26T07:43:28Z</time></trkpt><trkpt lat="43.92239201997976" lon="12.676678679972692"><ele>56.0</ele><time>2026-04-26T07:43:29Z</time></trkpt><trkpt lat="43.922362047570694" lon="12.676575546390803"><ele>56.00000000000001</ele><time>2026-04-26T07:43:30Z</time></trkpt><trkpt lat="43.92233524831818" lon="12.67649428275044"><ele>56.0</ele><time>2026-04-26T07:43:31Z</time></trkpt><trkpt lat="43.92227831174896" lon="12.676376364709547"><ele>56.0</ele><time>2026-04-26T07:43:33Z</time></trkpt><trkpt lat="43.92215927085011" lon="12.676357871551438"><ele>56.0</ele><time>2026-04-26T07:43:35Z</time></trkpt><trkpt lat="43.92212651056923" lon="12.676552359127527"><ele>56.0</ele><time>2026-04-26T07:43:36Z</time></trkpt><trkpt lat="43.92192361514859" lon="12.676421492540921"><ele>56.0</ele><time>2026-04-26T07:43:37Z</time></trkpt><trkpt lat="43.921773511095346" lon="12.676382849005865"><ele>56.0</ele><time>2026-04-26T07:43:38Z</time></trkpt><trkpt lat="43.92160517501854" lon="12.676340310970183"><ele>56.0</ele><time>2026-04-26T07:43:39Z</time></trkpt><trkpt lat="43.92143956459548" lon="12.67631782032058"><ele>56.333333333333336</ele><time>2026-04-26T07:43:40Z</time></trkpt><trkpt lat="43.921285192801335" lon="12.676279927897058"><ele>56.66666666666667</ele><time>2026-04-26T07:43:41Z</time></trkpt><trkpt lat="43.9211342934896" lon="12.67623954945622"><ele>57.0</ele><time>2026-04-26T07:43:42Z</time></trkpt><trkpt lat="43.92099134061447" lon="12.676200810159717"><ele>57.0</ele><time>2026-04-26T07:43:43Z</time></trkpt><trkpt lat="43.920863487734785" lon="12.67614514235538"><ele>57.0</ele><time>2026-04-26T07:43:44Z</time></trkpt><trkpt lat="43.92073215355862" lon="12.67608668462169"><ele>57.0</ele><time>2026-04-26T07:43:45Z</time></trkpt><trkpt lat="43.920587916338306" lon="12.676000720338768"><ele>57.0</ele><time>2026-04-26T07:43:46Z</time></trkpt><trkpt lat="43.92043285416101" lon="12.67588805721032"><ele>57.33333333333333</ele><time>2026-04-26T07:43:47Z</time></trkpt><trkpt lat="43.92027004900666" lon="12.675759708422154"><ele>57.666666666666664</ele><time>2026-04-26T07:43:48Z</time></trkpt><trkpt lat="43.920103764320935" lon="12.675619796059216"><ele>58.0</ele><time>2026-04-26T07:43:49Z</time></trkpt><trkpt lat="43.919936485431734" lon="12.675471507090005"><ele>58.0</ele><time>2026-04-26T07:43:50Z</time></trkpt><trkpt lat="43.91977589361344" lon="12.675346743021697"><ele>58.0</ele><time>2026-04-26T07:43:51Z</time></trkpt><trkpt lat="43.919636057110196" lon="12.675213131433694"><ele>58.0</ele><time>2026-04-26T07:43:52Z</time></trkpt><trkpt lat="43.919506612827306" lon="12.675095579365745"><ele>58.25</ele><time>2026-04-26T07:43:53Z</time></trkpt><trkpt lat="43.919386949158785" lon="12.674980185131144"><ele>58.5</ele><time>2026-04-26T07:43:54Z</time></trkpt><trkpt lat="43.91927560416136" lon="12.674870136167641"><ele>58.75</ele><time>2026-04-26T07:43:55Z</time></trkpt><trkpt lat="43.91916818822735" lon="12.674773888061598"><ele>59.0</ele><time>2026-04-26T07:43:56Z</time></trkpt><trkpt lat="43.91905891931123" lon="12.674673574299765"><ele>59.25</ele><time>2026-04-26T07:43:57Z</time></trkpt><trkpt lat="43.91894016796299" lon="12.6745686538098"><ele>59.5</ele><time>2026-04-26T07:43:58Z</time></trkpt><trkpt lat="43.91881888502438" lon="12.674454376434062"><ele>59.75</ele><time>2026-04-26T07:43:59Z</time></trkpt><trkpt lat="43.918696541582804" lon="12.674344931471676"><ele>60.0</ele><time>2026-04-26T07:44:00Z</time></trkpt><trkpt lat="43.918579340959674" lon="12.67423636103124"><ele>60.0</ele><time>2026-04-26T07:44:01Z</time></trkpt><trkpt lat="43.91847356439874" lon="12.674143805586663"><ele>60.0</ele><time>2026-04-26T07:44:02Z</time></trkpt><trkpt lat="43.918372656802916" lon="12.674058862812721"><ele>60.0</ele><time>2026-04-26T07:44:03Z</time></trkpt><trkpt lat="43.91827922603855" lon="12.67398328539994"><ele>60.0</ele><time>2026-04-26T07:44:04Z</time></trkpt><trkpt lat="43.91819752919704" lon="12.673909194852603"><ele>60.0</ele><time>2026-04-26T07:44:05Z</time></trkpt><trkpt lat="43.91813172583123" lon="12.673848368201925"><ele>60.166666666666664</ele><time>2026-04-26T07:44:06Z</time></trkpt><trkpt lat="43.91807357757172" lon="12.673791584431276"><ele>60.33333333333333</ele><time>2026-04-26T07:44:07Z</time></trkpt><trkpt lat="43.91801952531696" lon="12.67373611631411"><ele>60.5</ele><time>2026-04-26T07:44:08Z</time></trkpt><trkpt lat="43.917937227951164" lon="12.67363358436062"><ele>60.666666666666664</ele><time>2026-04-26T07:44:10Z</time></trkpt><trkpt lat="43.917862161840695" lon="12.67363020222947"><ele>60.83333333333333</ele><time>2026-04-26T07:50:22Z</time></trkpt><trkpt lat="43.917771868075015" lon="12.673555306147808"><ele>61.0</ele><time>2026-04-26T07:50:24Z</time></trkpt><trkpt lat="43.917702843351016" lon="12.673507562487432"><ele>61.4</ele><time>2026-04-26T07:50:25Z</time></trkpt><trkpt lat="43.917630355860794" lon="12.673441152361363"><ele>61.8</ele><time>2026-04-26T07:50:26Z</time></trkpt><trkpt lat="43.91757392590969" lon="12.673359582249844"><ele>62.199999999999996</ele><time>2026-04-26T07:50:27Z</time></trkpt><trkpt lat="43.91748079425975" lon="12.673305530194513"><ele>62.599999999999994</ele><time>2026-04-26T07:50:28Z</time></trkpt><trkpt lat="43.91738977849657" lon="12.67321798080555"><ele>63.0</ele><time>2026-04-26T07:50:29Z</time></trkpt><trkpt lat="43.91729449514304" lon="12.673129104583198"><ele>63.0</ele><time>2026-04-26T07:50:30Z</time></trkpt><trkpt lat="43.91719705237852" lon="12.67304116929201"><ele>63.0</ele><time>2026-04-26T07:50:31Z</time></trkpt><trkpt lat="43.9170910999997" lon="12.672945606122495"><ele>63.0</ele><time>2026-04-26T07:50:32Z</time></trkpt><trkpt lat="43.916976228905845" lon="12.672845108618697"><ele>63.0</ele><time>2026-04-26T07:50:33Z</time></trkpt><trkpt lat="43.916873588802" lon="12.672766978598371"><ele>63.2</ele><time>2026-04-26T07:50:34Z</time></trkpt><trkpt lat="43.91678060391432" lon="12.672701748704283"><ele>63.4</ele><time>2026-04-26T07:50:35Z</time></trkpt><trkpt lat="43.91669340108714" lon="12.672649292231918"><ele>63.60000000000001</ele><time>2026-04-26T07:50:36Z</time></trkpt><trkpt lat="43.916604696789506" lon="12.672603036159263"><ele>63.800000000000004</ele><time>2026-04-26T07:50:37Z</time></trkpt><trkpt lat="43.916506990742775" lon="12.672586705230195"><ele>64.0</ele><time>2026-04-26T07:50:38Z</time></trkpt><trkpt lat="43.916396165089324" lon="12.672617146788747"><ele>64.0</ele><time>2026-04-26T07:50:39Z</time></trkpt><trkpt lat="43.916287742692354" lon="12.672654891609064"><ele>64.0</ele><time>2026-04-26T07:50:40Z</time></trkpt><trkpt lat="43.91616961040053" lon="12.6726884880881"><ele>64.0</ele><time>2026-04-26T07:50:41Z</time></trkpt><trkpt lat="43.91605608490732" lon="12.67271633624252"><ele>64.0</ele><time>2026-04-26T07:50:42Z</time></trkpt><trkpt lat="43.91592992468276" lon="12.672751549707767"><ele>63.25</ele><time>2026-04-26T07:50:43Z</time></trkpt><trkpt lat="43.91579984895952" lon="12.672780862104705"><ele>62.5</ele><time>2026-04-26T07:50:44Z</time></trkpt><trkpt lat="43.915657035983756" lon="12.672817280489264"><ele>61.75</ele><time>2026-04-26T07:50:45Z</time></trkpt><trkpt lat="43.91551190870365" lon="12.672850725005054"><ele>61.0</ele><time>2026-04-26T07:50:46Z</time></trkpt><trkpt lat="43.91538049136563" lon="12.672872561172342"><ele>61.0</ele><time>2026-04-26T07:50:47Z</time></trkpt><trkpt lat="43.915246998234714" lon="12.672900258128868"><ele>61.0</ele><time>2026-04-26T07:50:48Z</time></trkpt><trkpt lat="43.915107378424885" lon="12.672930782457769"><ele>61.0</ele><time>2026-04-26T07:50:49Z</time></trkpt><trkpt lat="43.91496088797724" lon="12.672957249348109"><ele>61.0</ele><time>2026-04-26T07:50:50Z</time></trkpt><trkpt lat="43.91481758362536" lon="12.672986626694394"><ele>60.75</ele><time>2026-04-26T07:50:51Z</time></trkpt><trkpt lat="43.91467593187867" lon="12.673016854149989"><ele>60.5</ele><time>2026-04-26T07:50:52Z</time></trkpt><trkpt lat="43.914542894399325" lon="12.673045489347766"><ele>60.25</ele><time>2026-04-26T07:50:53Z</time></trkpt><trkpt lat="43.91441529739712" lon="12.673074782007266"><ele>60.0</ele><time>2026-04-26T07:50:54Z</time></trkpt><trkpt lat="43.91429225616639" lon="12.673103893541803"><ele>58.75</ele><time>2026-04-26T07:50:55Z</time></trkpt><trkpt lat="43.91417784419758" lon="12.673125334099407"><ele>57.5</ele><time>2026-04-26T07:50:56Z</time></trkpt><trkpt lat="43.9140667335828" lon="12.67315061986731"><ele>56.25</ele><time>2026-04-26T07:50:57Z</time></trkpt><trkpt lat="43.9139494798439" lon="12.673181961491487"><ele>55.0</ele><time>2026-04-26T07:50:58Z</time></trkpt><trkpt lat="43.91382597013627" lon="12.673213946263072"><ele>55.0</ele><time>2026-04-26T07:50:59Z</time></trkpt><trkpt lat="43.91370409243922" lon="12.673244664082759"><ele>55.0</ele><time>2026-04-26T07:51:00Z</time></trkpt><trkpt lat="43.91358473042157" lon="12.673268646361642"><ele>55.0</ele><time>2026-04-26T07:51:01Z</time></trkpt><trkpt lat="43.9134670273881" lon="12.673301377183238"><ele>55.0</ele><time>2026-04-26T07:51:02Z</time></trkpt><trkpt lat="43.91334734389204" lon="12.673347513866824"><ele>55.0</ele><time>2026-04-26T07:51:03Z</time></trkpt><trkpt lat="43.913230653150926" lon="12.673416686317145"><ele>55.0</ele><time>2026-04-26T07:51:04Z</time></trkpt><trkpt lat="43.91311357771965" lon="12.673477957638406"><ele>55.0</ele><time>2026-04-26T07:51:05Z</time></trkpt><trkpt lat="43.91299804283144" lon="12.67353591940258"><ele>55.0</ele><time>2026-04-26T07:51:06Z</time></trkpt><trkpt lat="43.91288163188538" lon="12.673579522319418"><ele>55.0</ele><time>2026-04-26T07:51:07Z</time></trkpt><trkpt lat="43.91276067601911" lon="12.673576121618538"><ele>55.0</ele><time>2026-04-26T07:51:08Z</time></trkpt><trkpt lat="43.912636446857725" lon="12.673554307171276"><ele>55.0</ele><time>2026-04-26T07:51:09Z</time></trkpt><trkpt lat="43.91251352036716" lon="12.673517201864888"><ele>55.0</ele><time>2026-04-26T07:51:10Z</time></trkpt><trkpt lat="43.91238982757576" lon="12.67347615205543"><ele>55.0</ele><time>2026-04-26T07:51:11Z</time></trkpt><trkpt lat="43.912272870684085" lon="12.673449435084091"><ele>55.0</ele><time>2026-04-26T07:51:12Z</time></trkpt><trkpt lat="43.912168678243255" lon="12.673412337662915"><ele>55.0</ele><time>2026-04-26T07:51:13Z</time></trkpt><trkpt lat="43.91207357261532" lon="12.673380627147933"><ele>55.0</ele><time>2026-04-26T07:51:14Z</time></trkpt><trkpt lat="43.91198806460415" lon="12.673349801027884"><ele>55.0</ele><time>2026-04-26T07:51:15Z</time></trkpt><trkpt lat="43.9118935972657" lon="12.673321128618028"><ele>54.99999999999999</ele><time>2026-04-26T07:51:16Z</time></trkpt><trkpt lat="43.91179248387226" lon="12.673300503256888"><ele>55.0</ele><time>2026-04-26T07:51:17Z</time></trkpt><trkpt lat="43.91169922140596" lon="12.673286014096872"><ele>55.0</ele><time>2026-04-26T07:51:18Z</time></trkpt><trkpt lat="43.911618795008344" lon="12.673288047621849"><ele>55.0</ele><time>2026-04-26T07:51:19Z</time></trkpt><trkpt lat="43.911539790495624" lon="12.67328319834848"><ele>54.99999999999999</ele><time>2026-04-26T07:51:20Z</time></trkpt><trkpt lat="43.91146678650776" lon="12.673289765292017"><ele>55.0</ele><time>2026-04-26T07:51:21Z</time></trkpt><trkpt lat="43.91140366772498" lon="12.67328956547613"><ele>55.0</ele><time>2026-04-26T07:51:22Z</time></trkpt><trkpt lat="43.91135135031884" lon="12.67313601745002"><ele>55.0</ele><time>2026-04-26T07:51:25Z</time></trkpt><trkpt lat="43.91140158131684" lon="12.67304228823018"><ele>55.0</ele><time>2026-04-26T07:51:26Z</time></trkpt><trkpt lat="43.91140039967546" lon="12.672925610864526"><ele>55.0</ele><time>2026-04-26T07:51:27Z</time></trkpt><trkpt lat="43.91139902560051" lon="12.67278993258354"><ele>55.0</ele><time>2026-04-26T07:51:28Z</time></trkpt><trkpt lat="43.911398226774594" lon="12.67262176786315"><ele>55.0</ele><time>2026-04-26T07:51:29Z</time></trkpt><trkpt lat="43.91139765100182" lon="12.672443281554848"><ele>55.0</ele><time>2026-04-26T07:51:30Z</time></trkpt><trkpt lat="43.91139734732137" lon="12.67226336200314"><ele>55.0</ele><time>2026-04-26T07:51:31Z</time></trkpt><trkpt lat="43.91139700062563" lon="12.67208200773483"><ele>55.0</ele><time>2026-04-26T07:51:32Z</time></trkpt><trkpt lat="43.91139747108751" lon="12.671895363368199"><ele>56.0</ele><time>2026-04-26T07:51:33Z</time></trkpt><trkpt lat="43.91140010995246" lon="12.671691388108577"><ele>57.0</ele><time>2026-04-26T07:51:34Z</time></trkpt><trkpt lat="43.911402906554976" lon="12.671475221209256"><ele>58.0</ele><time>2026-04-26T07:51:35Z</time></trkpt><trkpt lat="43.91140581372938" lon="12.671250506522469"><ele>60.0</ele><time>2026-04-26T07:51:36Z</time></trkpt><trkpt lat="43.91140878184971" lon="12.671021081462262"><ele>62.0</ele><time>2026-04-26T07:51:37Z</time></trkpt><trkpt lat="43.911412213115526" lon="12.670788244113192"><ele>64.0</ele><time>2026-04-26T07:51:38Z</time></trkpt><trkpt lat="43.911416034723224" lon="12.670555784852121"><ele>64.0</ele><time>2026-04-26T07:51:39Z</time></trkpt><trkpt lat="43.91141937556116" lon="12.670345629098769"><ele>64.0</ele><time>2026-04-26T07:51:40Z</time></trkpt><trkpt lat="43.91140717107534" lon="12.67015210317554"><ele>64.0</ele><time>2026-04-26T07:51:41Z</time></trkpt><trkpt lat="43.911409682523235" lon="12.66996584474471"><ele>64.0</ele><time>2026-04-26T07:51:42Z</time></trkpt><trkpt lat="43.911415731506374" lon="12.669775788689817"><ele>66.0</ele><time>2026-04-26T07:51:43Z</time></trkpt><trkpt lat="43.911408371496044" lon="12.669590141468667"><ele>68.0</ele><time>2026-04-26T07:51:44Z</time></trkpt><trkpt lat="43.91139062127687" lon="12.66940236335769"><ele>70.0</ele><time>2026-04-26T07:51:45Z</time></trkpt><trkpt lat="43.911363084025076" lon="12.669210088325903"><ele>72.0</ele><time>2026-04-26T07:51:46Z</time></trkpt><trkpt lat="43.911327946001656" lon="12.669019737254423"><ele>72.5</ele><time>2026-04-26T07:51:47Z</time></trkpt><trkpt lat="43.91128292125388" lon="12.668828253354059"><ele>73.0</ele><time>2026-04-26T07:51:48Z</time></trkpt><trkpt lat="43.91123122518558" lon="12.668636561904934"><ele>73.5</ele><time>2026-04-26T07:51:49Z</time></trkpt><trkpt lat="43.9111693714726" lon="12.668438412234522"><ele>74.0</ele><time>2026-04-26T07:51:50Z</time></trkpt><trkpt lat="43.911101397959" lon="12.668234227701168"><ele>74.0</ele><time>2026-04-26T07:51:51Z</time></trkpt><trkpt lat="43.91104031433522" lon="12.668052346655339"><ele>74.0</ele><time>2026-04-26T07:51:52Z</time></trkpt><trkpt lat="43.9109817978269" lon="12.667906413138786"><ele>74.0</ele><time>2026-04-26T07:51:53Z</time></trkpt><trkpt lat="43.910915744219785" lon="12.667779149022476"><ele>74.0</ele><time>2026-04-26T07:51:54Z</time></trkpt><trkpt lat="43.91083699530092" lon="12.667678941974192"><ele>76.25</ele><time>2026-04-26T07:51:55Z</time></trkpt><trkpt lat="43.91073369789411" lon="12.66757525498196"><ele>78.5</ele><time>2026-04-26T07:51:56Z</time></trkpt><trkpt lat="43.91061391351059" lon="12.667463822221197"><ele>80.75</ele><time>2026-04-26T07:51:57Z</time></trkpt><trkpt lat="43.910480961038644" lon="12.667333483503333"><ele>83.0</ele><time>2026-04-26T07:51:58Z</time></trkpt><trkpt lat="43.91037625622308" lon="12.667170333063472"><ele>83.0</ele><time>2026-04-26T07:51:59Z</time></trkpt><trkpt lat="43.91026772364779" lon="12.667015552442974"><ele>83.0</ele><time>2026-04-26T07:52:00Z</time></trkpt><trkpt lat="43.91015546521143" lon="12.666846281962417"><ele>83.0</ele><time>2026-04-26T07:52:01Z</time></trkpt><trkpt lat="43.91003930370574" lon="12.666671232370083"><ele>84.0</ele><time>2026-04-26T07:52:02Z</time></trkpt><trkpt lat="43.90992226000587" lon="12.666493963035625"><ele>85.0</ele><time>2026-04-26T07:52:03Z</time></trkpt><trkpt lat="43.909818354299354" lon="12.666333469732287"><ele>86.0</ele><time>2026-04-26T07:52:04Z</time></trkpt><trkpt lat="43.909725871876915" lon="12.666186924494452"><ele>84.75</ele><time>2026-04-26T07:52:05Z</time></trkpt><trkpt lat="43.90963438418252" lon="12.666041410392838"><ele>83.5</ele><time>2026-04-26T07:52:06Z</time></trkpt><trkpt lat="43.90954648105348" lon="12.665903170284"><ele>82.25</ele><time>2026-04-26T07:52:07Z</time></trkpt><trkpt lat="43.90946667316991" lon="12.665784658561984"><ele>81.0</ele><time>2026-04-26T07:52:08Z</time></trkpt><trkpt lat="43.909369377431275" lon="12.665692720148623"><ele>81.0</ele><time>2026-04-26T07:52:09Z</time></trkpt><trkpt lat="43.90925658291743" lon="12.66556680460246"><ele>81.0</ele><time>2026-04-26T07:52:10Z</time></trkpt><trkpt lat="43.9091494544223" lon="12.665467823915192"><ele>81.0</ele><time>2026-04-26T07:52:11Z</time></trkpt><trkpt lat="43.90903925538977" lon="12.665400405796616"><ele>81.0</ele><time>2026-04-26T07:52:12Z</time></trkpt><trkpt lat="43.90892613297268" lon="12.665326462530942"><ele>83.25</ele><time>2026-04-26T07:52:13Z</time></trkpt><trkpt lat="43.9088201871101" lon="12.665254890758883"><ele>85.5</ele><time>2026-04-26T07:52:14Z</time></trkpt><trkpt lat="43.9087198787706" lon="12.665187319918159"><ele>87.75</ele><time>2026-04-26T07:52:15Z</time></trkpt><trkpt lat="43.908611621939905" lon="12.665114169529614"><ele>90.0</ele><time>2026-04-26T07:52:16Z</time></trkpt><trkpt lat="43.90850017042782" lon="12.665008917904792"><ele>90.5</ele><time>2026-04-26T07:52:17Z</time></trkpt><trkpt lat="43.90838938826442" lon="12.664912131359186"><ele>91.0</ele><time>2026-04-26T07:52:18Z</time></trkpt><trkpt lat="43.908298466517195" lon="12.664813171695117"><ele>91.5</ele><time>2026-04-26T07:52:19Z</time></trkpt><trkpt lat="43.90821323729102" lon="12.664697868254764"><ele>92.0</ele><time>2026-04-26T07:52:20Z</time></trkpt><trkpt lat="43.908126787813714" lon="12.664552885019615"><ele>91.0</ele><time>2026-04-26T07:52:21Z</time></trkpt><trkpt lat="43.90803444638364" lon="12.664384452419997"><ele>90.0</ele><time>2026-04-26T07:52:22Z</time></trkpt><trkpt lat="43.907933350697206" lon="12.664199012820246"><ele>89.0</ele><time>2026-04-26T07:52:23Z</time></trkpt><trkpt lat="43.90782618777492" lon="12.664002419837676"><ele>89.0</ele><time>2026-04-26T07:52:24Z</time></trkpt><trkpt lat="43.90772081767186" lon="12.663808931367624"><ele>89.0</ele><time>2026-04-26T07:52:25Z</time></trkpt><trkpt lat="43.90763084339573" lon="12.663639997298803"><ele>89.0</ele><time>2026-04-26T07:52:26Z</time></trkpt><trkpt lat="43.90754343035666" lon="12.663471991119255"><ele>90.0</ele><time>2026-04-26T07:52:27Z</time></trkpt><trkpt lat="43.90745568295352" lon="12.663329572219363"><ele>91.0</ele><time>2026-04-26T07:52:28Z</time></trkpt><trkpt lat="43.90737717043723" lon="12.663247783280369"><ele>92.0</ele><time>2026-04-26T07:52:29Z</time></trkpt><trkpt lat="43.90731443955604" lon="12.66317794208217"><ele>93.0</ele><time>2026-04-26T07:52:30Z</time></trkpt><trkpt lat="43.9072499818496" lon="12.663129365459604"><ele>94.0</ele><time>2026-04-26T07:52:31Z</time></trkpt><trkpt lat="43.9071764233779" lon="12.663074461024507"><ele>94.0</ele><time>2026-04-26T07:52:32Z</time></trkpt><trkpt lat="43.90710225192345" lon="12.663000607124582"><ele>94.0</ele><time>2026-04-26T07:52:33Z</time></trkpt><trkpt lat="43.90700943910174" lon="12.662939716815961"><ele>94.0</ele><time>2026-04-26T07:52:34Z</time></trkpt><trkpt lat="43.9069284782904" lon="12.662884539392886"><ele>94.0</ele><time>2026-04-26T07:52:35Z</time></trkpt><trkpt lat="43.90687042541612" lon="12.662841428597622"><ele>94.0</ele><time>2026-04-26T07:52:36Z</time></trkpt><trkpt lat="43.906778690213464" lon="12.662764547659377"><ele>93.5</ele><time>2026-04-26T07:52:38Z</time></trkpt><trkpt lat="43.906723778850385" lon="12.662710896575891"><ele>93.0</ele><time>2026-04-26T07:52:40Z</time></trkpt><trkpt lat="43.90665320459539" lon="12.662637465470215"><ele>92.5</ele><time>2026-04-26T07:52:43Z</time></trkpt><trkpt lat="43.9067013419355" lon="12.662513722312102"><ele>92.0</ele><time>2026-04-26T07:52:49Z</time></trkpt><trkpt lat="43.90678431300038" lon="12.662483772223686"><ele>91.5</ele><time>2026-04-26T07:52:51Z</time></trkpt><trkpt lat="43.90686239270017" lon="12.662462897063671"><ele>91.0</ele><time>2026-04-26T07:52:53Z</time></trkpt><trkpt lat="43.90695740096172" lon="12.662441416332117"><ele>91.0</ele><time>2026-04-26T07:52:55Z</time></trkpt><trkpt lat="43.90705213536499" lon="12.662420414952079"><ele>91.0</ele><time>2026-04-26T07:52:57Z</time></trkpt><trkpt lat="43.907160059296636" lon="12.662394649412017"><ele>91.0</ele><time>2026-04-26T07:52:59Z</time></trkpt><trkpt lat="43.90727182425549" lon="12.662367461010161"><ele>91.0</ele><time>2026-04-26T07:53:01Z</time></trkpt><trkpt lat="43.907389421798804" lon="12.662335468063795"><ele>91.0</ele><time>2026-04-26T07:53:03Z</time></trkpt><trkpt lat="43.907503983982686" lon="12.662282285875778"><ele>89.0</ele><time>2026-04-26T07:53:05Z</time></trkpt><trkpt lat="43.90760405844975" lon="12.662221351698213"><ele>87.0</ele><time>2026-04-26T07:53:07Z</time></trkpt><trkpt lat="43.90770497119037" lon="12.662165561586994"><ele>85.0</ele><time>2026-04-26T07:53:09Z</time></trkpt><trkpt lat="43.90776819641488" lon="12.662146245851192"><ele>83.0</ele><time>2026-04-26T07:53:10Z</time></trkpt><trkpt lat="43.90784010451826" lon="12.662132241043231"><ele>81.0</ele><time>2026-04-26T07:53:11Z</time></trkpt><trkpt lat="43.90790780458339" lon="12.662119783844288"><ele>79.0</ele><time>2026-04-26T07:53:12Z</time></trkpt><trkpt lat="43.90797371954095" lon="12.662111018002392"><ele>79.0</ele><time>2026-04-26T07:53:13Z</time></trkpt><trkpt lat="43.90803873247097" lon="12.66209251022108"><ele>79.0</ele><time>2026-04-26T07:53:14Z</time></trkpt><trkpt lat="43.908155676476014" lon="12.662057155796237"><ele>79.0</ele><time>2026-04-26T07:53:16Z</time></trkpt><trkpt lat="43.90825081436794" lon="12.66203325632156"><ele>79.0</ele><time>2026-04-26T07:53:18Z</time></trkpt><trkpt lat="43.9083260739732" lon="12.662055005147785"><ele>79.0</ele><time>2026-04-26T07:53:20Z</time></trkpt><trkpt lat="43.90843126872066" lon="12.662084859112749"><ele>77.16666666666666</ele><time>2026-04-26T07:53:22Z</time></trkpt><trkpt lat="43.90853171177756" lon="12.66214948337501"><ele>75.33333333333333</ele><time>2026-04-26T07:53:24Z</time></trkpt><trkpt lat="43.908629919562266" lon="12.662155486118136"><ele>73.5</ele><time>2026-04-26T07:53:26Z</time></trkpt><trkpt lat="43.908703083967865" lon="12.662155961385668"><ele>71.66666666666667</ele><time>2026-04-26T07:53:27Z</time></trkpt><trkpt lat="43.90878155378849" lon="12.66212112919256"><ele>69.83333333333334</ele><time>2026-04-26T07:53:28Z</time></trkpt><trkpt lat="43.90884863317442" lon="12.66205290505291"><ele>68.0</ele><time>2026-04-26T07:53:29Z</time></trkpt><trkpt lat="43.90892191112807" lon="12.662008697448659"><ele>68.0</ele><time>2026-04-26T07:53:30Z</time></trkpt><trkpt lat="43.90899950641096" lon="12.661973571209609"><ele>68.0</ele><time>2026-04-26T07:53:31Z</time></trkpt><trkpt lat="43.90908351534597" lon="12.661946751183178"><ele>68.0</ele><time>2026-04-26T07:53:32Z</time></trkpt><trkpt lat="43.90917162369914" lon="12.661930118802738"><ele>68.0</ele><time>2026-04-26T07:53:33Z</time></trkpt><trkpt lat="43.90925446691071" lon="12.661911115101878"><ele>68.0</ele><time>2026-04-26T07:53:34Z</time></trkpt><trkpt lat="43.90933495538259" lon="12.661895755358637"><ele>68.0</ele><time>2026-04-26T07:53:35Z</time></trkpt><trkpt lat="43.909408169622246" lon="12.661897615659665"><ele>66.6</ele><time>2026-04-26T07:53:36Z</time></trkpt><trkpt lat="43.9095109029147" lon="12.661943223572674"><ele>65.19999999999999</ele><time>2026-04-26T07:53:38Z</time></trkpt><trkpt lat="43.909596465336826" lon="12.66208698309049"><ele>63.8</ele><time>2026-04-26T07:53:40Z</time></trkpt><trkpt lat="43.90965553011558" lon="12.66219710635535"><ele>62.4</ele><time>2026-04-26T07:53:41Z</time></trkpt><trkpt lat="43.90970363844882" lon="12.662272802029396"><ele>61.0</ele><time>2026-04-26T07:53:42Z</time></trkpt><trkpt lat="43.90976656662296" lon="12.662290416106604"><ele>60.666666666666664</ele><time>2026-04-26T07:53:44Z</time></trkpt><trkpt lat="43.909809224209155" lon="12.662177084773042"><ele>60.33333333333333</ele><time>2026-04-26T07:53:46Z</time></trkpt><trkpt lat="43.909875401839614" lon="12.66208581120082"><ele>60.0</ele><time>2026-04-26T07:53:48Z</time></trkpt><trkpt lat="43.909945746053225" lon="12.662171734289291"><ele>59.66666666666667</ele><time>2026-04-26T07:53:51Z</time></trkpt><trkpt lat="43.910029115409344" lon="12.662229090800126"><ele>59.333333333333336</ele><time>2026-04-26T07:53:53Z</time></trkpt><trkpt lat="43.91009289670331" lon="12.66223159674222"><ele>59.0</ele><time>2026-04-26T07:53:54Z</time></trkpt><trkpt lat="43.91017140596042" lon="12.662206417452314"><ele>60.2</ele><time>2026-04-26T07:53:55Z</time></trkpt><trkpt lat="43.91026248614079" lon="12.66220395729659"><ele>61.400000000000006</ele><time>2026-04-26T07:53:56Z</time></trkpt><trkpt lat="43.910341972140685" lon="12.662206753573974"><ele>62.6</ele><time>2026-04-26T07:53:57Z</time></trkpt><trkpt lat="43.91045890927432" lon="12.662236144200012"><ele>63.8</ele><time>2026-04-26T07:53:59Z</time></trkpt><trkpt lat="43.910578329055724" lon="12.662246880558376"><ele>65.0</ele><time>2026-04-26T07:54:01Z</time></trkpt><trkpt lat="43.91064790626804" lon="12.662264005398894"><ele>65.0</ele><time>2026-04-26T07:54:02Z</time></trkpt><trkpt lat="43.9107142195436" lon="12.662262817359007"><ele>65.0</ele><time>2026-04-26T07:54:03Z</time></trkpt><trkpt lat="43.91078203746954" lon="12.662226405273117"><ele>65.0</ele><time>2026-04-26T07:54:04Z</time></trkpt><trkpt lat="43.910851418040316" lon="12.662169402775042"><ele>65.0</ele><time>2026-04-26T07:54:05Z</time></trkpt><trkpt lat="43.91092797173889" lon="12.66212184754593"><ele>65.0</ele><time>2026-04-26T07:54:06Z</time></trkpt><trkpt lat="43.911003773501136" lon="12.66206850835377"><ele>65.0</ele><time>2026-04-26T07:54:07Z</time></trkpt><trkpt lat="43.91106185555972" lon="12.662009825166956"><ele>65.8</ele><time>2026-04-26T07:54:08Z</time></trkpt><trkpt lat="43.91113780148198" lon="12.661911831489867"><ele>66.6</ele><time>2026-04-26T07:54:10Z</time></trkpt><trkpt lat="43.9111238741801" lon="12.66174406177702"><ele>67.4</ele><time>2026-04-26T07:54:13Z</time></trkpt><trkpt lat="43.91105990862683" lon="12.661644420570955"><ele>68.2</ele><time>2026-04-26T07:54:14Z</time></trkpt><trkpt lat="43.9109888497674" lon="12.661524893890464"><ele>69.0</ele><time>2026-04-26T07:54:15Z</time></trkpt><trkpt lat="43.91090637012146" lon="12.661401897877557"><ele>69.0</ele><time>2026-04-26T07:54:16Z</time></trkpt><trkpt lat="43.910839897135475" lon="12.661241432138247"><ele>69.0</ele><time>2026-04-26T07:54:17Z</time></trkpt><trkpt lat="43.910778614015044" lon="12.661092918922446"><ele>69.0</ele><time>2026-04-26T07:54:18Z</time></trkpt><trkpt lat="43.91071468655554" lon="12.660935624984456"><ele>69.0</ele><time>2026-04-26T07:54:19Z</time></trkpt><trkpt lat="43.9106565880151" lon="12.660772297979081"><ele>69.5</ele><time>2026-04-26T07:54:20Z</time></trkpt><trkpt lat="43.910601959710114" lon="12.660600747401396"><ele>70.0</ele><time>2026-04-26T07:54:21Z</time></trkpt><trkpt lat="43.910553460496565" lon="12.660413728933227"><ele>70.5</ele><time>2026-04-26T07:54:22Z</time></trkpt><trkpt lat="43.91051582229241" lon="12.660213853375257"><ele>71.0</ele><time>2026-04-26T07:54:23Z</time></trkpt><trkpt lat="43.91050883854208" lon="12.660004002348332"><ele>71.25</ele><time>2026-04-26T07:54:24Z</time></trkpt><trkpt lat="43.91050080852819" lon="12.659800427886495"><ele>71.5</ele><time>2026-04-26T07:54:25Z</time></trkpt><trkpt lat="43.9104993830095" lon="12.659603421007215"><ele>71.75</ele><time>2026-04-26T07:54:26Z</time></trkpt><trkpt lat="43.910503795362935" lon="12.659414045133262"><ele>72.0</ele><time>2026-04-26T07:54:27Z</time></trkpt><trkpt lat="43.91050626241435" lon="12.659213195091908"><ele>72.33333333333333</ele><time>2026-04-26T07:54:28Z</time></trkpt><trkpt lat="43.91050388249881" lon="12.659011674334366"><ele>72.66666666666666</ele><time>2026-04-26T07:54:29Z</time></trkpt><trkpt lat="43.91048602474129" lon="12.658813487237163"><ele>73.0</ele><time>2026-04-26T07:54:30Z</time></trkpt><trkpt lat="43.91053073666522" lon="12.658585186213223"><ele>74.0</ele><time>2026-04-26T07:54:31Z</time></trkpt><trkpt lat="43.91054205894492" lon="12.658361161680004"><ele>75.0</ele><time>2026-04-26T07:54:32Z</time></trkpt><trkpt lat="43.910552266066695" lon="12.65814852417745"><ele>76.0</ele><time>2026-04-26T07:54:33Z</time></trkpt><trkpt lat="43.910564257369224" lon="12.657944402520833"><ele>77.25</ele><time>2026-04-26T07:54:34Z</time></trkpt><trkpt lat="43.91057055083132" lon="12.657734962755598"><ele>78.5</ele><time>2026-04-26T07:54:35Z</time></trkpt><trkpt lat="43.91056925315869" lon="12.657533617083404"><ele>79.75</ele><time>2026-04-26T07:54:36Z</time></trkpt><trkpt lat="43.91055729142807" lon="12.65733278620678"><ele>81.0</ele><time>2026-04-26T07:54:37Z</time></trkpt><trkpt lat="43.91053366900994" lon="12.657132184209205"><ele>82.0</ele><time>2026-04-26T07:54:38Z</time></trkpt><trkpt lat="43.91049925198986" lon="12.65695044899464"><ele>83.0</ele><time>2026-04-26T07:54:39Z</time></trkpt><trkpt lat="43.9104665174544" lon="12.656772135332652"><ele>84.0</ele><time>2026-04-26T07:54:40Z</time></trkpt><trkpt lat="43.91042412232421" lon="12.65659873096313"><ele>85.0</ele><time>2026-04-26T07:54:41Z</time></trkpt><trkpt lat="43.91036736427809" lon="12.656430061003878"><ele>85.0</ele><time>2026-04-26T07:54:42Z</time></trkpt><trkpt lat="43.91030414512551" lon="12.656262840849152"><ele>85.0</ele><time>2026-04-26T07:54:43Z</time></trkpt><trkpt lat="43.910246035931436" lon="12.656114860061932"><ele>85.0</ele><time>2026-04-26T07:54:44Z</time></trkpt><trkpt lat="43.91019391710087" lon="12.655967926396304"><ele>85.0</ele><time>2026-04-26T07:54:45Z</time></trkpt><trkpt lat="43.91017670061751" lon="12.655803815457052"><ele>86.75</ele><time>2026-04-26T07:54:46Z</time></trkpt><trkpt lat="43.910168171988225" lon="12.655654975751311"><ele>88.5</ele><time>2026-04-26T07:54:47Z</time></trkpt><trkpt lat="43.9101889239954" lon="12.655505213823819"><ele>90.25</ele><time>2026-04-26T07:54:48Z</time></trkpt><trkpt lat="43.91022567000569" lon="12.655345823296617"><ele>92.0</ele><time>2026-04-26T07:54:49Z</time></trkpt><trkpt lat="43.91026684443093" lon="12.65515813138279"><ele>94.0</ele><time>2026-04-26T07:54:50Z</time></trkpt><trkpt lat="43.91031121223941" lon="12.654953797631054"><ele>96.0</ele><time>2026-04-26T07:54:51Z</time></trkpt><trkpt lat="43.91035497418605" lon="12.654752254100137"><ele>98.0</ele><time>2026-04-26T07:54:52Z</time></trkpt><trkpt lat="43.91039825313363" lon="12.654552934889635"><ele>98.60000000000001</ele><time>2026-04-26T07:54:53Z</time></trkpt><trkpt lat="43.91043618864457" lon="12.654379638694115"><ele>99.2</ele><time>2026-04-26T07:54:54Z</time></trkpt><trkpt lat="43.91045577974714" lon="12.654227319370543"><ele>99.8</ele><time>2026-04-26T07:54:55Z</time></trkpt><trkpt lat="43.910480984917776" lon="12.654125504928993"><ele>100.4</ele><time>2026-04-26T07:54:56Z</time></trkpt><trkpt lat="43.91052324503148" lon="12.653984089894035"><ele>101.0</ele><time>2026-04-26T07:54:58Z</time></trkpt><trkpt lat="43.910431785292964" lon="12.653872638024598"><ele>101.0</ele><time>2026-04-26T07:54:59Z</time></trkpt><trkpt lat="43.91036465342888" lon="12.653764631060385"><ele>101.0</ele><time>2026-04-26T07:55:00Z</time></trkpt><trkpt lat="43.91028638629329" lon="12.65363604022881"><ele>101.0</ele><time>2026-04-26T07:55:01Z</time></trkpt><trkpt lat="43.91020333961178" lon="12.653482814497826"><ele>101.0</ele><time>2026-04-26T07:55:02Z</time></trkpt><trkpt lat="43.910114283856196" lon="12.65331787403065"><ele>103.0</ele><time>2026-04-26T07:55:03Z</time></trkpt><trkpt lat="43.91002309919221" lon="12.653142225625112"><ele>105.0</ele><time>2026-04-26T07:55:04Z</time></trkpt><trkpt lat="43.909926850193784" lon="12.652964177078495"><ele>107.0</ele><time>2026-04-26T07:55:05Z</time></trkpt><trkpt lat="43.90984401455885" lon="12.652786543161163"><ele>107.0</ele><time>2026-04-26T07:55:06Z</time></trkpt><trkpt lat="43.90977028305459" lon="12.652668094728977"><ele>106.99999999999999</ele><time>2026-04-26T07:55:07Z</time></trkpt><trkpt lat="43.90970260369415" lon="12.652550132813804"><ele>106.99999999999999</ele><time>2026-04-26T07:55:08Z</time></trkpt><trkpt lat="43.90963873174639" lon="12.652451825446699"><ele>107.0</ele><time>2026-04-26T07:55:09Z</time></trkpt><trkpt lat="43.90956930885802" lon="12.652348966008581"><ele>107.0</ele><time>2026-04-26T07:55:10Z</time></trkpt><trkpt lat="43.90949351599613" lon="12.652230684381072"><ele>107.0</ele><time>2026-04-26T07:55:11Z</time></trkpt><trkpt lat="43.90941152452557" lon="12.652101182090727"><ele>107.0</ele><time>2026-04-26T07:55:12Z</time></trkpt><trkpt lat="43.90932188330449" lon="12.651968133582255"><ele>107.0</ele><time>2026-04-26T07:55:13Z</time></trkpt><trkpt lat="43.909234620295216" lon="12.6518319801504"><ele>107.0</ele><time>2026-04-26T07:55:14Z</time></trkpt><trkpt lat="43.909148581794675" lon="12.651692364336851"><ele>108.25</ele><time>2026-04-26T07:55:15Z</time></trkpt><trkpt lat="43.909061832720084" lon="12.651557165309008"><ele>109.5</ele><time>2026-04-26T07:55:16Z</time></trkpt><trkpt lat="43.908972377000595" lon="12.651415904311856"><ele>110.75</ele><time>2026-04-26T07:55:17Z</time></trkpt><trkpt lat="43.90887791705042" lon="12.651267161901504"><ele>112.0</ele><time>2026-04-26T07:55:18Z</time></trkpt><trkpt lat="43.90878265419622" lon="12.651116015927226"><ele>112.0</ele><time>2026-04-26T07:55:19Z</time></trkpt><trkpt lat="43.90868653575659" lon="12.65096101065344"><ele>112.0</ele><time>2026-04-26T07:55:20Z</time></trkpt><trkpt lat="43.90859078814144" lon="12.650799178036305"><ele>112.0</ele><time>2026-04-26T07:55:21Z</time></trkpt><trkpt lat="43.90848943953583" lon="12.650642536788267"><ele>113.25</ele><time>2026-04-26T07:55:22Z</time></trkpt><trkpt lat="43.90838990566781" lon="12.650490195718541"><ele>114.5</ele><time>2026-04-26T07:55:23Z</time></trkpt><trkpt lat="43.908298599750225" lon="12.650339656041048"><ele>115.75</ele><time>2026-04-26T07:55:24Z</time></trkpt><trkpt lat="43.90821184329626" lon="12.650189488416409"><ele>117.0</ele><time>2026-04-26T07:55:25Z</time></trkpt><trkpt lat="43.90814777845404" lon="12.650024692037704"><ele>117.75</ele><time>2026-04-26T07:55:26Z</time></trkpt><trkpt lat="43.90807821647003" lon="12.649874361779261"><ele>118.5</ele><time>2026-04-26T07:55:27Z</time></trkpt><trkpt lat="43.90801025213351" lon="12.649724854659349"><ele>119.25</ele><time>2026-04-26T07:55:28Z</time></trkpt><trkpt lat="43.90792893294399" lon="12.649593050203368"><ele>120.0</ele><time>2026-04-26T07:55:29Z</time></trkpt><trkpt lat="43.90786306904135" lon="12.649433680015047"><ele>120.0</ele><time>2026-04-26T07:55:30Z</time></trkpt><trkpt lat="43.90779885784724" lon="12.64926703969873"><ele>120.0</ele><time>2026-04-26T07:55:31Z</time></trkpt><trkpt lat="43.90773847694467" lon="12.649099811006487"><ele>120.0</ele><time>2026-04-26T07:55:32Z</time></trkpt><trkpt lat="43.907669520005285" lon="12.648923953409044"><ele>120.0</ele><time>2026-04-26T07:55:33Z</time></trkpt><trkpt lat="43.907590956966125" lon="12.648743197137632"><ele>122.33333333333334</ele><time>2026-04-26T07:55:34Z</time></trkpt><trkpt lat="43.907510416654304" lon="12.648556351777653"><ele>124.66666666666667</ele><time>2026-04-26T07:55:35Z</time></trkpt><trkpt lat="43.907430269677356" lon="12.648370994100352"><ele>127.0</ele><time>2026-04-26T07:55:36Z</time></trkpt><trkpt lat="43.90735464177235" lon="12.648192886999833"><ele>127.0</ele><time>2026-04-26T07:55:37Z</time></trkpt><trkpt lat="43.90728167366059" lon="12.648020878916048"><ele>127.0</ele><time>2026-04-26T07:55:38Z</time></trkpt><trkpt lat="43.90722877449483" lon="12.647852375653812"><ele>127.0</ele><time>2026-04-26T07:55:39Z</time></trkpt><trkpt lat="43.90716927140623" lon="12.64770132905574"><ele>127.0</ele><time>2026-04-26T07:55:40Z</time></trkpt><trkpt lat="43.907109287256596" lon="12.647539781877056"><ele>126.5</ele><time>2026-04-26T07:55:41Z</time></trkpt><trkpt lat="43.9070433780678" lon="12.647373509485341"><ele>126.0</ele><time>2026-04-26T07:55:42Z</time></trkpt><trkpt lat="43.90698082662312" lon="12.647195485190013"><ele>125.5</ele><time>2026-04-26T07:55:43Z</time></trkpt><trkpt lat="43.906920688520636" lon="12.647000604347097"><ele>125.0</ele><time>2026-04-26T07:55:44Z</time></trkpt><trkpt lat="43.90685947010372" lon="12.64679877441278"><ele>124.0</ele><time>2026-04-26T07:55:45Z</time></trkpt><trkpt lat="43.906801814197415" lon="12.646603970047725"><ele>123.0</ele><time>2026-04-26T07:55:46Z</time></trkpt><trkpt lat="43.906744299245155" lon="12.646415000305089"><ele>122.0</ele><time>2026-04-26T07:55:47Z</time></trkpt><trkpt lat="43.9066843779696" lon="12.64624237678478"><ele>121.0</ele><time>2026-04-26T07:55:48Z</time></trkpt><trkpt lat="43.90663005605587" lon="12.646080871153226"><ele>119.75</ele><time>2026-04-26T07:55:49Z</time></trkpt><trkpt lat="43.906577674091544" lon="12.64592012784468"><ele>118.5</ele><time>2026-04-26T07:55:50Z</time></trkpt><trkpt lat="43.90652253995987" lon="12.645765810090383"><ele>117.25</ele><time>2026-04-26T07:55:51Z</time></trkpt><trkpt lat="43.906463737197235" lon="12.645623523280689"><ele>116.0</ele><time>2026-04-26T07:55:52Z</time></trkpt><trkpt lat="43.906395873585616" lon="12.645500248176075"><ele>116.0</ele><time>2026-04-26T07:55:53Z</time></trkpt><trkpt lat="43.906326673772156" lon="12.645377145474948"><ele>116.0</ele><time>2026-04-26T07:55:54Z</time></trkpt><trkpt lat="43.90626032246235" lon="12.645258265761452"><ele>116.0</ele><time>2026-04-26T07:55:55Z</time></trkpt><trkpt lat="43.906196350988814" lon="12.645148882696558"><ele>116.0</ele><time>2026-04-26T07:55:56Z</time></trkpt><trkpt lat="43.90614721727085" lon="12.64504634615509"><ele>116.0</ele><time>2026-04-26T07:55:57Z</time></trkpt><trkpt lat="43.90610263552077" lon="12.644951344961218"><ele>115.16666666666666</ele><time>2026-04-26T07:55:58Z</time></trkpt><trkpt lat="43.906081539056814" lon="12.644857124730857"><ele>114.33333333333333</ele><time>2026-04-26T07:55:59Z</time></trkpt><trkpt lat="43.90608007521946" lon="12.644753590454645"><ele>113.5</ele><time>2026-04-26T07:56:00Z</time></trkpt><trkpt lat="43.906094078110364" lon="12.64465096865712"><ele>112.66666666666666</ele><time>2026-04-26T07:56:01Z</time></trkpt><trkpt lat="43.906151440071454" lon="12.644552065743815"><ele>111.83333333333333</ele><time>2026-04-26T07:56:02Z</time></trkpt><trkpt lat="43.906183177755985" lon="12.644430259950052"><ele>111.0</ele><time>2026-04-26T07:56:03Z</time></trkpt><trkpt lat="43.906214715440214" lon="12.64430922214051"><ele>109.66666666666667</ele><time>2026-04-26T07:56:04Z</time></trkpt><trkpt lat="43.90624210017799" lon="12.64420412234941"><ele>108.33333333333334</ele><time>2026-04-26T07:56:05Z</time></trkpt><trkpt lat="43.90625044449455" lon="12.644107044305379"><ele>107.0</ele><time>2026-04-26T07:56:06Z</time></trkpt><trkpt lat="43.90629256196555" lon="12.643975287028335"><ele>105.66666666666667</ele><time>2026-04-26T07:56:08Z</time></trkpt><trkpt lat="43.90630983599235" lon="12.643851653807385"><ele>104.33333333333334</ele><time>2026-04-26T07:56:10Z</time></trkpt><trkpt lat="43.90633268548027" lon="12.643765760521061"><ele>103.0</ele><time>2026-04-26T07:56:21Z</time></trkpt><trkpt lat="43.90618836708499" lon="12.64365514211558"><ele>103.00000000000001</ele><time>2026-04-26T07:56:22Z</time></trkpt><trkpt lat="43.90610505635481" lon="12.643643930695417"><ele>103.0</ele><time>2026-04-26T07:56:23Z</time></trkpt><trkpt lat="43.90603629947923" lon="12.643615517997366"><ele>103.0</ele><time>2026-04-26T07:56:24Z</time></trkpt><trkpt lat="43.90596900722326" lon="12.643593252552309"><ele>103.0</ele><time>2026-04-26T07:56:25Z</time></trkpt><trkpt lat="43.90590481471665" lon="12.643572478612825"><ele>103.00000000000001</ele><time>2026-04-26T07:56:26Z</time></trkpt><trkpt lat="43.90580446254265" lon="12.643539991885062"><ele>103.0</ele><time>2026-04-26T07:56:28Z</time></trkpt><trkpt lat="43.9057410606968" lon="12.643514154310866"><ele>102.80000000000001</ele><time>2026-04-26T07:56:30Z</time></trkpt><trkpt lat="43.90562017178393" lon="12.643499732795615"><ele>102.6</ele><time>2026-04-26T07:56:47Z</time></trkpt><trkpt lat="43.90552014026064" lon="12.643464184810393"><ele>102.4</ele><time>2026-04-26T07:56:48Z</time></trkpt><trkpt lat="43.905413280680804" lon="12.643415775501044"><ele>102.19999999999999</ele><time>2026-04-26T07:56:49Z</time></trkpt><trkpt lat="43.90534888207544" lon="12.643391220217001"><ele>102.0</ele><time>2026-04-26T07:56:50Z</time></trkpt><trkpt lat="43.9052882650457" lon="12.643363342605936"><ele>102.0</ele><time>2026-04-26T07:56:52Z</time></trkpt><trkpt lat="43.9052109522703" lon="12.643352510160963"><ele>102.0</ele><time>2026-04-26T07:57:05Z</time></trkpt><trkpt lat="43.90509204072699" lon="12.64337059524502"><ele>102.0</ele><time>2026-04-26T07:57:07Z</time></trkpt><trkpt lat="43.905020177693565" lon="12.64340943120228"><ele>102.0</ele><time>2026-04-26T07:57:08Z</time></trkpt><trkpt lat="43.90495297874034" lon="12.643481262253324"><ele>102.0</ele><time>2026-04-26T07:57:09Z</time></trkpt><trkpt lat="43.90489482684775" lon="12.643582101118048"><ele>103.83333333333333</ele><time>2026-04-26T07:57:10Z</time></trkpt><trkpt lat="43.9048494340186" lon="12.643685794958252"><ele>105.66666666666666</ele><time>2026-04-26T07:57:11Z</time></trkpt><trkpt lat="43.904815861514976" lon="12.643805934305018"><ele>107.5</ele><time>2026-04-26T07:57:12Z</time></trkpt><trkpt lat="43.90479329139498" lon="12.643923654416149"><ele>109.33333333333333</ele><time>2026-04-26T07:57:13Z</time></trkpt><trkpt lat="43.90477735690502" lon="12.64401203082868"><ele>111.16666666666666</ele><time>2026-04-26T07:57:14Z</time></trkpt><trkpt lat="43.904739136991864" lon="12.644091635878622"><ele>113.0</ele><time>2026-04-26T07:57:15Z</time></trkpt><trkpt lat="43.904521885903605" lon="12.644116669384752"><ele>113.0</ele><time>2026-04-26T07:57:18Z</time></trkpt><trkpt lat="43.904458072180844" lon="12.644037312461085"><ele>113.00000000000001</ele><time>2026-04-26T07:57:19Z</time></trkpt><trkpt lat="43.90440864182078" lon="12.643977405625616"><ele>113.00000000000001</ele><time>2026-04-26T07:57:20Z</time></trkpt><trkpt lat="43.904337610836365" lon="12.64389349114444"><ele>113.0</ele><time>2026-04-26T07:57:22Z</time></trkpt><trkpt lat="43.90426278561837" lon="12.644048602023414"><ele>113.0</ele><time>2026-04-26T07:57:23Z</time></trkpt><trkpt lat="43.90422746146496" lon="12.64414420209539"><ele>113.66666666666666</ele><time>2026-04-26T07:57:24Z</time></trkpt><trkpt lat="43.90419549378009" lon="12.64425699925859"><ele>114.33333333333333</ele><time>2026-04-26T07:57:25Z</time></trkpt><trkpt lat="43.904165332028576" lon="12.644362425977336"><ele>115.0</ele><time>2026-04-26T07:57:26Z</time></trkpt><trkpt lat="43.90412519641764" lon="12.644454772873145"><ele>115.66666666666666</ele><time>2026-04-26T07:57:27Z</time></trkpt><trkpt lat="43.90408684915479" lon="12.64460536511406"><ele>116.33333333333333</ele><time>2026-04-26T07:57:29Z</time></trkpt><trkpt lat="43.90405701532624" lon="12.644714595309503"><ele>117.0</ele><time>2026-04-26T07:57:31Z</time></trkpt><trkpt lat="43.904150723519244" lon="12.644646123866654"><ele>117.0</ele><time>2026-04-26T07:57:41Z</time></trkpt><trkpt lat="43.90417700943538" lon="12.644560356760325"><ele>117.0</ele><time>2026-04-26T07:57:42Z</time></trkpt><trkpt lat="43.90420684652581" lon="12.644451983609086"><ele>117.0</ele><time>2026-04-26T07:57:43Z</time></trkpt><trkpt lat="43.90422979932619" lon="12.644342782597226"><ele>117.0</ele><time>2026-04-26T07:57:44Z</time></trkpt><trkpt lat="43.904262191255846" lon="12.644244757458583"><ele>117.0</ele><time>2026-04-26T07:57:45Z</time></trkpt><trkpt lat="43.90430133591506" lon="12.644155255776187"><ele>117.0</ele><time>2026-04-26T07:57:46Z</time></trkpt><trkpt lat="43.90434830729756" lon="12.644057626315982"><ele>117.39999999999999</ele><time>2026-04-26T07:57:48Z</time></trkpt><trkpt lat="43.904354254888766" lon="12.643962928009838"><ele>117.79999999999998</ele><time>2026-04-26T07:57:52Z</time></trkpt><trkpt lat="43.90432448747328" lon="12.643766938445486"><ele>118.2</ele><time>2026-04-26T07:57:54Z</time></trkpt><trkpt lat="43.904291496019795" lon="12.64365356166925"><ele>118.6</ele><time>2026-04-26T07:57:55Z</time></trkpt><trkpt lat="43.904253057995135" lon="12.643555650770246"><ele>119.0</ele><time>2026-04-26T07:57:56Z</time></trkpt><trkpt lat="43.90420442167354" lon="12.643422707078239"><ele>119.0</ele><time>2026-04-26T07:57:57Z</time></trkpt><trkpt lat="43.904146874481114" lon="12.643256745488276"><ele>119.0</ele><time>2026-04-26T07:57:58Z</time></trkpt><trkpt lat="43.904091537504904" lon="12.643099933043791"><ele>119.0</ele><time>2026-04-26T07:57:59Z</time></trkpt><trkpt lat="43.90403058706169" lon="12.642935752868185"><ele>119.0</ele><time>2026-04-26T07:58:00Z</time></trkpt><trkpt lat="43.903964444856605" lon="12.642752328171383"><ele>118.5</ele><time>2026-04-26T07:58:01Z</time></trkpt><trkpt lat="43.90389845913357" lon="12.642560150894756"><ele>118.0</ele><time>2026-04-26T07:58:02Z</time></trkpt><trkpt lat="43.90383184488624" lon="12.642380952035733"><ele>117.5</ele><time>2026-04-26T07:58:03Z</time></trkpt><trkpt lat="43.90377862277276" lon="12.642223574858162"><ele>117.0</ele><time>2026-04-26T07:58:04Z</time></trkpt><trkpt lat="43.903729851356196" lon="12.642090604873863"><ele>117.0</ele><time>2026-04-26T07:58:05Z</time></trkpt><trkpt lat="43.90367080827427" lon="12.641988297956708"><ele>116.99999999999999</ele><time>2026-04-26T07:58:06Z</time></trkpt><trkpt lat="43.90359208620354" lon="12.641934249261062"><ele>116.99999999999999</ele><time>2026-04-26T07:58:07Z</time></trkpt><trkpt lat="43.90350342833734" lon="12.641927331152983"><ele>117.0</ele><time>2026-04-26T07:58:08Z</time></trkpt><trkpt lat="43.90342471772997" lon="12.641993106395558"><ele>117.0</ele><time>2026-04-26T07:58:09Z</time></trkpt><trkpt lat="43.903365324414935" lon="12.642111348836423"><ele>118.75</ele><time>2026-04-26T07:58:10Z</time></trkpt><trkpt lat="43.90332824904301" lon="12.642266276689242"><ele>120.5</ele><time>2026-04-26T07:58:11Z</time></trkpt><trkpt lat="43.90330883109944" lon="12.642443973996244"><ele>122.25</ele><time>2026-04-26T07:58:12Z</time></trkpt><trkpt lat="43.90329647115868" lon="12.642638116719164"><ele>124.0</ele><time>2026-04-26T07:58:13Z</time></trkpt><trkpt lat="43.903281729676586" lon="12.642846119342135"><ele>125.25</ele><time>2026-04-26T07:58:14Z</time></trkpt><trkpt lat="43.903260022945375" lon="12.6430481786107"><ele>126.5</ele><time>2026-04-26T07:58:15Z</time></trkpt><trkpt lat="43.90321118954816" lon="12.643231147610646"><ele>127.75</ele><time>2026-04-26T07:58:16Z</time></trkpt><trkpt lat="43.903099638777626" lon="12.6433888362658"><ele>129.0</ele><time>2026-04-26T07:58:17Z</time></trkpt><trkpt lat="43.90301756288878" lon="12.643576032653838"><ele>128.33333333333334</ele><time>2026-04-26T07:58:18Z</time></trkpt><trkpt lat="43.90293333010625" lon="12.64375834170088"><ele>127.66666666666667</ele><time>2026-04-26T07:58:19Z</time></trkpt><trkpt lat="43.90284920028561" lon="12.643944927769558"><ele>127.0</ele><time>2026-04-26T07:58:20Z</time></trkpt><trkpt lat="43.90276410046942" lon="12.644137260567158"><ele>127.0</ele><time>2026-04-26T07:58:21Z</time></trkpt><trkpt lat="43.90267969438332" lon="12.644328025567471"><ele>127.0</ele><time>2026-04-26T07:58:22Z</time></trkpt><trkpt lat="43.90259571562743" lon="12.644517779075692"><ele>127.0</ele><time>2026-04-26T07:58:23Z</time></trkpt><trkpt lat="43.90251045347878" lon="12.64471039773337"><ele>130.33333333333334</ele><time>2026-04-26T07:58:24Z</time></trkpt><trkpt lat="43.90243456700402" lon="12.644912333901265"><ele>133.66666666666666</ele><time>2026-04-26T07:58:25Z</time></trkpt><trkpt lat="43.90234689808976" lon="12.64510165208653"><ele>137.0</ele><time>2026-04-26T07:58:26Z</time></trkpt><trkpt lat="43.90226558301319" lon="12.645286562555265"><ele>136.25</ele><time>2026-04-26T07:58:27Z</time></trkpt><trkpt lat="43.902193240387454" lon="12.645462157152224"><ele>135.5</ele><time>2026-04-26T07:58:28Z</time></trkpt><trkpt lat="43.90211162452109" lon="12.645596120545761"><ele>134.75</ele><time>2026-04-26T07:58:29Z</time></trkpt><trkpt lat="43.90203859676874" lon="12.645711032315091"><ele>134.0</ele><time>2026-04-26T07:58:30Z</time></trkpt><trkpt lat="43.90195535319581" lon="12.645786149573432"><ele>134.0</ele><time>2026-04-26T07:58:31Z</time></trkpt><trkpt lat="43.90186685391508" lon="12.645795787052373"><ele>134.0</ele><time>2026-04-26T07:58:32Z</time></trkpt><trkpt lat="43.90178355623118" lon="12.645769540710026"><ele>134.0</ele><time>2026-04-26T07:58:33Z</time></trkpt><trkpt lat="43.901727028639556" lon="12.64569167484691"><ele>134.0</ele><time>2026-04-26T07:58:34Z</time></trkpt><trkpt lat="43.9017109126106" lon="12.645574154888797"><ele>134.0</ele><time>2026-04-26T07:58:35Z</time></trkpt><trkpt lat="43.901703500704926" lon="12.645444620519354"><ele>134.0</ele><time>2026-04-26T07:58:36Z</time></trkpt><trkpt lat="43.901726086201485" lon="12.645281678813898"><ele>135.0</ele><time>2026-04-26T07:58:37Z</time></trkpt><trkpt lat="43.90174687707278" lon="12.645082749314241"><ele>136.0</ele><time>2026-04-26T07:58:38Z</time></trkpt><trkpt lat="43.90177046679332" lon="12.644859846860367"><ele>137.0</ele><time>2026-04-26T07:58:39Z</time></trkpt><trkpt lat="43.90179373906559" lon="12.64462567345428"><ele>137.66666666666666</ele><time>2026-04-26T07:58:40Z</time></trkpt><trkpt lat="43.90181438107184" lon="12.644399471831889"><ele>138.33333333333334</ele><time>2026-04-26T07:58:41Z</time></trkpt><trkpt lat="43.901822877654325" lon="12.644172085240696"><ele>139.0</ele><time>2026-04-26T07:58:42Z</time></trkpt><trkpt lat="43.90184766562881" lon="12.643940811808221"><ele>139.0</ele><time>2026-04-26T07:58:43Z</time></trkpt><trkpt lat="43.90186237273326" lon="12.643733487972602"><ele>139.0</ele><time>2026-04-26T07:58:44Z</time></trkpt><trkpt lat="43.90185923300137" lon="12.64355077054435"><ele>139.0</ele><time>2026-04-26T07:58:45Z</time></trkpt><trkpt lat="43.90183966584737" lon="12.643380338256643"><ele>139.0</ele><time>2026-04-26T07:58:46Z</time></trkpt><trkpt lat="43.901796171841426" lon="12.643225193107424"><ele>142.5</ele><time>2026-04-26T07:58:47Z</time></trkpt><trkpt lat="43.90173089244701" lon="12.643080440230046"><ele>146.0</ele><time>2026-04-26T07:58:48Z</time></trkpt><trkpt lat="43.901648733675295" lon="12.642937447253585"><ele>149.5</ele><time>2026-04-26T07:58:49Z</time></trkpt><trkpt lat="43.90155795518495" lon="12.64279364824737"><ele>153.0</ele><time>2026-04-26T07:58:50Z</time></trkpt><trkpt lat="43.9014586092877" lon="12.642646681852769"><ele>153.0</ele><time>2026-04-26T07:58:51Z</time></trkpt><trkpt lat="43.90136932947084" lon="12.642500883190637"><ele>153.0</ele><time>2026-04-26T07:58:52Z</time></trkpt><trkpt lat="43.90131252207681" lon="12.642324395273379"><ele>153.0</ele><time>2026-04-26T07:58:53Z</time></trkpt><trkpt lat="43.901235876707005" lon="12.642146706962787"><ele>153.0</ele><time>2026-04-26T07:58:54Z</time></trkpt><trkpt lat="43.90117715865359" lon="12.641936114355296"><ele>153.33333333333334</ele><time>2026-04-26T07:58:55Z</time></trkpt><trkpt lat="43.90111444096891" lon="12.64170954926465"><ele>153.66666666666669</ele><time>2026-04-26T07:58:56Z</time></trkpt><trkpt lat="43.90104015328254" lon="12.641484866924259"><ele>154.0</ele><time>2026-04-26T07:58:57Z</time></trkpt><trkpt lat="43.900958725402944" lon="12.6412897572511"><ele>158.66666666666669</ele><time>2026-04-26T07:58:58Z</time></trkpt><trkpt lat="43.90083790906611" lon="12.641131849947909"><ele>163.33333333333334</ele><time>2026-04-26T07:58:59Z</time></trkpt><trkpt lat="43.90071336223304" lon="12.640996702799837"><ele>168.0</ele><time>2026-04-26T07:59:00Z</time></trkpt><trkpt lat="43.900615846895874" lon="12.64085180269474"><ele>168.0</ele><time>2026-04-26T07:59:01Z</time></trkpt><trkpt lat="43.90057260149406" lon="12.64065632656962"><ele>168.0</ele><time>2026-04-26T07:59:02Z</time></trkpt><trkpt lat="43.90053409231752" lon="12.640455341303074"><ele>168.0</ele><time>2026-04-26T07:59:03Z</time></trkpt><trkpt lat="43.90049102775832" lon="12.640226724143927"><ele>167.66666666666666</ele><time>2026-04-26T07:59:04Z</time></trkpt><trkpt lat="43.90044756706044" lon="12.639982573346042"><ele>167.33333333333331</ele><time>2026-04-26T07:59:05Z</time></trkpt><trkpt lat="43.9003998729793" lon="12.639719160437512"><ele>167.0</ele><time>2026-04-26T07:59:06Z</time></trkpt><trkpt lat="43.900356320726864" lon="12.639445394592993"><ele>167.0</ele><time>2026-04-26T07:59:07Z</time></trkpt><trkpt lat="43.90032207536704" lon="12.639160706486072"><ele>167.0</ele><time>2026-04-26T07:59:08Z</time></trkpt><trkpt lat="43.900305643077445" lon="12.63887399692298"><ele>167.0</ele><time>2026-04-26T07:59:09Z</time></trkpt><trkpt lat="43.90029385546029" lon="12.638615173226073"><ele>165.75</ele><time>2026-04-26T07:59:10Z</time></trkpt><trkpt lat="43.900273997367385" lon="12.6383894971649"><ele>164.5</ele><time>2026-04-26T07:59:11Z</time></trkpt><trkpt lat="43.900220829034616" lon="12.638197724609551"><ele>163.25</ele><time>2026-04-26T07:59:12Z</time></trkpt><trkpt lat="43.90016530602806" lon="12.63802388574604"><ele>162.0</ele><time>2026-04-26T07:59:13Z</time></trkpt><trkpt lat="43.900096163367685" lon="12.637858678210675"><ele>166.0</ele><time>2026-04-26T07:59:14Z</time></trkpt><trkpt lat="43.90003563267541" lon="12.637678834462905"><ele>170.0</ele><time>2026-04-26T07:59:15Z</time></trkpt><trkpt lat="43.89991607146865" lon="12.637536343576432"><ele>174.0</ele><time>2026-04-26T07:59:16Z</time></trkpt><trkpt lat="43.89983220326208" lon="12.637392198578407"><ele>178.0</ele><time>2026-04-26T07:59:17Z</time></trkpt><trkpt lat="43.89976198357565" lon="12.637265160629491"><ele>178.0</ele><time>2026-04-26T07:59:18Z</time></trkpt><trkpt lat="43.89970019058848" lon="12.6371602331237"><ele>178.0</ele><time>2026-04-26T07:59:19Z</time></trkpt><trkpt lat="43.899640840028894" lon="12.637067146725117"><ele>178.0</ele><time>2026-04-26T07:59:20Z</time></trkpt><trkpt lat="43.89953628765455" lon="12.637057595026429"><ele>178.0</ele><time>2026-04-26T07:59:21Z</time></trkpt><trkpt lat="43.899438412493346" lon="12.637074425710423"><ele>178.0</ele><time>2026-04-26T07:59:22Z</time></trkpt><trkpt lat="43.89933854776027" lon="12.63715399153366"><ele>179.75</ele><time>2026-04-26T07:59:23Z</time></trkpt><trkpt lat="43.899228245648096" lon="12.63724882091259"><ele>181.5</ele><time>2026-04-26T07:59:24Z</time></trkpt><trkpt lat="43.89910033851315" lon="12.637330240752167"><ele>183.25</ele><time>2026-04-26T07:59:25Z</time></trkpt><trkpt lat="43.898970394384165" lon="12.637332573136925"><ele>185.0</ele><time>2026-04-26T07:59:26Z</time></trkpt><trkpt lat="43.89883283317599" lon="12.637313029475965"><ele>185.0</ele><time>2026-04-26T07:59:27Z</time></trkpt><trkpt lat="43.89870873948316" lon="12.637283621689921"><ele>185.0</ele><time>2026-04-26T07:59:28Z</time></trkpt><trkpt lat="43.89861122921583" lon="12.637220847811523"><ele>185.0</ele><time>2026-04-26T07:59:29Z</time></trkpt><trkpt lat="43.89855570979853" lon="12.637119031793242"><ele>185.0</ele><time>2026-04-26T07:59:30Z</time></trkpt><trkpt lat="43.898548818070665" lon="12.637010055605272"><ele>185.0</ele><time>2026-04-26T07:59:31Z</time></trkpt><trkpt lat="43.89850454949836" lon="12.636828421577361"><ele>187.0</ele><time>2026-04-26T07:59:32Z</time></trkpt><trkpt lat="43.898435468228556" lon="12.636633364589148"><ele>189.0</ele><time>2026-04-26T07:59:33Z</time></trkpt><trkpt lat="43.89829910918656" lon="12.636492031652912"><ele>191.0</ele><time>2026-04-26T07:59:34Z</time></trkpt><trkpt lat="43.898169926948675" lon="12.636334129512774"><ele>191.5</ele><time>2026-04-26T07:59:35Z</time></trkpt><trkpt lat="43.89805259486734" lon="12.636188898577096"><ele>192.0</ele><time>2026-04-26T07:59:36Z</time></trkpt><trkpt lat="43.8979651302766" lon="12.636041455831101"><ele>192.5</ele><time>2026-04-26T07:59:37Z</time></trkpt><trkpt lat="43.897879072990264" lon="12.635910842733574"><ele>193.0</ele><time>2026-04-26T07:59:38Z</time></trkpt><trkpt lat="43.89777880674609" lon="12.635807945196218"><ele>194.5</ele><time>2026-04-26T07:59:39Z</time></trkpt><trkpt lat="43.89765899796613" lon="12.635760732688219"><ele>196.0</ele><time>2026-04-26T07:59:40Z</time></trkpt><trkpt lat="43.89752056109137" lon="12.635749658340359"><ele>197.5</ele><time>2026-04-26T07:59:41Z</time></trkpt><trkpt lat="43.89736803533412" lon="12.635749842952958"><ele>199.0</ele><time>2026-04-26T07:59:42Z</time></trkpt><trkpt lat="43.89720746662259" lon="12.635743457995163"><ele>200.0</ele><time>2026-04-26T07:59:43Z</time></trkpt><trkpt lat="43.89704829847552" lon="12.635714104006606"><ele>201.0</ele><time>2026-04-26T07:59:44Z</time></trkpt><trkpt lat="43.896906198841364" lon="12.635635220405367"><ele>202.0</ele><time>2026-04-26T07:59:45Z</time></trkpt><trkpt lat="43.89676166001644" lon="12.635581289502394"><ele>202.6</ele><time>2026-04-26T07:59:46Z</time></trkpt><trkpt lat="43.896623154391975" lon="12.635556557593535"><ele>203.2</ele><time>2026-04-26T07:59:47Z</time></trkpt><trkpt lat="43.89651137660726" lon="12.635540648380552"><ele>203.8</ele><time>2026-04-26T07:59:48Z</time></trkpt><trkpt lat="43.89641620811478" lon="12.635546351234568"><ele>204.4</ele><time>2026-04-26T07:59:49Z</time></trkpt><trkpt lat="43.896335579493424" lon="12.635574686022808"><ele>205.0</ele><time>2026-04-26T07:59:50Z</time></trkpt><trkpt lat="43.89626635469069" lon="12.63560673085529"><ele>204.99999999999997</ele><time>2026-04-26T07:59:51Z</time></trkpt><trkpt lat="43.8962049803426" lon="12.635635599072565"><ele>205.0</ele><time>2026-04-26T07:59:52Z</time></trkpt><trkpt lat="43.896117312946195" lon="12.63569357433985"><ele>205.0</ele><time>2026-04-26T07:59:54Z</time></trkpt><trkpt lat="43.896053810341606" lon="12.635783505822825"><ele>205.0</ele><time>2026-04-26T07:59:56Z</time></trkpt><trkpt lat="43.8960070489784" lon="12.635845072966276"><ele>204.99999999999997</ele><time>2026-04-26T07:59:58Z</time></trkpt><trkpt lat="43.895951126934335" lon="12.635930704035596"><ele>205.0</ele><time>2026-04-26T08:00:26Z</time></trkpt><trkpt lat="43.89589481858313" lon="12.636042310257677"><ele>204.99999999999997</ele><time>2026-04-26T08:00:28Z</time></trkpt><trkpt lat="43.89585127056927" lon="12.636115138150856"><ele>205.0</ele><time>2026-04-26T08:00:29Z</time></trkpt><trkpt lat="43.89580393054591" lon="12.636193340633723"><ele>205.0</ele><time>2026-04-26T08:00:30Z</time></trkpt><trkpt lat="43.89575612468148" lon="12.636268776055166"><ele>205.0</ele><time>2026-04-26T08:00:31Z</time></trkpt><trkpt lat="43.895673920106056" lon="12.636349690839642"><ele>204.99999999999997</ele><time>2026-04-26T08:00:33Z</time></trkpt><trkpt lat="43.89559583037669" lon="12.63640039856771"><ele>205.0</ele><time>2026-04-26T08:00:35Z</time></trkpt><trkpt lat="43.89547696197021" lon="12.636377021356484"><ele>204.99999999999997</ele><time>2026-04-26T08:00:37Z</time></trkpt><trkpt lat="43.89541024652631" lon="12.636342357907806"><ele>205.0</ele><time>2026-04-26T08:00:38Z</time></trkpt><trkpt lat="43.89533574326268" lon="12.636293293343332"><ele>205.0</ele><time>2026-04-26T08:00:39Z</time></trkpt><trkpt lat="43.89524845996626" lon="12.636252487040439"><ele>205.0</ele><time>2026-04-26T08:00:40Z</time></trkpt><trkpt lat="43.895179385771506" lon="12.636191116147304"><ele>204.99999999999997</ele><time>2026-04-26T08:00:41Z</time></trkpt><trkpt lat="43.895078551886535" lon="12.636123693349433"><ele>205.0</ele><time>2026-04-26T08:00:43Z</time></trkpt><trkpt lat="43.895163811972644" lon="12.636111372586944"><ele>207.8</ele><time>2026-04-26T08:00:50Z</time></trkpt><trkpt lat="43.89525320370236" lon="12.635963934778651"><ele>210.6</ele><time>2026-04-26T08:00:51Z</time></trkpt><trkpt lat="43.895319198867234" lon="12.6358695332983"><ele>213.39999999999998</ele><time>2026-04-26T08:00:53Z</time></trkpt><trkpt lat="43.89538469294111" lon="12.635767634520803"><ele>216.2</ele><time>2026-04-26T08:00:55Z</time></trkpt><trkpt lat="43.89542418835975" lon="12.635680274958393"><ele>219.0</ele><time>2026-04-26T08:00:56Z</time></trkpt><trkpt lat="43.895464339738375" lon="12.635606283535912"><ele>219.0</ele><time>2026-04-26T08:00:57Z</time></trkpt><trkpt lat="43.89549946713795" lon="12.63552689047246"><ele>219.0</ele><time>2026-04-26T08:00:58Z</time></trkpt><trkpt lat="43.89553355151206" lon="12.635445404616085"><ele>219.0</ele><time>2026-04-26T08:00:59Z</time></trkpt><trkpt lat="43.895551646059964" lon="12.635325409634685"><ele>219.0</ele><time>2026-04-26T08:01:00Z</time></trkpt><trkpt lat="43.89555654800453" lon="12.63519429235917"><ele>219.0</ele><time>2026-04-26T08:01:01Z</time></trkpt><trkpt lat="43.89556776937865" lon="12.635072183082183"><ele>219.0</ele><time>2026-04-26T08:01:02Z</time></trkpt><trkpt lat="43.89558630750602" lon="12.634951931116886"><ele>221.0</ele><time>2026-04-26T08:01:03Z</time></trkpt><trkpt lat="43.895605055382944" lon="12.63483313285583"><ele>222.99999999999997</ele><time>2026-04-26T08:01:04Z</time></trkpt><trkpt lat="43.89563260066198" lon="12.634715888059993"><ele>224.99999999999997</ele><time>2026-04-26T08:01:05Z</time></trkpt><trkpt lat="43.895667698156814" lon="12.634574758502202"><ele>227.0</ele><time>2026-04-26T08:01:06Z</time></trkpt><trkpt lat="43.89570139781121" lon="12.634440406216514"><ele>229.0</ele><time>2026-04-26T08:01:07Z</time></trkpt><trkpt lat="43.89573661705284" lon="12.634315917759478"><ele>231.0</ele><time>2026-04-26T08:01:08Z</time></trkpt><trkpt lat="43.895773462012045" lon="12.634198266420821"><ele>232.99999999999997</ele><time>2026-04-26T08:01:09Z</time></trkpt><trkpt lat="43.895807255861236" lon="12.63408051357132"><ele>234.99999999999997</ele><time>2026-04-26T08:01:10Z</time></trkpt><trkpt lat="43.89583520707874" lon="12.633960420602124"><ele>237.0</ele><time>2026-04-26T08:01:11Z</time></trkpt><trkpt lat="43.895857055206264" lon="12.633840213263158"><ele>239.0</ele><time>2026-04-26T08:01:12Z</time></trkpt><trkpt lat="43.89587765976681" lon="12.633718517602349"><ele>239.50000000000003</ele><time>2026-04-26T08:01:13Z</time></trkpt><trkpt lat="43.895891468389294" lon="12.633598878804932"><ele>240.0</ele><time>2026-04-26T08:01:14Z</time></trkpt><trkpt lat="43.89589601147868" lon="12.6334786030992"><ele>240.5</ele><time>2026-04-26T08:01:15Z</time></trkpt><trkpt lat="43.89589077204448" lon="12.633355826777642"><ele>241.0</ele><time>2026-04-26T08:01:16Z</time></trkpt><trkpt lat="43.89587992770657" lon="12.63323243657992"><ele>241.50000000000003</ele><time>2026-04-26T08:01:17Z</time></trkpt><trkpt lat="43.89586849426093" lon="12.63311383920444"><ele>242.0</ele><time>2026-04-26T08:01:18Z</time></trkpt><trkpt lat="43.8958588482016" lon="12.633014162373652"><ele>242.0</ele><time>2026-04-26T08:01:19Z</time></trkpt><trkpt lat="43.89584350012981" lon="12.632925506108233"><ele>241.99999999999997</ele><time>2026-04-26T08:01:20Z</time></trkpt><trkpt lat="43.895861010192256" lon="12.632831794196422"><ele>242.0</ele><time>2026-04-26T08:01:21Z</time></trkpt><trkpt lat="43.89586167309896" lon="12.632734783427274"><ele>242.0</ele><time>2026-04-26T08:01:22Z</time></trkpt><trkpt lat="43.89586100838941" lon="12.632634707116088"><ele>241.99999999999997</ele><time>2026-04-26T08:01:23Z</time></trkpt><trkpt lat="43.89585859705262" lon="12.632524975576477"><ele>242.0</ele><time>2026-04-26T08:01:24Z</time></trkpt><trkpt lat="43.89585596093852" lon="12.632400623889055"><ele>242.0</ele><time>2026-04-26T08:01:25Z</time></trkpt><trkpt lat="43.895851919139254" lon="12.632268318528793"><ele>243.39999999999998</ele><time>2026-04-26T08:01:26Z</time></trkpt><trkpt lat="43.89584383851763" lon="12.63213467766191"><ele>244.79999999999998</ele><time>2026-04-26T08:01:27Z</time></trkpt><trkpt lat="43.89583112868218" lon="12.63200049391881"><ele>246.2</ele><time>2026-04-26T08:01:28Z</time></trkpt><trkpt lat="43.89580735739349" lon="12.631876088428141"><ele>247.6</ele><time>2026-04-26T08:01:29Z</time></trkpt><trkpt lat="43.89580057997907" lon="12.631739631518144"><ele>249.0</ele><time>2026-04-26T08:01:30Z</time></trkpt><trkpt lat="43.89581174945402" lon="12.631597302137617"><ele>250.39999999999998</ele><time>2026-04-26T08:01:31Z</time></trkpt><trkpt lat="43.89582397220447" lon="12.631455752325673"><ele>251.79999999999998</ele><time>2026-04-26T08:01:32Z</time></trkpt><trkpt lat="43.895841557928584" lon="12.631287945213973"><ele>253.20000000000002</ele><time>2026-04-26T08:01:33Z</time></trkpt><trkpt lat="43.89584626060026" lon="12.63114915980271"><ele>254.60000000000002</ele><time>2026-04-26T08:01:34Z</time></trkpt><trkpt lat="43.89584325634873" lon="12.63103500291103"><ele>256.0</ele><time>2026-04-26T08:01:35Z</time></trkpt><trkpt lat="43.89582865841679" lon="12.630927756219297"><ele>257.0</ele><time>2026-04-26T08:01:36Z</time></trkpt><trkpt lat="43.89582302274977" lon="12.63078618973325"><ele>258.0</ele><time>2026-04-26T08:01:37Z</time></trkpt><trkpt lat="43.89581562814295" lon="12.63063636357541"><ele>259.0</ele><time>2026-04-26T08:01:38Z</time></trkpt><trkpt lat="43.895812588969044" lon="12.630518651587739"><ele>260.0</ele><time>2026-04-26T08:01:39Z</time></trkpt><trkpt lat="43.89584486334263" lon="12.630425855997181"><ele>261.0</ele><time>2026-04-26T08:01:40Z</time></trkpt><trkpt lat="43.89587498993217" lon="12.630317196500993"><ele>261.0</ele><time>2026-04-26T08:01:41Z</time></trkpt><trkpt lat="43.895913331322596" lon="12.630207420588198"><ele>261.0</ele><time>2026-04-26T08:01:42Z</time></trkpt><trkpt lat="43.895953479811496" lon="12.630090767186612"><ele>261.0</ele><time>2026-04-26T08:01:43Z</time></trkpt><trkpt lat="43.89598783125998" lon="12.629975469039215"><ele>261.0</ele><time>2026-04-26T08:01:44Z</time></trkpt><trkpt lat="43.896009466189" lon="12.629849528460804"><ele>261.0</ele><time>2026-04-26T08:01:45Z</time></trkpt><trkpt lat="43.89599575474448" lon="12.629725929117877"><ele>261.5</ele><time>2026-04-26T08:01:46Z</time></trkpt><trkpt lat="43.89597209384594" lon="12.62958460682998"><ele>262.0</ele><time>2026-04-26T08:01:47Z</time></trkpt><trkpt lat="43.895951011794395" lon="12.629419774256098"><ele>262.5</ele><time>2026-04-26T08:01:48Z</time></trkpt><trkpt lat="43.895931375357144" lon="12.629237827905538"><ele>263.0</ele><time>2026-04-26T08:01:49Z</time></trkpt><trkpt lat="43.89591835700867" lon="12.62905864522297"><ele>263.0</ele><time>2026-04-26T08:01:50Z</time></trkpt><trkpt lat="43.89589615086688" lon="12.628902518604782"><ele>263.0</ele><time>2026-04-26T08:01:51Z</time></trkpt><trkpt lat="43.89591124943216" lon="12.628752863646632"><ele>263.0</ele><time>2026-04-26T08:01:52Z</time></trkpt><trkpt lat="43.895902031396" lon="12.628609381901436"><ele>263.0</ele><time>2026-04-26T08:01:53Z</time></trkpt><trkpt lat="43.89585026530552" lon="12.628483035460421"><ele>263.0</ele><time>2026-04-26T08:01:54Z</time></trkpt><trkpt lat="43.89580184090831" lon="12.628363641001116"><ele>263.0</ele><time>2026-04-26T08:01:55Z</time></trkpt><trkpt lat="43.89575243571392" lon="12.628268349825568"><ele>263.0</ele><time>2026-04-26T08:01:56Z</time></trkpt><trkpt lat="43.89570731428301" lon="12.62819952191334"><ele>263.0</ele><time>2026-04-26T08:01:57Z</time></trkpt><trkpt lat="43.89564051187032" lon="12.62815192392933"><ele>263.0</ele><time>2026-04-26T08:01:59Z</time></trkpt><trkpt lat="43.89556707026648" lon="12.628245142908252"><ele>263.0</ele><time>2026-04-26T08:02:01Z</time></trkpt><trkpt lat="43.89552147457053" lon="12.62835622768871"><ele>263.0</ele><time>2026-04-26T08:02:02Z</time></trkpt><trkpt lat="43.89547387178597" lon="12.628485232325744"><ele>263.0</ele><time>2026-04-26T08:02:03Z</time></trkpt><trkpt lat="43.89542243984238" lon="12.628626859057373"><ele>263.0</ele><time>2026-04-26T08:02:04Z</time></trkpt><trkpt lat="43.895362872401016" lon="12.628776088205951"><ele>263.0</ele><time>2026-04-26T08:02:05Z</time></trkpt><trkpt lat="43.89529728282597" lon="12.628922975957648"><ele>263.0</ele><time>2026-04-26T08:02:06Z</time></trkpt><trkpt lat="43.89523327068907" lon="12.62906257747757"><ele>263.0</ele><time>2026-04-26T08:02:07Z</time></trkpt><trkpt lat="43.89516355849243" lon="12.629193992368885"><ele>263.0</ele><time>2026-04-26T08:02:08Z</time></trkpt><trkpt lat="43.8951057005524" lon="12.629324919146184"><ele>263.0</ele><time>2026-04-26T08:02:09Z</time></trkpt><trkpt lat="43.895051172617805" lon="12.629451128753056"><ele>263.0</ele><time>2026-04-26T08:02:10Z</time></trkpt><trkpt lat="43.89500204973849" lon="12.629569209413724"><ele>263.0</ele><time>2026-04-26T08:02:11Z</time></trkpt><trkpt lat="43.89495180935298" lon="12.629683162059392"><ele>266.6666666666667</ele><time>2026-04-26T08:02:12Z</time></trkpt><trkpt lat="43.894892952147266" lon="12.629790791046512"><ele>270.33333333333337</ele><time>2026-04-26T08:02:13Z</time></trkpt><trkpt lat="43.89484133434643" lon="12.629901814483379"><ele>274.0</ele><time>2026-04-26T08:02:14Z</time></trkpt><trkpt lat="43.89479449577241" lon="12.630019500342502"><ele>277.6666666666667</ele><time>2026-04-26T08:02:15Z</time></trkpt><trkpt lat="43.89475011012165" lon="12.630125802114122"><ele>281.3333333333333</ele><time>2026-04-26T08:02:16Z</time></trkpt><trkpt lat="43.894714693078804" lon="12.630205934068474"><ele>285.0</ele><time>2026-04-26T08:02:17Z</time></trkpt><trkpt lat="43.89465593818974" lon="12.630253345005137"><ele>285.0</ele><time>2026-04-26T08:02:18Z</time></trkpt><trkpt lat="43.89454598393854" lon="12.630230252941546"><ele>285.0</ele><time>2026-04-26T08:02:20Z</time></trkpt><trkpt lat="43.89446682408797" lon="12.630220750651143"><ele>285.0</ele><time>2026-04-26T08:02:21Z</time></trkpt><trkpt lat="43.894377696264655" lon="12.630204096023936"><ele>285.0</ele><time>2026-04-26T08:02:22Z</time></trkpt><trkpt lat="43.89427350808607" lon="12.63018157208614"><ele>285.0</ele><time>2026-04-26T08:02:23Z</time></trkpt><trkpt lat="43.894169344858845" lon="12.630167797107232"><ele>286.6</ele><time>2026-04-26T08:02:24Z</time></trkpt><trkpt lat="43.89406432133052" lon="12.630135518549071"><ele>288.2</ele><time>2026-04-26T08:02:25Z</time></trkpt><trkpt lat="43.89395822346957" lon="12.630100146968477"><ele>289.8</ele><time>2026-04-26T08:02:26Z</time></trkpt><trkpt lat="43.89385232597719" lon="12.630054155169436"><ele>291.4</ele><time>2026-04-26T08:02:27Z</time></trkpt><trkpt lat="43.89374457604882" lon="12.63000720154105"><ele>293.0</ele><time>2026-04-26T08:02:28Z</time></trkpt><trkpt lat="43.89364164549602" lon="12.629938744347395"><ele>293.0</ele><time>2026-04-26T08:02:29Z</time></trkpt><trkpt lat="43.893525465452576" lon="12.629914588758066"><ele>293.0</ele><time>2026-04-26T08:02:30Z</time></trkpt><trkpt lat="43.89343214382892" lon="12.629877044422212"><ele>293.0</ele><time>2026-04-26T08:02:31Z</time></trkpt><trkpt lat="43.89335058685317" lon="12.629829722585448"><ele>293.0</ele><time>2026-04-26T08:02:32Z</time></trkpt><trkpt lat="43.89326577925549" lon="12.629797231789626"><ele>293.0</ele><time>2026-04-26T08:02:33Z</time></trkpt><trkpt lat="43.893183107685864" lon="12.62976443882033"><ele>294.8</ele><time>2026-04-26T08:02:34Z</time></trkpt><trkpt lat="43.89310071227249" lon="12.62973039516694"><ele>296.6</ele><time>2026-04-26T08:02:35Z</time></trkpt><trkpt lat="43.89301913301014" lon="12.629693607345772"><ele>298.4</ele><time>2026-04-26T08:02:36Z</time></trkpt><trkpt lat="43.892930482611824" lon="12.629677596713577"><ele>300.2</ele><time>2026-04-26T08:02:37Z</time></trkpt><trkpt lat="43.892837037620815" lon="12.629637607659618"><ele>302.0</ele><time>2026-04-26T08:02:38Z</time></trkpt><trkpt lat="43.89274073732869" lon="12.62957465232374"><ele>301.5</ele><time>2026-04-26T08:02:39Z</time></trkpt><trkpt lat="43.892674757981055" lon="12.629446452073774"><ele>301.0</ele><time>2026-04-26T08:02:40Z</time></trkpt><trkpt lat="43.892586062008796" lon="12.629302524478426"><ele>300.5</ele><time>2026-04-26T08:02:41Z</time></trkpt><trkpt lat="43.892492916959945" lon="12.629154006040688"><ele>300.0</ele><time>2026-04-26T08:02:42Z</time></trkpt><trkpt lat="43.8924049705207" lon="12.629038417225436"><ele>300.0</ele><time>2026-04-26T08:02:43Z</time></trkpt><trkpt lat="43.89231356983837" lon="12.628940745450793"><ele>300.0</ele><time>2026-04-26T08:02:44Z</time></trkpt><trkpt lat="43.89222567812498" lon="12.628846707856951"><ele>300.0</ele><time>2026-04-26T08:02:45Z</time></trkpt><trkpt lat="43.892137740941145" lon="12.628756504543219"><ele>300.0</ele><time>2026-04-26T08:02:46Z</time></trkpt><trkpt lat="43.89205271622002" lon="12.628710339328693"><ele>300.0</ele><time>2026-04-26T08:02:47Z</time></trkpt><trkpt lat="43.891981992435305" lon="12.628646247149428"><ele>300.6666666666667</ele><time>2026-04-26T08:02:48Z</time></trkpt><trkpt lat="43.89191256365156" lon="12.628596035229236"><ele>301.3333333333333</ele><time>2026-04-26T08:02:49Z</time></trkpt><trkpt lat="43.891849446812344" lon="12.628541061197984"><ele>302.0</ele><time>2026-04-26T08:02:50Z</time></trkpt><trkpt lat="43.89178514078649" lon="12.628480178185235"><ele>302.66666666666663</ele><time>2026-04-26T08:02:51Z</time></trkpt><trkpt lat="43.8917151333274" lon="12.628388011161103"><ele>303.3333333333333</ele><time>2026-04-26T08:02:52Z</time></trkpt><trkpt lat="43.89162197386019" lon="12.628332371215052"><ele>304.0</ele><time>2026-04-26T08:02:53Z</time></trkpt><trkpt lat="43.891544097894936" lon="12.628274683583733"><ele>304.0</ele><time>2026-04-26T08:02:54Z</time></trkpt><trkpt lat="43.89147589160403" lon="12.628228906797174"><ele>304.0</ele><time>2026-04-26T08:02:55Z</time></trkpt><trkpt lat="43.8914311152192" lon="12.628158616150762"><ele>304.0</ele><time>2026-04-26T08:02:56Z</time></trkpt><trkpt lat="43.891376968637076" lon="12.628100753143022"><ele>304.0</ele><time>2026-04-26T08:02:57Z</time></trkpt><trkpt lat="43.89131950532689" lon="12.628039226022219"><ele>304.0</ele><time>2026-04-26T08:02:58Z</time></trkpt><trkpt lat="43.89126699136802" lon="12.627983825866224"><ele>304.0</ele><time>2026-04-26T08:02:59Z</time></trkpt><trkpt lat="43.891206830977566" lon="12.62794637290851"><ele>304.0</ele><time>2026-04-26T08:03:00Z</time></trkpt><trkpt lat="43.89112651740496" lon="12.627874735837297"><ele>304.0</ele><time>2026-04-26T08:03:02Z</time></trkpt><trkpt lat="43.89103421464085" lon="12.627821795023825"><ele>304.0</ele><time>2026-04-26T08:03:54Z</time></trkpt><trkpt lat="43.89097079058305" lon="12.62772312558564"><ele>304.0</ele><time>2026-04-26T08:03:56Z</time></trkpt><trkpt lat="43.89092503827512" lon="12.627610989946055"><ele>304.0</ele><time>2026-04-26T08:03:58Z</time></trkpt><trkpt lat="43.89088938188985" lon="12.627462358697604"><ele>304.0</ele><time>2026-04-26T08:04:00Z</time></trkpt><trkpt lat="43.89086980396698" lon="12.627286535210777"><ele>303.8333333333333</ele><time>2026-04-26T08:04:02Z</time></trkpt><trkpt lat="43.89085200829709" lon="12.627189338663738"><ele>303.66666666666663</ele><time>2026-04-26T08:04:03Z</time></trkpt><trkpt lat="43.89082476474341" lon="12.627085482035087"><ele>303.5</ele><time>2026-04-26T08:04:04Z</time></trkpt><trkpt lat="43.89079914065227" lon="12.62698456624579"><ele>303.3333333333333</ele><time>2026-04-26T08:04:05Z</time></trkpt><trkpt lat="43.89077246963971" lon="12.626886231405173"><ele>303.1666666666667</ele><time>2026-04-26T08:04:06Z</time></trkpt><trkpt lat="43.89074575255471" lon="12.626789274231955"><ele>303.0</ele><time>2026-04-26T08:04:07Z</time></trkpt><trkpt lat="43.8907138223258" lon="12.626685089124082"><ele>301.4</ele><time>2026-04-26T08:04:08Z</time></trkpt><trkpt lat="43.890676947870915" lon="12.626575401940768"><ele>299.8</ele><time>2026-04-26T08:04:09Z</time></trkpt><trkpt lat="43.8906344636752" lon="12.62646592677872"><ele>298.2</ele><time>2026-04-26T08:04:10Z</time></trkpt><trkpt lat="43.89059200118647" lon="12.6263536140286"><ele>296.6</ele><time>2026-04-26T08:04:11Z</time></trkpt><trkpt lat="43.8905492079422" lon="12.626216141395242"><ele>295.0</ele><time>2026-04-26T08:04:12Z</time></trkpt><trkpt lat="43.89052225908524" lon="12.626066082652082"><ele>292.0</ele><time>2026-04-26T08:04:13Z</time></trkpt><trkpt lat="43.89049248537062" lon="12.625908133107146"><ele>289.0</ele><time>2026-04-26T08:04:14Z</time></trkpt><trkpt lat="43.89046415464782" lon="12.625748086899456"><ele>286.0</ele><time>2026-04-26T08:04:15Z</time></trkpt><trkpt lat="43.89042455070747" lon="12.625575344577966"><ele>283.0</ele><time>2026-04-26T08:04:16Z</time></trkpt><trkpt lat="43.89039502773871" lon="12.625397921461989"><ele>281.6</ele><time>2026-04-26T08:04:17Z</time></trkpt><trkpt lat="43.89037353410882" lon="12.625226431717676"><ele>280.20000000000005</ele><time>2026-04-26T08:04:18Z</time></trkpt><trkpt lat="43.890348818151104" lon="12.625076136560082"><ele>278.8</ele><time>2026-04-26T08:04:19Z</time></trkpt><trkpt lat="43.89032512903235" lon="12.624940088394618"><ele>277.40000000000003</ele><time>2026-04-26T08:04:20Z</time></trkpt><trkpt lat="43.89029613760449" lon="12.624797367880259"><ele>276.0</ele><time>2026-04-26T08:04:21Z</time></trkpt><trkpt lat="43.89026627563164" lon="12.624665609406907"><ele>276.0</ele><time>2026-04-26T08:04:22Z</time></trkpt><trkpt lat="43.89024035057892" lon="12.624552157553339"><ele>276.0</ele><time>2026-04-26T08:04:23Z</time></trkpt><trkpt lat="43.89021033947535" lon="12.624434201667624"><ele>276.0</ele><time>2026-04-26T08:04:25Z</time></trkpt><trkpt lat="43.89015709795493" lon="12.624339988483829"><ele>276.0</ele><time>2026-04-26T08:04:27Z</time></trkpt><trkpt lat="43.89007433081389" lon="12.624284570237545"><ele>276.0</ele><time>2026-04-26T08:04:29Z</time></trkpt><trkpt lat="43.88998079774625" lon="12.624286032542734"><ele>276.0</ele><time>2026-04-26T08:04:31Z</time></trkpt><trkpt lat="43.88986155670418" lon="12.624317349721046"><ele>278.8</ele><time>2026-04-26T08:04:33Z</time></trkpt><trkpt lat="43.889760827445045" lon="12.62437947451122"><ele>281.6</ele><time>2026-04-26T08:04:35Z</time></trkpt><trkpt lat="43.889671305654346" lon="12.624474660336645"><ele>284.4</ele><time>2026-04-26T08:04:37Z</time></trkpt><trkpt lat="43.8895997283258" lon="12.624544189151823"><ele>287.2</ele><time>2026-04-26T08:04:38Z</time></trkpt><trkpt lat="43.88953630663079" lon="12.62460367044398"><ele>290.0</ele><time>2026-04-26T08:04:39Z</time></trkpt><trkpt lat="43.889464454741336" lon="12.624662934131743"><ele>292.6666666666667</ele><time>2026-04-26T08:04:40Z</time></trkpt><trkpt lat="43.889392470004594" lon="12.624699821178114"><ele>295.33333333333337</ele><time>2026-04-26T08:04:41Z</time></trkpt><trkpt lat="43.88931457645957" lon="12.624719404283653"><ele>298.0</ele><time>2026-04-26T08:04:42Z</time></trkpt><trkpt lat="43.889227198295735" lon="12.624705214558878"><ele>300.6666666666667</ele><time>2026-04-26T08:04:43Z</time></trkpt><trkpt lat="43.889154240124334" lon="12.624653539235089"><ele>303.3333333333333</ele><time>2026-04-26T08:04:44Z</time></trkpt><trkpt lat="43.88910706147526" lon="12.62458212016053"><ele>306.0</ele><time>2026-04-26T08:04:45Z</time></trkpt><trkpt lat="43.889055623372194" lon="12.624490732176605"><ele>303.0</ele><time>2026-04-26T08:04:46Z</time></trkpt><trkpt lat="43.88902551387985" lon="12.624358706643509"><ele>300.0</ele><time>2026-04-26T08:04:47Z</time></trkpt><trkpt lat="43.889009869810565" lon="12.624182619796391"><ele>297.0</ele><time>2026-04-26T08:04:48Z</time></trkpt><trkpt lat="43.88897705878415" lon="12.62403417064724"><ele>294.0</ele><time>2026-04-26T08:04:49Z</time></trkpt><trkpt lat="43.888943004288805" lon="12.623957278832195"><ele>291.0</ele><time>2026-04-26T08:04:50Z</time></trkpt><trkpt lat="43.888923960594774" lon="12.623872313021579"><ele>291.0</ele><time>2026-04-26T08:04:51Z</time></trkpt><trkpt lat="43.88891557056786" lon="12.623774405358244"><ele>291.0</ele><time>2026-04-26T08:04:52Z</time></trkpt><trkpt lat="43.88889124642339" lon="12.623630268828812"><ele>291.0</ele><time>2026-04-26T08:04:54Z</time></trkpt><trkpt lat="43.88879353887294" lon="12.623571088967497"><ele>291.0</ele><time>2026-04-26T08:04:56Z</time></trkpt><trkpt lat="43.888712623026045" lon="12.623556728437736"><ele>291.0</ele><time>2026-04-26T08:04:57Z</time></trkpt><trkpt lat="43.888646443919804" lon="12.623501079487328"><ele>291.0</ele><time>2026-04-26T08:04:58Z</time></trkpt><trkpt lat="43.888575132126256" lon="12.62344124199797"><ele>289.8</ele><time>2026-04-26T08:04:59Z</time></trkpt><trkpt lat="43.88849452316616" lon="12.623373143001658"><ele>288.6</ele><time>2026-04-26T08:05:00Z</time></trkpt><trkpt lat="43.888397356230804" lon="12.623284203029577"><ele>287.4</ele><time>2026-04-26T08:05:01Z</time></trkpt><trkpt lat="43.88831332728456" lon="12.62319091572265"><ele>286.2</ele><time>2026-04-26T08:05:02Z</time></trkpt><trkpt lat="43.8882388151644" lon="12.62310109840145"><ele>285.0</ele><time>2026-04-26T08:05:03Z</time></trkpt><trkpt lat="43.888180269291254" lon="12.623038056377695"><ele>285.0</ele><time>2026-04-26T08:05:04Z</time></trkpt><trkpt lat="43.88813760718114" lon="12.622971831474791"><ele>285.0</ele><time>2026-04-26T08:05:05Z</time></trkpt><trkpt lat="43.88817764608852" lon="12.622901073385348"><ele>285.0</ele><time>2026-04-26T08:05:24Z</time></trkpt><trkpt lat="43.88822819453784" lon="12.622771005330424"><ele>285.0</ele><time>2026-04-26T08:05:26Z</time></trkpt><trkpt lat="43.88825669701806" lon="12.622676078820039"><ele>285.0</ele><time>2026-04-26T08:05:27Z</time></trkpt><trkpt lat="43.88829172865305" lon="12.622596320942758"><ele>285.0</ele><time>2026-04-26T08:05:28Z</time></trkpt><trkpt lat="43.88830453067401" lon="12.622509550539663"><ele>285.0</ele><time>2026-04-26T08:05:29Z</time></trkpt><trkpt lat="43.88831025260312" lon="12.622330210235747"><ele>283.6</ele><time>2026-04-26T08:05:31Z</time></trkpt><trkpt lat="43.8883269189067" lon="12.622215605004147"><ele>282.2</ele><time>2026-04-26T08:05:32Z</time></trkpt><trkpt lat="43.88832729395416" lon="12.622068384566415"><ele>280.8</ele><time>2026-04-26T08:05:33Z</time></trkpt><trkpt lat="43.888348537451364" lon="12.621938127922856"><ele>279.4</ele><time>2026-04-26T08:05:34Z</time></trkpt><trkpt lat="43.88836711357159" lon="12.621816650648096"><ele>278.0</ele><time>2026-04-26T08:05:35Z</time></trkpt><trkpt lat="43.88838780059983" lon="12.621718642995889"><ele>281.0</ele><time>2026-04-26T08:05:36Z</time></trkpt><trkpt lat="43.88842440259365" lon="12.621631787833769"><ele>284.0</ele><time>2026-04-26T08:05:37Z</time></trkpt><trkpt lat="43.888523531994274" lon="12.62148668294267"><ele>287.0</ele><time>2026-04-26T08:05:39Z</time></trkpt><trkpt lat="43.88858443369167" lon="12.621392881103308"><ele>290.0</ele><time>2026-04-26T08:05:40Z</time></trkpt><trkpt lat="43.88864634793343" lon="12.621325065889813"><ele>293.0</ele><time>2026-04-26T08:05:41Z</time></trkpt><trkpt lat="43.888701451870986" lon="12.621279414030262"><ele>286.4</ele><time>2026-04-26T08:05:42Z</time></trkpt><trkpt lat="43.88874707776026" lon="12.621161794216896"><ele>279.8</ele><time>2026-04-26T08:05:44Z</time></trkpt><trkpt lat="43.88873418571011" lon="12.620991157055784"><ele>273.2</ele><time>2026-04-26T08:05:46Z</time></trkpt><trkpt lat="43.88869288242377" lon="12.620889387023649"><ele>266.6</ele><time>2026-04-26T08:05:47Z</time></trkpt><trkpt lat="43.88864058357724" lon="12.620803274205786"><ele>260.0</ele><time>2026-04-26T08:05:49Z</time></trkpt><trkpt lat="43.88859571862253" lon="12.62071018062594"><ele>260.0</ele><time>2026-04-26T08:06:10Z</time></trkpt><trkpt lat="43.88855225954784" lon="12.62064124468429"><ele>260.0</ele><time>2026-04-26T08:06:13Z</time></trkpt><trkpt lat="43.88850768611179" lon="12.620563435354667"><ele>260.0</ele><time>2026-04-26T08:06:20Z</time></trkpt><trkpt lat="43.88840510063303" lon="12.620547034392605"><ele>260.0</ele><time>2026-04-26T08:06:22Z</time></trkpt><trkpt lat="43.88833580532171" lon="12.620550401824289"><ele>260.0</ele><time>2026-04-26T08:06:23Z</time></trkpt><trkpt lat="43.88821944540215" lon="12.62060084889286"><ele>260.0</ele><time>2026-04-26T08:06:25Z</time></trkpt><trkpt lat="43.888164986027604" lon="12.620737966324374"><ele>266.1666666666667</ele><time>2026-04-26T08:06:27Z</time></trkpt><trkpt lat="43.888157118428396" lon="12.620839763122293"><ele>272.33333333333337</ele><time>2026-04-26T08:06:28Z</time></trkpt><trkpt lat="43.88814179150502" lon="12.620965852781941"><ele>278.5</ele><time>2026-04-26T08:06:30Z</time></trkpt><trkpt lat="43.88811027538237" lon="12.62104682852597"><ele>284.6666666666667</ele><time>2026-04-26T08:06:32Z</time></trkpt><trkpt lat="43.88804364136326" lon="12.620986897736277"><ele>290.8333333333333</ele><time>2026-04-26T08:06:36Z</time></trkpt><trkpt lat="43.88796094099187" lon="12.620931779571489"><ele>297.0</ele><time>2026-04-26T08:06:38Z</time></trkpt><trkpt lat="43.88783918324127" lon="12.620926015236241"><ele>297.0</ele><time>2026-04-26T08:06:40Z</time></trkpt><trkpt lat="43.88777619999217" lon="12.620925553173086"><ele>297.0</ele><time>2026-04-26T08:06:41Z</time></trkpt><trkpt lat="43.88769388997612" lon="12.620917385656899"><ele>297.0</ele><time>2026-04-26T08:06:43Z</time></trkpt><trkpt lat="43.88763783262665" lon="12.620857516923701"><ele>297.0</ele><time>2026-04-26T08:07:02Z</time></trkpt><trkpt lat="43.887687428201815" lon="12.620911815713919"><ele>297.0</ele><time>2026-04-26T08:07:19Z</time></trkpt><trkpt lat="43.88769988265798" lon="12.62103709943308"><ele>297.0</ele><time>2026-04-26T08:07:23Z</time></trkpt><trkpt lat="43.887691220648975" lon="12.621202299622114"><ele>296.3333333333333</ele><time>2026-04-26T08:07:25Z</time></trkpt><trkpt lat="43.88768465526698" lon="12.621298310684823"><ele>295.6666666666667</ele><time>2026-04-26T08:07:26Z</time></trkpt><trkpt lat="43.88766642818604" lon="12.621396134794402"><ele>295.0</ele><time>2026-04-26T08:07:27Z</time></trkpt><trkpt lat="43.88763811636018" lon="12.621498212137421"><ele>294.33333333333337</ele><time>2026-04-26T08:07:28Z</time></trkpt><trkpt lat="43.88759870811318" lon="12.621614048942524"><ele>293.6666666666667</ele><time>2026-04-26T08:07:29Z</time></trkpt><trkpt lat="43.887559529575555" lon="12.621722382179712"><ele>293.0</ele><time>2026-04-26T08:07:30Z</time></trkpt><trkpt lat="43.88751179230845" lon="12.621798841627003"><ele>300.6</ele><time>2026-04-26T08:07:32Z</time></trkpt><trkpt lat="43.88747908146994" lon="12.621721775018482"><ele>308.20000000000005</ele><time>2026-04-26T08:07:34Z</time></trkpt><trkpt lat="43.8873865354051" lon="12.621593722764482"><ele>315.8</ele><time>2026-04-26T08:07:36Z</time></trkpt><trkpt lat="43.88733904227528" lon="12.621455899435949"><ele>323.40000000000003</ele><time>2026-04-26T08:07:38Z</time></trkpt><trkpt lat="43.88721188346261" lon="12.621404240370275"><ele>331.0</ele><time>2026-04-26T08:07:40Z</time></trkpt><trkpt lat="43.88712813538938" lon="12.621433813306108"><ele>331.0</ele><time>2026-04-26T08:07:42Z</time></trkpt><trkpt lat="43.88707138097412" lon="12.621553010038918"><ele>331.0</ele><time>2026-04-26T08:07:44Z</time></trkpt><trkpt lat="43.88704998628737" lon="12.621652739608297"><ele>331.0</ele><time>2026-04-26T08:07:45Z</time></trkpt><trkpt lat="43.887014103926745" lon="12.621764422237911"><ele>331.0</ele><time>2026-04-26T08:07:46Z</time></trkpt><trkpt lat="43.88698777263542" lon="12.621887260772782"><ele>331.0</ele><time>2026-04-26T08:07:47Z</time></trkpt><trkpt lat="43.88694093176161" lon="12.621952481953732"><ele>331.0</ele><time>2026-04-26T08:07:49Z</time></trkpt><trkpt lat="43.88686708371057" lon="12.621900827948474"><ele>331.0</ele><time>2026-04-26T08:07:51Z</time></trkpt><trkpt lat="43.886807857888044" lon="12.621754776074642"><ele>331.0</ele><time>2026-04-26T08:07:53Z</time></trkpt><trkpt lat="43.886778785252595" lon="12.621654322351318"><ele>331.0</ele><time>2026-04-26T08:07:54Z</time></trkpt><trkpt lat="43.88673708887364" lon="12.621559608216266"><ele>331.0</ele><time>2026-04-26T08:07:55Z</time></trkpt><trkpt lat="43.88668561342729" lon="12.621464305216119"><ele>331.0</ele><time>2026-04-26T08:07:56Z</time></trkpt><trkpt lat="43.88663707524823" lon="12.621345080544026"><ele>338.4</ele><time>2026-04-26T08:07:57Z</time></trkpt><trkpt lat="43.88657627723062" lon="12.621207889707563"><ele>345.8</ele><time>2026-04-26T08:07:58Z</time></trkpt><trkpt lat="43.88652108835485" lon="12.621077078644607"><ele>353.2</ele><time>2026-04-26T08:07:59Z</time></trkpt><trkpt lat="43.8864833471134" lon="12.62096168347912"><ele>360.59999999999997</ele><time>2026-04-26T08:08:00Z</time></trkpt><trkpt lat="43.88644338507704" lon="12.620859697816037"><ele>368.0</ele><time>2026-04-26T08:08:01Z</time></trkpt><trkpt lat="43.886412079894235" lon="12.62077868937252"><ele>368.1666666666667</ele><time>2026-04-26T08:08:02Z</time></trkpt><trkpt lat="43.88638415394423" lon="12.620690638937338"><ele>368.33333333333337</ele><time>2026-04-26T08:08:03Z</time></trkpt><trkpt lat="43.886363377730106" lon="12.620555913172339"><ele>368.5</ele><time>2026-04-26T08:08:05Z</time></trkpt><trkpt lat="43.88636272576594" lon="12.620450052998521"><ele>368.6666666666667</ele><time>2026-04-26T08:08:07Z</time></trkpt><trkpt lat="43.88632379153389" lon="12.620344877025188"><ele>368.8333333333333</ele><time>2026-04-26T08:08:09Z</time></trkpt><trkpt lat="43.886265780989" lon="12.620269241651746"><ele>369.0</ele><time>2026-04-26T08:08:19Z</time></trkpt><trkpt lat="43.886223076773675" lon="12.620089055132121"><ele>369.0</ele><time>2026-04-26T08:08:21Z</time></trkpt><trkpt lat="43.88620068097077" lon="12.620002335271002"><ele>369.0</ele><time>2026-04-26T08:08:22Z</time></trkpt><trkpt lat="43.88613235201218" lon="12.619901325284347"><ele>369.0</ele><time>2026-04-26T08:08:24Z</time></trkpt><trkpt lat="43.886032092747094" lon="12.61992282641403"><ele>369.0</ele><time>2026-04-26T08:08:27Z</time></trkpt><trkpt lat="43.88594117860132" lon="12.619990415071923"><ele>369.0</ele><time>2026-04-26T08:08:29Z</time></trkpt><trkpt lat="43.885875267296115" lon="12.620037845689541"><ele>369.0</ele><time>2026-04-26T08:08:30Z</time></trkpt><trkpt lat="43.88579895262506" lon="12.620084651754595"><ele>372.79999999999995</ele><time>2026-04-26T08:08:31Z</time></trkpt><trkpt lat="43.88572549031862" lon="12.620140742558426"><ele>376.59999999999997</ele><time>2026-04-26T08:08:32Z</time></trkpt><trkpt lat="43.88565099191196" lon="12.620208147537843"><ele>380.4</ele><time>2026-04-26T08:08:33Z</time></trkpt><trkpt lat="43.88556981139495" lon="12.620276948468396"><ele>384.2</ele><time>2026-04-26T08:08:34Z</time></trkpt><trkpt lat="43.88548846155876" lon="12.620357016259664"><ele>388.0</ele><time>2026-04-26T08:08:35Z</time></trkpt><trkpt lat="43.885405606754134" lon="12.620434225353467"><ele>390.59999999999997</ele><time>2026-04-26T08:08:36Z</time></trkpt><trkpt lat="43.88534649302527" lon="12.62048947967467"><ele>393.2</ele><time>2026-04-26T08:08:37Z</time></trkpt><trkpt lat="43.885238480023624" lon="12.620595405960108"><ele>395.8</ele><time>2026-04-26T08:08:39Z</time></trkpt><trkpt lat="43.88517180720392" lon="12.620658887033168"><ele>398.4</ele><time>2026-04-26T08:08:40Z</time></trkpt><trkpt lat="43.88507592647248" lon="12.620759914050357"><ele>401.0</ele><time>2026-04-26T08:08:41Z</time></trkpt><trkpt lat="43.88499273015332" lon="12.620838799497708"><ele>401.0</ele><time>2026-04-26T08:08:42Z</time></trkpt><trkpt lat="43.88491464550438" lon="12.620914845202359"><ele>401.0</ele><time>2026-04-26T08:08:43Z</time></trkpt><trkpt lat="43.88483304106985" lon="12.620963735375907"><ele>401.0</ele><time>2026-04-26T08:08:45Z</time></trkpt><trkpt lat="43.88482139409038" lon="12.621108428113573"><ele>401.0</ele><time>2026-04-26T08:09:17Z</time></trkpt><trkpt lat="43.88479189111985" lon="12.621226552924439"><ele>401.0</ele><time>2026-04-26T08:09:19Z</time></trkpt><trkpt lat="43.88475950292916" lon="12.621361753428864"><ele>402.49999999999994</ele><time>2026-04-26T08:09:21Z</time></trkpt><trkpt lat="43.8847621376447" lon="12.621450499575253"><ele>404.0</ele><time>2026-04-26T08:09:22Z</time></trkpt><trkpt lat="43.88477523811513" lon="12.621559597175159"><ele>405.5</ele><time>2026-04-26T08:09:23Z</time></trkpt><trkpt lat="43.884797873773636" lon="12.621679220471947"><ele>407.0</ele><time>2026-04-26T08:09:24Z</time></trkpt><trkpt lat="43.8848275881214" lon="12.621788301343683"><ele>408.49999999999994</ele><time>2026-04-26T08:09:25Z</time></trkpt><trkpt lat="43.88486316352184" lon="12.621901287579721"><ele>410.0</ele><time>2026-04-26T08:09:26Z</time></trkpt><trkpt lat="43.88489587594243" lon="12.622004590632635"><ele>410.0</ele><time>2026-04-26T08:09:27Z</time></trkpt><trkpt lat="43.88493359463601" lon="12.622087560670883"><ele>410.0</ele><time>2026-04-26T08:09:28Z</time></trkpt><trkpt lat="43.88496879185724" lon="12.622163581107241"><ele>410.0</ele><time>2026-04-26T08:09:29Z</time></trkpt><trkpt lat="43.885020744371545" lon="12.622294277862213"><ele>410.0</ele><time>2026-04-26T08:09:31Z</time></trkpt><trkpt lat="43.885066327774034" lon="12.622440872324246"><ele>410.0</ele><time>2026-04-26T08:09:33Z</time></trkpt><trkpt lat="43.88511044784983" lon="12.62260657926169"><ele>410.0</ele><time>2026-04-26T08:09:35Z</time></trkpt><trkpt lat="43.88517195750972" lon="12.62274743921711"><ele>410.0</ele><time>2026-04-26T08:09:37Z</time></trkpt><trkpt lat="43.88522961409542" lon="12.622821321515161"><ele>410.0</ele><time>2026-04-26T08:09:39Z</time></trkpt><trkpt lat="43.885167877273595" lon="12.622734364290444"><ele>410.0</ele><time>2026-04-26T08:10:11Z</time></trkpt><trkpt lat="43.88512314610378" lon="12.622641657804625"><ele>410.0</ele><time>2026-04-26T08:10:13Z</time></trkpt><trkpt lat="43.885074701192224" lon="12.622530990391477"><ele>409.99999999999994</ele><time>2026-04-26T08:10:15Z</time></trkpt><trkpt lat="43.885026642538065" lon="12.622376590273307"><ele>410.0</ele><time>2026-04-26T08:10:17Z</time></trkpt><trkpt lat="43.88500109814251" lon="12.622295057707056"><ele>410.0</ele><time>2026-04-26T08:10:18Z</time></trkpt><trkpt lat="43.88497007933736" lon="12.62218573221921"><ele>410.0</ele><time>2026-04-26T08:10:19Z</time></trkpt><trkpt lat="43.88494307823555" lon="12.622094283654691"><ele>409.99999999999994</ele><time>2026-04-26T08:10:20Z</time></trkpt><trkpt lat="43.88490743471435" lon="12.622005376844882"><ele>410.0</ele><time>2026-04-26T08:10:21Z</time></trkpt><trkpt lat="43.88485397168879" lon="12.621847660420357"><ele>409.99999999999994</ele><time>2026-04-26T08:10:23Z</time></trkpt><trkpt lat="43.88482810560931" lon="12.621763919244115"><ele>410.0</ele><time>2026-04-26T08:10:24Z</time></trkpt><trkpt lat="43.88480215116849" lon="12.621666439769806"><ele>410.0</ele><time>2026-04-26T08:10:25Z</time></trkpt><trkpt lat="43.884788553224006" lon="12.621554212330697"><ele>410.0</ele><time>2026-04-26T08:10:26Z</time></trkpt><trkpt lat="43.88477463070566" lon="12.621466506916866"><ele>409.99999999999994</ele><time>2026-04-26T08:10:27Z</time></trkpt><trkpt lat="43.88476406747569" lon="12.62131925550255"><ele>410.0</ele><time>2026-04-26T08:10:29Z</time></trkpt><trkpt lat="43.88478953078998" lon="12.621210623933855"><ele>410.0</ele><time>2026-04-26T08:10:31Z</time></trkpt><trkpt lat="43.884806701753696" lon="12.621102022741788"><ele>410.0</ele><time>2026-04-26T08:10:33Z</time></trkpt><trkpt lat="43.88475595976864" lon="12.621032720754478"><ele>410.0</ele><time>2026-04-26T08:10:36Z</time></trkpt><trkpt lat="43.884663508176374" lon="12.621099322641468"><ele>410.0</ele><time>2026-04-26T08:10:38Z</time></trkpt><trkpt lat="43.884585547447585" lon="12.621203266535442"><ele>410.0</ele><time>2026-04-26T08:10:40Z</time></trkpt><trkpt lat="43.88452076344334" lon="12.621348778228343"><ele>410.0</ele><time>2026-04-26T08:10:42Z</time></trkpt><trkpt lat="43.88448688300308" lon="12.621489120575708"><ele>410.0</ele><time>2026-04-26T08:10:44Z</time></trkpt><trkpt lat="43.88447778942975" lon="12.621598385284495"><ele>410.0</ele><time>2026-04-26T08:10:46Z</time></trkpt><trkpt lat="43.884366603755375" lon="12.621501430997785"><ele>410.0</ele><time>2026-04-26T08:10:49Z</time></trkpt><trkpt lat="43.88434553082398" lon="12.621371363789804"><ele>410.0</ele><time>2026-04-26T08:10:50Z</time></trkpt><trkpt lat="43.88430540206444" lon="12.621262792637488"><ele>406.3333333333333</ele><time>2026-04-26T08:10:51Z</time></trkpt><trkpt lat="43.88425366779144" lon="12.621158348027583"><ele>402.66666666666663</ele><time>2026-04-26T08:10:52Z</time></trkpt><trkpt lat="43.884231906544585" lon="12.621019594097545"><ele>399.0</ele><time>2026-04-26T08:10:53Z</time></trkpt><trkpt lat="43.88420538246593" lon="12.620916824318334"><ele>395.33333333333337</ele><time>2026-04-26T08:10:54Z</time></trkpt><trkpt lat="43.88416358885356" lon="12.620827059899595"><ele>391.6666666666667</ele><time>2026-04-26T08:10:55Z</time></trkpt><trkpt lat="43.88414388905508" lon="12.620740969901433"><ele>388.0</ele><time>2026-04-26T08:10:56Z</time></trkpt><trkpt lat="43.884115246788284" lon="12.62065929737812"><ele>388.0</ele><time>2026-04-26T08:10:57Z</time></trkpt><trkpt lat="43.88407854870882" lon="12.620577017621745"><ele>388.0</ele><time>2026-04-26T08:10:58Z</time></trkpt><trkpt lat="43.88403110749207" lon="12.620464599796822"><ele>388.0</ele><time>2026-04-26T08:10:59Z</time></trkpt><trkpt lat="43.883976030399644" lon="12.620341100588874"><ele>388.0</ele><time>2026-04-26T08:11:00Z</time></trkpt><trkpt lat="43.883916865099835" lon="12.620206748344184"><ele>388.0</ele><time>2026-04-26T08:11:01Z</time></trkpt><trkpt lat="43.88385233015444" lon="12.62006254846285"><ele>386.0</ele><time>2026-04-26T08:11:02Z</time></trkpt><trkpt lat="43.88378963406891" lon="12.619916092799194"><ele>384.0</ele><time>2026-04-26T08:11:03Z</time></trkpt><trkpt lat="43.88374400269477" lon="12.619762337016025"><ele>382.0</ele><time>2026-04-26T08:11:04Z</time></trkpt><trkpt lat="43.88367307590021" lon="12.619630185290923"><ele>380.0</ele><time>2026-04-26T08:11:05Z</time></trkpt><trkpt lat="43.883618739167744" lon="12.619488844171606"><ele>377.6</ele><time>2026-04-26T08:11:06Z</time></trkpt><trkpt lat="43.883567152942135" lon="12.619344659987613"><ele>375.2</ele><time>2026-04-26T08:11:07Z</time></trkpt><trkpt lat="43.883515884402364" lon="12.619201741240756"><ele>372.79999999999995</ele><time>2026-04-26T08:11:08Z</time></trkpt><trkpt lat="43.88346958720934" lon="12.61907279819663"><ele>370.4</ele><time>2026-04-26T08:11:09Z</time></trkpt><trkpt lat="43.883449589214784" lon="12.61895429355001"><ele>368.0</ele><time>2026-04-26T08:11:10Z</time></trkpt><trkpt lat="43.88341870260543" lon="12.618842063774137"><ele>367.6666666666667</ele><time>2026-04-26T08:11:11Z</time></trkpt><trkpt lat="43.88339040702111" lon="12.618728949479175"><ele>367.33333333333337</ele><time>2026-04-26T08:11:12Z</time></trkpt><trkpt lat="43.88336635172755" lon="12.618627592948638"><ele>367.0</ele><time>2026-04-26T08:11:13Z</time></trkpt><trkpt lat="43.883340439147034" lon="12.618516376935368"><ele>366.6666666666667</ele><time>2026-04-26T08:11:14Z</time></trkpt><trkpt lat="43.88331436106274" lon="12.618404450532548"><ele>366.3333333333333</ele><time>2026-04-26T08:11:15Z</time></trkpt><trkpt lat="43.883283884449376" lon="12.618284462701535"><ele>366.0</ele><time>2026-04-26T08:11:16Z</time></trkpt><trkpt lat="43.88325029530567" lon="12.618169567099063"><ele>364.4</ele><time>2026-04-26T08:11:17Z</time></trkpt><trkpt lat="43.88319792237472" lon="12.618099561185067"><ele>362.8</ele><time>2026-04-26T08:11:18Z</time></trkpt><trkpt lat="43.883135621368154" lon="12.618022784814082"><ele>361.2</ele><time>2026-04-26T08:11:20Z</time></trkpt><trkpt lat="43.88318339884437" lon="12.617872886512194"><ele>359.59999999999997</ele><time>2026-04-26T08:11:22Z</time></trkpt><trkpt lat="43.88320305567749" lon="12.617735472933932"><ele>358.0</ele><time>2026-04-26T08:11:23Z</time></trkpt><trkpt lat="43.88322295132205" lon="12.617585156818194"><ele>357.5</ele><time>2026-04-26T08:11:24Z</time></trkpt><trkpt lat="43.883240877173236" lon="12.617423815053678"><ele>357.0</ele><time>2026-04-26T08:11:25Z</time></trkpt><trkpt lat="43.88326431685296" lon="12.617238097906947"><ele>356.5</ele><time>2026-04-26T08:11:26Z</time></trkpt><trkpt lat="43.883283735282305" lon="12.617054543973659"><ele>356.0</ele><time>2026-04-26T08:11:27Z</time></trkpt><trkpt lat="43.88328837599335" lon="12.616857467278724"><ele>355.6666666666667</ele><time>2026-04-26T08:11:28Z</time></trkpt><trkpt lat="43.88326714602732" lon="12.61665116520623"><ele>355.3333333333333</ele><time>2026-04-26T08:11:29Z</time></trkpt><trkpt lat="43.88323448522448" lon="12.616443657424762"><ele>355.0</ele><time>2026-04-26T08:11:30Z</time></trkpt><trkpt lat="43.883202827948054" lon="12.616238444622851"><ele>356.0</ele><time>2026-04-26T08:11:31Z</time></trkpt><trkpt lat="43.88316787001312" lon="12.6160353202488"><ele>357.0</ele><time>2026-04-26T08:11:32Z</time></trkpt><trkpt lat="43.883125120799555" lon="12.615832314580464"><ele>358.0</ele><time>2026-04-26T08:11:33Z</time></trkpt><trkpt lat="43.8830774940092" lon="12.615629296342739"><ele>358.0</ele><time>2026-04-26T08:11:34Z</time></trkpt><trkpt lat="43.88303064943758" lon="12.61543201148402"><ele>358.0</ele><time>2026-04-26T08:11:35Z</time></trkpt><trkpt lat="43.88298988030969" lon="12.615252569448353"><ele>358.0</ele><time>2026-04-26T08:11:36Z</time></trkpt><trkpt lat="43.88295536259956" lon="12.615096004309716"><ele>358.0</ele><time>2026-04-26T08:11:37Z</time></trkpt><trkpt lat="43.882957686838495" lon="12.614959708198844"><ele>359.5</ele><time>2026-04-26T08:11:38Z</time></trkpt><trkpt lat="43.88295553948945" lon="12.614848274792152"><ele>361.0</ele><time>2026-04-26T08:11:39Z</time></trkpt><trkpt lat="43.88297509098941" lon="12.614763708424999"><ele>362.5</ele><time>2026-04-26T08:11:40Z</time></trkpt><trkpt lat="43.88300086191542" lon="12.614683855421712"><ele>364.0</ele><time>2026-04-26T08:11:41Z</time></trkpt><trkpt lat="43.88307723292236" lon="12.61455765592042"><ele>365.5</ele><time>2026-04-26T08:11:43Z</time></trkpt><trkpt lat="43.883048131171094" lon="12.614393360931413"><ele>367.0</ele><time>2026-04-26T08:11:44Z</time></trkpt><trkpt lat="43.883063468751956" lon="12.614233542289321"><ele>369.0</ele><time>2026-04-26T08:11:45Z</time></trkpt><trkpt lat="43.883084139276086" lon="12.614059158475403"><ele>371.0</ele><time>2026-04-26T08:11:46Z</time></trkpt><trkpt lat="43.88311340443312" lon="12.61385828239121"><ele>373.0</ele><time>2026-04-26T08:11:47Z</time></trkpt><trkpt lat="43.883150151748985" lon="12.613617525029438"><ele>376.3333333333333</ele><time>2026-04-26T08:11:48Z</time></trkpt><trkpt lat="43.88319007455208" lon="12.613355962917906"><ele>379.6666666666667</ele><time>2026-04-26T08:11:49Z</time></trkpt><trkpt lat="43.88322773538255" lon="12.61310932214452"><ele>383.0</ele><time>2026-04-26T08:11:50Z</time></trkpt><trkpt lat="43.883255627906195" lon="12.612927188814725"><ele>385.0</ele><time>2026-04-26T08:11:51Z</time></trkpt><trkpt lat="43.883278897830664" lon="12.61277524029336"><ele>387.0</ele><time>2026-04-26T08:11:52Z</time></trkpt><trkpt lat="43.88330171718026" lon="12.612626233885495"><ele>389.0</ele><time>2026-04-26T08:11:53Z</time></trkpt><trkpt lat="43.88332308649204" lon="12.612486696110857"><ele>391.0</ele><time>2026-04-26T08:11:54Z</time></trkpt><trkpt lat="43.88334100340847" lon="12.612372122060883"><ele>393.0</ele><time>2026-04-26T08:11:55Z</time></trkpt><trkpt lat="43.88336264261116" lon="12.612251636587013"><ele>393.0</ele><time>2026-04-26T08:11:56Z</time></trkpt><trkpt lat="43.88339104604346" lon="12.612116958379739"><ele>393.0</ele><time>2026-04-26T08:11:57Z</time></trkpt><trkpt lat="43.8834287136761" lon="12.611970279393999"><ele>393.0</ele><time>2026-04-26T08:11:58Z</time></trkpt><trkpt lat="43.88347356893275" lon="12.611819644738311"><ele>393.0</ele><time>2026-04-26T08:11:59Z</time></trkpt><trkpt lat="43.88352462170732" lon="12.61169485952309"><ele>393.0</ele><time>2026-04-26T08:12:00Z</time></trkpt><trkpt lat="43.88359013176244" lon="12.611584867345934"><ele>398.2</ele><time>2026-04-26T08:12:01Z</time></trkpt><trkpt lat="43.88364994285145" lon="12.611522235083122"><ele>403.4</ele><time>2026-04-26T08:12:02Z</time></trkpt><trkpt lat="43.88372220889227" lon="12.611518827690468"><ele>408.59999999999997</ele><time>2026-04-26T08:12:03Z</time></trkpt><trkpt lat="43.88381729102809" lon="12.611512455632985"><ele>413.79999999999995</ele><time>2026-04-26T08:12:04Z</time></trkpt><trkpt lat="43.88392651410263" lon="12.611531871551968"><ele>419.0</ele><time>2026-04-26T08:12:05Z</time></trkpt><trkpt lat="43.884050419580454" lon="12.611570188503288"><ele>419.0</ele><time>2026-04-26T08:12:06Z</time></trkpt><trkpt lat="43.884189794177864" lon="12.611608687485534"><ele>419.0</ele><time>2026-04-26T08:12:07Z</time></trkpt><trkpt lat="43.884312376695476" lon="12.611640956569289"><ele>419.0</ele><time>2026-04-26T08:12:08Z</time></trkpt><trkpt lat="43.88443250385509" lon="12.611670592839456"><ele>419.0</ele><time>2026-04-26T08:12:09Z</time></trkpt><trkpt lat="43.88455527263706" lon="12.611698443227555"><ele>422.25</ele><time>2026-04-26T08:12:10Z</time></trkpt><trkpt lat="43.884680161407275" lon="12.611709459034492"><ele>425.5</ele><time>2026-04-26T08:12:11Z</time></trkpt><trkpt lat="43.884797276084676" lon="12.611719065700234"><ele>428.75</ele><time>2026-04-26T08:12:12Z</time></trkpt><trkpt lat="43.88490791576746" lon="12.61170945678609"><ele>432.0</ele><time>2026-04-26T08:12:13Z</time></trkpt><trkpt lat="43.88500634237822" lon="12.611708918391974"><ele>432.0</ele><time>2026-04-26T08:12:14Z</time></trkpt><trkpt lat="43.88508890168046" lon="12.61171967250594"><ele>432.00000000000006</ele><time>2026-04-26T08:12:15Z</time></trkpt><trkpt lat="43.885205568726604" lon="12.611677096664502"><ele>432.00000000000006</ele><time>2026-04-26T08:12:17Z</time></trkpt><trkpt lat="43.88528304345195" lon="12.61160163271313"><ele>432.0</ele><time>2026-04-26T08:12:18Z</time></trkpt><trkpt lat="43.88536995587829" lon="12.611481944153848"><ele>432.0</ele><time>2026-04-26T08:12:19Z</time></trkpt><trkpt lat="43.88547173777496" lon="12.611324548160708"><ele>431.75</ele><time>2026-04-26T08:12:20Z</time></trkpt><trkpt lat="43.885589306564526" lon="12.61115039679264"><ele>431.5</ele><time>2026-04-26T08:12:21Z</time></trkpt><trkpt lat="43.88569579251928" lon="12.611000586196257"><ele>431.25</ele><time>2026-04-26T08:12:22Z</time></trkpt><trkpt lat="43.88577899322558" lon="12.610893657037664"><ele>431.0</ele><time>2026-04-26T08:12:23Z</time></trkpt><trkpt lat="43.88584532473063" lon="12.610826337737924"><ele>430.99999999999994</ele><time>2026-04-26T08:12:24Z</time></trkpt><trkpt lat="43.88590488905632" lon="12.610795365417264"><ele>431.0</ele><time>2026-04-26T08:12:25Z</time></trkpt><trkpt lat="43.886005483571076" lon="12.610761650587348"><ele>431.0</ele><time>2026-04-26T08:12:27Z</time></trkpt><trkpt lat="43.88606991141892" lon="12.610735890640303"><ele>431.0</ele><time>2026-04-26T08:12:28Z</time></trkpt><trkpt lat="43.886160111849115" lon="12.61068909082622"><ele>430.99999999999994</ele><time>2026-04-26T08:12:30Z</time></trkpt><trkpt lat="43.88625549690209" lon="12.610620763627958"><ele>431.0</ele><time>2026-04-26T08:12:32Z</time></trkpt><trkpt lat="43.88633059068561" lon="12.610582788399828"><ele>430.3333333333333</ele><time>2026-04-26T08:12:33Z</time></trkpt><trkpt lat="43.886407745905444" lon="12.610554997917246"><ele>429.66666666666663</ele><time>2026-04-26T08:12:34Z</time></trkpt><trkpt lat="43.88644826512806" lon="12.610472303816572"><ele>429.0</ele><time>2026-04-26T08:13:12Z</time></trkpt><trkpt lat="43.88637747731824" lon="12.610489934764319"><ele>428.33333333333337</ele><time>2026-04-26T08:13:23Z</time></trkpt><trkpt lat="43.88629908463604" lon="12.61051874063816"><ele>427.6666666666667</ele><time>2026-04-26T08:13:25Z</time></trkpt><trkpt lat="43.886203072248236" lon="12.61058899400054"><ele>427.0</ele><time>2026-04-26T08:13:27Z</time></trkpt><trkpt lat="43.88612025835912" lon="12.610639195674779"><ele>427.0</ele><time>2026-04-26T08:13:30Z</time></trkpt><trkpt lat="43.88621102422722" lon="12.610584543606945"><ele>427.00000000000006</ele><time>2026-04-26T08:13:55Z</time></trkpt><trkpt lat="43.886266721239195" lon="12.610541185156736"><ele>427.00000000000006</ele><time>2026-04-26T08:13:56Z</time></trkpt><trkpt lat="43.8863463880668" lon="12.610444789246898"><ele>427.0</ele><time>2026-04-26T08:13:58Z</time></trkpt><trkpt lat="43.88637430255461" lon="12.61031620967847"><ele>427.0</ele><time>2026-04-26T08:14:00Z</time></trkpt><trkpt lat="43.886403779167175" lon="12.61018754636581"><ele>429.20000000000005</ele><time>2026-04-26T08:14:02Z</time></trkpt><trkpt lat="43.886453210855905" lon="12.610101703018382"><ele>431.40000000000003</ele><time>2026-04-26T08:14:04Z</time></trkpt><trkpt lat="43.88650385312383" lon="12.610049537278847"><ele>433.59999999999997</ele><time>2026-04-26T08:14:05Z</time></trkpt><trkpt lat="43.88662238190346" lon="12.609967890109944"><ele>435.79999999999995</ele><time>2026-04-26T08:14:07Z</time></trkpt><trkpt lat="43.88670881897371" lon="12.609902495804832"><ele>438.0</ele><time>2026-04-26T08:14:09Z</time></trkpt><trkpt lat="43.886814551283" lon="12.609800970762764"><ele>438.0</ele><time>2026-04-26T08:14:11Z</time></trkpt><trkpt lat="43.88689460967891" lon="12.60970850467718"><ele>438.0</ele><time>2026-04-26T08:14:12Z</time></trkpt><trkpt lat="43.886980204549005" lon="12.609605850703351"><ele>438.0</ele><time>2026-04-26T08:14:13Z</time></trkpt><trkpt lat="43.88707035297512" lon="12.609508624573053"><ele>438.0</ele><time>2026-04-26T08:14:14Z</time></trkpt><trkpt lat="43.88716600283429" lon="12.60941105786962"><ele>442.2</ele><time>2026-04-26T08:14:15Z</time></trkpt><trkpt lat="43.8872517497202" lon="12.609340650567372"><ele>446.4</ele><time>2026-04-26T08:14:16Z</time></trkpt><trkpt lat="43.887312504403425" lon="12.609281000068354"><ele>450.59999999999997</ele><time>2026-04-26T08:14:17Z</time></trkpt><trkpt lat="43.88739135644698" lon="12.609200748464838"><ele>454.79999999999995</ele><time>2026-04-26T08:14:18Z</time></trkpt><trkpt lat="43.887471376771934" lon="12.609126172350638"><ele>459.0</ele><time>2026-04-26T08:14:19Z</time></trkpt><trkpt lat="43.887558004251" lon="12.60905351163074"><ele>457.5</ele><time>2026-04-26T08:14:20Z</time></trkpt><trkpt lat="43.88763475351083" lon="12.608993959555121"><ele>456.0</ele><time>2026-04-26T08:14:21Z</time></trkpt><trkpt lat="43.887708641664254" lon="12.608952353966451"><ele>454.5</ele><time>2026-04-26T08:14:22Z</time></trkpt><trkpt lat="43.88779984538645" lon="12.608916185828177"><ele>453.0</ele><time>2026-04-26T08:14:23Z</time></trkpt><trkpt lat="43.8878696940254" lon="12.608880245468223"><ele>451.5</ele><time>2026-04-26T08:14:24Z</time></trkpt><trkpt lat="43.88795805459995" lon="12.608844372681745"><ele>450.0</ele><time>2026-04-26T08:14:26Z</time></trkpt><trkpt lat="43.88804605090588" lon="12.608690817728856"><ele>453.1666666666667</ele><time>2026-04-26T08:14:28Z</time></trkpt><trkpt lat="43.888105439684665" lon="12.60860299698279"><ele>456.33333333333337</ele><time>2026-04-26T08:14:29Z</time></trkpt><trkpt lat="43.88815880779829" lon="12.60855008296547"><ele>459.5</ele><time>2026-04-26T08:14:30Z</time></trkpt><trkpt lat="43.888224211856105" lon="12.60849242976842"><ele>462.6666666666667</ele><time>2026-04-26T08:14:32Z</time></trkpt><trkpt lat="43.8882596550805" lon="12.608356117095674"><ele>465.83333333333337</ele><time>2026-04-26T08:14:39Z</time></trkpt><trkpt lat="43.88833545197979" lon="12.60824167890754"><ele>469.0</ele><time>2026-04-26T08:14:41Z</time></trkpt><trkpt lat="43.88838549107962" lon="12.608088041817675"><ele>469.00000000000006</ele><time>2026-04-26T08:14:43Z</time></trkpt><trkpt lat="43.8884114631751" lon="12.60800254872439"><ele>469.0</ele><time>2026-04-26T08:14:44Z</time></trkpt><trkpt lat="43.88844969176849" lon="12.607897306010196"><ele>469.0</ele><time>2026-04-26T08:14:45Z</time></trkpt><trkpt lat="43.88849103428889" lon="12.607788988695182"><ele>469.0</ele><time>2026-04-26T08:14:46Z</time></trkpt><trkpt lat="43.888522426229066" lon="12.607684552379627"><ele>469.00000000000006</ele><time>2026-04-26T08:14:47Z</time></trkpt><trkpt lat="43.888552196470386" lon="12.60759805729984"><ele>469.0</ele><time>2026-04-26T08:14:48Z</time></trkpt><trkpt lat="43.88857602562255" lon="12.60751481617585"><ele>465.6666666666667</ele><time>2026-04-26T08:14:49Z</time></trkpt><trkpt lat="43.88861390207063" lon="12.607423280012222"><ele>462.33333333333337</ele><time>2026-04-26T08:14:50Z</time></trkpt><trkpt lat="43.888645995136194" lon="12.607342229130547"><ele>459.0</ele><time>2026-04-26T08:14:51Z</time></trkpt><trkpt lat="43.88869629252385" lon="12.607224941721277"><ele>455.66666666666663</ele><time>2026-04-26T08:14:53Z</time></trkpt><trkpt lat="43.88873953705541" lon="12.607130276456813"><ele>452.3333333333333</ele><time>2026-04-26T08:14:55Z</time></trkpt><trkpt lat="43.88879130584248" lon="12.607029288909281"><ele>449.0</ele><time>2026-04-26T08:14:57Z</time></trkpt><trkpt lat="43.88882627345831" lon="12.606939565642367"><ele>448.99999999999994</ele><time>2026-04-26T08:14:59Z</time></trkpt><trkpt lat="43.88886175741298" lon="12.606863017017597"><ele>449.0</ele><time>2026-04-26T08:16:39Z</time></trkpt><trkpt lat="43.88881543100164" lon="12.606925348608272"><ele>449.0</ele><time>2026-04-26T08:17:00Z</time></trkpt><trkpt lat="43.888782778544645" lon="12.607019614678268"><ele>449.0</ele><time>2026-04-26T08:17:02Z</time></trkpt><trkpt lat="43.88874278092647" lon="12.607116436731948"><ele>448.99999999999994</ele><time>2026-04-26T08:17:04Z</time></trkpt><trkpt lat="43.888702396212516" lon="12.607235891889605"><ele>449.0</ele><time>2026-04-26T08:17:06Z</time></trkpt><trkpt lat="43.88867070188583" lon="12.607343709125871"><ele>448.0</ele><time>2026-04-26T08:17:08Z</time></trkpt><trkpt lat="43.88861609839079" lon="12.607494889375868"><ele>447.0</ele><time>2026-04-26T08:17:10Z</time></trkpt><trkpt lat="43.888583031291745" lon="12.607570258888877"><ele>446.0</ele><time>2026-04-26T08:17:11Z</time></trkpt><trkpt lat="43.8885282796555" lon="12.60772953382673"><ele>445.0</ele><time>2026-04-26T08:17:13Z</time></trkpt><trkpt lat="43.88850875552126" lon="12.607814267042944"><ele>444.0</ele><time>2026-04-26T08:17:14Z</time></trkpt><trkpt lat="43.88844820434131" lon="12.60797369732371"><ele>449.0</ele><time>2026-04-26T08:17:16Z</time></trkpt><trkpt lat="43.8884135014636" lon="12.608056229853394"><ele>454.0</ele><time>2026-04-26T08:17:17Z</time></trkpt><trkpt lat="43.88836664901445" lon="12.608196719206585"><ele>459.0</ele><time>2026-04-26T08:17:19Z</time></trkpt><trkpt lat="43.888286708692576" lon="12.608329949064718"><ele>464.0</ele><time>2026-04-26T08:17:21Z</time></trkpt><trkpt lat="43.88821025807127" lon="12.608449607568566"><ele>469.0</ele><time>2026-04-26T08:17:23Z</time></trkpt><trkpt lat="43.888156202639806" lon="12.608579974735097"><ele>465.2</ele><time>2026-04-26T08:17:25Z</time></trkpt><trkpt lat="43.8880596170688" lon="12.60868806765901"><ele>461.4</ele><time>2026-04-26T08:17:27Z</time></trkpt><trkpt lat="43.88799678753493" lon="12.608744270313002"><ele>457.6</ele><time>2026-04-26T08:17:28Z</time></trkpt><trkpt lat="43.88794037471008" lon="12.608813025625889"><ele>453.8</ele><time>2026-04-26T08:17:29Z</time></trkpt><trkpt lat="43.88785097602301" lon="12.608911147944395"><ele>450.0</ele><time>2026-04-26T08:17:31Z</time></trkpt><trkpt lat="43.88778654162131" lon="12.608936253254269"><ele>450.0</ele><time>2026-04-26T08:17:32Z</time></trkpt><trkpt lat="43.88770173851134" lon="12.608948166955816"><ele>450.0</ele><time>2026-04-26T08:17:33Z</time></trkpt><trkpt lat="43.887606782945824" lon="12.608985488447384"><ele>450.0</ele><time>2026-04-26T08:17:34Z</time></trkpt><trkpt lat="43.88751988769622" lon="12.60903383444584"><ele>450.0</ele><time>2026-04-26T08:17:35Z</time></trkpt><trkpt lat="43.8874213684109" lon="12.609106055941558"><ele>450.0</ele><time>2026-04-26T08:17:36Z</time></trkpt><trkpt lat="43.887318904239116" lon="12.609190389255922"><ele>452.25</ele><time>2026-04-26T08:17:37Z</time></trkpt><trkpt lat="43.887221457438876" lon="12.609285478072096"><ele>454.5</ele><time>2026-04-26T08:17:38Z</time></trkpt><trkpt lat="43.88710400487949" lon="12.609418767481106"><ele>456.75</ele><time>2026-04-26T08:17:39Z</time></trkpt><trkpt lat="43.88699045481908" lon="12.609543044534133"><ele>459.0</ele><time>2026-04-26T08:17:40Z</time></trkpt><trkpt lat="43.886902378623574" lon="12.609640301171764"><ele>457.5</ele><time>2026-04-26T08:17:41Z</time></trkpt><trkpt lat="43.88682496293379" lon="12.609732345655333"><ele>456.0</ele><time>2026-04-26T08:17:42Z</time></trkpt><trkpt lat="43.886758820645056" lon="12.609802232538536"><ele>454.5</ele><time>2026-04-26T08:17:43Z</time></trkpt><trkpt lat="43.88670070043694" lon="12.609865704277075"><ele>453.0</ele><time>2026-04-26T08:17:44Z</time></trkpt><trkpt lat="43.88661253499875" lon="12.609976858935452"><ele>451.5</ele><time>2026-04-26T08:17:46Z</time></trkpt><trkpt lat="43.88655743083106" lon="12.610025324632433"><ele>450.0</ele><time>2026-04-26T08:17:47Z</time></trkpt><trkpt lat="43.88650328953938" lon="12.610083853744513"><ele>450.0</ele><time>2026-04-26T08:17:48Z</time></trkpt><trkpt lat="43.88644851947684" lon="12.61014989565427"><ele>450.0</ele><time>2026-04-26T08:17:49Z</time></trkpt><trkpt lat="43.88638453595184" lon="12.610255481326044"><ele>450.0</ele><time>2026-04-26T08:17:51Z</time></trkpt><trkpt lat="43.88633774494374" lon="12.61037030693362"><ele>450.0</ele><time>2026-04-26T08:17:53Z</time></trkpt><trkpt lat="43.88628234970335" lon="12.61047957819814"><ele>450.0</ele><time>2026-04-26T08:17:55Z</time></trkpt><trkpt lat="43.88620763994196" lon="12.610584563803972"><ele>445.4</ele><time>2026-04-26T08:17:57Z</time></trkpt><trkpt lat="43.88611440977466" lon="12.610636578934487"><ele>440.8</ele><time>2026-04-26T08:17:59Z</time></trkpt><trkpt lat="43.886205843140864" lon="12.610639342535652"><ele>436.20000000000005</ele><time>2026-04-26T08:18:13Z</time></trkpt><trkpt lat="43.886312363854316" lon="12.610562733127471"><ele>431.6</ele><time>2026-04-26T08:18:23Z</time></trkpt><trkpt lat="43.88639853432192" lon="12.610510760736728"><ele>427.0</ele><time>2026-04-26T08:18:24Z</time></trkpt><trkpt lat="43.886540899599545" lon="12.610485507113491"><ele>427.0</ele><time>2026-04-26T08:18:25Z</time></trkpt><trkpt lat="43.88666082249765" lon="12.610401780910662"><ele>427.0</ele><time>2026-04-26T08:18:26Z</time></trkpt><trkpt lat="43.88676171403539" lon="12.610320088585885"><ele>427.0</ele><time>2026-04-26T08:18:27Z</time></trkpt><trkpt lat="43.88687240029533" lon="12.610202019154162"><ele>427.0</ele><time>2026-04-26T08:18:28Z</time></trkpt><trkpt lat="43.88699630529035" lon="12.610106608963545"><ele>429.75</ele><time>2026-04-26T08:18:29Z</time></trkpt><trkpt lat="43.887119478823294" lon="12.61001088790473"><ele>432.5</ele><time>2026-04-26T08:18:30Z</time></trkpt><trkpt lat="43.88722813153171" lon="12.609932318920022"><ele>435.25</ele><time>2026-04-26T08:18:31Z</time></trkpt><trkpt lat="43.887335386959016" lon="12.609861074336296"><ele>438.0</ele><time>2026-04-26T08:18:32Z</time></trkpt><trkpt lat="43.887460028279094" lon="12.609778562554014"><ele>438.0</ele><time>2026-04-26T08:18:33Z</time></trkpt><trkpt lat="43.887570299936684" lon="12.609692898910971"><ele>438.0</ele><time>2026-04-26T08:18:34Z</time></trkpt><trkpt lat="43.887667528903734" lon="12.609623948409705"><ele>438.0</ele><time>2026-04-26T08:18:35Z</time></trkpt><trkpt lat="43.88775835434477" lon="12.609560359479216"><ele>438.0</ele><time>2026-04-26T08:18:36Z</time></trkpt><trkpt lat="43.8878653098589" lon="12.609485972910045"><ele>441.0</ele><time>2026-04-26T08:18:37Z</time></trkpt><trkpt lat="43.887989528172916" lon="12.609410517396014"><ele>444.0</ele><time>2026-04-26T08:18:38Z</time></trkpt><trkpt lat="43.888118933758385" lon="12.60931834637218"><ele>447.0</ele><time>2026-04-26T08:18:39Z</time></trkpt><trkpt lat="43.8882325081918" lon="12.609240766047199"><ele>450.0</ele><time>2026-04-26T08:18:40Z</time></trkpt><trkpt lat="43.88833854655078" lon="12.609174245471317"><ele>446.6666666666667</ele><time>2026-04-26T08:18:41Z</time></trkpt><trkpt lat="43.888429793589516" lon="12.609113417762813"><ele>443.33333333333337</ele><time>2026-04-26T08:18:42Z</time></trkpt><trkpt lat="43.8885251237642" lon="12.609066265667078"><ele>440.0</ele><time>2026-04-26T08:18:43Z</time></trkpt><trkpt lat="43.888605978002204" lon="12.609017825718993"><ele>436.6666666666667</ele><time>2026-04-26T08:18:44Z</time></trkpt><trkpt lat="43.88866783991326" lon="12.608970080190264"><ele>433.33333333333337</ele><time>2026-04-26T08:18:45Z</time></trkpt><trkpt lat="43.88872772911728" lon="12.608926341499657"><ele>430.0</ele><time>2026-04-26T08:18:46Z</time></trkpt><trkpt lat="43.88879077283297" lon="12.60886557830045"><ele>430.0</ele><time>2026-04-26T08:18:47Z</time></trkpt><trkpt lat="43.88884595752388" lon="12.608794367338339"><ele>430.0</ele><time>2026-04-26T08:18:48Z</time></trkpt><trkpt lat="43.8888868910397" lon="12.608704342316097"><ele>430.0</ele><time>2026-04-26T08:18:49Z</time></trkpt><trkpt lat="43.88893273356218" lon="12.608594437740635"><ele>430.0</ele><time>2026-04-26T08:18:50Z</time></trkpt><trkpt lat="43.88897504210905" lon="12.608471503366568"><ele>430.0</ele><time>2026-04-26T08:18:51Z</time></trkpt><trkpt lat="43.88902724546583" lon="12.608328303064372"><ele>433.25</ele><time>2026-04-26T08:18:52Z</time></trkpt><trkpt lat="43.88908303828961" lon="12.608195036672349"><ele>436.5</ele><time>2026-04-26T08:18:53Z</time></trkpt><trkpt lat="43.889141987652884" lon="12.60805576724438"><ele>439.75</ele><time>2026-04-26T08:18:54Z</time></trkpt><trkpt lat="43.88919704129499" lon="12.607910683479439"><ele>443.0</ele><time>2026-04-26T08:18:55Z</time></trkpt><trkpt lat="43.88923001450997" lon="12.607764289597831"><ele>434.79999999999995</ele><time>2026-04-26T08:18:56Z</time></trkpt><trkpt lat="43.88928194781901" lon="12.60763793325656"><ele>426.59999999999997</ele><time>2026-04-26T08:18:57Z</time></trkpt><trkpt lat="43.88932526219811" lon="12.607511976191322"><ele>418.4</ele><time>2026-04-26T08:18:58Z</time></trkpt><trkpt lat="43.88934750542655" lon="12.607373034277174"><ele>410.20000000000005</ele><time>2026-04-26T08:18:59Z</time></trkpt><trkpt lat="43.88936909215419" lon="12.607232464325843"><ele>402.0</ele><time>2026-04-26T08:19:00Z</time></trkpt><trkpt lat="43.88937781290913" lon="12.607089363180009"><ele>402.0</ele><time>2026-04-26T08:19:01Z</time></trkpt><trkpt lat="43.88937225920097" lon="12.606943726656299"><ele>402.0</ele><time>2026-04-26T08:19:02Z</time></trkpt><trkpt lat="43.88940705967693" lon="12.606807576298694"><ele>402.0</ele><time>2026-04-26T08:19:03Z</time></trkpt><trkpt lat="43.889430846239996" lon="12.606663235455796"><ele>402.0</ele><time>2026-04-26T08:19:04Z</time></trkpt><trkpt lat="43.88948085669545" lon="12.606468246245553"><ele>402.0</ele><time>2026-04-26T08:19:05Z</time></trkpt><trkpt lat="43.88954068199494" lon="12.606272945682264"><ele>402.0</ele><time>2026-04-26T08:19:06Z</time></trkpt><trkpt lat="43.88960362201345" lon="12.606069820206862"><ele>402.0</ele><time>2026-04-26T08:19:07Z</time></trkpt><trkpt lat="43.889677195618425" lon="12.605857673290116"><ele>403.25</ele><time>2026-04-26T08:19:08Z</time></trkpt><trkpt lat="43.88974927896783" lon="12.60567397465963"><ele>404.5</ele><time>2026-04-26T08:19:09Z</time></trkpt><trkpt lat="43.88977351897033" lon="12.605488848408807"><ele>405.75</ele><time>2026-04-26T08:19:10Z</time></trkpt><trkpt lat="43.889790672593826" lon="12.605331036467723"><ele>407.0</ele><time>2026-04-26T08:19:11Z</time></trkpt><trkpt lat="43.88979277066274" lon="12.605200900872548"><ele>407.66666666666663</ele><time>2026-04-26T08:19:12Z</time></trkpt><trkpt lat="43.88979228516451" lon="12.60509420012076"><ele>408.3333333333333</ele><time>2026-04-26T08:19:13Z</time></trkpt><trkpt lat="43.88980091558346" lon="12.605007272605054"><ele>409.0</ele><time>2026-04-26T08:19:14Z</time></trkpt><trkpt lat="43.8897782306918" lon="12.604888794223985"><ele>409.66666666666663</ele><time>2026-04-26T08:19:16Z</time></trkpt><trkpt lat="43.88982996030416" lon="12.604821954801707"><ele>410.3333333333333</ele><time>2026-04-26T08:19:19Z</time></trkpt><trkpt lat="43.889867586648805" lon="12.60496353767107"><ele>411.0</ele><time>2026-04-26T08:19:21Z</time></trkpt><trkpt lat="43.88988258381464" lon="12.605051330984146"><ele>411.0</ele><time>2026-04-26T08:19:22Z</time></trkpt><trkpt lat="43.889897116457334" lon="12.605154447392634"><ele>411.0</ele><time>2026-04-26T08:19:23Z</time></trkpt><trkpt lat="43.88991396380184" lon="12.605287715422914"><ele>411.0</ele><time>2026-04-26T08:19:24Z</time></trkpt><trkpt lat="43.88993191510332" lon="12.605428747013796"><ele>411.0</ele><time>2026-04-26T08:19:25Z</time></trkpt><trkpt lat="43.88995239335162" lon="12.605580286438366"><ele>411.0</ele><time>2026-04-26T08:19:26Z</time></trkpt><trkpt lat="43.88996668901565" lon="12.605719530114865"><ele>410.20000000000005</ele><time>2026-04-26T08:19:27Z</time></trkpt><trkpt lat="43.88996534950778" lon="12.605842462438618"><ele>409.40000000000003</ele><time>2026-04-26T08:19:28Z</time></trkpt><trkpt lat="43.88993901879578" lon="12.60596614157599"><ele>408.6</ele><time>2026-04-26T08:19:29Z</time></trkpt><trkpt lat="43.88990172562993" lon="12.606140186851107"><ele>407.8</ele><time>2026-04-26T08:19:30Z</time></trkpt><trkpt lat="43.8898687326488" lon="12.60631869655756"><ele>407.0</ele><time>2026-04-26T08:19:31Z</time></trkpt><trkpt lat="43.88985023748396" lon="12.606481680151285"><ele>405.75</ele><time>2026-04-26T08:19:32Z</time></trkpt><trkpt lat="43.889847581413385" lon="12.606632029192287"><ele>404.5</ele><time>2026-04-26T08:19:33Z</time></trkpt><trkpt lat="43.88985309058802" lon="12.606786063485306"><ele>403.25</ele><time>2026-04-26T08:19:34Z</time></trkpt><trkpt lat="43.889870043986235" lon="12.60694181596662"><ele>402.0</ele><time>2026-04-26T08:19:35Z</time></trkpt><trkpt lat="43.88990236161699" lon="12.607097559625188"><ele>402.0</ele><time>2026-04-26T08:19:36Z</time></trkpt><trkpt lat="43.88993774764694" lon="12.60724747757902"><ele>402.0</ele><time>2026-04-26T08:19:37Z</time></trkpt><trkpt lat="43.88995225874794" lon="12.607348737624474"><ele>402.0</ele><time>2026-04-26T08:19:38Z</time></trkpt><trkpt lat="43.89002391443208" lon="12.607477007238241"><ele>402.0</ele><time>2026-04-26T08:19:40Z</time></trkpt><trkpt lat="43.890128221556125" lon="12.607488327616785"><ele>402.0</ele><time>2026-04-26T08:19:41Z</time></trkpt><trkpt lat="43.89023384196463" lon="12.60743434330705"><ele>396.20000000000005</ele><time>2026-04-26T08:19:42Z</time></trkpt><trkpt lat="43.89031286373601" lon="12.60740393522962"><ele>390.4</ele><time>2026-04-26T08:19:43Z</time></trkpt><trkpt lat="43.890354521294626" lon="12.607499754712482"><ele>384.6</ele><time>2026-04-26T08:19:45Z</time></trkpt><trkpt lat="43.89038962591902" lon="12.607591654408925"><ele>378.79999999999995</ele><time>2026-04-26T08:19:46Z</time></trkpt><trkpt lat="43.89032793765778" lon="12.607746794077096"><ele>373.0</ele><time>2026-04-26T08:19:47Z</time></trkpt><trkpt lat="43.890328139699264" lon="12.60787657336624"><ele>373.0</ele><time>2026-04-26T08:19:48Z</time></trkpt><trkpt lat="43.89033147823566" lon="12.6079924478771"><ele>373.0</ele><time>2026-04-26T08:19:49Z</time></trkpt><trkpt lat="43.8903399846401" lon="12.608127681825211"><ele>373.0</ele><time>2026-04-26T08:19:50Z</time></trkpt><trkpt lat="43.89037479183042" lon="12.608264908537498"><ele>373.0</ele><time>2026-04-26T08:19:51Z</time></trkpt><trkpt lat="43.890400687045975" lon="12.608396922356492"><ele>373.0</ele><time>2026-04-26T08:19:52Z</time></trkpt><trkpt lat="43.89042697888035" lon="12.60851104276673"><ele>373.0</ele><time>2026-04-26T08:19:53Z</time></trkpt><trkpt lat="43.89045608263519" lon="12.608618456961771"><ele>373.0</ele><time>2026-04-26T08:19:54Z</time></trkpt><trkpt lat="43.89048400442282" lon="12.608717477470949"><ele>373.0</ele><time>2026-04-26T08:19:55Z</time></trkpt><trkpt lat="43.89050824372027" lon="12.608810145052319"><ele>373.0</ele><time>2026-04-26T08:19:56Z</time></trkpt><trkpt lat="43.89052626434451" lon="12.608902103405699"><ele>373.0</ele><time>2026-04-26T08:19:57Z</time></trkpt><trkpt lat="43.8905347740312" lon="12.60899931246771"><ele>373.0</ele><time>2026-04-26T08:19:59Z</time></trkpt><trkpt lat="43.89061727115256" lon="12.60897088017404"><ele>373.0</ele><time>2026-04-26T08:20:03Z</time></trkpt><trkpt lat="43.89059376099285" lon="12.608875179240808"><ele>373.0</ele><time>2026-04-26T08:20:04Z</time></trkpt><trkpt lat="43.89060954034071" lon="12.608774924470701"><ele>373.0</ele><time>2026-04-26T08:20:05Z</time></trkpt><trkpt lat="43.89059536317004" lon="12.608604399293034"><ele>373.0</ele><time>2026-04-26T08:20:06Z</time></trkpt><trkpt lat="43.89057919890292" lon="12.608412743908803"><ele>373.0</ele><time>2026-04-26T08:20:07Z</time></trkpt><trkpt lat="43.89057711054427" lon="12.60825135609406"><ele>373.0</ele><time>2026-04-26T08:20:08Z</time></trkpt><trkpt lat="43.89057544559525" lon="12.608073243498655"><ele>373.0</ele><time>2026-04-26T08:20:09Z</time></trkpt><trkpt lat="43.89060856807816" lon="12.607909939163164"><ele>373.0</ele><time>2026-04-26T08:20:10Z</time></trkpt><trkpt lat="43.89063376176535" lon="12.60772184392967"><ele>373.0</ele><time>2026-04-26T08:20:11Z</time></trkpt><trkpt lat="43.89067819116596" lon="12.607527468401566"><ele>372.75</ele><time>2026-04-26T08:20:12Z</time></trkpt><trkpt lat="43.89073561851603" lon="12.607329863019858"><ele>372.5</ele><time>2026-04-26T08:20:13Z</time></trkpt><trkpt lat="43.89076520303846" lon="12.607132260970953"><ele>372.25</ele><time>2026-04-26T08:20:14Z</time></trkpt><trkpt lat="43.89080180598638" lon="12.606943667886954"><ele>372.0</ele><time>2026-04-26T08:20:15Z</time></trkpt><trkpt lat="43.89083085494228" lon="12.606764046788772"><ele>371.25</ele><time>2026-04-26T08:20:16Z</time></trkpt><trkpt lat="43.89085479219804" lon="12.606605450814847"><ele>370.5</ele><time>2026-04-26T08:20:17Z</time></trkpt><trkpt lat="43.890877443459225" lon="12.606448705969443"><ele>369.75</ele><time>2026-04-26T08:20:18Z</time></trkpt><trkpt lat="43.89088043633187" lon="12.606289052965984"><ele>369.0</ele><time>2026-04-26T08:20:19Z</time></trkpt><trkpt lat="43.890873361389865" lon="12.60613621698643"><ele>368.5</ele><time>2026-04-26T08:20:20Z</time></trkpt><trkpt lat="43.890856023899964" lon="12.605967101749608"><ele>368.0</ele><time>2026-04-26T08:20:21Z</time></trkpt><trkpt lat="43.89085992401131" lon="12.605789568494144"><ele>367.5</ele><time>2026-04-26T08:20:22Z</time></trkpt><trkpt lat="43.89083794085442" lon="12.60562610528051"><ele>367.0</ele><time>2026-04-26T08:20:23Z</time></trkpt><trkpt lat="43.890854397715906" lon="12.605490592818953"><ele>367.0</ele><time>2026-04-26T08:20:24Z</time></trkpt><trkpt lat="43.89089198867809" lon="12.605381593469463"><ele>367.0</ele><time>2026-04-26T08:20:25Z</time></trkpt><trkpt lat="43.89093566728283" lon="12.605270649506194"><ele>367.0</ele><time>2026-04-26T08:20:26Z</time></trkpt><trkpt lat="43.891001425218334" lon="12.605212825551693"><ele>367.0</ele><time>2026-04-26T08:20:27Z</time></trkpt><trkpt lat="43.89108886470529" lon="12.605104840850254"><ele>367.0</ele><time>2026-04-26T08:20:29Z</time></trkpt><trkpt lat="43.8910827513729" lon="12.604968173547716"><ele>360.20000000000005</ele><time>2026-04-26T08:20:30Z</time></trkpt><trkpt lat="43.89111493538983" lon="12.604856781464001"><ele>353.4</ele><time>2026-04-26T08:20:31Z</time></trkpt><trkpt lat="43.89109473936418" lon="12.604729743843144"><ele>346.6</ele><time>2026-04-26T08:20:32Z</time></trkpt><trkpt lat="43.8910861151148" lon="12.60457615301404"><ele>339.79999999999995</ele><time>2026-04-26T08:20:33Z</time></trkpt><trkpt lat="43.891076393320574" lon="12.604398992712591"><ele>333.0</ele><time>2026-04-26T08:20:34Z</time></trkpt><trkpt lat="43.89107004249628" lon="12.604203506107586"><ele>332.5</ele><time>2026-04-26T08:20:35Z</time></trkpt><trkpt lat="43.89103794829891" lon="12.604001421964107"><ele>332.0</ele><time>2026-04-26T08:20:36Z</time></trkpt><trkpt lat="43.89102808454405" lon="12.60381451470701"><ele>331.5</ele><time>2026-04-26T08:20:37Z</time></trkpt><trkpt lat="43.89103059240314" lon="12.603639743013499"><ele>331.0</ele><time>2026-04-26T08:20:38Z</time></trkpt><trkpt lat="43.89104338844533" lon="12.603454934373712"><ele>329.0</ele><time>2026-04-26T08:20:39Z</time></trkpt><trkpt lat="43.891056000975745" lon="12.60326155385632"><ele>327.0</ele><time>2026-04-26T08:20:40Z</time></trkpt><trkpt lat="43.89106722506666" lon="12.603050851426659"><ele>325.0</ele><time>2026-04-26T08:20:41Z</time></trkpt><trkpt lat="43.89107527055272" lon="12.602849825176966"><ele>323.0</ele><time>2026-04-26T08:20:42Z</time></trkpt><trkpt lat="43.89108271747376" lon="12.602669714388195"><ele>322.59999999999997</ele><time>2026-04-26T08:20:43Z</time></trkpt><trkpt lat="43.891090243395276" lon="12.602502973007887"><ele>322.2</ele><time>2026-04-26T08:20:44Z</time></trkpt><trkpt lat="43.891104562030236" lon="12.60235582919556"><ele>321.8</ele><time>2026-04-26T08:20:45Z</time></trkpt><trkpt lat="43.89113158062873" lon="12.602215553445712"><ele>321.4</ele><time>2026-04-26T08:20:46Z</time></trkpt><trkpt lat="43.89116384755229" lon="12.60208587454817"><ele>321.0</ele><time>2026-04-26T08:20:47Z</time></trkpt><trkpt lat="43.891194207622675" lon="12.601978927315912"><ele>321.6666666666667</ele><time>2026-04-26T08:20:48Z</time></trkpt><trkpt lat="43.89121637601161" lon="12.601891376698918"><ele>322.3333333333333</ele><time>2026-04-26T08:20:49Z</time></trkpt><trkpt lat="43.8912580697434" lon="12.601775951243242"><ele>323.0</ele><time>2026-04-26T08:20:51Z</time></trkpt><trkpt lat="43.89134083365817" lon="12.601706343429672"><ele>323.66666666666663</ele><time>2026-04-26T08:20:53Z</time></trkpt><trkpt lat="43.89141806123064" lon="12.601711652553544"><ele>324.3333333333333</ele><time>2026-04-26T08:20:54Z</time></trkpt><trkpt lat="43.891506664753905" lon="12.601638411384698"><ele>325.0</ele><time>2026-04-26T08:20:55Z</time></trkpt><trkpt lat="43.89160063325576" lon="12.601638211883467"><ele>325.0</ele><time>2026-04-26T08:20:56Z</time></trkpt><trkpt lat="43.89167694750077" lon="12.60163697998719"><ele>325.0</ele><time>2026-04-26T08:20:57Z</time></trkpt><trkpt lat="43.891748530266554" lon="12.601614711218236"><ele>325.0</ele><time>2026-04-26T08:20:58Z</time></trkpt><trkpt lat="43.89181012808508" lon="12.601574733525064"><ele>325.0</ele><time>2026-04-26T08:20:59Z</time></trkpt><trkpt lat="43.89186266354063" lon="12.601488101942055"><ele>325.0</ele><time>2026-04-26T08:21:00Z</time></trkpt><trkpt lat="43.89191666298602" lon="12.601393276408647"><ele>325.0</ele><time>2026-04-26T08:21:01Z</time></trkpt><trkpt lat="43.89195967215553" lon="12.601288503531968"><ele>320.8333333333333</ele><time>2026-04-26T08:21:02Z</time></trkpt><trkpt lat="43.89198597397501" lon="12.601171278324525"><ele>316.66666666666663</ele><time>2026-04-26T08:21:03Z</time></trkpt><trkpt lat="43.89198886817909" lon="12.601052766420677"><ele>312.5</ele><time>2026-04-26T08:21:04Z</time></trkpt><trkpt lat="43.89197424303489" lon="12.600929256461047"><ele>308.3333333333333</ele><time>2026-04-26T08:21:05Z</time></trkpt><trkpt lat="43.89195864906828" lon="12.600821209474562"><ele>304.1666666666667</ele><time>2026-04-26T08:21:06Z</time></trkpt><trkpt lat="43.891953580979056" lon="12.600676485712766"><ele>300.0</ele><time>2026-04-26T08:21:08Z</time></trkpt><trkpt lat="43.891940976080285" lon="12.60054332442695"><ele>300.0</ele><time>2026-04-26T08:21:11Z</time></trkpt><trkpt lat="43.89193245139576" lon="12.600453266971732"><ele>300.0</ele><time>2026-04-26T08:21:13Z</time></trkpt><trkpt lat="43.89191704039955" lon="12.60034609980464"><ele>300.0</ele><time>2026-04-26T08:21:17Z</time></trkpt><trkpt lat="43.89188015056968" lon="12.600202809281031"><ele>300.0</ele><time>2026-04-26T08:21:19Z</time></trkpt><trkpt lat="43.89184327997568" lon="12.600110325982245"><ele>300.0</ele><time>2026-04-26T08:21:20Z</time></trkpt><trkpt lat="43.891780832958474" lon="12.59998139908572"><ele>300.0</ele><time>2026-04-26T08:21:22Z</time></trkpt><trkpt lat="43.89175579795358" lon="12.599886947126299"><ele>299.3333333333333</ele><time>2026-04-26T08:21:24Z</time></trkpt><trkpt lat="43.89172604868182" lon="12.599784359597196"><ele>298.6666666666667</ele><time>2026-04-26T08:21:27Z</time></trkpt><trkpt lat="43.891775303147824" lon="12.599702931018175"><ele>298.0</ele><time>2026-04-26T08:21:32Z</time></trkpt><trkpt lat="43.89181632569688" lon="12.599620805620228"><ele>297.33333333333337</ele><time>2026-04-26T08:21:36Z</time></trkpt><trkpt lat="43.89186545029876" lon="12.599551990977204"><ele>296.6666666666667</ele><time>2026-04-26T08:21:40Z</time></trkpt><trkpt lat="43.8919045032108" lon="12.599465566852082"><ele>296.0</ele><time>2026-04-26T08:21:42Z</time></trkpt><trkpt lat="43.89196682062935" lon="12.59937192852375"><ele>296.0</ele><time>2026-04-26T08:21:44Z</time></trkpt><trkpt lat="43.89202365896066" lon="12.59943568240841"><ele>296.0</ele><time>2026-04-26T08:21:46Z</time></trkpt><trkpt lat="43.89200398132487" lon="12.59957296614482"><ele>296.0</ele><time>2026-04-26T08:21:48Z</time></trkpt><trkpt lat="43.89199161812433" lon="12.599719975302841"><ele>296.0</ele><time>2026-04-26T08:21:50Z</time></trkpt><trkpt lat="43.8920432497559" lon="12.59980357540857"><ele>296.0</ele><time>2026-04-26T08:21:52Z</time></trkpt><trkpt lat="43.8920990987355" lon="12.599867050291389"><ele>296.0</ele><time>2026-04-26T08:21:54Z</time></trkpt><trkpt lat="43.89218016328442" lon="12.599882522036369"><ele>296.0</ele><time>2026-04-26T08:21:56Z</time></trkpt><trkpt lat="43.89234026113849" lon="12.599602226732868"><ele>296.0</ele><time>2026-04-26T08:22:02Z</time></trkpt><trkpt lat="43.89240251217375" lon="12.599540680032383"><ele>296.0</ele><time>2026-04-26T08:22:04Z</time></trkpt><trkpt lat="43.89245472899341" lon="12.599490623615983"><ele>296.0</ele><time>2026-04-26T08:22:06Z</time></trkpt><trkpt lat="43.89249807581632" lon="12.599426324449588"><ele>295.0</ele><time>2026-04-26T08:22:08Z</time></trkpt><trkpt lat="43.89257160404661" lon="12.599357217034099"><ele>294.0</ele><time>2026-04-26T08:22:11Z</time></trkpt><trkpt lat="43.89262929395214" lon="12.599310327546542"><ele>293.0</ele><time>2026-04-26T08:22:13Z</time></trkpt><trkpt lat="43.892682199163914" lon="12.599253116352225"><ele>292.0</ele><time>2026-04-26T08:22:16Z</time></trkpt><trkpt lat="43.89274001033014" lon="12.59915697499739"><ele>291.0</ele><time>2026-04-26T08:22:19Z</time></trkpt><trkpt lat="43.892788076351074" lon="12.599086164726815"><ele>290.0</ele><time>2026-04-26T08:22:21Z</time></trkpt><trkpt lat="43.89284253837491" lon="12.599005827649876"><ele>286.0</ele><time>2026-04-26T08:22:23Z</time></trkpt><trkpt lat="43.89286823100964" lon="12.598925607386388"><ele>282.0</ele><time>2026-04-26T08:22:25Z</time></trkpt><trkpt lat="43.89287925986659" lon="12.598813174905853"><ele>278.0</ele><time>2026-04-26T08:22:28Z</time></trkpt><trkpt lat="43.89287125399672" lon="12.598724963030792"><ele>274.0</ele><time>2026-04-26T08:22:30Z</time></trkpt><trkpt lat="43.892859408460694" lon="12.598608048935459"><ele>270.0</ele><time>2026-04-26T08:22:33Z</time></trkpt><trkpt lat="43.89284848626001" lon="12.59851898564629"><ele>266.0</ele><time>2026-04-26T08:22:46Z</time></trkpt><trkpt lat="43.89286579292845" lon="12.598418516678803"><ele>262.0</ele><time>2026-04-26T08:23:26Z</time></trkpt><trkpt lat="43.892833479374985" lon="12.59834058731125"><ele>260.66666666666663</ele><time>2026-04-26T08:23:34Z</time></trkpt><trkpt lat="43.892755514685305" lon="12.598356195692817"><ele>259.3333333333333</ele><time>2026-04-26T08:23:38Z</time></trkpt><trkpt lat="43.89267795481212" lon="12.598354732642214"><ele>258.0</ele><time>2026-04-26T08:23:43Z</time></trkpt><trkpt lat="43.89266831642103" lon="12.59826615862403"><ele>256.6666666666667</ele><time>2026-04-26T08:23:48Z</time></trkpt><trkpt lat="43.892691620098375" lon="12.59815355395112"><ele>255.33333333333334</ele><time>2026-04-26T08:23:51Z</time></trkpt><trkpt lat="43.89269544753215" lon="12.59805919939367"><ele>254.0</ele><time>2026-04-26T08:23:53Z</time></trkpt><trkpt lat="43.892710601439084" lon="12.597949707035951"><ele>252.00000000000003</ele><time>2026-04-26T08:23:55Z</time></trkpt><trkpt lat="43.892737038562565" lon="12.59783394884062"><ele>250.0</ele><time>2026-04-26T08:23:57Z</time></trkpt><trkpt lat="43.892770269868" lon="12.597737107692296"><ele>248.0</ele><time>2026-04-26T08:23:59Z</time></trkpt><trkpt lat="43.892812638305806" lon="12.597660418895055"><ele>246.0</ele><time>2026-04-26T08:24:01Z</time></trkpt><trkpt lat="43.89286076703581" lon="12.597588954303822"><ele>244.00000000000003</ele><time>2026-04-26T08:24:05Z</time></trkpt><trkpt lat="43.89289971488411" lon="12.597488989979432"><ele>242.0</ele><time>2026-04-26T08:24:18Z</time></trkpt><trkpt lat="43.89291306384054" lon="12.597401106854033"><ele>242.00000000000003</ele><time>2026-04-26T08:24:22Z</time></trkpt><trkpt lat="43.89292894856304" lon="12.597296751201146"><ele>242.0</ele><time>2026-04-26T08:24:26Z</time></trkpt><trkpt lat="43.89296316363637" lon="12.59720204582505"><ele>242.0</ele><time>2026-04-26T08:24:31Z</time></trkpt><trkpt lat="43.89302508034599" lon="12.597127683145802"><ele>242.0</ele><time>2026-04-26T08:24:39Z</time></trkpt><trkpt lat="43.893084432413644" lon="12.597067936391545"><ele>242.00000000000003</ele><time>2026-04-26T08:24:41Z</time></trkpt><trkpt lat="43.893136447224826" lon="12.59700845609186"><ele>242.0</ele><time>2026-04-26T08:24:43Z</time></trkpt><trkpt lat="43.89320937037176" lon="12.59695208666601"><ele>238.33333333333334</ele><time>2026-04-26T08:24:46Z</time></trkpt><trkpt lat="43.893243700444245" lon="12.596860574053796"><ele>234.66666666666669</ele><time>2026-04-26T08:25:10Z</time></trkpt><trkpt lat="43.89318209901379" lon="12.596818435612073"><ele>231.0</ele><time>2026-04-26T08:27:00Z</time></trkpt><trkpt lat="43.893106659920974" lon="12.59681731498437"><ele>227.33333333333331</ele><time>2026-04-26T08:27:03Z</time></trkpt><trkpt lat="43.8930168297142" lon="12.596801824245983"><ele>223.66666666666666</ele><time>2026-04-26T08:27:05Z</time></trkpt><trkpt lat="43.892928075956746" lon="12.596792184439654"><ele>220.0</ele><time>2026-04-26T08:27:07Z</time></trkpt><trkpt lat="43.892841605550345" lon="12.596796250803232"><ele>219.99999999999997</ele><time>2026-04-26T08:27:09Z</time></trkpt><trkpt lat="43.892745066162924" lon="12.596786512452054"><ele>220.0</ele><time>2026-04-26T08:27:11Z</time></trkpt><trkpt lat="43.89267358674807" lon="12.596777408388068"><ele>220.0</ele><time>2026-04-26T08:27:13Z</time></trkpt><trkpt lat="43.892588533085544" lon="12.596782202948637"><ele>220.0</ele><time>2026-04-26T08:27:16Z</time></trkpt><trkpt lat="43.89255841958694" lon="12.596679091473865"><ele>219.99999999999997</ele><time>2026-04-26T08:27:19Z</time></trkpt><trkpt lat="43.892594150482886" lon="12.596554127856832"><ele>220.0</ele><time>2026-04-26T08:27:21Z</time></trkpt><trkpt lat="43.89266676454907" lon="12.596477219068873"><ele>220.0</ele><time>2026-04-26T08:27:23Z</time></trkpt><trkpt lat="43.892763719938785" lon="12.59643551874884"><ele>220.0</ele><time>2026-04-26T08:27:25Z</time></trkpt><trkpt lat="43.89285577663231" lon="12.596352115808498"><ele>220.0</ele><time>2026-04-26T08:27:27Z</time></trkpt><trkpt lat="43.89293612739833" lon="12.596222669612319"><ele>220.0</ele><time>2026-04-26T08:27:29Z</time></trkpt><trkpt lat="43.89298022522397" lon="12.59613317564392"><ele>220.0</ele><time>2026-04-26T08:27:30Z</time></trkpt><trkpt lat="43.89302955752329" lon="12.596000280916437"><ele>214.4</ele><time>2026-04-26T08:27:32Z</time></trkpt><trkpt lat="43.89310549732385" lon="12.595888989787667"><ele>208.8</ele><time>2026-04-26T08:27:34Z</time></trkpt><trkpt lat="43.89315583578101" lon="12.595780561530395"><ele>203.2</ele><time>2026-04-26T08:27:36Z</time></trkpt><trkpt lat="43.89315879632017" lon="12.595631311427725"><ele>197.6</ele><time>2026-04-26T08:27:38Z</time></trkpt><trkpt lat="43.89318359171837" lon="12.595531998640372"><ele>192.0</ele><time>2026-04-26T08:27:40Z</time></trkpt><trkpt lat="43.89317603087449" lon="12.59543297759724"><ele>187.83333333333334</ele><time>2026-04-26T08:27:44Z</time></trkpt><trkpt lat="43.8931760617195" lon="12.595323330028842"><ele>183.66666666666666</ele><time>2026-04-26T08:27:50Z</time></trkpt><trkpt lat="43.89316992367567" lon="12.595193937378783"><ele>179.5</ele><time>2026-04-26T08:27:53Z</time></trkpt><trkpt lat="43.893198143257386" lon="12.59509110090763"><ele>175.33333333333331</ele><time>2026-04-26T08:27:56Z</time></trkpt><trkpt lat="43.8932296122594" lon="12.595006552121898"><ele>171.16666666666666</ele><time>2026-04-26T08:28:01Z</time></trkpt><trkpt lat="43.89327901257147" lon="12.59494063538105"><ele>167.0</ele><time>2026-04-26T08:28:05Z</time></trkpt><trkpt lat="43.89328895517497" lon="12.59482987846866"><ele>167.0</ele><time>2026-04-26T08:28:10Z</time></trkpt><trkpt lat="43.893286884785084" lon="12.59473903851361"><ele>167.0</ele><time>2026-04-26T08:28:15Z</time></trkpt><trkpt lat="43.893323065626575" lon="12.594634588822935"><ele>167.0</ele><time>2026-04-26T08:28:19Z</time></trkpt><trkpt lat="43.893340715907705" lon="12.594531612958594"><ele>167.0</ele><time>2026-04-26T08:28:21Z</time></trkpt><trkpt lat="43.89336741353453" lon="12.594433998747347"><ele>167.0</ele><time>2026-04-26T08:28:23Z</time></trkpt><trkpt lat="43.89336884112979" lon="12.594343732791758"><ele>167.0</ele><time>2026-04-26T08:28:28Z</time></trkpt><trkpt lat="43.89341638653128" lon="12.594231501424218"><ele>161.2</ele><time>2026-04-26T08:28:30Z</time></trkpt><trkpt lat="43.89343063887491" lon="12.59409567510375"><ele>155.39999999999998</ele><time>2026-04-26T08:28:32Z</time></trkpt><trkpt lat="43.893430770978995" lon="12.593935742607323"><ele>149.60000000000002</ele><time>2026-04-26T08:28:34Z</time></trkpt><trkpt lat="43.89344292532657" lon="12.593805910313753"><ele>143.8</ele><time>2026-04-26T08:28:36Z</time></trkpt><trkpt lat="43.89347071302379" lon="12.593690350594876"><ele>138.0</ele><time>2026-04-26T08:28:38Z</time></trkpt><trkpt lat="43.89349915291085" lon="12.59360349314397"><ele>137.33333333333334</ele><time>2026-04-26T08:28:40Z</time></trkpt><trkpt lat="43.89348007241348" lon="12.593510255701707"><ele>136.66666666666666</ele><time>2026-04-26T08:28:43Z</time></trkpt><trkpt lat="43.893443893848264" lon="12.593437340849169"><ele>136.0</ele><time>2026-04-26T08:28:58Z</time></trkpt><trkpt lat="43.89339692526222" lon="12.593361919745568"><ele>135.33333333333331</ele><time>2026-04-26T08:29:01Z</time></trkpt><trkpt lat="43.89331290169405" lon="12.593271007282556"><ele>134.66666666666666</ele><time>2026-04-26T08:29:03Z</time></trkpt><trkpt lat="43.89324819314033" lon="12.593213935856223"><ele>134.0</ele><time>2026-04-26T08:29:05Z</time></trkpt><trkpt lat="43.893190648399155" lon="12.593156327186952"><ele>134.0</ele><time>2026-04-26T08:30:35Z</time></trkpt><trkpt lat="43.893103182202154" lon="12.593108172942305"><ele>134.0</ele><time>2026-04-26T08:30:39Z</time></trkpt><trkpt lat="43.89304332055113" lon="12.593072062060525"><ele>134.0</ele><time>2026-04-26T08:30:59Z</time></trkpt><trkpt lat="43.89298114602213" lon="12.59302082019588"><ele>134.0</ele><time>2026-04-26T08:31:01Z</time></trkpt><trkpt lat="43.892900404796876" lon="12.592981049042857"><ele>134.0</ele><time>2026-04-26T08:31:04Z</time></trkpt><trkpt lat="43.89282829680812" lon="12.59298677636036"><ele>134.0</ele><time>2026-04-26T08:31:07Z</time></trkpt><trkpt lat="43.89275347475051" lon="12.59295923249812"><ele>134.0</ele><time>2026-04-26T08:31:22Z</time></trkpt><trkpt lat="43.89267298492524" lon="12.59294496108181"><ele>134.0</ele><time>2026-04-26T08:31:25Z</time></trkpt><trkpt lat="43.89260871348039" lon="12.592933380751031"><ele>134.0</ele><time>2026-04-26T08:31:27Z</time></trkpt><trkpt lat="43.892551127375704" lon="12.592894708198168"><ele>134.0</ele><time>2026-04-26T08:31:31Z</time></trkpt><trkpt lat="43.89249382656888" lon="12.592821411855923"><ele>134.0</ele><time>2026-04-26T08:31:35Z</time></trkpt><trkpt lat="43.89242869278192" lon="12.592793340232058"><ele>134.0</ele><time>2026-04-26T08:31:39Z</time></trkpt><trkpt lat="43.89236452947278" lon="12.592755983402682"><ele>134.0</ele><time>2026-04-26T08:31:42Z</time></trkpt><trkpt lat="43.89229941444141" lon="12.592721202086274"><ele>133.57142857142858</ele><time>2026-04-26T08:31:44Z</time></trkpt><trkpt lat="43.89224828814534" lon="12.592663780860278"><ele>133.14285714285714</ele><time>2026-04-26T08:31:53Z</time></trkpt><trkpt lat="43.892242533621754" lon="12.592567137943128"><ele>132.71428571428572</ele><time>2026-04-26T08:34:04Z</time></trkpt><trkpt lat="43.892196195823516" lon="12.592507436943611"><ele>132.28571428571428</ele><time>2026-04-26T08:34:18Z</time></trkpt><trkpt lat="43.892209202896744" lon="12.592612826726308"><ele>131.85714285714286</ele><time>2026-04-26T08:34:32Z</time></trkpt><trkpt lat="43.8922232362211" lon="12.592713635779996"><ele>131.42857142857144</ele><time>2026-04-26T08:34:35Z</time></trkpt><trkpt lat="43.89229823931072" lon="12.592757538243225"><ele>131.0</ele><time>2026-04-26T08:34:38Z</time></trkpt><trkpt lat="43.8923833652235" lon="12.592752400806301"><ele>131.0</ele><time>2026-04-26T08:34:41Z</time></trkpt><trkpt lat="43.89244781289158" lon="12.592754513633361"><ele>131.0</ele><time>2026-04-26T08:34:43Z</time></trkpt><trkpt lat="43.892536466669384" lon="12.59279390674664"><ele>131.0</ele><time>2026-04-26T08:34:46Z</time></trkpt><trkpt lat="43.89262998214831" lon="12.592836188501925"><ele>131.0</ele><time>2026-04-26T08:34:48Z</time></trkpt><trkpt lat="43.89269385016207" lon="12.592886652021997"><ele>131.0</ele><time>2026-04-26T08:34:50Z</time></trkpt><trkpt lat="43.892771877259776" lon="12.592871273752108"><ele>131.0</ele><time>2026-04-26T08:35:09Z</time></trkpt><trkpt lat="43.89283018063444" lon="12.592830678622724"><ele>130.0</ele><time>2026-04-26T08:35:12Z</time></trkpt><trkpt lat="43.89290808517928" lon="12.592801862659009"><ele>129.0</ele><time>2026-04-26T08:35:43Z</time></trkpt><trkpt lat="43.892998375639685" lon="12.592711172536221"><ele>128.0</ele><time>2026-04-26T08:36:04Z</time></trkpt><trkpt lat="43.89300013307698" lon="12.592623368747166"><ele>127.0</ele><time>2026-04-26T08:38:12Z</time></trkpt><trkpt lat="43.89301328613521" lon="12.592525688377952"><ele>125.99999999999999</ele><time>2026-04-26T08:38:16Z</time></trkpt><trkpt lat="43.89302618205484" lon="12.592438351052902"><ele>125.0</ele><time>2026-04-26T08:38:23Z</time></trkpt><trkpt lat="43.89297152823821" lon="12.592391193331432"><ele>124.99999999999999</ele><time>2026-04-26T08:38:32Z</time></trkpt><trkpt lat="43.89290421113927" lon="12.592427551431749"><ele>125.0</ele><time>2026-04-26T08:38:35Z</time></trkpt><trkpt lat="43.89283344516107" lon="12.59248969378999"><ele>125.0</ele><time>2026-04-26T08:38:38Z</time></trkpt><trkpt lat="43.89277249817354" lon="12.592549466046382"><ele>125.0</ele><time>2026-04-26T08:38:43Z</time></trkpt><trkpt lat="43.89269590801351" lon="12.592570517333831"><ele>124.99999999999999</ele><time>2026-04-26T08:38:51Z</time></trkpt><trkpt lat="43.89263383197526" lon="12.59253438906897"><ele>125.0</ele><time>2026-04-26T08:38:53Z</time></trkpt><trkpt lat="43.89256518146202" lon="12.592466628576616"><ele>125.99999999999999</ele><time>2026-04-26T08:38:55Z</time></trkpt><trkpt lat="43.89248345623563" lon="12.592359153047724"><ele>127.0</ele><time>2026-04-26T08:38:57Z</time></trkpt><trkpt lat="43.89244563176287" lon="12.592254177302081"><ele>128.0</ele><time>2026-04-26T08:38:59Z</time></trkpt><trkpt lat="43.892396326669605" lon="12.592117261900718"><ele>129.0</ele><time>2026-04-26T08:39:01Z</time></trkpt><trkpt lat="43.892345502472594" lon="12.592050756813782"><ele>130.0</ele><time>2026-04-26T08:39:02Z</time></trkpt><trkpt lat="43.89231368339217" lon="12.591973016458223"><ele>131.0</ele><time>2026-04-26T08:39:03Z</time></trkpt><trkpt lat="43.892308211593345" lon="12.59182664855178"><ele>131.16666666666666</ele><time>2026-04-26T08:39:05Z</time></trkpt><trkpt lat="43.892303492348596" lon="12.591719238084412"><ele>131.33333333333331</ele><time>2026-04-26T08:39:15Z</time></trkpt><trkpt lat="43.892293962139455" lon="12.59160303194267"><ele>131.5</ele><time>2026-04-26T08:39:18Z</time></trkpt><trkpt lat="43.89231263476708" lon="12.591504007623524"><ele>131.66666666666666</ele><time>2026-04-26T08:39:31Z</time></trkpt><trkpt lat="43.892312915830026" lon="12.591414179790437"><ele>131.83333333333334</ele><time>2026-04-26T08:39:33Z</time></trkpt><trkpt lat="43.892269490610836" lon="12.591309038191335"><ele>132.0</ele><time>2026-04-26T08:39:35Z</time></trkpt><trkpt lat="43.892180213601165" lon="12.591224254166194"><ele>132.0</ele><time>2026-04-26T08:39:37Z</time></trkpt><trkpt lat="43.892094667442436" lon="12.591187902066537"><ele>132.0</ele><time>2026-04-26T08:39:38Z</time></trkpt><trkpt lat="43.89202671508459" lon="12.591148998021541"><ele>132.0</ele><time>2026-04-26T08:39:39Z</time></trkpt><trkpt lat="43.891897928390115" lon="12.591113322570587"><ele>132.0</ele><time>2026-04-26T08:39:41Z</time></trkpt><trkpt lat="43.89181788409373" lon="12.59110827742606"><ele>132.0</ele><time>2026-04-26T08:39:42Z</time></trkpt><trkpt lat="43.8917370391138" lon="12.591111137114138"><ele>131.83333333333334</ele><time>2026-04-26T08:39:43Z</time></trkpt><trkpt lat="43.891670107173134" lon="12.59110379238961"><ele>131.66666666666666</ele><time>2026-04-26T08:39:44Z</time></trkpt><trkpt lat="43.89161298493034" lon="12.591058938497493"><ele>131.5</ele><time>2026-04-26T08:39:45Z</time></trkpt><trkpt lat="43.89155255512225" lon="12.590980275383863"><ele>131.33333333333331</ele><time>2026-04-26T08:39:46Z</time></trkpt><trkpt lat="43.89150555249378" lon="12.59090824372991"><ele>131.16666666666666</ele><time>2026-04-26T08:39:47Z</time></trkpt><trkpt lat="43.89148411582441" lon="12.590756670125003"><ele>131.0</ele><time>2026-04-26T08:39:49Z</time></trkpt><trkpt lat="43.89148974345325" lon="12.5906691718534"><ele>131.0</ele><time>2026-04-26T08:39:50Z</time></trkpt><trkpt lat="43.891494392388566" lon="12.590579983107382"><ele>131.0</ele><time>2026-04-26T08:39:51Z</time></trkpt><trkpt lat="43.89149999792661" lon="12.590478608679895"><ele>131.0</ele><time>2026-04-26T08:39:52Z</time></trkpt><trkpt lat="43.89147361923214" lon="12.59035673003054"><ele>131.0</ele><time>2026-04-26T08:39:54Z</time></trkpt><trkpt lat="43.89136048464511" lon="12.590248772515627"><ele>131.0</ele><time>2026-04-26T08:39:56Z</time></trkpt><trkpt lat="43.89129977684239" lon="12.59021300148964"><ele>131.0</ele><time>2026-04-26T08:39:57Z</time></trkpt><trkpt lat="43.89119948034761" lon="12.590192518595527"><ele>131.5</ele><time>2026-04-26T08:39:59Z</time></trkpt><trkpt lat="43.8911143281215" lon="12.59021224681642"><ele>132.0</ele><time>2026-04-26T08:40:00Z</time></trkpt><trkpt lat="43.89104094594219" lon="12.590218658290484"><ele>132.5</ele><time>2026-04-26T08:40:01Z</time></trkpt><trkpt lat="43.89093154656494" lon="12.59020687992865"><ele>133.0</ele><time>2026-04-26T08:40:02Z</time></trkpt><trkpt lat="43.89084146721109" lon="12.59019631913626"><ele>133.5</ele><time>2026-04-26T08:40:03Z</time></trkpt><trkpt lat="43.89077865264143" lon="12.590176462797405"><ele>134.0</ele><time>2026-04-26T08:40:04Z</time></trkpt><trkpt lat="43.890633494483836" lon="12.590217916368314"><ele>134.0</ele><time>2026-04-26T08:40:06Z</time></trkpt><trkpt lat="43.89055612788573" lon="12.590225006556091"><ele>134.0</ele><time>2026-04-26T08:40:07Z</time></trkpt><trkpt lat="43.8904301776476" lon="12.590198587161384"><ele>134.0</ele><time>2026-04-26T08:40:09Z</time></trkpt><trkpt lat="43.89036019457378" lon="12.590138044992376"><ele>134.0</ele><time>2026-04-26T08:40:10Z</time></trkpt><trkpt lat="43.89029110675323" lon="12.59006962712473"><ele>134.0</ele><time>2026-04-26T08:40:11Z</time></trkpt><trkpt lat="43.89021747117806" lon="12.589995153669898"><ele>134.0</ele><time>2026-04-26T08:40:12Z</time></trkpt><trkpt lat="43.8901440411481" lon="12.58993434965208"><ele>134.0</ele><time>2026-04-26T08:40:13Z</time></trkpt><trkpt lat="43.890059236050945" lon="12.589895116103325"><ele>134.0</ele><time>2026-04-26T08:40:14Z</time></trkpt><trkpt lat="43.88996909690604" lon="12.589849507836183"><ele>134.0</ele><time>2026-04-26T08:40:15Z</time></trkpt><trkpt lat="43.88988668719576" lon="12.589761165313107"><ele>134.0</ele><time>2026-04-26T08:40:16Z</time></trkpt><trkpt lat="43.88979660027529" lon="12.589666660204331"><ele>133.75</ele><time>2026-04-26T08:40:17Z</time></trkpt><trkpt lat="43.889709548445275" lon="12.589585402026902"><ele>133.5</ele><time>2026-04-26T08:40:18Z</time></trkpt><trkpt lat="43.889619756714815" lon="12.589515796333998"><ele>133.25</ele><time>2026-04-26T08:40:19Z</time></trkpt><trkpt lat="43.88950907974824" lon="12.589464068696792"><ele>133.0</ele><time>2026-04-26T08:40:20Z</time></trkpt><trkpt lat="43.889382871378416" lon="12.589421098590464"><ele>133.0</ele><time>2026-04-26T08:40:21Z</time></trkpt><trkpt lat="43.88925985527764" lon="12.58939013392523"><ele>133.0</ele><time>2026-04-26T08:40:22Z</time></trkpt><trkpt lat="43.889133915942615" lon="12.589370577666543"><ele>133.0</ele><time>2026-04-26T08:40:23Z</time></trkpt><trkpt lat="43.88902973354067" lon="12.589380133004912"><ele>133.0</ele><time>2026-04-26T08:40:24Z</time></trkpt><trkpt lat="43.888935918933704" lon="12.589385541349003"><ele>132.8</ele><time>2026-04-26T08:40:25Z</time></trkpt><trkpt lat="43.88885585347922" lon="12.589375158817358"><ele>132.60000000000002</ele><time>2026-04-26T08:40:26Z</time></trkpt><trkpt lat="43.88878966521663" lon="12.589352451619161"><ele>132.39999999999998</ele><time>2026-04-26T08:40:27Z</time></trkpt><trkpt lat="43.888721515786514" lon="12.589313463868374"><ele>132.2</ele><time>2026-04-26T08:40:28Z</time></trkpt><trkpt lat="43.888612490830894" lon="12.589231856442655"><ele>132.0</ele><time>2026-04-26T08:40:29Z</time></trkpt><trkpt lat="43.88850078753807" lon="12.589178432404276"><ele>132.2</ele><time>2026-04-26T08:40:30Z</time></trkpt><trkpt lat="43.88839192470032" lon="12.589126341866141"><ele>132.39999999999998</ele><time>2026-04-26T08:40:31Z</time></trkpt><trkpt lat="43.888292330717604" lon="12.589071554051717"><ele>132.60000000000002</ele><time>2026-04-26T08:40:32Z</time></trkpt><trkpt lat="43.888192324939496" lon="12.58902912454538"><ele>132.8</ele><time>2026-04-26T08:40:33Z</time></trkpt><trkpt lat="43.88810625628742" lon="12.588995362131106"><ele>133.0</ele><time>2026-04-26T08:40:34Z</time></trkpt><trkpt lat="43.88798272535218" lon="12.58897152714011"><ele>133.0</ele><time>2026-04-26T08:40:36Z</time></trkpt><trkpt lat="43.88789382725487" lon="12.588978360900784"><ele>133.0</ele><time>2026-04-26T08:40:37Z</time></trkpt><trkpt lat="43.887828395084355" lon="12.58903731392298"><ele>133.0</ele><time>2026-04-26T08:40:40Z</time></trkpt><trkpt lat="43.887725092674785" lon="12.589127925021845"><ele>133.0</ele><time>2026-04-26T08:40:42Z</time></trkpt><trkpt lat="43.88766980654123" lon="12.589192240626144"><ele>133.0</ele><time>2026-04-26T08:40:43Z</time></trkpt><trkpt lat="43.88760939373011" lon="12.589281885628699"><ele>132.66666666666669</ele><time>2026-04-26T08:40:44Z</time></trkpt><trkpt lat="43.887549773756376" lon="12.589377034708836"><ele>132.33333333333334</ele><time>2026-04-26T08:40:45Z</time></trkpt><trkpt lat="43.88748662498927" lon="12.58948073180273"><ele>132.0</ele><time>2026-04-26T08:40:46Z</time></trkpt><trkpt lat="43.88743520096164" lon="12.589546429990335"><ele>131.66666666666666</ele><time>2026-04-26T08:40:47Z</time></trkpt><trkpt lat="43.887384361051815" lon="12.589623448084424"><ele>131.33333333333331</ele><time>2026-04-26T08:40:48Z</time></trkpt><trkpt lat="43.8873369314019" lon="12.589707473348195"><ele>131.0</ele><time>2026-04-26T08:40:49Z</time></trkpt><trkpt lat="43.88726167635977" lon="12.589835823471178"><ele>130.8</ele><time>2026-04-26T08:40:51Z</time></trkpt><trkpt lat="43.88721089924289" lon="12.58990726185224"><ele>130.6</ele><time>2026-04-26T08:40:53Z</time></trkpt><trkpt lat="43.88708303624971" lon="12.589887880822115"><ele>130.4</ele><time>2026-04-26T08:40:55Z</time></trkpt><trkpt lat="43.88697094348059" lon="12.589854358331026"><ele>130.2</ele><time>2026-04-26T08:40:56Z</time></trkpt><trkpt lat="43.88688023672131" lon="12.589821304109982"><ele>130.0</ele><time>2026-04-26T08:40:57Z</time></trkpt><trkpt lat="43.88681331528348" lon="12.589817775871959"><ele>129.6</ele><time>2026-04-26T08:40:58Z</time></trkpt><trkpt lat="43.88667455855091" lon="12.589791835649768"><ele>129.2</ele><time>2026-04-26T08:41:00Z</time></trkpt><trkpt lat="43.88659562031223" lon="12.589745850568454"><ele>128.8</ele><time>2026-04-26T08:41:01Z</time></trkpt><trkpt lat="43.88652805809748" lon="12.589712048966424"><ele>128.4</ele><time>2026-04-26T08:41:02Z</time></trkpt><trkpt lat="43.886400146809216" lon="12.589669643629033"><ele>128.0</ele><time>2026-04-26T08:41:04Z</time></trkpt><trkpt lat="43.88630491426767" lon="12.589652123329362"><ele>128.0</ele><time>2026-04-26T08:41:05Z</time></trkpt><trkpt lat="43.88619208955742" lon="12.589625732787061"><ele>128.0</ele><time>2026-04-26T08:41:06Z</time></trkpt><trkpt lat="43.886087501278254" lon="12.589598321915934"><ele>128.0</ele><time>2026-04-26T08:41:07Z</time></trkpt><trkpt lat="43.88599536184551" lon="12.589585222043274"><ele>128.0</ele><time>2026-04-26T08:41:08Z</time></trkpt><trkpt lat="43.88590322433477" lon="12.589555043511668"><ele>128.0</ele><time>2026-04-26T08:41:10Z</time></trkpt><trkpt lat="43.88584285345745" lon="12.589491438530844"><ele>127.80000000000001</ele><time>2026-04-26T08:41:34Z</time></trkpt><trkpt lat="43.885791698441835" lon="12.589414034684141"><ele>127.60000000000001</ele><time>2026-04-26T08:41:37Z</time></trkpt><trkpt lat="43.88578832516016" lon="12.589325352511263"><ele>127.39999999999999</ele><time>2026-04-26T08:41:38Z</time></trkpt><trkpt lat="43.88574204581163" lon="12.58916080760648"><ele>127.19999999999999</ele><time>2026-04-26T08:41:40Z</time></trkpt><trkpt lat="43.88569965531887" lon="12.589016678705061"><ele>127.0</ele><time>2026-04-26T08:41:41Z</time></trkpt><trkpt lat="43.885637588850145" lon="12.588865775507585"><ele>127.00000000000001</ele><time>2026-04-26T08:41:42Z</time></trkpt><trkpt lat="43.88559048630837" lon="12.588764625362993"><ele>127.0</ele><time>2026-04-26T08:41:43Z</time></trkpt><trkpt lat="43.885563895181406" lon="12.588627278328543"><ele>127.0</ele><time>2026-04-26T08:41:45Z</time></trkpt><trkpt lat="43.88560938375251" lon="12.588493922504991"><ele>127.0</ele><time>2026-04-26T08:41:47Z</time></trkpt><trkpt lat="43.8856458046179" lon="12.58840339958504"><ele>127.00000000000001</ele><time>2026-04-26T08:41:48Z</time></trkpt><trkpt lat="43.88569019175655" lon="12.588332769960887"><ele>127.0</ele><time>2026-04-26T08:41:49Z</time></trkpt><trkpt lat="43.88572900843212" lon="12.588255220687047"><ele>128.6</ele><time>2026-04-26T08:41:50Z</time></trkpt><trkpt lat="43.88580421629155" lon="12.588086078675612"><ele>130.2</ele><time>2026-04-26T08:41:52Z</time></trkpt><trkpt lat="43.88585852720571" lon="12.588012487368124"><ele>131.8</ele><time>2026-04-26T08:41:53Z</time></trkpt><trkpt lat="43.8859101824749" lon="12.587948590637826"><ele>133.4</ele><time>2026-04-26T08:41:54Z</time></trkpt><trkpt lat="43.88597012390159" lon="12.58788724599518"><ele>135.0</ele><time>2026-04-26T08:41:55Z</time></trkpt><trkpt lat="43.88606823755777" lon="12.587780460044451"><ele>138.33333333333334</ele><time>2026-04-26T08:41:57Z</time></trkpt><trkpt lat="43.8860998250792" lon="12.587697485422074"><ele>141.66666666666666</ele><time>2026-04-26T08:41:58Z</time></trkpt><trkpt lat="43.88612970107015" lon="12.587604958941593"><ele>145.0</ele><time>2026-04-26T08:41:59Z</time></trkpt><trkpt lat="43.88614523836837" lon="12.587506332313348"><ele>148.33333333333331</ele><time>2026-04-26T08:42:00Z</time></trkpt><trkpt lat="43.88615840628801" lon="12.587400342083113"><ele>151.66666666666666</ele><time>2026-04-26T08:42:01Z</time></trkpt><trkpt lat="43.886167672909124" lon="12.587297880803764"><ele>155.0</ele><time>2026-04-26T08:42:02Z</time></trkpt><trkpt lat="43.88619738688339" lon="12.587147200058364"><ele>155.0</ele><time>2026-04-26T08:42:04Z</time></trkpt><trkpt lat="43.886234319999595" lon="12.587075453777176"><ele>155.0</ele><time>2026-04-26T08:42:05Z</time></trkpt><trkpt lat="43.88628827006344" lon="12.586974261728004"><ele>155.0</ele><time>2026-04-26T08:42:06Z</time></trkpt><trkpt lat="43.88634760205405" lon="12.586862784614958"><ele>155.0</ele><time>2026-04-26T08:42:07Z</time></trkpt><trkpt lat="43.886406595156195" lon="12.586770646125947"><ele>155.0</ele><time>2026-04-26T08:42:08Z</time></trkpt><trkpt lat="43.88645471802121" lon="12.586703758827651"><ele>155.0</ele><time>2026-04-26T08:42:09Z</time></trkpt><trkpt lat="43.886510204504575" lon="12.586555860907248"><ele>157.33333333333331</ele><time>2026-04-26T08:42:11Z</time></trkpt><trkpt lat="43.88653595027309" lon="12.586443173641854"><ele>159.66666666666666</ele><time>2026-04-26T08:42:12Z</time></trkpt><trkpt lat="43.88655816732439" lon="12.586342019574131"><ele>162.0</ele><time>2026-04-26T08:42:13Z</time></trkpt><trkpt lat="43.886579429771736" lon="12.586227764859348"><ele>164.33333333333334</ele><time>2026-04-26T08:42:14Z</time></trkpt><trkpt lat="43.88662635446442" lon="12.586095832198842"><ele>166.66666666666669</ele><time>2026-04-26T08:42:15Z</time></trkpt><trkpt lat="43.8866753729523" lon="12.585990625007248"><ele>169.0</ele><time>2026-04-26T08:42:16Z</time></trkpt><trkpt lat="43.88672139700773" lon="12.585883900296784"><ele>172.5</ele><time>2026-04-26T08:42:17Z</time></trkpt><trkpt lat="43.88678653677754" lon="12.585774996023241"><ele>176.0</ele><time>2026-04-26T08:42:18Z</time></trkpt><trkpt lat="43.88687760421246" lon="12.585641516885813"><ele>179.5</ele><time>2026-04-26T08:42:19Z</time></trkpt><trkpt lat="43.88699435856278" lon="12.585478738152174"><ele>183.0</ele><time>2026-04-26T08:42:20Z</time></trkpt><trkpt lat="43.887085251863255" lon="12.585363464925264"><ele>186.0</ele><time>2026-04-26T08:42:21Z</time></trkpt><trkpt lat="43.887143410220496" lon="12.58527861142024"><ele>189.0</ele><time>2026-04-26T08:42:22Z</time></trkpt><trkpt lat="43.88719442742757" lon="12.585191751489205"><ele>192.0</ele><time>2026-04-26T08:42:23Z</time></trkpt><trkpt lat="43.887229206135466" lon="12.585103292486021"><ele>195.0</ele><time>2026-04-26T08:42:24Z</time></trkpt><trkpt lat="43.887273370888025" lon="12.58497919489804"><ele>198.0</ele><time>2026-04-26T08:42:25Z</time></trkpt><trkpt lat="43.88732048892103" lon="12.584842189263409"><ele>201.0</ele><time>2026-04-26T08:42:26Z</time></trkpt><trkpt lat="43.887375106050946" lon="12.584708936644423"><ele>201.0</ele><time>2026-04-26T08:42:27Z</time></trkpt><trkpt lat="43.88742014368164" lon="12.584578668171408"><ele>201.0</ele><time>2026-04-26T08:42:28Z</time></trkpt><trkpt lat="43.887477014022856" lon="12.584479307587301"><ele>201.0</ele><time>2026-04-26T08:42:29Z</time></trkpt><trkpt lat="43.88756733255553" lon="12.584412268874239"><ele>201.0</ele><time>2026-04-26T08:42:30Z</time></trkpt><trkpt lat="43.887654861250205" lon="12.584379592768466"><ele>201.0</ele><time>2026-04-26T08:42:31Z</time></trkpt><trkpt lat="43.887737070944375" lon="12.58437106716202"><ele>203.8</ele><time>2026-04-26T08:42:32Z</time></trkpt><trkpt lat="43.887826868302895" lon="12.584367217510772"><ele>206.60000000000002</ele><time>2026-04-26T08:42:33Z</time></trkpt><trkpt lat="43.887912122057834" lon="12.584357441282089"><ele>209.4</ele><time>2026-04-26T08:42:34Z</time></trkpt><trkpt lat="43.888014153358604" lon="12.584298128307752"><ele>212.2</ele><time>2026-04-26T08:42:35Z</time></trkpt><trkpt lat="43.88810942707181" lon="12.584230018372937"><ele>215.0</ele><time>2026-04-26T08:42:36Z</time></trkpt><trkpt lat="43.88820955438234" lon="12.584137248835233"><ele>215.0</ele><time>2026-04-26T08:42:37Z</time></trkpt><trkpt lat="43.88829774094816" lon="12.584032447376908"><ele>215.0</ele><time>2026-04-26T08:42:38Z</time></trkpt><trkpt lat="43.888368656111304" lon="12.583923358808267"><ele>215.0</ele><time>2026-04-26T08:42:39Z</time></trkpt><trkpt lat="43.888435592957336" lon="12.583815086392732"><ele>215.0</ele><time>2026-04-26T08:42:40Z</time></trkpt><trkpt lat="43.88848154661182" lon="12.583722789539154"><ele>215.0</ele><time>2026-04-26T08:42:41Z</time></trkpt><trkpt lat="43.88852559205253" lon="12.583615598318957"><ele>218.4</ele><time>2026-04-26T08:42:42Z</time></trkpt><trkpt lat="43.88858742100569" lon="12.583476665314695"><ele>221.8</ele><time>2026-04-26T08:42:43Z</time></trkpt><trkpt lat="43.88864885370589" lon="12.583340548737084"><ele>225.2</ele><time>2026-04-26T08:42:44Z</time></trkpt><trkpt lat="43.88870187225583" lon="12.583212427581666"><ele>228.6</ele><time>2026-04-26T08:42:45Z</time></trkpt><trkpt lat="43.88873012221324" lon="12.58310747852472"><ele>232.0</ele><time>2026-04-26T08:42:46Z</time></trkpt><trkpt lat="43.888774226454245" lon="12.582984726615894"><ele>231.99999999999997</ele><time>2026-04-26T08:42:47Z</time></trkpt><trkpt lat="43.88881490356815" lon="12.582880475072505"><ele>232.0</ele><time>2026-04-26T08:42:48Z</time></trkpt><trkpt lat="43.888900441208726" lon="12.582783962466554"><ele>232.0</ele><time>2026-04-26T08:42:50Z</time></trkpt><trkpt lat="43.88896230017634" lon="12.582760374270327"><ele>232.0</ele><time>2026-04-26T08:42:51Z</time></trkpt><trkpt lat="43.889040863004766" lon="12.582753391166985"><ele>231.99999999999997</ele><time>2026-04-26T08:42:52Z</time></trkpt><trkpt lat="43.889127660870244" lon="12.582774749844036"><ele>232.0</ele><time>2026-04-26T08:42:53Z</time></trkpt><trkpt lat="43.889221919179" lon="12.582813097479324"><ele>231.0</ele><time>2026-04-26T08:42:54Z</time></trkpt><trkpt lat="43.88933181392213" lon="12.582847133659572"><ele>230.0</ele><time>2026-04-26T08:42:55Z</time></trkpt><trkpt lat="43.88943365938232" lon="12.582868514188482"><ele>229.0</ele><time>2026-04-26T08:42:56Z</time></trkpt><trkpt lat="43.88955725601834" lon="12.58289030468378"><ele>228.0</ele><time>2026-04-26T08:42:57Z</time></trkpt><trkpt lat="43.889708218821575" lon="12.582893150633808"><ele>228.0</ele><time>2026-04-26T08:42:58Z</time></trkpt><trkpt lat="43.8898427173505" lon="12.582927170650137"><ele>228.0</ele><time>2026-04-26T08:42:59Z</time></trkpt><trkpt lat="43.88995946399584" lon="12.582949016430767"><ele>228.0</ele><time>2026-04-26T08:43:00Z</time></trkpt><trkpt lat="43.89005963053655" lon="12.582958198073529"><ele>228.0</ele><time>2026-04-26T08:43:01Z</time></trkpt><trkpt lat="43.89015687674921" lon="12.582941272919738"><ele>227.0</ele><time>2026-04-26T08:43:02Z</time></trkpt><trkpt lat="43.890281627945505" lon="12.582889965052892"><ele>226.0</ele><time>2026-04-26T08:43:03Z</time></trkpt><trkpt lat="43.89042773826065" lon="12.582854126389613"><ele>225.0</ele><time>2026-04-26T08:43:04Z</time></trkpt><trkpt lat="43.89058452375765" lon="12.582824313643853"><ele>224.0</ele><time>2026-04-26T08:43:05Z</time></trkpt><trkpt lat="43.89071557646374" lon="12.58278140944958"><ele>223.6</ele><time>2026-04-26T08:43:06Z</time></trkpt><trkpt lat="43.89082943766615" lon="12.582721987361023"><ele>223.2</ele><time>2026-04-26T08:43:07Z</time></trkpt><trkpt lat="43.89092734036711" lon="12.582663179452949"><ele>222.79999999999998</ele><time>2026-04-26T08:43:08Z</time></trkpt><trkpt lat="43.89101087718762" lon="12.582616815142844"><ele>222.39999999999998</ele><time>2026-04-26T08:43:09Z</time></trkpt><trkpt lat="43.89109702368204" lon="12.582565503765844"><ele>222.0</ele><time>2026-04-26T08:43:10Z</time></trkpt><trkpt lat="43.89124257995693" lon="12.582701374854379"><ele>224.39999999999998</ele><time>2026-04-26T08:43:11Z</time></trkpt><trkpt lat="43.891302021020586" lon="12.582638621874198"><ele>226.79999999999998</ele><time>2026-04-26T08:43:12Z</time></trkpt><trkpt lat="43.89137970767369" lon="12.582602995313449"><ele>229.2</ele><time>2026-04-26T08:43:13Z</time></trkpt><trkpt lat="43.89147554104014" lon="12.58257642616244"><ele>231.6</ele><time>2026-04-26T08:43:14Z</time></trkpt><trkpt lat="43.89157673780614" lon="12.582542294887205"><ele>234.0</ele><time>2026-04-26T08:43:15Z</time></trkpt><trkpt lat="43.8917056294369" lon="12.582490709249829"><ele>238.79999999999998</ele><time>2026-04-26T08:43:16Z</time></trkpt><trkpt lat="43.891831443301506" lon="12.582456815224266"><ele>243.59999999999997</ele><time>2026-04-26T08:43:17Z</time></trkpt><trkpt lat="43.89195229761025" lon="12.58242741587776"><ele>248.4</ele><time>2026-04-26T08:43:18Z</time></trkpt><trkpt lat="43.892050276190744" lon="12.582345357120746"><ele>253.2</ele><time>2026-04-26T08:43:19Z</time></trkpt><trkpt lat="43.89210494527971" lon="12.58229894255545"><ele>258.0</ele><time>2026-04-26T08:43:20Z</time></trkpt><trkpt lat="43.89218262976418" lon="12.582242541979001"><ele>258.0</ele><time>2026-04-26T08:43:21Z</time></trkpt><trkpt lat="43.89225633182582" lon="12.582093871070109"><ele>258.0</ele><time>2026-04-26T08:43:22Z</time></trkpt><trkpt lat="43.89232896745457" lon="12.581945805291888"><ele>258.0</ele><time>2026-04-26T08:43:23Z</time></trkpt><trkpt lat="43.89238645991502" lon="12.581789699405693"><ele>258.0</ele><time>2026-04-26T08:43:24Z</time></trkpt><trkpt lat="43.89245718629094" lon="12.58167302599555"><ele>260.0</ele><time>2026-04-26T08:43:25Z</time></trkpt><trkpt lat="43.89255453455097" lon="12.58158175966384"><ele>262.0</ele><time>2026-04-26T08:43:26Z</time></trkpt><trkpt lat="43.89264865973013" lon="12.581499697024718"><ele>264.0</ele><time>2026-04-26T08:43:27Z</time></trkpt><trkpt lat="43.89274168277976" lon="12.5814384446573"><ele>266.0</ele><time>2026-04-26T08:43:28Z</time></trkpt><trkpt lat="43.892846043336306" lon="12.581367417811544"><ele>268.0</ele><time>2026-04-26T08:43:29Z</time></trkpt><trkpt lat="43.892951638234166" lon="12.58129123520509"><ele>268.0</ele><time>2026-04-26T08:43:30Z</time></trkpt><trkpt lat="43.89304473531729" lon="12.581214999154074"><ele>268.0</ele><time>2026-04-26T08:43:31Z</time></trkpt><trkpt lat="43.89311706302887" lon="12.581141352483389"><ele>268.0</ele><time>2026-04-26T08:43:32Z</time></trkpt><trkpt lat="43.89319412799992" lon="12.581046491151483"><ele>268.0</ele><time>2026-04-26T08:43:33Z</time></trkpt><trkpt lat="43.89331187482697" lon="12.58097199891847"><ele>268.0</ele><time>2026-04-26T08:43:34Z</time></trkpt><trkpt lat="43.89341065788044" lon="12.580915079900679"><ele>270.2</ele><time>2026-04-26T08:43:35Z</time></trkpt><trkpt lat="43.893509253348576" lon="12.580880884506279"><ele>272.4</ele><time>2026-04-26T08:43:36Z</time></trkpt><trkpt lat="43.89359756078593" lon="12.580869061661144"><ele>274.59999999999997</ele><time>2026-04-26T08:43:37Z</time></trkpt><trkpt lat="43.893685181065884" lon="12.58083946928925"><ele>276.8</ele><time>2026-04-26T08:43:38Z</time></trkpt><trkpt lat="43.893784342713786" lon="12.580794537002436"><ele>279.0</ele><time>2026-04-26T08:43:39Z</time></trkpt><trkpt lat="43.89389352113743" lon="12.580743322802798"><ele>279.0</ele><time>2026-04-26T08:43:40Z</time></trkpt><trkpt lat="43.89400150242668" lon="12.580688666539249"><ele>279.0</ele><time>2026-04-26T08:43:41Z</time></trkpt><trkpt lat="43.89407228037642" lon="12.580645682157202"><ele>279.0</ele><time>2026-04-26T08:43:42Z</time></trkpt><trkpt lat="43.894125250759814" lon="12.580585206554561"><ele>279.0</ele><time>2026-04-26T08:43:43Z</time></trkpt><trkpt lat="43.894174451708295" lon="12.580414671995388"><ele>279.0</ele><time>2026-04-26T08:43:45Z</time></trkpt><trkpt lat="43.894217363648515" lon="12.580312639279278"><ele>277.75</ele><time>2026-04-26T08:43:46Z</time></trkpt><trkpt lat="43.89427176650845" lon="12.580214630508866"><ele>276.5</ele><time>2026-04-26T08:43:47Z</time></trkpt><trkpt lat="43.89434760939977" lon="12.580112208068714"><ele>275.25</ele><time>2026-04-26T08:43:48Z</time></trkpt><trkpt lat="43.89444620565683" lon="12.57999219770517"><ele>274.0</ele><time>2026-04-26T08:43:49Z</time></trkpt><trkpt lat="43.89453868133265" lon="12.579867260042564"><ele>274.0</ele><time>2026-04-26T08:43:50Z</time></trkpt><trkpt lat="43.894593748230385" lon="12.579794041683586"><ele>274.0</ele><time>2026-04-26T08:43:51Z</time></trkpt><trkpt lat="43.89464383537893" lon="12.579736433704829"><ele>274.0</ele><time>2026-04-26T08:43:52Z</time></trkpt><trkpt lat="43.894723669467986" lon="12.579683227705551"><ele>274.0</ele><time>2026-04-26T08:44:04Z</time></trkpt><trkpt lat="43.894814990558565" lon="12.579609924925542"><ele>274.0</ele><time>2026-04-26T08:44:06Z</time></trkpt><trkpt lat="43.894834625480534" lon="12.579498482525374"><ele>274.0</ele><time>2026-04-26T08:44:07Z</time></trkpt><trkpt lat="43.894875926772876" lon="12.579397351784742"><ele>275.0</ele><time>2026-04-26T08:44:08Z</time></trkpt><trkpt lat="43.89492798860029" lon="12.57927457612686"><ele>276.0</ele><time>2026-04-26T08:44:09Z</time></trkpt><trkpt lat="43.89498574766183" lon="12.579153645719261"><ele>277.0</ele><time>2026-04-26T08:44:10Z</time></trkpt><trkpt lat="43.89505614560543" lon="12.5790169425314"><ele>278.0</ele><time>2026-04-26T08:44:11Z</time></trkpt><trkpt lat="43.89513608243972" lon="12.578872055795769"><ele>278.0</ele><time>2026-04-26T08:44:12Z</time></trkpt><trkpt lat="43.89523216631623" lon="12.578759820869639"><ele>278.0</ele><time>2026-04-26T08:44:13Z</time></trkpt><trkpt lat="43.895325266755854" lon="12.578639582290164"><ele>278.0</ele><time>2026-04-26T08:44:14Z</time></trkpt><trkpt lat="43.895415777671566" lon="12.578544119101357"><ele>278.0</ele><time>2026-04-26T08:44:15Z</time></trkpt><trkpt lat="43.89550962834008" lon="12.578450787449068"><ele>281.0</ele><time>2026-04-26T08:44:16Z</time></trkpt><trkpt lat="43.89560975778984" lon="12.5783426433704"><ele>284.0</ele><time>2026-04-26T08:44:17Z</time></trkpt><trkpt lat="43.8957015597738" lon="12.578256072155005"><ele>287.0</ele><time>2026-04-26T08:44:18Z</time></trkpt><trkpt lat="43.89579894196712" lon="12.57818368186723"><ele>290.0</ele><time>2026-04-26T08:44:19Z</time></trkpt><trkpt lat="43.89591080149191" lon="12.578096122309429"><ele>292.4</ele><time>2026-04-26T08:44:20Z</time></trkpt><trkpt lat="43.89599558003142" lon="12.578017622734762"><ele>294.8</ele><time>2026-04-26T08:44:21Z</time></trkpt><trkpt lat="43.89608205210696" lon="12.57794255468177"><ele>297.2</ele><time>2026-04-26T08:44:22Z</time></trkpt><trkpt lat="43.89616859787718" lon="12.577863313526619"><ele>299.6</ele><time>2026-04-26T08:44:23Z</time></trkpt><trkpt lat="43.89623069035469" lon="12.57780064730554"><ele>302.0</ele><time>2026-04-26T08:44:24Z</time></trkpt><trkpt lat="43.89632178938244" lon="12.577718362949852"><ele>303.1666666666667</ele><time>2026-04-26T08:44:26Z</time></trkpt><trkpt lat="43.89639207085126" lon="12.577698702209767"><ele>304.33333333333337</ele><time>2026-04-26T08:44:28Z</time></trkpt><trkpt lat="43.89647227976521" lon="12.577683077921664"><ele>305.5</ele><time>2026-04-26T08:44:31Z</time></trkpt><trkpt lat="43.896523866381145" lon="12.57762609665913"><ele>306.6666666666667</ele><time>2026-04-26T08:44:33Z</time></trkpt><trkpt lat="43.89655861874789" lon="12.577541968694895"><ele>307.8333333333333</ele><time>2026-04-26T08:44:37Z</time></trkpt><trkpt lat="43.89660392645139" lon="12.577432287775533"><ele>309.0</ele><time>2026-04-26T08:44:39Z</time></trkpt><trkpt lat="43.896659453478605" lon="12.577297867927957"><ele>309.0</ele><time>2026-04-26T08:44:41Z</time></trkpt><trkpt lat="43.89651235158983" lon="12.577079569504978"><ele>309.0</ele><time>2026-04-26T08:44:42Z</time></trkpt><trkpt lat="43.896542446482755" lon="12.576914191778503"><ele>309.0</ele><time>2026-04-26T08:44:44Z</time></trkpt><trkpt lat="43.89656960572132" lon="12.576814007405224"><ele>309.0</ele><time>2026-04-26T08:44:45Z</time></trkpt><trkpt lat="43.89662336911662" lon="12.576754291943548"><ele>309.3333333333333</ele><time>2026-04-26T08:44:46Z</time></trkpt><trkpt lat="43.89669511744157" lon="12.5767265698402"><ele>309.6666666666667</ele><time>2026-04-26T08:44:47Z</time></trkpt><trkpt lat="43.8967962071807" lon="12.576645353503984"><ele>310.0</ele><time>2026-04-26T08:44:49Z</time></trkpt><trkpt lat="43.89681780122493" lon="12.576557882359117"><ele>310.33333333333337</ele><time>2026-04-26T08:44:50Z</time></trkpt><trkpt lat="43.89685930349355" lon="12.576436144239704"><ele>310.6666666666667</ele><time>2026-04-26T08:44:51Z</time></trkpt><trkpt lat="43.89689814310443" lon="12.576342885585454"><ele>311.0</ele><time>2026-04-26T08:44:52Z</time></trkpt><trkpt lat="43.896940256356366" lon="12.576273076956932"><ele>311.0</ele><time>2026-04-26T08:44:53Z</time></trkpt><trkpt lat="43.897008656540415" lon="12.576181945634163"><ele>311.0</ele><time>2026-04-26T08:44:55Z</time></trkpt><trkpt lat="43.897093384392434" lon="12.576191554180525"><ele>311.0</ele><time>2026-04-26T08:44:57Z</time></trkpt><trkpt lat="43.897151738043846" lon="12.57612912512474"><ele>311.0</ele><time>2026-04-26T08:45:01Z</time></trkpt><trkpt lat="43.89712126751535" lon="12.576048889568476"><ele>311.0</ele><time>2026-04-26T08:45:07Z</time></trkpt><trkpt lat="43.89715522191495" lon="12.575955649899052"><ele>311.0</ele><time>2026-04-26T08:45:10Z</time></trkpt><trkpt lat="43.89718720500611" lon="12.575788175062987"><ele>307.0</ele><time>2026-04-26T08:45:12Z</time></trkpt><trkpt lat="43.897196449509366" lon="12.575684893794426"><ele>303.0</ele><time>2026-04-26T08:45:13Z</time></trkpt><trkpt lat="43.89720447855812" lon="12.575592279463585"><ele>299.0</ele><time>2026-04-26T08:45:14Z</time></trkpt><trkpt lat="43.89723802306089" lon="12.575479851942895"><ele>295.0</ele><time>2026-04-26T08:45:16Z</time></trkpt><trkpt lat="43.89725879567686" lon="12.575371357308475"><ele>291.0</ele><time>2026-04-26T08:45:19Z</time></trkpt><trkpt lat="43.89727060561382" lon="12.575260200168609"><ele>287.0</ele><time>2026-04-26T08:45:21Z</time></trkpt><trkpt lat="43.8972641662017" lon="12.575167754678546"><ele>286.0</ele><time>2026-04-26T08:45:23Z</time></trkpt><trkpt lat="43.897228056231064" lon="12.575079747372286"><ele>285.0</ele><time>2026-04-26T08:45:25Z</time></trkpt><trkpt lat="43.89717110209688" lon="12.57501888930991"><ele>284.0</ele><time>2026-04-26T08:45:26Z</time></trkpt><trkpt lat="43.89710823540257" lon="12.574963267194674"><ele>283.0</ele><time>2026-04-26T08:45:27Z</time></trkpt><trkpt lat="43.89702440304043" lon="12.574924501077254"><ele>282.0</ele><time>2026-04-26T08:45:28Z</time></trkpt><trkpt lat="43.8969349232288" lon="12.57486461484811"><ele>281.0</ele><time>2026-04-26T08:45:29Z</time></trkpt><trkpt lat="43.89685276366901" lon="12.574820053044485"><ele>281.0</ele><time>2026-04-26T08:45:30Z</time></trkpt><trkpt lat="43.89677126484524" lon="12.574795047943176"><ele>281.0</ele><time>2026-04-26T08:45:31Z</time></trkpt><trkpt lat="43.89670430295296" lon="12.574818043641388"><ele>281.0</ele><time>2026-04-26T08:45:32Z</time></trkpt><trkpt lat="43.89663649935869" lon="12.57482240786485"><ele>281.0</ele><time>2026-04-26T08:45:33Z</time></trkpt><trkpt lat="43.89655720599142" lon="12.574846336956776"><ele>281.0</ele><time>2026-04-26T08:45:34Z</time></trkpt><trkpt lat="43.89647004813417" lon="12.574876818926263"><ele>281.0</ele><time>2026-04-26T08:45:35Z</time></trkpt><trkpt lat="43.896391212633915" lon="12.57489444242229"><ele>279.5</ele><time>2026-04-26T08:45:36Z</time></trkpt><trkpt lat="43.896308768313716" lon="12.574886624486094"><ele>278.0</ele><time>2026-04-26T08:45:37Z</time></trkpt><trkpt lat="43.89622959367741" lon="12.574875129345026"><ele>276.5</ele><time>2026-04-26T08:45:38Z</time></trkpt><trkpt lat="43.896136386754605" lon="12.574874020711116"><ele>275.0</ele><time>2026-04-26T08:45:39Z</time></trkpt><trkpt lat="43.89604833846521" lon="12.57486584725202"><ele>273.5</ele><time>2026-04-26T08:45:40Z</time></trkpt><trkpt lat="43.89597095203185" lon="12.574839456989618"><ele>272.0</ele><time>2026-04-26T08:45:41Z</time></trkpt><trkpt lat="43.895901891430064" lon="12.574829835283712"><ele>271.0</ele><time>2026-04-26T08:45:42Z</time></trkpt><trkpt lat="43.89580206348483" lon="12.574796703287797"><ele>270.0</ele><time>2026-04-26T08:45:44Z</time></trkpt><trkpt lat="43.89573741151936" lon="12.574769476818547"><ele>269.0</ele><time>2026-04-26T08:45:45Z</time></trkpt><trkpt lat="43.89565961478289" lon="12.5747460002708"><ele>268.0</ele><time>2026-04-26T08:45:46Z</time></trkpt><trkpt lat="43.89556268431388" lon="12.574695850466567"><ele>267.0</ele><time>2026-04-26T08:45:47Z</time></trkpt><trkpt lat="43.89547817187719" lon="12.574650481270954"><ele>266.0</ele><time>2026-04-26T08:45:48Z</time></trkpt><trkpt lat="43.89539978667823" lon="12.574604961784807"><ele>266.0</ele><time>2026-04-26T08:45:49Z</time></trkpt><trkpt lat="43.895326739158016" lon="12.574574452588092"><ele>266.0</ele><time>2026-04-26T08:45:50Z</time></trkpt><trkpt lat="43.89525809144845" lon="12.57455162705638"><ele>266.0</ele><time>2026-04-26T08:45:51Z</time></trkpt><trkpt lat="43.89515115683659" lon="12.574473478352374"><ele>266.0</ele><time>2026-04-26T08:45:53Z</time></trkpt><trkpt lat="43.89509712772777" lon="12.57441102553178"><ele>266.0</ele><time>2026-04-26T08:45:54Z</time></trkpt><trkpt lat="43.89502842284418" lon="12.57433263247037"><ele>266.0</ele><time>2026-04-26T08:45:55Z</time></trkpt><trkpt lat="43.89495376271528" lon="12.574239905752956"><ele>266.2</ele><time>2026-04-26T08:45:56Z</time></trkpt><trkpt lat="43.89489745465106" lon="12.57413234104743"><ele>266.40000000000003</ele><time>2026-04-26T08:45:57Z</time></trkpt><trkpt lat="43.894849177535846" lon="12.574018605657134"><ele>266.6</ele><time>2026-04-26T08:45:58Z</time></trkpt><trkpt lat="43.894815335035574" lon="12.573911586480564"><ele>266.8</ele><time>2026-04-26T08:45:59Z</time></trkpt><trkpt lat="43.89479094106756" lon="12.57379370186284"><ele>267.0</ele><time>2026-04-26T08:46:00Z</time></trkpt><trkpt lat="43.89476571159917" lon="12.573640157279721"><ele>268.8333333333333</ele><time>2026-04-26T08:46:01Z</time></trkpt><trkpt lat="43.894751906951136" lon="12.573516332078686"><ele>270.6666666666667</ele><time>2026-04-26T08:46:02Z</time></trkpt><trkpt lat="43.89474810530003" lon="12.573375504624181"><ele>272.5</ele><time>2026-04-26T08:46:03Z</time></trkpt><trkpt lat="43.894750066861484" lon="12.573254415686272"><ele>274.33333333333337</ele><time>2026-04-26T08:46:04Z</time></trkpt><trkpt lat="43.89474128949913" lon="12.573155404050347"><ele>276.1666666666667</ele><time>2026-04-26T08:46:05Z</time></trkpt><trkpt lat="43.89473442885646" lon="12.57304053514461"><ele>278.0</ele><time>2026-04-26T08:46:06Z</time></trkpt><trkpt lat="43.8947270164607" lon="12.572921027865355"><ele>276.8</ele><time>2026-04-26T08:46:07Z</time></trkpt><trkpt lat="43.89470402737414" lon="12.572790012669465"><ele>275.6</ele><time>2026-04-26T08:46:09Z</time></trkpt><trkpt lat="43.89459910328765" lon="12.572752337124014"><ele>274.4</ele><time>2026-04-26T08:46:11Z</time></trkpt><trkpt lat="43.894504890745196" lon="12.572714202390067"><ele>273.2</ele><time>2026-04-26T08:46:12Z</time></trkpt><trkpt lat="43.89442738480911" lon="12.572667527493739"><ele>272.0</ele><time>2026-04-26T08:46:13Z</time></trkpt><trkpt lat="43.89436008443813" lon="12.57258128038829"><ele>272.0</ele><time>2026-04-26T08:46:14Z</time></trkpt><trkpt lat="43.89429280224957" lon="12.572508239924062"><ele>272.0</ele><time>2026-04-26T08:46:15Z</time></trkpt><trkpt lat="43.894216662475024" lon="12.572445810024185"><ele>272.0</ele><time>2026-04-26T08:46:16Z</time></trkpt><trkpt lat="43.89411191358879" lon="12.572350440762458"><ele>272.0</ele><time>2026-04-26T08:46:17Z</time></trkpt><trkpt lat="43.8940048120138" lon="12.57228184698141"><ele>272.0</ele><time>2026-04-26T08:46:18Z</time></trkpt><trkpt lat="43.89391439676972" lon="12.572232263382338"><ele>271.6</ele><time>2026-04-26T08:46:19Z</time></trkpt><trkpt lat="43.893831330292194" lon="12.57219682509278"><ele>271.2</ele><time>2026-04-26T08:46:20Z</time></trkpt><trkpt lat="43.89376714938894" lon="12.57217684996436"><ele>270.8</ele><time>2026-04-26T08:46:21Z</time></trkpt><trkpt lat="43.893634981683356" lon="12.57212140577841"><ele>270.4</ele><time>2026-04-26T08:46:23Z</time></trkpt><trkpt lat="43.89353891128569" lon="12.57209332165969"><ele>270.0</ele><time>2026-04-26T08:46:24Z</time></trkpt><trkpt lat="43.8934480561118" lon="12.572072312556976"><ele>268.6666666666667</ele><time>2026-04-26T08:46:25Z</time></trkpt><trkpt lat="43.89336346179743" lon="12.572068988938963"><ele>267.3333333333333</ele><time>2026-04-26T08:46:26Z</time></trkpt><trkpt lat="43.89328387737124" lon="12.572063523245205"><ele>266.0</ele><time>2026-04-26T08:46:27Z</time></trkpt><trkpt lat="43.8932083182743" lon="12.572057824162354"><ele>264.66666666666663</ele><time>2026-04-26T08:46:28Z</time></trkpt><trkpt lat="43.89313617727803" lon="12.572057779573317"><ele>263.3333333333333</ele><time>2026-04-26T08:46:29Z</time></trkpt><trkpt lat="43.893009880156264" lon="12.572079127519736"><ele>262.0</ele><time>2026-04-26T08:46:31Z</time></trkpt><trkpt lat="43.89292842207998" lon="12.572114421276522"><ele>262.0</ele><time>2026-04-26T08:46:32Z</time></trkpt><trkpt lat="43.89284345513552" lon="12.572171504508686"><ele>262.0</ele><time>2026-04-26T08:46:33Z</time></trkpt><trkpt lat="43.892747356712185" lon="12.572250915322774"><ele>262.0</ele><time>2026-04-26T08:46:34Z</time></trkpt><trkpt lat="43.89262458849205" lon="12.572343881069218"><ele>262.0</ele><time>2026-04-26T08:46:35Z</time></trkpt><trkpt lat="43.89248428166011" lon="12.57247165484615"><ele>258.5</ele><time>2026-04-26T08:46:36Z</time></trkpt><trkpt lat="43.89236867670163" lon="12.572574472295432"><ele>255.0</ele><time>2026-04-26T08:46:37Z</time></trkpt><trkpt lat="43.89226572639816" lon="12.57268022031183"><ele>251.5</ele><time>2026-04-26T08:46:38Z</time></trkpt><trkpt lat="43.89217142662431" lon="12.572775711445907"><ele>248.0</ele><time>2026-04-26T08:46:39Z</time></trkpt><trkpt lat="43.89208975498485" lon="12.572867649661795"><ele>247.5</ele><time>2026-04-26T08:46:40Z</time></trkpt><trkpt lat="43.89199864837478" lon="12.572968472627652"><ele>247.0</ele><time>2026-04-26T08:46:41Z</time></trkpt><trkpt lat="43.89189512121894" lon="12.573074839964665"><ele>246.5</ele><time>2026-04-26T08:46:42Z</time></trkpt><trkpt lat="43.89179531538326" lon="12.573152771654264"><ele>246.0</ele><time>2026-04-26T08:46:43Z</time></trkpt><trkpt lat="43.89169471033606" lon="12.573234861282979"><ele>246.0</ele><time>2026-04-26T08:46:44Z</time></trkpt><trkpt lat="43.89159126934878" lon="12.573309513067757"><ele>246.0</ele><time>2026-04-26T08:46:45Z</time></trkpt><trkpt lat="43.89149692604351" lon="12.573372439692978"><ele>246.0</ele><time>2026-04-26T08:46:46Z</time></trkpt><trkpt lat="43.89139736510605" lon="12.5734153698625"><ele>246.0</ele><time>2026-04-26T08:46:47Z</time></trkpt><trkpt lat="43.891277525389484" lon="12.573459681011176"><ele>246.0</ele><time>2026-04-26T08:46:48Z</time></trkpt><trkpt lat="43.89114341571587" lon="12.573489235377279"><ele>246.0</ele><time>2026-04-26T08:46:49Z</time></trkpt><trkpt lat="43.89099149020707" lon="12.573524696578813"><ele>246.0</ele><time>2026-04-26T08:46:50Z</time></trkpt><trkpt lat="43.890861856057406" lon="12.573563872875066"><ele>246.0</ele><time>2026-04-26T08:46:51Z</time></trkpt><trkpt lat="43.89075179696246" lon="12.573607199407425"><ele>246.20000000000002</ele><time>2026-04-26T08:46:52Z</time></trkpt><trkpt lat="43.890678556619385" lon="12.573615270024577"><ele>246.40000000000003</ele><time>2026-04-26T08:46:53Z</time></trkpt><trkpt lat="43.890588591951236" lon="12.573603890481444"><ele>246.6</ele><time>2026-04-26T08:46:54Z</time></trkpt><trkpt lat="43.89046393687569" lon="12.573594650025573"><ele>246.8</ele><time>2026-04-26T08:46:55Z</time></trkpt><trkpt lat="43.89033518002999" lon="12.573573901681485"><ele>247.0</ele><time>2026-04-26T08:46:56Z</time></trkpt><trkpt lat="43.890189278424" lon="12.573546784314633"><ele>248.0</ele><time>2026-04-26T08:46:57Z</time></trkpt><trkpt lat="43.89003191674265" lon="12.573523082283034"><ele>249.0</ele><time>2026-04-26T08:46:58Z</time></trkpt><trkpt lat="43.88989218417272" lon="12.573506833453335"><ele>250.0</ele><time>2026-04-26T08:46:59Z</time></trkpt><trkpt lat="43.88974384231456" lon="12.573508200179733"><ele>251.0</ele><time>2026-04-26T08:47:00Z</time></trkpt><trkpt lat="43.88961467294031" lon="12.573536797325385"><ele>251.0</ele><time>2026-04-26T08:47:01Z</time></trkpt><trkpt lat="43.889475898754235" lon="12.573588504427754"><ele>251.00000000000003</ele><time>2026-04-26T08:47:02Z</time></trkpt><trkpt lat="43.88936568831819" lon="12.573629665479102"><ele>251.00000000000003</ele><time>2026-04-26T08:47:03Z</time></trkpt><trkpt lat="43.88927879370935" lon="12.57366100758977"><ele>251.0</ele><time>2026-04-26T08:47:04Z</time></trkpt><trkpt lat="43.88921168951461" lon="12.573655367775809"><ele>251.0</ele><time>2026-04-26T08:47:05Z</time></trkpt><trkpt lat="43.889141669280185" lon="12.573654406025192"><ele>250.0</ele><time>2026-04-26T08:47:06Z</time></trkpt><trkpt lat="43.88906018812733" lon="12.573644119207664"><ele>249.00000000000003</ele><time>2026-04-26T08:47:07Z</time></trkpt><trkpt lat="43.8889724327798" lon="12.573617718620223"><ele>248.00000000000003</ele><time>2026-04-26T08:47:08Z</time></trkpt><trkpt lat="43.8888747486566" lon="12.573596546538807"><ele>247.0</ele><time>2026-04-26T08:47:09Z</time></trkpt><trkpt lat="43.88877505431127" lon="12.57357390839834"><ele>246.0</ele><time>2026-04-26T08:47:10Z</time></trkpt><trkpt lat="43.888675208042606" lon="12.573549718445822"><ele>246.0</ele><time>2026-04-26T08:47:11Z</time></trkpt><trkpt lat="43.88857422711918" lon="12.5735329610666"><ele>246.0</ele><time>2026-04-26T08:47:12Z</time></trkpt><trkpt lat="43.888483162658225" lon="12.573505879015364"><ele>246.0</ele><time>2026-04-26T08:47:13Z</time></trkpt><trkpt lat="43.888403802514866" lon="12.57346890742993"><ele>246.0</ele><time>2026-04-26T08:47:14Z</time></trkpt><trkpt lat="43.88832768115891" lon="12.573429178336637"><ele>246.0</ele><time>2026-04-26T08:47:15Z</time></trkpt><trkpt lat="43.88825891904223" lon="12.573378984166483"><ele>246.0</ele><time>2026-04-26T08:47:16Z</time></trkpt><trkpt lat="43.888191365695114" lon="12.573319262110662"><ele>243.83333333333334</ele><time>2026-04-26T08:47:17Z</time></trkpt><trkpt lat="43.88812486894838" lon="12.573268632050858"><ele>241.66666666666669</ele><time>2026-04-26T08:47:18Z</time></trkpt><trkpt lat="43.88805562780516" lon="12.57321655423772"><ele>239.5</ele><time>2026-04-26T08:47:19Z</time></trkpt><trkpt lat="43.88799300782488" lon="12.573172942142357"><ele>237.33333333333334</ele><time>2026-04-26T08:47:20Z</time></trkpt><trkpt lat="43.8879083754655" lon="12.573096761617748"><ele>235.16666666666669</ele><time>2026-04-26T08:47:22Z</time></trkpt><trkpt lat="43.88791789045424" lon="12.572956347163286"><ele>233.0</ele><time>2026-04-26T08:47:24Z</time></trkpt><trkpt lat="43.88793814203909" lon="12.572866202080434"><ele>230.33333333333334</ele><time>2026-04-26T08:47:25Z</time></trkpt><trkpt lat="43.887976481322724" lon="12.572775353047772"><ele>227.66666666666669</ele><time>2026-04-26T08:47:26Z</time></trkpt><trkpt lat="43.888028889006065" lon="12.572685083583947"><ele>225.0</ele><time>2026-04-26T08:47:27Z</time></trkpt><trkpt lat="43.88807571395427" lon="12.572563620279784"><ele>222.33333333333331</ele><time>2026-04-26T08:47:29Z</time></trkpt><trkpt lat="43.888000150331976" lon="12.572487154508254"><ele>219.66666666666666</ele><time>2026-04-26T08:47:31Z</time></trkpt><trkpt lat="43.887924887546035" lon="12.572476532016218"><ele>217.0</ele><time>2026-04-26T08:47:32Z</time></trkpt><trkpt lat="43.8878327611964" lon="12.57247657506374"><ele>217.0</ele><time>2026-04-26T08:47:33Z</time></trkpt><trkpt lat="43.88773631812668" lon="12.57249418650939"><ele>217.0</ele><time>2026-04-26T08:47:34Z</time></trkpt><trkpt lat="43.8876310623912" lon="12.572528700822538"><ele>217.0</ele><time>2026-04-26T08:47:35Z</time></trkpt><trkpt lat="43.887535050183146" lon="12.572570119031969"><ele>217.0</ele><time>2026-04-26T08:47:36Z</time></trkpt><trkpt lat="43.88743661251888" lon="12.572599498899722"><ele>217.0</ele><time>2026-04-26T08:47:37Z</time></trkpt><trkpt lat="43.88734374695791" lon="12.572627213645294"><ele>215.8</ele><time>2026-04-26T08:47:38Z</time></trkpt><trkpt lat="43.88725873633614" lon="12.572663993651332"><ele>214.6</ele><time>2026-04-26T08:47:39Z</time></trkpt><trkpt lat="43.88716545259986" lon="12.572692477363725"><ele>213.4</ele><time>2026-04-26T08:47:40Z</time></trkpt><trkpt lat="43.88707331561685" lon="12.572719692105297"><ele>212.20000000000002</ele><time>2026-04-26T08:47:41Z</time></trkpt><trkpt lat="43.886985388044444" lon="12.572751683055559"><ele>211.0</ele><time>2026-04-26T08:47:42Z</time></trkpt><trkpt lat="43.88689883859304" lon="12.572778089046576"><ele>210.99999999999997</ele><time>2026-04-26T08:47:43Z</time></trkpt><trkpt lat="43.886821898732826" lon="12.572807289430495"><ele>211.0</ele><time>2026-04-26T08:47:44Z</time></trkpt><trkpt lat="43.88675726152514" lon="12.572811953733673"><ele>211.0</ele><time>2026-04-26T08:47:45Z</time></trkpt><trkpt lat="43.88667324138424" lon="12.572768511423346"><ele>211.0</ele><time>2026-04-26T08:47:47Z</time></trkpt><trkpt lat="43.886590930246385" lon="12.572652415456265"><ele>210.99999999999997</ele><time>2026-04-26T08:47:49Z</time></trkpt><trkpt lat="43.88656489428037" lon="12.572543341110963"><ele>211.0</ele><time>2026-04-26T08:47:50Z</time></trkpt><trkpt lat="43.886555333998885" lon="12.572423976822295"><ele>206.60000000000002</ele><time>2026-04-26T08:47:51Z</time></trkpt><trkpt lat="43.88658108488696" lon="12.572310984408077"><ele>202.2</ele><time>2026-04-26T08:47:52Z</time></trkpt><trkpt lat="43.88654163543259" lon="12.572187234842344"><ele>197.8</ele><time>2026-04-26T08:47:54Z</time></trkpt><trkpt lat="43.88641021091694" lon="12.572151993049294"><ele>193.39999999999998</ele><time>2026-04-26T08:47:56Z</time></trkpt><trkpt lat="43.88634486836084" lon="12.572145399732198"><ele>189.0</ele><time>2026-04-26T08:47:57Z</time></trkpt><trkpt lat="43.88626845242549" lon="12.572152118963817"><ele>189.0</ele><time>2026-04-26T08:47:58Z</time></trkpt><trkpt lat="43.886195375230194" lon="12.572161609352255"><ele>189.0</ele><time>2026-04-26T08:47:59Z</time></trkpt><trkpt lat="43.886123012703955" lon="12.572165343391124"><ele>189.0</ele><time>2026-04-26T08:48:00Z</time></trkpt><trkpt lat="43.88604034048582" lon="12.572167410741454"><ele>189.0</ele><time>2026-04-26T08:48:01Z</time></trkpt><trkpt lat="43.885948037468374" lon="12.572175366083613"><ele>189.0</ele><time>2026-04-26T08:48:02Z</time></trkpt><trkpt lat="43.88585435782787" lon="12.572184906540432"><ele>189.0</ele><time>2026-04-26T08:48:03Z</time></trkpt><trkpt lat="43.885755003155396" lon="12.572155787671562"><ele>184.6</ele><time>2026-04-26T08:48:04Z</time></trkpt><trkpt lat="43.88563857249235" lon="12.57210948088352"><ele>180.2</ele><time>2026-04-26T08:48:05Z</time></trkpt><trkpt lat="43.88553955690809" lon="12.572061347698348"><ele>175.79999999999998</ele><time>2026-04-26T08:48:06Z</time></trkpt><trkpt lat="43.88544981577997" lon="12.572007309099435"><ele>171.39999999999998</ele><time>2026-04-26T08:48:07Z</time></trkpt><trkpt lat="43.88538167965897" lon="12.571954775732618"><ele>167.0</ele><time>2026-04-26T08:48:08Z</time></trkpt><trkpt lat="43.88531429133802" lon="12.571886815763516"><ele>166.39999999999998</ele><time>2026-04-26T08:48:09Z</time></trkpt><trkpt lat="43.88524611006183" lon="12.571808336549005"><ele>165.79999999999998</ele><time>2026-04-26T08:48:10Z</time></trkpt><trkpt lat="43.8851726585429" lon="12.571724238625695"><ele>165.2</ele><time>2026-04-26T08:48:11Z</time></trkpt><trkpt lat="43.88509106030592" lon="12.57162955685601"><ele>164.6</ele><time>2026-04-26T08:48:12Z</time></trkpt><trkpt lat="43.884999466853685" lon="12.571522388141306"><ele>164.0</ele><time>2026-04-26T08:48:13Z</time></trkpt><trkpt lat="43.88488646250735" lon="12.571388401543"><ele>161.2</ele><time>2026-04-26T08:48:14Z</time></trkpt><trkpt lat="43.88477329456495" lon="12.571253802644756"><ele>158.39999999999998</ele><time>2026-04-26T08:48:15Z</time></trkpt><trkpt lat="43.88468323831003" lon="12.571144197882568"><ele>155.6</ele><time>2026-04-26T08:48:16Z</time></trkpt><trkpt lat="43.88461249444379" lon="12.571056381060888"><ele>152.8</ele><time>2026-04-26T08:48:17Z</time></trkpt><trkpt lat="43.88456524144742" lon="12.570994942879576"><ele>150.0</ele><time>2026-04-26T08:48:18Z</time></trkpt><trkpt lat="43.88450316936138" lon="12.570905543095991"><ele>150.0</ele><time>2026-04-26T08:48:27Z</time></trkpt><trkpt lat="43.88445172820034" lon="12.570851739642663"><ele>150.0</ele><time>2026-04-26T08:48:28Z</time></trkpt><trkpt lat="43.8844005156525" lon="12.570786734784248"><ele>150.0</ele><time>2026-04-26T08:48:29Z</time></trkpt><trkpt lat="43.88434047639303" lon="12.570645568761522"><ele>150.0</ele><time>2026-04-26T08:48:31Z</time></trkpt><trkpt lat="43.88430052643059" lon="12.570500228325736"><ele>150.0</ele><time>2026-04-26T08:48:33Z</time></trkpt><trkpt lat="43.88431976886884" lon="12.570400563546245"><ele>150.0</ele><time>2026-04-26T08:48:35Z</time></trkpt><trkpt lat="43.88432665017645" lon="12.570295852037399"><ele>151.14285714285714</ele><time>2026-04-26T08:48:37Z</time></trkpt><trkpt lat="43.88438829728435" lon="12.570322906229391"><ele>152.28571428571428</ele><time>2026-04-26T08:48:38Z</time></trkpt><trkpt lat="43.884470689197926" lon="12.570320411803616"><ele>153.42857142857144</ele><time>2026-04-26T08:48:39Z</time></trkpt><trkpt lat="43.88454152076957" lon="12.570302093278107"><ele>154.57142857142856</ele><time>2026-04-26T08:48:40Z</time></trkpt><trkpt lat="43.88460652240098" lon="12.570278109505296"><ele>155.71428571428572</ele><time>2026-04-26T08:48:41Z</time></trkpt><trkpt lat="43.88468168843732" lon="12.570220334564965"><ele>156.85714285714286</ele><time>2026-04-26T08:48:43Z</time></trkpt><trkpt lat="43.88473613072991" lon="12.570173427971826"><ele>158.0</ele><time>2026-04-26T08:48:44Z</time></trkpt><trkpt lat="43.884758098508684" lon="12.570091164453357"><ele>158.0</ele><time>2026-04-26T08:48:45Z</time></trkpt><trkpt lat="43.88479088978969" lon="12.569998346529628"><ele>158.0</ele><time>2026-04-26T08:48:48Z</time></trkpt><trkpt lat="43.884828883211945" lon="12.569894701158281"><ele>158.0</ele><time>2026-04-26T08:48:56Z</time></trkpt><trkpt lat="43.884867781774155" lon="12.569753416631256"><ele>158.0</ele><time>2026-04-26T08:48:57Z</time></trkpt><trkpt lat="43.88490097036469" lon="12.569621978753059"><ele>158.0</ele><time>2026-04-26T08:48:58Z</time></trkpt><trkpt lat="43.88493837150943" lon="12.569490213348297"><ele>158.8</ele><time>2026-04-26T08:48:59Z</time></trkpt><trkpt lat="43.88497590607614" lon="12.569373452291417"><ele>159.60000000000002</ele><time>2026-04-26T08:49:00Z</time></trkpt><trkpt lat="43.88503887823449" lon="12.569252050036578"><ele>160.39999999999998</ele><time>2026-04-26T08:49:01Z</time></trkpt><trkpt lat="43.8850921388882" lon="12.569135104522251"><ele>161.2</ele><time>2026-04-26T08:49:02Z</time></trkpt><trkpt lat="43.885150354316536" lon="12.569025640406936"><ele>162.0</ele><time>2026-04-26T08:49:03Z</time></trkpt><trkpt lat="43.885208603567825" lon="12.568918012028504"><ele>162.0</ele><time>2026-04-26T08:49:04Z</time></trkpt><trkpt lat="43.885264786534904" lon="12.568801827044727"><ele>162.0</ele><time>2026-04-26T08:49:05Z</time></trkpt><trkpt lat="43.88530906249253" lon="12.568651156900772"><ele>162.0</ele><time>2026-04-26T08:49:06Z</time></trkpt><trkpt lat="43.88538409137475" lon="12.56850193834015"><ele>162.0</ele><time>2026-04-26T08:49:07Z</time></trkpt><trkpt lat="43.88545124853885" lon="12.568353616448885"><ele>166.0</ele><time>2026-04-26T08:49:08Z</time></trkpt><trkpt lat="43.8855182299805" lon="12.568222437328764"><ele>170.0</ele><time>2026-04-26T08:49:09Z</time></trkpt><trkpt lat="43.88559799583258" lon="12.568112141006942"><ele>174.0</ele><time>2026-04-26T08:49:10Z</time></trkpt><trkpt lat="43.88566609754171" lon="12.568001052893658"><ele>178.0</ele><time>2026-04-26T08:49:11Z</time></trkpt><trkpt lat="43.8857328493898" lon="12.567887077232939"><ele>182.0</ele><time>2026-04-26T08:49:12Z</time></trkpt><trkpt lat="43.885791502304876" lon="12.567773922223049"><ele>184.66666666666666</ele><time>2026-04-26T08:49:13Z</time></trkpt><trkpt lat="43.8858233814746" lon="12.567650022646726"><ele>187.33333333333331</ele><time>2026-04-26T08:49:14Z</time></trkpt><trkpt lat="43.8858594975273" lon="12.567550567742167"><ele>190.0</ele><time>2026-04-26T08:49:15Z</time></trkpt><trkpt lat="43.885884293628045" lon="12.567453691580834"><ele>192.66666666666666</ele><time>2026-04-26T08:49:16Z</time></trkpt><trkpt lat="43.885896566156006" lon="12.56735663232924"><ele>195.33333333333334</ele><time>2026-04-26T08:49:17Z</time></trkpt><trkpt lat="43.885853769425125" lon="12.567221763573176"><ele>198.0</ele><time>2026-04-26T08:49:19Z</time></trkpt><trkpt lat="43.88583283390419" lon="12.567127656656405"><ele>198.83333333333334</ele><time>2026-04-26T08:49:20Z</time></trkpt><trkpt lat="43.885813780203016" lon="12.567020551651318"><ele>199.66666666666669</ele><time>2026-04-26T08:49:21Z</time></trkpt><trkpt lat="43.88579737805309" lon="12.566899414296842"><ele>200.5</ele><time>2026-04-26T08:49:22Z</time></trkpt><trkpt lat="43.885797313969285" lon="12.566795534471865"><ele>201.33333333333334</ele><time>2026-04-26T08:49:23Z</time></trkpt><trkpt lat="43.885812412080654" lon="12.56667767731826"><ele>202.16666666666669</ele><time>2026-04-26T08:49:24Z</time></trkpt><trkpt lat="43.88582259472641" lon="12.566575114824918"><ele>203.0</ele><time>2026-04-26T08:49:25Z</time></trkpt><trkpt lat="43.885833018308254" lon="12.566423356667789"><ele>203.0</ele><time>2026-04-26T08:49:27Z</time></trkpt><trkpt lat="43.885851976576305" lon="12.566335389255503"><ele>203.0</ele><time>2026-04-26T08:49:29Z</time></trkpt><trkpt lat="43.885715130902994" lon="12.566252387773071"><ele>203.0</ele><time>2026-04-26T08:49:31Z</time></trkpt><trkpt lat="43.885630331793244" lon="12.566189227425768"><ele>203.0</ele><time>2026-04-26T08:49:32Z</time></trkpt><trkpt lat="43.88555248874612" lon="12.566117406571673"><ele>203.0</ele><time>2026-04-26T08:49:33Z</time></trkpt><trkpt lat="43.88547801702819" lon="12.56600814493214"><ele>204.0</ele><time>2026-04-26T08:49:34Z</time></trkpt><trkpt lat="43.88539644107263" lon="12.565916599491057"><ele>205.0</ele><time>2026-04-26T08:49:35Z</time></trkpt><trkpt lat="43.885319289331" lon="12.565823728802577"><ele>206.0</ele><time>2026-04-26T08:49:36Z</time></trkpt><trkpt lat="43.88524542334267" lon="12.565727113996537"><ele>207.0</ele><time>2026-04-26T08:49:37Z</time></trkpt><trkpt lat="43.885172597883745" lon="12.565625724674039"><ele>208.0</ele><time>2026-04-26T08:49:38Z</time></trkpt><trkpt lat="43.885097320987555" lon="12.565520922404303"><ele>205.2</ele><time>2026-04-26T08:49:39Z</time></trkpt><trkpt lat="43.885024258908466" lon="12.565419203653725"><ele>202.4</ele><time>2026-04-26T08:49:40Z</time></trkpt><trkpt lat="43.884947978230265" lon="12.565324832720844"><ele>199.6</ele><time>2026-04-26T08:49:41Z</time></trkpt><trkpt lat="43.88486850308266" lon="12.565228058268382"><ele>196.79999999999998</ele><time>2026-04-26T08:49:42Z</time></trkpt><trkpt lat="43.884792374646175" lon="12.565131779520142"><ele>194.0</ele><time>2026-04-26T08:49:43Z</time></trkpt><trkpt lat="43.884724029398924" lon="12.56503020022718"><ele>194.00000000000003</ele><time>2026-04-26T08:49:44Z</time></trkpt><trkpt lat="43.88465290715345" lon="12.5649425580887"><ele>194.0</ele><time>2026-04-26T08:49:45Z</time></trkpt><trkpt lat="43.88459366345175" lon="12.564868196932164"><ele>194.0</ele><time>2026-04-26T08:49:46Z</time></trkpt><trkpt lat="43.88453746766433" lon="12.564797376463119"><ele>194.0</ele><time>2026-04-26T08:49:47Z</time></trkpt><trkpt lat="43.88449814634568" lon="12.564713625103527"><ele>194.00000000000003</ele><time>2026-04-26T08:49:48Z</time></trkpt><trkpt lat="43.88443916600084" lon="12.564634745406394"><ele>194.0</ele><time>2026-04-26T08:49:50Z</time></trkpt><trkpt lat="43.88430023691415" lon="12.564747312942085"><ele>191.6</ele><time>2026-04-26T08:49:52Z</time></trkpt><trkpt lat="43.88419950965172" lon="12.564812508753855"><ele>189.2</ele><time>2026-04-26T08:49:53Z</time></trkpt><trkpt lat="43.88409195517463" lon="12.564859086719093"><ele>186.79999999999998</ele><time>2026-04-26T08:49:54Z</time></trkpt><trkpt lat="43.8840049963892" lon="12.564898726767273"><ele>184.39999999999998</ele><time>2026-04-26T08:49:55Z</time></trkpt><trkpt lat="43.88390310531873" lon="12.564941086611878"><ele>182.0</ele><time>2026-04-26T08:49:56Z</time></trkpt><trkpt lat="43.88381115897466" lon="12.564999629475924"><ele>182.0</ele><time>2026-04-26T08:49:57Z</time></trkpt><trkpt lat="43.88372595595968" lon="12.565031588323441"><ele>182.0</ele><time>2026-04-26T08:49:58Z</time></trkpt><trkpt lat="43.8836434839593" lon="12.565063775309165"><ele>182.0</ele><time>2026-04-26T08:49:59Z</time></trkpt><trkpt lat="43.88356811502655" lon="12.565095477797586"><ele>182.0</ele><time>2026-04-26T08:50:00Z</time></trkpt><trkpt lat="43.88349856564758" lon="12.565122086326662"><ele>182.0</ele><time>2026-04-26T08:50:01Z</time></trkpt><trkpt lat="43.88343039118067" lon="12.565147797650546"><ele>182.0</ele><time>2026-04-26T08:50:02Z</time></trkpt><trkpt lat="43.88336153265596" lon="12.56517295382181"><ele>179.83333333333331</ele><time>2026-04-26T08:50:03Z</time></trkpt><trkpt lat="43.883287842443345" lon="12.565206162698244"><ele>177.66666666666666</ele><time>2026-04-26T08:50:04Z</time></trkpt><trkpt lat="43.8832047896819" lon="12.565246628191442"><ele>175.5</ele><time>2026-04-26T08:50:05Z</time></trkpt><trkpt lat="43.883117275501576" lon="12.565292195777156"><ele>173.33333333333334</ele><time>2026-04-26T08:50:06Z</time></trkpt><trkpt lat="43.8830305410256" lon="12.565339300654545"><ele>171.16666666666669</ele><time>2026-04-26T08:50:07Z</time></trkpt><trkpt lat="43.882947033371465" lon="12.565379361500918"><ele>169.0</ele><time>2026-04-26T08:50:08Z</time></trkpt><trkpt lat="43.88287567287021" lon="12.565427646000357"><ele>168.0</ele><time>2026-04-26T08:50:09Z</time></trkpt><trkpt lat="43.88277099333598" lon="12.565484862313138"><ele>167.0</ele><time>2026-04-26T08:50:11Z</time></trkpt><trkpt lat="43.88268290725471" lon="12.56558694244933"><ele>166.0</ele><time>2026-04-26T08:50:13Z</time></trkpt><trkpt lat="43.88261407457068" lon="12.565677069464753"><ele>165.0</ele><time>2026-04-26T08:50:15Z</time></trkpt><trkpt lat="43.882560246060564" lon="12.565739100661649"><ele>164.0</ele><time>2026-04-26T08:51:24Z</time></trkpt><trkpt lat="43.882475941231235" lon="12.56574072425129"><ele>163.0</ele><time>2026-04-26T08:52:06Z</time></trkpt><trkpt lat="43.882383549847205" lon="12.565715973240701"><ele>162.0</ele><time>2026-04-26T08:52:34Z</time></trkpt><trkpt lat="43.88232034381746" lon="12.565681317962476"><ele>161.0</ele><time>2026-04-26T08:52:37Z</time></trkpt><trkpt lat="43.882270082089065" lon="12.565616519785749"><ele>160.0</ele><time>2026-04-26T08:55:24Z</time></trkpt><trkpt lat="43.88218829001813" lon="12.56555412832289"><ele>159.0</ele><time>2026-04-26T08:55:44Z</time></trkpt><trkpt lat="43.88210596042978" lon="12.565554571960291"><ele>158.0</ele><time>2026-04-26T08:55:46Z</time></trkpt><trkpt lat="43.88203819547147" lon="12.565571243175164"><ele>158.0</ele><time>2026-04-26T08:55:49Z</time></trkpt><trkpt lat="43.881997182660214" lon="12.565445225395695"><ele>158.0</ele><time>2026-04-26T08:55:52Z</time></trkpt><trkpt lat="43.882011879797865" lon="12.565355912747194"><ele>158.0</ele><time>2026-04-26T08:55:53Z</time></trkpt><trkpt lat="43.882032000358144" lon="12.56520793347085"><ele>158.0</ele><time>2026-04-26T08:55:55Z</time></trkpt><trkpt lat="43.88204534704646" lon="12.565118325165205"><ele>158.0</ele><time>2026-04-26T08:55:56Z</time></trkpt><trkpt lat="43.8820516652443" lon="12.56500036076597"><ele>158.0</ele><time>2026-04-26T08:55:58Z</time></trkpt><trkpt lat="43.88207263466224" lon="12.564917024146492"><ele>158.5</ele><time>2026-04-26T08:56:03Z</time></trkpt><trkpt lat="43.882075143145116" lon="12.564807507346849"><ele>159.0</ele><time>2026-04-26T08:56:07Z</time></trkpt><trkpt lat="43.8820880584808" lon="12.564671540518175"><ele>159.5</ele><time>2026-04-26T08:56:09Z</time></trkpt><trkpt lat="43.88206874268749" lon="12.564585544347112"><ele>160.0</ele><time>2026-04-26T08:56:10Z</time></trkpt><trkpt lat="43.882045981238" lon="12.564475836285425"><ele>160.5</ele><time>2026-04-26T08:56:34Z</time></trkpt><trkpt lat="43.8820705767138" lon="12.564571198864574"><ele>161.0</ele><time>2026-04-26T08:56:40Z</time></trkpt><trkpt lat="43.882079206966544" lon="12.564663488050174"><ele>161.0</ele><time>2026-04-26T08:56:45Z</time></trkpt><trkpt lat="43.882090595943616" lon="12.564793263239531"><ele>161.0</ele><time>2026-04-26T08:56:52Z</time></trkpt><trkpt lat="43.88208376845807" lon="12.564924479163505"><ele>161.0</ele><time>2026-04-26T08:56:54Z</time></trkpt><trkpt lat="43.882055014158425" lon="12.565097122659143"><ele>161.0</ele><time>2026-04-26T08:56:56Z</time></trkpt><trkpt lat="43.88205015633446" lon="12.56524168110192"><ele>161.0</ele><time>2026-04-26T08:56:58Z</time></trkpt><trkpt lat="43.88203761014186" lon="12.565365808410402"><ele>160.5</ele><time>2026-04-26T08:57:00Z</time></trkpt><trkpt lat="43.88200855764143" lon="12.565450850392258"><ele>160.0</ele><time>2026-04-26T08:57:02Z</time></trkpt><trkpt lat="43.88200712006111" lon="12.565543389409378"><ele>159.5</ele><time>2026-04-26T08:57:05Z</time></trkpt><trkpt lat="43.881955814527466" lon="12.565627741277803"><ele>159.0</ele><time>2026-04-26T08:57:08Z</time></trkpt><trkpt lat="43.88190003247718" lon="12.565702840826077"><ele>158.5</ele><time>2026-04-26T08:57:11Z</time></trkpt><trkpt lat="43.8818589936246" lon="12.565773096829474"><ele>158.0</ele><time>2026-04-26T08:57:16Z</time></trkpt><trkpt lat="43.881878447244326" lon="12.565911598629553"><ele>158.0</ele><time>2026-04-26T08:57:18Z</time></trkpt><trkpt lat="43.8818111490765" lon="12.566009290982972"><ele>158.0</ele><time>2026-04-26T08:57:20Z</time></trkpt><trkpt lat="43.881754235484266" lon="12.566117610757557"><ele>158.0</ele><time>2026-04-26T08:57:22Z</time></trkpt><trkpt lat="43.881711677983155" lon="12.566242833253014"><ele>158.0</ele><time>2026-04-26T08:57:25Z</time></trkpt><trkpt lat="43.88161547255633" lon="12.56623700547542"><ele>158.0</ele><time>2026-04-26T08:57:26Z</time></trkpt><trkpt lat="43.88157101728146" lon="12.566328112539395"><ele>160.0</ele><time>2026-04-26T08:57:28Z</time></trkpt><trkpt lat="43.88150550801836" lon="12.566416351220907"><ele>162.0</ele><time>2026-04-26T08:57:31Z</time></trkpt><trkpt lat="43.88144472435847" lon="12.566450654105981"><ele>164.0</ele><time>2026-04-26T09:05:47Z</time></trkpt><trkpt lat="43.881391603412396" lon="12.56653216997422"><ele>166.0</ele><time>2026-04-26T09:06:08Z</time></trkpt><trkpt lat="43.88134604692312" lon="12.5666035637461"><ele>168.0</ele><time>2026-04-26T09:06:11Z</time></trkpt><trkpt lat="43.88128692407284" lon="12.566666093450198"><ele>170.0</ele><time>2026-04-26T09:06:13Z</time></trkpt><trkpt lat="43.881226262579126" lon="12.566719447715116"><ele>170.0</ele><time>2026-04-26T09:06:16Z</time></trkpt></trkseg></trk></gpx>